<?xml version="1.0" encoding="UTF-8" standalone="no" ?>
<gpx xmlns="http://www.topografix.com/GPX/1/1" xmlns:xsi="http://www.w3.org/2001/XMLSchema-instance" xsi:schemaLocation="http://www.topografix.com/GPX/1/1 http://www.topografix.com/GPX/1/1/gpx.xsd" version="1.1" creator="VisuGPX - https://www.visugpx.com">
  <metadata>
    <name>La Haute Route du Sel</name>
    <desc><![CDATA[Un superbe parcours à faire l'été car elle suit les cretes.]]></desc>
  </metadata>
  <trk>
    <name><![CDATA[IT - La Haute Route du Sel]]></name>
    <trkseg>
      <trkpt lat="44.15208" lon="7.573">
        <ele>1875</ele>
        <time>2021-11-14T22:03:31.000Z</time>
      </trkpt>
      <trkpt lat="44.15245" lon="7.57355">
        <ele>1875</ele>
        <time>2021-11-14T22:03:31.009Z</time>
      </trkpt>
      <trkpt lat="44.15292" lon="7.57402">
        <ele>1876</ele>
        <time>2021-11-14T22:03:31.027Z</time>
      </trkpt>
      <trkpt lat="44.15332" lon="7.57454">
        <ele>1877</ele>
        <time>2021-11-14T22:03:31.054Z</time>
      </trkpt>
      <trkpt lat="44.15342" lon="7.57474">
        <ele>1878</ele>
        <time>2021-11-14T22:03:31.084Z</time>
      </trkpt>
      <trkpt lat="44.15381" lon="7.57587">
        <ele>1878</ele>
        <time>2021-11-14T22:03:31.128Z</time>
      </trkpt>
      <trkpt lat="44.15371" lon="7.57642">
        <ele>1878</ele>
        <time>2021-11-14T22:03:31.178Z</time>
      </trkpt>
      <trkpt lat="44.15349" lon="7.57663">
        <ele>1879</ele>
        <time>2021-11-14T22:03:31.233Z</time>
      </trkpt>
      <trkpt lat="44.15338" lon="7.57687">
        <ele>1880</ele>
        <time>2021-11-14T22:03:31.291Z</time>
      </trkpt>
      <trkpt lat="44.15293" lon="7.57734">
        <ele>1882</ele>
        <time>2021-11-14T22:03:31.358Z</time>
      </trkpt>
      <trkpt lat="44.15258" lon="7.57795">
        <ele>1883</ele>
        <time>2021-11-14T22:03:31.434Z</time>
      </trkpt>
      <trkpt lat="44.15246" lon="7.57836">
        <ele>1884</ele>
        <time>2021-11-14T22:03:31.515Z</time>
      </trkpt>
      <trkpt lat="44.15236" lon="7.5789">
        <ele>1885</ele>
        <time>2021-11-14T22:03:31.603Z</time>
      </trkpt>
      <trkpt lat="44.15236" lon="7.57907">
        <ele>1886</ele>
        <time>2021-11-14T22:03:31.693Z</time>
      </trkpt>
      <trkpt lat="44.15247" lon="7.58027">
        <ele>1887</ele>
        <time>2021-11-14T22:03:31.796Z</time>
      </trkpt>
      <trkpt lat="44.15262" lon="7.58071">
        <ele>1888</ele>
        <time>2021-11-14T22:03:31.905Z</time>
      </trkpt>
      <trkpt lat="44.15305" lon="7.58149">
        <ele>1889</ele>
        <time>2021-11-14T22:03:32.025Z</time>
      </trkpt>
      <trkpt lat="44.15317" lon="7.58197">
        <ele>1890</ele>
        <time>2021-11-14T22:03:32.151Z</time>
      </trkpt>
      <trkpt lat="44.15338" lon="7.58246">
        <ele>1891</ele>
        <time>2021-11-14T22:03:32.284Z</time>
      </trkpt>
      <trkpt lat="44.15339" lon="7.58261">
        <ele>1892</ele>
        <time>2021-11-14T22:03:32.419Z</time>
      </trkpt>
      <trkpt lat="44.15314" lon="7.58314">
        <ele>1894</ele>
        <time>2021-11-14T22:03:32.561Z</time>
      </trkpt>
      <trkpt lat="44.153" lon="7.58373">
        <ele>1895</ele>
        <time>2021-11-14T22:03:32.710Z</time>
      </trkpt>
      <trkpt lat="44.15302" lon="7.58395">
        <ele>1896</ele>
        <time>2021-11-14T22:03:32.862Z</time>
      </trkpt>
      <trkpt lat="44.15294" lon="7.58463">
        <ele>1898</ele>
        <time>2021-11-14T22:03:33.021Z</time>
      </trkpt>
      <trkpt lat="44.15315" lon="7.58532">
        <ele>1899</ele>
        <time>2021-11-14T22:03:33.189Z</time>
      </trkpt>
      <trkpt lat="44.15335" lon="7.58615">
        <ele>1900</ele>
        <time>2021-11-14T22:03:33.367Z</time>
      </trkpt>
      <trkpt lat="44.15353" lon="7.5867">
        <ele>1902</ele>
        <time>2021-11-14T22:03:33.552Z</time>
      </trkpt>
      <trkpt lat="44.15362" lon="7.58726">
        <ele>1903</ele>
        <time>2021-11-14T22:03:33.744Z</time>
      </trkpt>
      <trkpt lat="44.15376" lon="7.58763">
        <ele>1904</ele>
        <time>2021-11-14T22:03:33.941Z</time>
      </trkpt>
      <trkpt lat="44.15384" lon="7.58827">
        <ele>1905</ele>
        <time>2021-11-14T22:03:34.145Z</time>
      </trkpt>
      <trkpt lat="44.15399" lon="7.58856">
        <ele>1906</ele>
        <time>2021-11-14T22:03:34.353Z</time>
      </trkpt>
      <trkpt lat="44.15403" lon="7.58874">
        <ele>1907</ele>
        <time>2021-11-14T22:03:34.563Z</time>
      </trkpt>
      <trkpt lat="44.15402" lon="7.58908">
        <ele>1908</ele>
        <time>2021-11-14T22:03:34.777Z</time>
      </trkpt>
      <trkpt lat="44.15419" lon="7.58983">
        <ele>1908</ele>
        <time>2021-11-14T22:03:35.000Z</time>
      </trkpt>
      <trkpt lat="44.15416" lon="7.59012">
        <ele>1909</ele>
        <time>2021-11-14T22:03:35.227Z</time>
      </trkpt>
      <trkpt lat="44.15428" lon="7.59038">
        <ele>1909</ele>
        <time>2021-11-14T22:03:35.457Z</time>
      </trkpt>
      <trkpt lat="44.15427" lon="7.59073">
        <ele>1910</ele>
        <time>2021-11-14T22:03:35.691Z</time>
      </trkpt>
      <trkpt lat="44.15435" lon="7.59086">
        <ele>1910</ele>
        <time>2021-11-14T22:03:35.927Z</time>
      </trkpt>
      <trkpt lat="44.15478" lon="7.59127">
        <ele>1910</ele>
        <time>2021-11-14T22:03:36.172Z</time>
      </trkpt>
      <trkpt lat="44.15495" lon="7.59181">
        <ele>1911</ele>
        <time>2021-11-14T22:03:36.423Z</time>
      </trkpt>
      <trkpt lat="44.15503" lon="7.5919">
        <ele>1913</ele>
        <time>2021-11-14T22:03:36.676Z</time>
      </trkpt>
      <trkpt lat="44.15527" lon="7.59185">
        <ele>1914</ele>
        <time>2021-11-14T22:03:36.933Z</time>
      </trkpt>
      <trkpt lat="44.15553" lon="7.59172">
        <ele>1915</ele>
        <time>2021-11-14T22:03:37.194Z</time>
      </trkpt>
      <trkpt lat="44.15578" lon="7.59193">
        <ele>1917</ele>
        <time>2021-11-14T22:03:37.460Z</time>
      </trkpt>
      <trkpt lat="44.15599" lon="7.59193">
        <ele>1919</ele>
        <time>2021-11-14T22:03:37.729Z</time>
      </trkpt>
      <trkpt lat="44.15615" lon="7.59201">
        <ele>1921</ele>
        <time>2021-11-14T22:03:38.001Z</time>
      </trkpt>
      <trkpt lat="44.15632" lon="7.59204">
        <ele>1923</ele>
        <time>2021-11-14T22:03:38.276Z</time>
      </trkpt>
      <trkpt lat="44.15651" lon="7.59188">
        <ele>1926</ele>
        <time>2021-11-14T22:03:38.554Z</time>
      </trkpt>
      <trkpt lat="44.15665" lon="7.59181">
        <ele>1928</ele>
        <time>2021-11-14T22:03:38.835Z</time>
      </trkpt>
      <trkpt lat="44.15678" lon="7.59167">
        <ele>1930</ele>
        <time>2021-11-14T22:03:39.118Z</time>
      </trkpt>
      <trkpt lat="44.15704" lon="7.59158">
        <ele>1933</ele>
        <time>2021-11-14T22:03:39.406Z</time>
      </trkpt>
      <trkpt lat="44.15726" lon="7.59157">
        <ele>1936</ele>
        <time>2021-11-14T22:03:39.697Z</time>
      </trkpt>
      <trkpt lat="44.15761" lon="7.59142">
        <ele>1939</ele>
        <time>2021-11-14T22:03:39.994Z</time>
      </trkpt>
      <trkpt lat="44.15807" lon="7.59109">
        <ele>1941</ele>
        <time>2021-11-14T22:03:40.299Z</time>
      </trkpt>
      <trkpt lat="44.15863" lon="7.59099">
        <ele>1945</ele>
        <time>2021-11-14T22:03:40.613Z</time>
      </trkpt>
      <trkpt lat="44.15882" lon="7.59092">
        <ele>1949</ele>
        <time>2021-11-14T22:03:40.931Z</time>
      </trkpt>
      <trkpt lat="44.15911" lon="7.5907">
        <ele>1952</ele>
        <time>2021-11-14T22:03:41.254Z</time>
      </trkpt>
      <trkpt lat="44.15942" lon="7.5904">
        <ele>1955</ele>
        <time>2021-11-14T22:03:41.583Z</time>
      </trkpt>
      <trkpt lat="44.1598" lon="7.59065">
        <ele>1958</ele>
        <time>2021-11-14T22:03:41.919Z</time>
      </trkpt>
      <trkpt lat="44.15987" lon="7.59081">
        <ele>1961</ele>
        <time>2021-11-14T22:03:42.257Z</time>
      </trkpt>
      <trkpt lat="44.15982" lon="7.59098">
        <ele>1965</ele>
        <time>2021-11-14T22:03:42.597Z</time>
      </trkpt>
      <trkpt lat="44.15935" lon="7.59115">
        <ele>1969</ele>
        <time>2021-11-14T22:03:42.945Z</time>
      </trkpt>
      <trkpt lat="44.15917" lon="7.59117">
        <ele>1972</ele>
        <time>2021-11-14T22:03:43.296Z</time>
      </trkpt>
      <trkpt lat="44.15871" lon="7.59157">
        <ele>1976</ele>
        <time>2021-11-14T22:03:43.655Z</time>
      </trkpt>
      <trkpt lat="44.1578" lon="7.59291">
        <ele>1981</ele>
        <time>2021-11-14T22:03:44.035Z</time>
      </trkpt>
      <trkpt lat="44.15775" lon="7.59312">
        <ele>1986</ele>
        <time>2021-11-14T22:03:44.418Z</time>
      </trkpt>
      <trkpt lat="44.15771" lon="7.59451">
        <ele>1990</ele>
        <time>2021-11-14T22:03:44.817Z</time>
      </trkpt>
      <trkpt lat="44.15767" lon="7.59471">
        <ele>1995</ele>
        <time>2021-11-14T22:03:45.218Z</time>
      </trkpt>
      <trkpt lat="44.1575" lon="7.59512">
        <ele>1999</ele>
        <time>2021-11-14T22:03:45.625Z</time>
      </trkpt>
      <trkpt lat="44.15725" lon="7.59548">
        <ele>2004</ele>
        <time>2021-11-14T22:03:46.038Z</time>
      </trkpt>
      <trkpt lat="44.1572" lon="7.59551">
        <ele>2008</ele>
        <time>2021-11-14T22:03:46.451Z</time>
      </trkpt>
      <trkpt lat="44.15715" lon="7.59543">
        <ele>2012</ele>
        <time>2021-11-14T22:03:46.866Z</time>
      </trkpt>
      <trkpt lat="44.15723" lon="7.5952">
        <ele>2016</ele>
        <time>2021-11-14T22:03:47.284Z</time>
      </trkpt>
      <trkpt lat="44.15714" lon="7.59504">
        <ele>2020</ele>
        <time>2021-11-14T22:03:47.704Z</time>
      </trkpt>
      <trkpt lat="44.15692" lon="7.59506">
        <ele>2024</ele>
        <time>2021-11-14T22:03:48.128Z</time>
      </trkpt>
      <trkpt lat="44.15643" lon="7.59531">
        <ele>2028</ele>
        <time>2021-11-14T22:03:48.560Z</time>
      </trkpt>
      <trkpt lat="44.15631" lon="7.59534">
        <ele>2032</ele>
        <time>2021-11-14T22:03:48.994Z</time>
      </trkpt>
      <trkpt lat="44.15619" lon="7.59531">
        <ele>2035</ele>
        <time>2021-11-14T22:03:49.430Z</time>
      </trkpt>
      <trkpt lat="44.15607" lon="7.5952">
        <ele>2039</ele>
        <time>2021-11-14T22:03:49.868Z</time>
      </trkpt>
      <trkpt lat="44.15597" lon="7.595">
        <ele>2042</ele>
        <time>2021-11-14T22:03:50.309Z</time>
      </trkpt>
      <trkpt lat="44.15593" lon="7.59499">
        <ele>2045</ele>
        <time>2021-11-14T22:03:50.751Z</time>
      </trkpt>
      <trkpt lat="44.1559" lon="7.59507">
        <ele>2048</ele>
        <time>2021-11-14T22:03:51.194Z</time>
      </trkpt>
      <trkpt lat="44.15591" lon="7.59528">
        <ele>2052</ele>
        <time>2021-11-14T22:03:51.639Z</time>
      </trkpt>
      <trkpt lat="44.15588" lon="7.59546">
        <ele>2055</ele>
        <time>2021-11-14T22:03:52.086Z</time>
      </trkpt>
      <trkpt lat="44.15565" lon="7.5961">
        <ele>2058</ele>
        <time>2021-11-14T22:03:52.541Z</time>
      </trkpt>
      <trkpt lat="44.15567" lon="7.59625">
        <ele>2061</ele>
        <time>2021-11-14T22:03:52.998Z</time>
      </trkpt>
      <trkpt lat="44.15584" lon="7.59645">
        <ele>2065</ele>
        <time>2021-11-14T22:03:53.459Z</time>
      </trkpt>
      <trkpt lat="44.15589" lon="7.5966">
        <ele>2068</ele>
        <time>2021-11-14T22:03:53.922Z</time>
      </trkpt>
      <trkpt lat="44.15586" lon="7.59715">
        <ele>2071</ele>
        <time>2021-11-14T22:03:54.391Z</time>
      </trkpt>
      <trkpt lat="44.1559" lon="7.59726">
        <ele>2075</ele>
        <time>2021-11-14T22:03:54.861Z</time>
      </trkpt>
      <trkpt lat="44.15597" lon="7.59726">
        <ele>2077</ele>
        <time>2021-11-14T22:03:55.332Z</time>
      </trkpt>
      <trkpt lat="44.15605" lon="7.5972">
        <ele>2080</ele>
        <time>2021-11-14T22:03:55.805Z</time>
      </trkpt>
      <trkpt lat="44.15641" lon="7.59756">
        <ele>2083</ele>
        <time>2021-11-14T22:03:56.285Z</time>
      </trkpt>
      <trkpt lat="44.15666" lon="7.59792">
        <ele>2086</ele>
        <time>2021-11-14T22:03:56.771Z</time>
      </trkpt>
      <trkpt lat="44.15695" lon="7.59821">
        <ele>2089</ele>
        <time>2021-11-14T22:03:57.263Z</time>
      </trkpt>
      <trkpt lat="44.15717" lon="7.59835">
        <ele>2093</ele>
        <time>2021-11-14T22:03:57.758Z</time>
      </trkpt>
      <trkpt lat="44.15734" lon="7.59838">
        <ele>2095</ele>
        <time>2021-11-14T22:03:58.256Z</time>
      </trkpt>
      <trkpt lat="44.15751" lon="7.59832">
        <ele>2098</ele>
        <time>2021-11-14T22:03:58.757Z</time>
      </trkpt>
      <trkpt lat="44.15758" lon="7.59833">
        <ele>2101</ele>
        <time>2021-11-14T22:03:59.259Z</time>
      </trkpt>
      <trkpt lat="44.1576" lon="7.59839">
        <ele>2104</ele>
        <time>2021-11-14T22:03:59.762Z</time>
      </trkpt>
      <trkpt lat="44.15728" lon="7.5985">
        <ele>2106</ele>
        <time>2021-11-14T22:04:00.270Z</time>
      </trkpt>
      <trkpt lat="44.15702" lon="7.59848">
        <ele>2109</ele>
        <time>2021-11-14T22:04:00.782Z</time>
      </trkpt>
      <trkpt lat="44.15662" lon="7.59834">
        <ele>2111</ele>
        <time>2021-11-14T22:04:01.301Z</time>
      </trkpt>
      <trkpt lat="44.15628" lon="7.59814">
        <ele>2113</ele>
        <time>2021-11-14T22:04:01.826Z</time>
      </trkpt>
      <trkpt lat="44.15605" lon="7.59815">
        <ele>2116</ele>
        <time>2021-11-14T22:04:02.354Z</time>
      </trkpt>
      <trkpt lat="44.15587" lon="7.59833">
        <ele>2118</ele>
        <time>2021-11-14T22:04:02.886Z</time>
      </trkpt>
      <trkpt lat="44.1558" lon="7.59834">
        <ele>2120</ele>
        <time>2021-11-14T22:04:03.419Z</time>
      </trkpt>
      <trkpt lat="44.15545" lon="7.59798">
        <ele>2122</ele>
        <time>2021-11-14T22:04:03.959Z</time>
      </trkpt>
      <trkpt lat="44.15526" lon="7.59793">
        <ele>2124</ele>
        <time>2021-11-14T22:04:04.502Z</time>
      </trkpt>
      <trkpt lat="44.15509" lon="7.59755">
        <ele>2125</ele>
        <time>2021-11-14T22:04:05.050Z</time>
      </trkpt>
      <trkpt lat="44.15504" lon="7.59753">
        <ele>2127</ele>
        <time>2021-11-14T22:04:05.599Z</time>
      </trkpt>
      <trkpt lat="44.155" lon="7.59757">
        <ele>2128</ele>
        <time>2021-11-14T22:04:06.149Z</time>
      </trkpt>
      <trkpt lat="44.155" lon="7.59762">
        <ele>2130</ele>
        <time>2021-11-14T22:04:06.700Z</time>
      </trkpt>
      <trkpt lat="44.15514" lon="7.59796">
        <ele>2132</ele>
        <time>2021-11-14T22:04:07.255Z</time>
      </trkpt>
      <trkpt lat="44.1552" lon="7.59806">
        <ele>2133</ele>
        <time>2021-11-14T22:04:07.812Z</time>
      </trkpt>
      <trkpt lat="44.15536" lon="7.5982">
        <ele>2134</ele>
        <time>2021-11-14T22:04:08.372Z</time>
      </trkpt>
      <trkpt lat="44.15559" lon="7.5987">
        <ele>2136</ele>
        <time>2021-11-14T22:04:08.938Z</time>
      </trkpt>
      <trkpt lat="44.1556" lon="7.59878">
        <ele>2137</ele>
        <time>2021-11-14T22:04:09.505Z</time>
      </trkpt>
      <trkpt lat="44.15556" lon="7.59884">
        <ele>2138</ele>
        <time>2021-11-14T22:04:10.073Z</time>
      </trkpt>
      <trkpt lat="44.15528" lon="7.59899">
        <ele>2139</ele>
        <time>2021-11-14T22:04:10.646Z</time>
      </trkpt>
      <trkpt lat="44.15482" lon="7.59905">
        <ele>2140</ele>
        <time>2021-11-14T22:04:11.226Z</time>
      </trkpt>
      <trkpt lat="44.15462" lon="7.59916">
        <ele>2140</ele>
        <time>2021-11-14T22:04:11.810Z</time>
      </trkpt>
      <trkpt lat="44.15453" lon="7.59917">
        <ele>2141</ele>
        <time>2021-11-14T22:04:12.395Z</time>
      </trkpt>
      <trkpt lat="44.15445" lon="7.59914">
        <ele>2141</ele>
        <time>2021-11-14T22:04:12.982Z</time>
      </trkpt>
      <trkpt lat="44.15429" lon="7.59897">
        <ele>2141</ele>
        <time>2021-11-14T22:04:13.572Z</time>
      </trkpt>
      <trkpt lat="44.15416" lon="7.59891">
        <ele>2141</ele>
        <time>2021-11-14T22:04:14.164Z</time>
      </trkpt>
      <trkpt lat="44.15409" lon="7.59895">
        <ele>2141</ele>
        <time>2021-11-14T22:04:14.757Z</time>
      </trkpt>
      <trkpt lat="44.15399" lon="7.59912">
        <ele>2141</ele>
        <time>2021-11-14T22:04:15.353Z</time>
      </trkpt>
      <trkpt lat="44.15383" lon="7.59928">
        <ele>2141</ele>
        <time>2021-11-14T22:04:15.952Z</time>
      </trkpt>
      <trkpt lat="44.1537" lon="7.5995">
        <ele>2140</ele>
        <time>2021-11-14T22:04:16.554Z</time>
      </trkpt>
      <trkpt lat="44.1535" lon="7.59958">
        <ele>2139</ele>
        <time>2021-11-14T22:04:17.160Z</time>
      </trkpt>
      <trkpt lat="44.15307" lon="7.59993">
        <ele>2139</ele>
        <time>2021-11-14T22:04:17.774Z</time>
      </trkpt>
      <trkpt lat="44.15288" lon="7.60022">
        <ele>2138</ele>
        <time>2021-11-14T22:04:18.392Z</time>
      </trkpt>
      <trkpt lat="44.15271" lon="7.6004">
        <ele>2137</ele>
        <time>2021-11-14T22:04:19.014Z</time>
      </trkpt>
      <trkpt lat="44.15255" lon="7.60081">
        <ele>2136</ele>
        <time>2021-11-14T22:04:19.641Z</time>
      </trkpt>
      <trkpt lat="44.15238" lon="7.60113">
        <ele>2135</ele>
        <time>2021-11-14T22:04:20.272Z</time>
      </trkpt>
      <trkpt lat="44.15227" lon="7.60172">
        <ele>2134</ele>
        <time>2021-11-14T22:04:20.910Z</time>
      </trkpt>
      <trkpt lat="44.15222" lon="7.60222">
        <ele>2133</ele>
        <time>2021-11-14T22:04:21.554Z</time>
      </trkpt>
      <trkpt lat="44.15225" lon="7.60241">
        <ele>2131</ele>
        <time>2021-11-14T22:04:22.201Z</time>
      </trkpt>
      <trkpt lat="44.15224" lon="7.60261">
        <ele>2130</ele>
        <time>2021-11-14T22:04:22.850Z</time>
      </trkpt>
      <trkpt lat="44.15201" lon="7.60369">
        <ele>2129</ele>
        <time>2021-11-14T22:04:23.512Z</time>
      </trkpt>
      <trkpt lat="44.15196" lon="7.60438">
        <ele>2128</ele>
        <time>2021-11-14T22:04:24.182Z</time>
      </trkpt>
      <trkpt lat="44.15184" lon="7.60495">
        <ele>2126</ele>
        <time>2021-11-14T22:04:24.859Z</time>
      </trkpt>
      <trkpt lat="44.15175" lon="7.6052">
        <ele>2125</ele>
        <time>2021-11-14T22:04:25.539Z</time>
      </trkpt>
      <trkpt lat="44.15154" lon="7.60553">
        <ele>2124</ele>
        <time>2021-11-14T22:04:26.224Z</time>
      </trkpt>
      <trkpt lat="44.15147" lon="7.60596">
        <ele>2123</ele>
        <time>2021-11-14T22:04:26.914Z</time>
      </trkpt>
      <trkpt lat="44.15139" lon="7.60617">
        <ele>2122</ele>
        <time>2021-11-14T22:04:27.607Z</time>
      </trkpt>
      <trkpt lat="44.1515" lon="7.60678">
        <ele>2120</ele>
        <time>2021-11-14T22:04:28.307Z</time>
      </trkpt>
      <trkpt lat="44.15151" lon="7.60701">
        <ele>2119</ele>
        <time>2021-11-14T22:04:29.010Z</time>
      </trkpt>
      <trkpt lat="44.15144" lon="7.60718">
        <ele>2118</ele>
        <time>2021-11-14T22:04:29.715Z</time>
      </trkpt>
      <trkpt lat="44.15141" lon="7.60778">
        <ele>2116</ele>
        <time>2021-11-14T22:04:30.427Z</time>
      </trkpt>
      <trkpt lat="44.15152" lon="7.6083">
        <ele>2115</ele>
        <time>2021-11-14T22:04:31.145Z</time>
      </trkpt>
      <trkpt lat="44.15158" lon="7.60907">
        <ele>2114</ele>
        <time>2021-11-14T22:04:31.872Z</time>
      </trkpt>
      <trkpt lat="44.15168" lon="7.60932">
        <ele>2113</ele>
        <time>2021-11-14T22:04:32.602Z</time>
      </trkpt>
      <trkpt lat="44.15206" lon="7.60986">
        <ele>2111</ele>
        <time>2021-11-14T22:04:33.341Z</time>
      </trkpt>
      <trkpt lat="44.1523" lon="7.61072">
        <ele>2110</ele>
        <time>2021-11-14T22:04:34.091Z</time>
      </trkpt>
      <trkpt lat="44.15246" lon="7.61099">
        <ele>2109</ele>
        <time>2021-11-14T22:04:34.845Z</time>
      </trkpt>
      <trkpt lat="44.1531" lon="7.61156">
        <ele>2107</ele>
        <time>2021-11-14T22:04:35.611Z</time>
      </trkpt>
      <trkpt lat="44.15352" lon="7.61183">
        <ele>2105</ele>
        <time>2021-11-14T22:04:36.384Z</time>
      </trkpt>
      <trkpt lat="44.15436" lon="7.61214">
        <ele>2104</ele>
        <time>2021-11-14T22:04:37.171Z</time>
      </trkpt>
      <trkpt lat="44.15452" lon="7.61227">
        <ele>2103</ele>
        <time>2021-11-14T22:04:37.961Z</time>
      </trkpt>
      <trkpt lat="44.15465" lon="7.61245">
        <ele>2101</ele>
        <time>2021-11-14T22:04:38.754Z</time>
      </trkpt>
      <trkpt lat="44.15463" lon="7.61258">
        <ele>2100</ele>
        <time>2021-11-14T22:04:39.549Z</time>
      </trkpt>
      <trkpt lat="44.15445" lon="7.61279">
        <ele>2098</ele>
        <time>2021-11-14T22:04:40.347Z</time>
      </trkpt>
      <trkpt lat="44.15418" lon="7.61322">
        <ele>2098</ele>
        <time>2021-11-14T22:04:41.152Z</time>
      </trkpt>
      <trkpt lat="44.15402" lon="7.61365">
        <ele>2096</ele>
        <time>2021-11-14T22:04:41.962Z</time>
      </trkpt>
      <trkpt lat="44.15377" lon="7.61406">
        <ele>2094</ele>
        <time>2021-11-14T22:04:42.779Z</time>
      </trkpt>
      <trkpt lat="44.15362" lon="7.61417">
        <ele>2093</ele>
        <time>2021-11-14T22:04:43.598Z</time>
      </trkpt>
      <trkpt lat="44.15327" lon="7.61423">
        <ele>2092</ele>
        <time>2021-11-14T22:04:44.423Z</time>
      </trkpt>
      <trkpt lat="44.15317" lon="7.61433">
        <ele>2091</ele>
        <time>2021-11-14T22:04:45.250Z</time>
      </trkpt>
      <trkpt lat="44.15313" lon="7.61449">
        <ele>2089</ele>
        <time>2021-11-14T22:04:46.079Z</time>
      </trkpt>
      <trkpt lat="44.15297" lon="7.61481">
        <ele>2087</ele>
        <time>2021-11-14T22:04:46.912Z</time>
      </trkpt>
      <trkpt lat="44.15286" lon="7.6149">
        <ele>2086</ele>
        <time>2021-11-14T22:04:47.747Z</time>
      </trkpt>
      <trkpt lat="44.1527" lon="7.61487">
        <ele>2084</ele>
        <time>2021-11-14T22:04:48.585Z</time>
      </trkpt>
      <trkpt lat="44.15248" lon="7.6145">
        <ele>2083</ele>
        <time>2021-11-14T22:04:49.429Z</time>
      </trkpt>
      <trkpt lat="44.15238" lon="7.61442">
        <ele>2082</ele>
        <time>2021-11-14T22:04:50.274Z</time>
      </trkpt>
      <trkpt lat="44.15214" lon="7.61443">
        <ele>2081</ele>
        <time>2021-11-14T22:04:51.123Z</time>
      </trkpt>
      <trkpt lat="44.15187" lon="7.61468">
        <ele>2079</ele>
        <time>2021-11-14T22:04:51.977Z</time>
      </trkpt>
      <trkpt lat="44.15182" lon="7.61477">
        <ele>2077</ele>
        <time>2021-11-14T22:04:52.833Z</time>
      </trkpt>
      <trkpt lat="44.15178" lon="7.61509">
        <ele>2075</ele>
        <time>2021-11-14T22:04:53.693Z</time>
      </trkpt>
      <trkpt lat="44.15181" lon="7.61556">
        <ele>2073</ele>
        <time>2021-11-14T22:04:54.558Z</time>
      </trkpt>
      <trkpt lat="44.15174" lon="7.61572">
        <ele>2072</ele>
        <time>2021-11-14T22:04:55.425Z</time>
      </trkpt>
      <trkpt lat="44.15169" lon="7.61596">
        <ele>2070</ele>
        <time>2021-11-14T22:04:56.295Z</time>
      </trkpt>
      <trkpt lat="44.15162" lon="7.61606">
        <ele>2068</ele>
        <time>2021-11-14T22:04:57.167Z</time>
      </trkpt>
      <trkpt lat="44.15151" lon="7.61613">
        <ele>2067</ele>
        <time>2021-11-14T22:04:58.041Z</time>
      </trkpt>
      <trkpt lat="44.15153" lon="7.61645">
        <ele>2065</ele>
        <time>2021-11-14T22:04:58.918Z</time>
      </trkpt>
      <trkpt lat="44.15146" lon="7.6167">
        <ele>2064</ele>
        <time>2021-11-14T22:04:59.798Z</time>
      </trkpt>
      <trkpt lat="44.1515" lon="7.61723">
        <ele>2062</ele>
        <time>2021-11-14T22:05:00.684Z</time>
      </trkpt>
      <trkpt lat="44.15155" lon="7.61746">
        <ele>2060</ele>
        <time>2021-11-14T22:05:01.573Z</time>
      </trkpt>
      <trkpt lat="44.15178" lon="7.618">
        <ele>2059</ele>
        <time>2021-11-14T22:05:02.469Z</time>
      </trkpt>
      <trkpt lat="44.15198" lon="7.61832">
        <ele>2057</ele>
        <time>2021-11-14T22:05:03.370Z</time>
      </trkpt>
      <trkpt lat="44.15206" lon="7.61859">
        <ele>2056</ele>
        <time>2021-11-14T22:05:04.275Z</time>
      </trkpt>
      <trkpt lat="44.15216" lon="7.61878">
        <ele>2055</ele>
        <time>2021-11-14T22:05:05.182Z</time>
      </trkpt>
      <trkpt lat="44.15236" lon="7.61901">
        <ele>2054</ele>
        <time>2021-11-14T22:05:06.094Z</time>
      </trkpt>
      <trkpt lat="44.15262" lon="7.61917">
        <ele>2053</ele>
        <time>2021-11-14T22:05:07.010Z</time>
      </trkpt>
      <trkpt lat="44.15311" lon="7.61936">
        <ele>2053</ele>
        <time>2021-11-14T22:05:07.934Z</time>
      </trkpt>
      <trkpt lat="44.15339" lon="7.61943">
        <ele>2052</ele>
        <time>2021-11-14T22:05:08.863Z</time>
      </trkpt>
      <trkpt lat="44.15385" lon="7.61946">
        <ele>2052</ele>
        <time>2021-11-14T22:05:09.799Z</time>
      </trkpt>
      <trkpt lat="44.15414" lon="7.61942">
        <ele>2052</ele>
        <time>2021-11-14T22:05:10.740Z</time>
      </trkpt>
      <trkpt lat="44.15425" lon="7.61946">
        <ele>2052</ele>
        <time>2021-11-14T22:05:11.683Z</time>
      </trkpt>
      <trkpt lat="44.15435" lon="7.61956">
        <ele>2052</ele>
        <time>2021-11-14T22:05:12.628Z</time>
      </trkpt>
      <trkpt lat="44.15445" lon="7.61973">
        <ele>2053</ele>
        <time>2021-11-14T22:05:13.575Z</time>
      </trkpt>
      <trkpt lat="44.15491" lon="7.62061">
        <ele>2053</ele>
        <time>2021-11-14T22:05:14.535Z</time>
      </trkpt>
      <trkpt lat="44.15517" lon="7.62135">
        <ele>2055</ele>
        <time>2021-11-14T22:05:15.504Z</time>
      </trkpt>
      <trkpt lat="44.15523" lon="7.62175">
        <ele>2056</ele>
        <time>2021-11-14T22:05:16.478Z</time>
      </trkpt>
      <trkpt lat="44.15546" lon="7.62212">
        <ele>2058</ele>
        <time>2021-11-14T22:05:17.458Z</time>
      </trkpt>
      <trkpt lat="44.15542" lon="7.62228">
        <ele>2060</ele>
        <time>2021-11-14T22:05:18.439Z</time>
      </trkpt>
      <trkpt lat="44.15519" lon="7.6225">
        <ele>2063</ele>
        <time>2021-11-14T22:05:19.425Z</time>
      </trkpt>
      <trkpt lat="44.15494" lon="7.62307">
        <ele>2066</ele>
        <time>2021-11-14T22:05:20.419Z</time>
      </trkpt>
      <trkpt lat="44.15493" lon="7.62317">
        <ele>2069</ele>
        <time>2021-11-14T22:05:21.414Z</time>
      </trkpt>
      <trkpt lat="44.15498" lon="7.62339">
        <ele>2071</ele>
        <time>2021-11-14T22:05:22.411Z</time>
      </trkpt>
      <trkpt lat="44.15521" lon="7.62393">
        <ele>2074</ele>
        <time>2021-11-14T22:05:23.416Z</time>
      </trkpt>
      <trkpt lat="44.15554" lon="7.62442">
        <ele>2077</ele>
        <time>2021-11-14T22:05:24.428Z</time>
      </trkpt>
      <trkpt lat="44.15566" lon="7.6245">
        <ele>2081</ele>
        <time>2021-11-14T22:05:25.443Z</time>
      </trkpt>
      <trkpt lat="44.15583" lon="7.62473">
        <ele>2085</ele>
        <time>2021-11-14T22:05:26.461Z</time>
      </trkpt>
      <trkpt lat="44.15618" lon="7.62497">
        <ele>2088</ele>
        <time>2021-11-14T22:05:27.486Z</time>
      </trkpt>
      <trkpt lat="44.15643" lon="7.62507">
        <ele>2092</ele>
        <time>2021-11-14T22:05:28.515Z</time>
      </trkpt>
      <trkpt lat="44.15664" lon="7.62508">
        <ele>2096</ele>
        <time>2021-11-14T22:05:29.547Z</time>
      </trkpt>
      <trkpt lat="44.15696" lon="7.62523">
        <ele>2100</ele>
        <time>2021-11-14T22:05:30.585Z</time>
      </trkpt>
      <trkpt lat="44.15714" lon="7.62521">
        <ele>2104</ele>
        <time>2021-11-14T22:05:31.625Z</time>
      </trkpt>
      <trkpt lat="44.15757" lon="7.62546">
        <ele>2108</ele>
        <time>2021-11-14T22:05:32.673Z</time>
      </trkpt>
      <trkpt lat="44.15825" lon="7.62612">
        <ele>2113</ele>
        <time>2021-11-14T22:05:33.734Z</time>
      </trkpt>
      <trkpt lat="44.15846" lon="7.62615">
        <ele>2117</ele>
        <time>2021-11-14T22:05:34.799Z</time>
      </trkpt>
      <trkpt lat="44.159" lon="7.62633">
        <ele>2121</ele>
        <time>2021-11-14T22:05:35.872Z</time>
      </trkpt>
      <trkpt lat="44.15952" lon="7.62637">
        <ele>2125</ele>
        <time>2021-11-14T22:05:36.954Z</time>
      </trkpt>
      <trkpt lat="44.15994" lon="7.62634">
        <ele>2129</ele>
        <time>2021-11-14T22:05:38.042Z</time>
      </trkpt>
      <trkpt lat="44.16015" lon="7.62624">
        <ele>2132</ele>
        <time>2021-11-14T22:05:39.134Z</time>
      </trkpt>
      <trkpt lat="44.16033" lon="7.6262">
        <ele>2136</ele>
        <time>2021-11-14T22:05:40.229Z</time>
      </trkpt>
      <trkpt lat="44.16044" lon="7.62627">
        <ele>2139</ele>
        <time>2021-11-14T22:05:41.326Z</time>
      </trkpt>
      <trkpt lat="44.16056" lon="7.6263">
        <ele>2142</ele>
        <time>2021-11-14T22:05:42.425Z</time>
      </trkpt>
      <trkpt lat="44.16063" lon="7.62625">
        <ele>2144</ele>
        <time>2021-11-14T22:05:43.525Z</time>
      </trkpt>
      <trkpt lat="44.1607" lon="7.62605">
        <ele>2146</ele>
        <time>2021-11-14T22:05:44.628Z</time>
      </trkpt>
      <trkpt lat="44.16083" lon="7.62604">
        <ele>2148</ele>
        <time>2021-11-14T22:05:45.733Z</time>
      </trkpt>
      <trkpt lat="44.16097" lon="7.62588">
        <ele>2150</ele>
        <time>2021-11-14T22:05:46.841Z</time>
      </trkpt>
      <trkpt lat="44.16117" lon="7.62575">
        <ele>2151</ele>
        <time>2021-11-14T22:05:47.952Z</time>
      </trkpt>
      <trkpt lat="44.16135" lon="7.62581">
        <ele>2153</ele>
        <time>2021-11-14T22:05:49.066Z</time>
      </trkpt>
      <trkpt lat="44.16154" lon="7.62598">
        <ele>2154</ele>
        <time>2021-11-14T22:05:50.184Z</time>
      </trkpt>
      <trkpt lat="44.16172" lon="7.62607">
        <ele>2155</ele>
        <time>2021-11-14T22:05:51.305Z</time>
      </trkpt>
      <trkpt lat="44.16203" lon="7.62613">
        <ele>2156</ele>
        <time>2021-11-14T22:05:52.431Z</time>
      </trkpt>
      <trkpt lat="44.16217" lon="7.626">
        <ele>2156</ele>
        <time>2021-11-14T22:05:53.559Z</time>
      </trkpt>
      <trkpt lat="44.16226" lon="7.62586">
        <ele>2156</ele>
        <time>2021-11-14T22:05:54.690Z</time>
      </trkpt>
      <trkpt lat="44.16245" lon="7.6258">
        <ele>2155</ele>
        <time>2021-11-14T22:05:55.824Z</time>
      </trkpt>
      <trkpt lat="44.1628" lon="7.62591">
        <ele>2155</ele>
        <time>2021-11-14T22:05:56.964Z</time>
      </trkpt>
      <trkpt lat="44.163" lon="7.62587">
        <ele>2154</ele>
        <time>2021-11-14T22:05:58.107Z</time>
      </trkpt>
      <trkpt lat="44.16308" lon="7.62585">
        <ele>2154</ele>
        <time>2021-11-14T22:05:59.251Z</time>
      </trkpt>
      <trkpt lat="44.16339" lon="7.62562">
        <ele>2152</ele>
        <time>2021-11-14T22:06:00.401Z</time>
      </trkpt>
      <trkpt lat="44.1637" lon="7.6257">
        <ele>2151</ele>
        <time>2021-11-14T22:06:01.556Z</time>
      </trkpt>
      <trkpt lat="44.16384" lon="7.62577">
        <ele>2150</ele>
        <time>2021-11-14T22:06:02.713Z</time>
      </trkpt>
      <trkpt lat="44.16409" lon="7.62582">
        <ele>2148</ele>
        <time>2021-11-14T22:06:03.874Z</time>
      </trkpt>
      <trkpt lat="44.16423" lon="7.62581">
        <ele>2146</ele>
        <time>2021-11-14T22:06:05.037Z</time>
      </trkpt>
      <trkpt lat="44.16469" lon="7.62556">
        <ele>2144</ele>
        <time>2021-11-14T22:06:06.208Z</time>
      </trkpt>
      <trkpt lat="44.16476" lon="7.62546">
        <ele>2141</ele>
        <time>2021-11-14T22:06:07.381Z</time>
      </trkpt>
      <trkpt lat="44.16505" lon="7.62538">
        <ele>2139</ele>
        <time>2021-11-14T22:06:08.559Z</time>
      </trkpt>
      <trkpt lat="44.16512" lon="7.6253">
        <ele>2136</ele>
        <time>2021-11-14T22:06:09.738Z</time>
      </trkpt>
      <trkpt lat="44.16518" lon="7.62515">
        <ele>2134</ele>
        <time>2021-11-14T22:06:10.919Z</time>
      </trkpt>
      <trkpt lat="44.16533" lon="7.62499">
        <ele>2131</ele>
        <time>2021-11-14T22:06:12.103Z</time>
      </trkpt>
      <trkpt lat="44.16545" lon="7.62472">
        <ele>2128</ele>
        <time>2021-11-14T22:06:13.291Z</time>
      </trkpt>
      <trkpt lat="44.16554" lon="7.62466">
        <ele>2126</ele>
        <time>2021-11-14T22:06:14.480Z</time>
      </trkpt>
      <trkpt lat="44.16577" lon="7.62466">
        <ele>2122</ele>
        <time>2021-11-14T22:06:15.673Z</time>
      </trkpt>
      <trkpt lat="44.16594" lon="7.62458">
        <ele>2119</ele>
        <time>2021-11-14T22:06:16.869Z</time>
      </trkpt>
      <trkpt lat="44.16599" lon="7.6247">
        <ele>2116</ele>
        <time>2021-11-14T22:06:18.066Z</time>
      </trkpt>
      <trkpt lat="44.16588" lon="7.62476">
        <ele>2113</ele>
        <time>2021-11-14T22:06:19.265Z</time>
      </trkpt>
      <trkpt lat="44.16559" lon="7.62481">
        <ele>2112</ele>
        <time>2021-11-14T22:06:20.469Z</time>
      </trkpt>
      <trkpt lat="44.16541" lon="7.62498">
        <ele>2109</ele>
        <time>2021-11-14T22:06:21.677Z</time>
      </trkpt>
      <trkpt lat="44.16526" lon="7.62528">
        <ele>2107</ele>
        <time>2021-11-14T22:06:22.889Z</time>
      </trkpt>
      <trkpt lat="44.16515" lon="7.62569">
        <ele>2104</ele>
        <time>2021-11-14T22:06:24.106Z</time>
      </trkpt>
      <trkpt lat="44.16506" lon="7.62589">
        <ele>2101</ele>
        <time>2021-11-14T22:06:25.325Z</time>
      </trkpt>
      <trkpt lat="44.16451" lon="7.62684">
        <ele>2098</ele>
        <time>2021-11-14T22:06:26.559Z</time>
      </trkpt>
      <trkpt lat="44.16422" lon="7.62739">
        <ele>2096</ele>
        <time>2021-11-14T22:06:27.800Z</time>
      </trkpt>
      <trkpt lat="44.16413" lon="7.62765">
        <ele>2094</ele>
        <time>2021-11-14T22:06:29.045Z</time>
      </trkpt>
      <trkpt lat="44.16404" lon="7.62777">
        <ele>2092</ele>
        <time>2021-11-14T22:06:30.292Z</time>
      </trkpt>
      <trkpt lat="44.16397" lon="7.62855">
        <ele>2089</ele>
        <time>2021-11-14T22:06:31.548Z</time>
      </trkpt>
      <trkpt lat="44.1639" lon="7.62873">
        <ele>2086</ele>
        <time>2021-11-14T22:06:32.806Z</time>
      </trkpt>
      <trkpt lat="44.16384" lon="7.62909">
        <ele>2084</ele>
        <time>2021-11-14T22:06:34.068Z</time>
      </trkpt>
      <trkpt lat="44.16352" lon="7.62992">
        <ele>2082</ele>
        <time>2021-11-14T22:06:35.341Z</time>
      </trkpt>
      <trkpt lat="44.1636" lon="7.63149">
        <ele>2079</ele>
        <time>2021-11-14T22:06:36.632Z</time>
      </trkpt>
      <trkpt lat="44.16366" lon="7.63149">
        <ele>2078</ele>
        <time>2021-11-14T22:06:37.924Z</time>
      </trkpt>
      <trkpt lat="44.16371" lon="7.63138">
        <ele>2076</ele>
        <time>2021-11-14T22:06:39.218Z</time>
      </trkpt>
      <trkpt lat="44.16374" lon="7.6312">
        <ele>2075</ele>
        <time>2021-11-14T22:06:40.514Z</time>
      </trkpt>
      <trkpt lat="44.16387" lon="7.63087">
        <ele>2074</ele>
        <time>2021-11-14T22:06:41.814Z</time>
      </trkpt>
      <trkpt lat="44.16396" lon="7.63082">
        <ele>2073</ele>
        <time>2021-11-14T22:06:43.116Z</time>
      </trkpt>
      <trkpt lat="44.16405" lon="7.63084">
        <ele>2072</ele>
        <time>2021-11-14T22:06:44.419Z</time>
      </trkpt>
      <trkpt lat="44.16413" lon="7.63092">
        <ele>2072</ele>
        <time>2021-11-14T22:06:45.724Z</time>
      </trkpt>
      <trkpt lat="44.16419" lon="7.6313">
        <ele>2071</ele>
        <time>2021-11-14T22:06:47.033Z</time>
      </trkpt>
      <trkpt lat="44.1643" lon="7.63147">
        <ele>2071</ele>
        <time>2021-11-14T22:06:48.345Z</time>
      </trkpt>
      <trkpt lat="44.16447" lon="7.63148">
        <ele>2071</ele>
        <time>2021-11-14T22:06:49.660Z</time>
      </trkpt>
      <trkpt lat="44.16467" lon="7.63136">
        <ele>2071</ele>
        <time>2021-11-14T22:06:50.978Z</time>
      </trkpt>
      <trkpt lat="44.16476" lon="7.63137">
        <ele>2072</ele>
        <time>2021-11-14T22:06:52.298Z</time>
      </trkpt>
      <trkpt lat="44.16485" lon="7.63148">
        <ele>2072</ele>
        <time>2021-11-14T22:06:53.620Z</time>
      </trkpt>
      <trkpt lat="44.16488" lon="7.63184">
        <ele>2073</ele>
        <time>2021-11-14T22:06:54.946Z</time>
      </trkpt>
      <trkpt lat="44.16501" lon="7.63262">
        <ele>2074</ele>
        <time>2021-11-14T22:06:56.281Z</time>
      </trkpt>
      <trkpt lat="44.16528" lon="7.63373">
        <ele>2075</ele>
        <time>2021-11-14T22:06:57.629Z</time>
      </trkpt>
      <trkpt lat="44.16525" lon="7.63444">
        <ele>2077</ele>
        <time>2021-11-14T22:06:58.986Z</time>
      </trkpt>
      <trkpt lat="44.1653" lon="7.63467">
        <ele>2078</ele>
        <time>2021-11-14T22:07:00.345Z</time>
      </trkpt>
      <trkpt lat="44.16544" lon="7.63504">
        <ele>2079</ele>
        <time>2021-11-14T22:07:01.709Z</time>
      </trkpt>
      <trkpt lat="44.16555" lon="7.63518">
        <ele>2081</ele>
        <time>2021-11-14T22:07:03.076Z</time>
      </trkpt>
      <trkpt lat="44.16586" lon="7.63539">
        <ele>2083</ele>
        <time>2021-11-14T22:07:04.448Z</time>
      </trkpt>
      <trkpt lat="44.16614" lon="7.63539">
        <ele>2085</ele>
        <time>2021-11-14T22:07:05.825Z</time>
      </trkpt>
      <trkpt lat="44.16626" lon="7.63532">
        <ele>2087</ele>
        <time>2021-11-14T22:07:07.204Z</time>
      </trkpt>
      <trkpt lat="44.16639" lon="7.63518">
        <ele>2089</ele>
        <time>2021-11-14T22:07:08.585Z</time>
      </trkpt>
      <trkpt lat="44.16666" lon="7.63514">
        <ele>2091</ele>
        <time>2021-11-14T22:07:09.971Z</time>
      </trkpt>
      <trkpt lat="44.16677" lon="7.63507">
        <ele>2093</ele>
        <time>2021-11-14T22:07:11.359Z</time>
      </trkpt>
      <trkpt lat="44.16685" lon="7.63495">
        <ele>2095</ele>
        <time>2021-11-14T22:07:12.748Z</time>
      </trkpt>
      <trkpt lat="44.16748" lon="7.63315">
        <ele>2098</ele>
        <time>2021-11-14T22:07:14.161Z</time>
      </trkpt>
      <trkpt lat="44.16754" lon="7.6331">
        <ele>2101</ele>
        <time>2021-11-14T22:07:15.575Z</time>
      </trkpt>
      <trkpt lat="44.16763" lon="7.63308">
        <ele>2103</ele>
        <time>2021-11-14T22:07:16.990Z</time>
      </trkpt>
      <trkpt lat="44.16795" lon="7.63313">
        <ele>2106</ele>
        <time>2021-11-14T22:07:18.410Z</time>
      </trkpt>
      <trkpt lat="44.16825" lon="7.63309">
        <ele>2108</ele>
        <time>2021-11-14T22:07:19.835Z</time>
      </trkpt>
      <trkpt lat="44.16856" lon="7.63312">
        <ele>2111</ele>
        <time>2021-11-14T22:07:21.265Z</time>
      </trkpt>
      <trkpt lat="44.16877" lon="7.63305">
        <ele>2113</ele>
        <time>2021-11-14T22:07:22.698Z</time>
      </trkpt>
      <trkpt lat="44.16894" lon="7.63292">
        <ele>2116</ele>
        <time>2021-11-14T22:07:24.135Z</time>
      </trkpt>
      <trkpt lat="44.16924" lon="7.63285">
        <ele>2118</ele>
        <time>2021-11-14T22:07:25.576Z</time>
      </trkpt>
      <trkpt lat="44.16948" lon="7.63286">
        <ele>2121</ele>
        <time>2021-11-14T22:07:27.021Z</time>
      </trkpt>
      <trkpt lat="44.17007" lon="7.63349">
        <ele>2123</ele>
        <time>2021-11-14T22:07:28.478Z</time>
      </trkpt>
      <trkpt lat="44.17048" lon="7.63381">
        <ele>2125</ele>
        <time>2021-11-14T22:07:29.943Z</time>
      </trkpt>
      <trkpt lat="44.17087" lon="7.6339">
        <ele>2128</ele>
        <time>2021-11-14T22:07:31.414Z</time>
      </trkpt>
      <trkpt lat="44.17098" lon="7.63404">
        <ele>2130</ele>
        <time>2021-11-14T22:07:32.887Z</time>
      </trkpt>
      <trkpt lat="44.17103" lon="7.63414">
        <ele>2132</ele>
        <time>2021-11-14T22:07:34.362Z</time>
      </trkpt>
      <trkpt lat="44.17113" lon="7.6346">
        <ele>2133</ele>
        <time>2021-11-14T22:07:35.842Z</time>
      </trkpt>
      <trkpt lat="44.1712" lon="7.63474">
        <ele>2135</ele>
        <time>2021-11-14T22:07:37.324Z</time>
      </trkpt>
      <trkpt lat="44.17121" lon="7.63523">
        <ele>2136</ele>
        <time>2021-11-14T22:07:38.812Z</time>
      </trkpt>
      <trkpt lat="44.17116" lon="7.6355">
        <ele>2137</ele>
        <time>2021-11-14T22:07:40.303Z</time>
      </trkpt>
      <trkpt lat="44.17122" lon="7.63565">
        <ele>2138</ele>
        <time>2021-11-14T22:07:41.796Z</time>
      </trkpt>
      <trkpt lat="44.17138" lon="7.63573">
        <ele>2140</ele>
        <time>2021-11-14T22:07:43.292Z</time>
      </trkpt>
      <trkpt lat="44.17159" lon="7.63571">
        <ele>2142</ele>
        <time>2021-11-14T22:07:44.791Z</time>
      </trkpt>
      <trkpt lat="44.17213" lon="7.63595">
        <ele>2143</ele>
        <time>2021-11-14T22:07:46.299Z</time>
      </trkpt>
      <trkpt lat="44.17222" lon="7.63604">
        <ele>2144</ele>
        <time>2021-11-14T22:07:47.809Z</time>
      </trkpt>
      <trkpt lat="44.17235" lon="7.63637">
        <ele>2144</ele>
        <time>2021-11-14T22:07:49.323Z</time>
      </trkpt>
      <trkpt lat="44.17241" lon="7.63645">
        <ele>2145</ele>
        <time>2021-11-14T22:07:50.839Z</time>
      </trkpt>
      <trkpt lat="44.17263" lon="7.63652">
        <ele>2146</ele>
        <time>2021-11-14T22:07:52.358Z</time>
      </trkpt>
      <trkpt lat="44.17275" lon="7.6366">
        <ele>2147</ele>
        <time>2021-11-14T22:07:53.880Z</time>
      </trkpt>
      <trkpt lat="44.17311" lon="7.63668">
        <ele>2148</ele>
        <time>2021-11-14T22:07:55.407Z</time>
      </trkpt>
      <trkpt lat="44.17351" lon="7.63708">
        <ele>2148</ele>
        <time>2021-11-14T22:07:56.942Z</time>
      </trkpt>
      <trkpt lat="44.17377" lon="7.63714">
        <ele>2149</ele>
        <time>2021-11-14T22:07:58.481Z</time>
      </trkpt>
      <trkpt lat="44.17385" lon="7.63731">
        <ele>2149</ele>
        <time>2021-11-14T22:08:00.023Z</time>
      </trkpt>
      <trkpt lat="44.17384" lon="7.63742">
        <ele>2149</ele>
        <time>2021-11-14T22:08:01.566Z</time>
      </trkpt>
      <trkpt lat="44.17373" lon="7.63773">
        <ele>2149</ele>
        <time>2021-11-14T22:08:03.113Z</time>
      </trkpt>
      <trkpt lat="44.17377" lon="7.63791">
        <ele>2149</ele>
        <time>2021-11-14T22:08:04.662Z</time>
      </trkpt>
      <trkpt lat="44.17376" lon="7.63832">
        <ele>2150</ele>
        <time>2021-11-14T22:08:06.216Z</time>
      </trkpt>
      <trkpt lat="44.17373" lon="7.63844">
        <ele>2150</ele>
        <time>2021-11-14T22:08:07.771Z</time>
      </trkpt>
      <trkpt lat="44.17359" lon="7.63859">
        <ele>2150</ele>
        <time>2021-11-14T22:08:09.329Z</time>
      </trkpt>
      <trkpt lat="44.17337" lon="7.63868">
        <ele>2150</ele>
        <time>2021-11-14T22:08:10.891Z</time>
      </trkpt>
      <trkpt lat="44.17308" lon="7.63886">
        <ele>2150</ele>
        <time>2021-11-14T22:08:12.458Z</time>
      </trkpt>
      <trkpt lat="44.17271" lon="7.63919">
        <ele>2150</ele>
        <time>2021-11-14T22:08:14.032Z</time>
      </trkpt>
      <trkpt lat="44.17262" lon="7.6392">
        <ele>2150</ele>
        <time>2021-11-14T22:08:15.607Z</time>
      </trkpt>
      <trkpt lat="44.1722" lon="7.63906">
        <ele>2151</ele>
        <time>2021-11-14T22:08:17.189Z</time>
      </trkpt>
      <trkpt lat="44.17194" lon="7.63909">
        <ele>2151</ele>
        <time>2021-11-14T22:08:18.776Z</time>
      </trkpt>
      <trkpt lat="44.1718" lon="7.63899">
        <ele>2151</ele>
        <time>2021-11-14T22:08:20.365Z</time>
      </trkpt>
      <trkpt lat="44.17163" lon="7.63892">
        <ele>2152</ele>
        <time>2021-11-14T22:08:21.957Z</time>
      </trkpt>
      <trkpt lat="44.17157" lon="7.63893">
        <ele>2152</ele>
        <time>2021-11-14T22:08:23.550Z</time>
      </trkpt>
      <trkpt lat="44.17143" lon="7.63906">
        <ele>2153</ele>
        <time>2021-11-14T22:08:25.146Z</time>
      </trkpt>
      <trkpt lat="44.17123" lon="7.63916">
        <ele>2154</ele>
        <time>2021-11-14T22:08:26.745Z</time>
      </trkpt>
      <trkpt lat="44.17111" lon="7.63929">
        <ele>2155</ele>
        <time>2021-11-14T22:08:28.346Z</time>
      </trkpt>
      <trkpt lat="44.17101" lon="7.63934">
        <ele>2156</ele>
        <time>2021-11-14T22:08:29.949Z</time>
      </trkpt>
      <trkpt lat="44.1705" lon="7.63945">
        <ele>2157</ele>
        <time>2021-11-14T22:08:31.560Z</time>
      </trkpt>
      <trkpt lat="44.17038" lon="7.63958">
        <ele>2158</ele>
        <time>2021-11-14T22:08:33.174Z</time>
      </trkpt>
      <trkpt lat="44.17048" lon="7.64016">
        <ele>2160</ele>
        <time>2021-11-14T22:08:34.795Z</time>
      </trkpt>
      <trkpt lat="44.17051" lon="7.64021">
        <ele>2161</ele>
        <time>2021-11-14T22:08:36.416Z</time>
      </trkpt>
      <trkpt lat="44.17085" lon="7.64037">
        <ele>2162</ele>
        <time>2021-11-14T22:08:38.043Z</time>
      </trkpt>
      <trkpt lat="44.1709" lon="7.64044">
        <ele>2164</ele>
        <time>2021-11-14T22:08:39.671Z</time>
      </trkpt>
      <trkpt lat="44.17098" lon="7.64071">
        <ele>2165</ele>
        <time>2021-11-14T22:08:41.303Z</time>
      </trkpt>
      <trkpt lat="44.17117" lon="7.6411">
        <ele>2167</ele>
        <time>2021-11-14T22:08:42.940Z</time>
      </trkpt>
      <trkpt lat="44.17159" lon="7.64175">
        <ele>2169</ele>
        <time>2021-11-14T22:08:44.587Z</time>
      </trkpt>
      <trkpt lat="44.17177" lon="7.6424">
        <ele>2171</ele>
        <time>2021-11-14T22:08:46.242Z</time>
      </trkpt>
      <trkpt lat="44.17174" lon="7.64284">
        <ele>2173</ele>
        <time>2021-11-14T22:08:47.902Z</time>
      </trkpt>
      <trkpt lat="44.17179" lon="7.64316">
        <ele>2175</ele>
        <time>2021-11-14T22:08:49.566Z</time>
      </trkpt>
      <trkpt lat="44.17198" lon="7.64363">
        <ele>2177</ele>
        <time>2021-11-14T22:08:51.236Z</time>
      </trkpt>
      <trkpt lat="44.17223" lon="7.6444">
        <ele>2180</ele>
        <time>2021-11-14T22:08:52.916Z</time>
      </trkpt>
      <trkpt lat="44.17223" lon="7.64454">
        <ele>2182</ele>
        <time>2021-11-14T22:08:54.598Z</time>
      </trkpt>
      <trkpt lat="44.1721" lon="7.64472">
        <ele>2184</ele>
        <time>2021-11-14T22:08:56.283Z</time>
      </trkpt>
      <trkpt lat="44.17201" lon="7.64502">
        <ele>2186</ele>
        <time>2021-11-14T22:08:57.971Z</time>
      </trkpt>
      <trkpt lat="44.1721" lon="7.64537">
        <ele>2188</ele>
        <time>2021-11-14T22:08:59.664Z</time>
      </trkpt>
      <trkpt lat="44.1722" lon="7.64557">
        <ele>2191</ele>
        <time>2021-11-14T22:09:01.359Z</time>
      </trkpt>
      <trkpt lat="44.17225" lon="7.64564">
        <ele>2193</ele>
        <time>2021-11-14T22:09:03.055Z</time>
      </trkpt>
      <trkpt lat="44.17246" lon="7.64576">
        <ele>2195</ele>
        <time>2021-11-14T22:09:04.755Z</time>
      </trkpt>
      <trkpt lat="44.17243" lon="7.64589">
        <ele>2197</ele>
        <time>2021-11-14T22:09:06.457Z</time>
      </trkpt>
      <trkpt lat="44.1722" lon="7.6459">
        <ele>2199</ele>
        <time>2021-11-14T22:09:08.162Z</time>
      </trkpt>
      <trkpt lat="44.17213" lon="7.646">
        <ele>2201</ele>
        <time>2021-11-14T22:09:09.869Z</time>
      </trkpt>
      <trkpt lat="44.17208" lon="7.64632">
        <ele>2202</ele>
        <time>2021-11-14T22:09:11.580Z</time>
      </trkpt>
      <trkpt lat="44.17203" lon="7.64637">
        <ele>2204</ele>
        <time>2021-11-14T22:09:13.292Z</time>
      </trkpt>
      <trkpt lat="44.17197" lon="7.6464">
        <ele>2206</ele>
        <time>2021-11-14T22:09:15.005Z</time>
      </trkpt>
      <trkpt lat="44.17158" lon="7.64635">
        <ele>2208</ele>
        <time>2021-11-14T22:09:16.724Z</time>
      </trkpt>
      <trkpt lat="44.17139" lon="7.64638">
        <ele>2209</ele>
        <time>2021-11-14T22:09:18.446Z</time>
      </trkpt>
      <trkpt lat="44.17123" lon="7.64643">
        <ele>2211</ele>
        <time>2021-11-14T22:09:20.171Z</time>
      </trkpt>
      <trkpt lat="44.17115" lon="7.64651">
        <ele>2212</ele>
        <time>2021-11-14T22:09:21.897Z</time>
      </trkpt>
      <trkpt lat="44.17109" lon="7.6466">
        <ele>2214</ele>
        <time>2021-11-14T22:09:23.625Z</time>
      </trkpt>
      <trkpt lat="44.17105" lon="7.6468">
        <ele>2215</ele>
        <time>2021-11-14T22:09:25.355Z</time>
      </trkpt>
      <trkpt lat="44.17092" lon="7.647">
        <ele>2217</ele>
        <time>2021-11-14T22:09:27.088Z</time>
      </trkpt>
      <trkpt lat="44.17089" lon="7.64715">
        <ele>2218</ele>
        <time>2021-11-14T22:09:28.823Z</time>
      </trkpt>
      <trkpt lat="44.17093" lon="7.64764">
        <ele>2220</ele>
        <time>2021-11-14T22:09:30.564Z</time>
      </trkpt>
      <trkpt lat="44.1709" lon="7.64775">
        <ele>2221</ele>
        <time>2021-11-14T22:09:32.306Z</time>
      </trkpt>
      <trkpt lat="44.17077" lon="7.6479">
        <ele>2223</ele>
        <time>2021-11-14T22:09:34.051Z</time>
      </trkpt>
      <trkpt lat="44.17067" lon="7.64795">
        <ele>2224</ele>
        <time>2021-11-14T22:09:35.797Z</time>
      </trkpt>
      <trkpt lat="44.17034" lon="7.64793">
        <ele>2225</ele>
        <time>2021-11-14T22:09:37.549Z</time>
      </trkpt>
      <trkpt lat="44.17018" lon="7.64776">
        <ele>2226</ele>
        <time>2021-11-14T22:09:39.304Z</time>
      </trkpt>
      <trkpt lat="44.17008" lon="7.6476">
        <ele>2226</ele>
        <time>2021-11-14T22:09:41.061Z</time>
      </trkpt>
      <trkpt lat="44.17003" lon="7.64756">
        <ele>2227</ele>
        <time>2021-11-14T22:09:42.819Z</time>
      </trkpt>
      <trkpt lat="44.16997" lon="7.64758">
        <ele>2228</ele>
        <time>2021-11-14T22:09:44.578Z</time>
      </trkpt>
      <trkpt lat="44.16996" lon="7.64762">
        <ele>2229</ele>
        <time>2021-11-14T22:09:46.338Z</time>
      </trkpt>
      <trkpt lat="44.17008" lon="7.64786">
        <ele>2229</ele>
        <time>2021-11-14T22:09:48.101Z</time>
      </trkpt>
      <trkpt lat="44.17012" lon="7.64838">
        <ele>2230</ele>
        <time>2021-11-14T22:09:49.870Z</time>
      </trkpt>
      <trkpt lat="44.17007" lon="7.64887">
        <ele>2230</ele>
        <time>2021-11-14T22:09:51.645Z</time>
      </trkpt>
      <trkpt lat="44.1701" lon="7.6494">
        <ele>2230</ele>
        <time>2021-11-14T22:09:53.426Z</time>
      </trkpt>
      <trkpt lat="44.17016" lon="7.64958">
        <ele>2231</ele>
        <time>2021-11-14T22:09:55.209Z</time>
      </trkpt>
      <trkpt lat="44.17016" lon="7.64971">
        <ele>2231</ele>
        <time>2021-11-14T22:09:56.994Z</time>
      </trkpt>
      <trkpt lat="44.16982" lon="7.65041">
        <ele>2230</ele>
        <time>2021-11-14T22:09:58.788Z</time>
      </trkpt>
      <trkpt lat="44.16968" lon="7.6508">
        <ele>2230</ele>
        <time>2021-11-14T22:10:00.588Z</time>
      </trkpt>
      <trkpt lat="44.16962" lon="7.65113">
        <ele>2230</ele>
        <time>2021-11-14T22:10:02.391Z</time>
      </trkpt>
      <trkpt lat="44.16965" lon="7.65177">
        <ele>2230</ele>
        <time>2021-11-14T22:10:04.202Z</time>
      </trkpt>
      <trkpt lat="44.16975" lon="7.65223">
        <ele>2230</ele>
        <time>2021-11-14T22:10:06.018Z</time>
      </trkpt>
      <trkpt lat="44.16992" lon="7.65262">
        <ele>2229</ele>
        <time>2021-11-14T22:10:07.840Z</time>
      </trkpt>
      <trkpt lat="44.17011" lon="7.65287">
        <ele>2229</ele>
        <time>2021-11-14T22:10:09.666Z</time>
      </trkpt>
      <trkpt lat="44.17031" lon="7.65306">
        <ele>2229</ele>
        <time>2021-11-14T22:10:11.496Z</time>
      </trkpt>
      <trkpt lat="44.17041" lon="7.65322">
        <ele>2228</ele>
        <time>2021-11-14T22:10:13.328Z</time>
      </trkpt>
      <trkpt lat="44.1706" lon="7.65328">
        <ele>2228</ele>
        <time>2021-11-14T22:10:15.163Z</time>
      </trkpt>
      <trkpt lat="44.17065" lon="7.65334">
        <ele>2227</ele>
        <time>2021-11-14T22:10:16.999Z</time>
      </trkpt>
      <trkpt lat="44.17069" lon="7.65353">
        <ele>2227</ele>
        <time>2021-11-14T22:10:18.838Z</time>
      </trkpt>
      <trkpt lat="44.17068" lon="7.65365">
        <ele>2226</ele>
        <time>2021-11-14T22:10:20.678Z</time>
      </trkpt>
      <trkpt lat="44.17056" lon="7.65383">
        <ele>2225</ele>
        <time>2021-11-14T22:10:22.521Z</time>
      </trkpt>
      <trkpt lat="44.17045" lon="7.65382">
        <ele>2225</ele>
        <time>2021-11-14T22:10:24.366Z</time>
      </trkpt>
      <trkpt lat="44.17029" lon="7.65373">
        <ele>2224</ele>
        <time>2021-11-14T22:10:26.213Z</time>
      </trkpt>
      <trkpt lat="44.17015" lon="7.65377">
        <ele>2223</ele>
        <time>2021-11-14T22:10:28.063Z</time>
      </trkpt>
      <trkpt lat="44.17004" lon="7.65384">
        <ele>2222</ele>
        <time>2021-11-14T22:10:29.915Z</time>
      </trkpt>
      <trkpt lat="44.16993" lon="7.65397">
        <ele>2221</ele>
        <time>2021-11-14T22:10:31.769Z</time>
      </trkpt>
      <trkpt lat="44.16976" lon="7.65406">
        <ele>2220</ele>
        <time>2021-11-14T22:10:33.626Z</time>
      </trkpt>
      <trkpt lat="44.1697" lon="7.6543">
        <ele>2219</ele>
        <time>2021-11-14T22:10:35.486Z</time>
      </trkpt>
      <trkpt lat="44.16973" lon="7.65456">
        <ele>2218</ele>
        <time>2021-11-14T22:10:37.349Z</time>
      </trkpt>
      <trkpt lat="44.16967" lon="7.65512">
        <ele>2216</ele>
        <time>2021-11-14T22:10:39.218Z</time>
      </trkpt>
      <trkpt lat="44.16951" lon="7.65539">
        <ele>2215</ele>
        <time>2021-11-14T22:10:41.091Z</time>
      </trkpt>
      <trkpt lat="44.16937" lon="7.65583">
        <ele>2213</ele>
        <time>2021-11-14T22:10:42.970Z</time>
      </trkpt>
      <trkpt lat="44.16926" lon="7.65595">
        <ele>2212</ele>
        <time>2021-11-14T22:10:44.851Z</time>
      </trkpt>
      <trkpt lat="44.16911" lon="7.65596">
        <ele>2211</ele>
        <time>2021-11-14T22:10:46.734Z</time>
      </trkpt>
      <trkpt lat="44.16899" lon="7.65601">
        <ele>2209</ele>
        <time>2021-11-14T22:10:48.619Z</time>
      </trkpt>
      <trkpt lat="44.1688" lon="7.65616">
        <ele>2208</ele>
        <time>2021-11-14T22:10:50.508Z</time>
      </trkpt>
      <trkpt lat="44.16878" lon="7.65624">
        <ele>2206</ele>
        <time>2021-11-14T22:10:52.398Z</time>
      </trkpt>
      <trkpt lat="44.16882" lon="7.65629">
        <ele>2204</ele>
        <time>2021-11-14T22:10:54.289Z</time>
      </trkpt>
      <trkpt lat="44.16886" lon="7.65629">
        <ele>2203</ele>
        <time>2021-11-14T22:10:56.180Z</time>
      </trkpt>
      <trkpt lat="44.16904" lon="7.65614">
        <ele>2201</ele>
        <time>2021-11-14T22:10:58.075Z</time>
      </trkpt>
      <trkpt lat="44.16931" lon="7.65613">
        <ele>2199</ele>
        <time>2021-11-14T22:10:59.974Z</time>
      </trkpt>
      <trkpt lat="44.16957" lon="7.65589">
        <ele>2197</ele>
        <time>2021-11-14T22:11:01.878Z</time>
      </trkpt>
      <trkpt lat="44.16973" lon="7.65569">
        <ele>2195</ele>
        <time>2021-11-14T22:11:03.786Z</time>
      </trkpt>
      <trkpt lat="44.17001" lon="7.65554">
        <ele>2193</ele>
        <time>2021-11-14T22:11:05.698Z</time>
      </trkpt>
      <trkpt lat="44.17023" lon="7.65553">
        <ele>2190</ele>
        <time>2021-11-14T22:11:07.614Z</time>
      </trkpt>
      <trkpt lat="44.17037" lon="7.65532">
        <ele>2189</ele>
        <time>2021-11-14T22:11:09.533Z</time>
      </trkpt>
      <trkpt lat="44.17046" lon="7.65529">
        <ele>2186</ele>
        <time>2021-11-14T22:11:11.454Z</time>
      </trkpt>
      <trkpt lat="44.17055" lon="7.6553">
        <ele>2184</ele>
        <time>2021-11-14T22:11:13.376Z</time>
      </trkpt>
      <trkpt lat="44.17064" lon="7.65546">
        <ele>2182</ele>
        <time>2021-11-14T22:11:15.300Z</time>
      </trkpt>
      <trkpt lat="44.17073" lon="7.65552">
        <ele>2180</ele>
        <time>2021-11-14T22:11:17.226Z</time>
      </trkpt>
      <trkpt lat="44.17087" lon="7.6558">
        <ele>2177</ele>
        <time>2021-11-14T22:11:19.156Z</time>
      </trkpt>
      <trkpt lat="44.17098" lon="7.65586">
        <ele>2175</ele>
        <time>2021-11-14T22:11:21.088Z</time>
      </trkpt>
      <trkpt lat="44.17123" lon="7.6559">
        <ele>2173</ele>
        <time>2021-11-14T22:11:23.024Z</time>
      </trkpt>
      <trkpt lat="44.17125" lon="7.65596">
        <ele>2171</ele>
        <time>2021-11-14T22:11:24.961Z</time>
      </trkpt>
      <trkpt lat="44.17123" lon="7.65608">
        <ele>2168</ele>
        <time>2021-11-14T22:11:26.899Z</time>
      </trkpt>
      <trkpt lat="44.17112" lon="7.65615">
        <ele>2166</ele>
        <time>2021-11-14T22:11:28.839Z</time>
      </trkpt>
      <trkpt lat="44.17099" lon="7.65606">
        <ele>2164</ele>
        <time>2021-11-14T22:11:30.781Z</time>
      </trkpt>
      <trkpt lat="44.17072" lon="7.65608">
        <ele>2161</ele>
        <time>2021-11-14T22:11:32.728Z</time>
      </trkpt>
      <trkpt lat="44.17064" lon="7.65616">
        <ele>2159</ele>
        <time>2021-11-14T22:11:34.676Z</time>
      </trkpt>
      <trkpt lat="44.17057" lon="7.65634">
        <ele>2156</ele>
        <time>2021-11-14T22:11:36.627Z</time>
      </trkpt>
      <trkpt lat="44.17045" lon="7.65647">
        <ele>2154</ele>
        <time>2021-11-14T22:11:38.580Z</time>
      </trkpt>
      <trkpt lat="44.17023" lon="7.65658">
        <ele>2152</ele>
        <time>2021-11-14T22:11:40.537Z</time>
      </trkpt>
      <trkpt lat="44.17003" lon="7.65673">
        <ele>2150</ele>
        <time>2021-11-14T22:11:42.497Z</time>
      </trkpt>
      <trkpt lat="44.16997" lon="7.65689">
        <ele>2147</ele>
        <time>2021-11-14T22:11:44.459Z</time>
      </trkpt>
      <trkpt lat="44.16991" lon="7.65763">
        <ele>2145</ele>
        <time>2021-11-14T22:11:46.430Z</time>
      </trkpt>
      <trkpt lat="44.16981" lon="7.65796">
        <ele>2143</ele>
        <time>2021-11-14T22:11:48.405Z</time>
      </trkpt>
      <trkpt lat="44.16968" lon="7.65893">
        <ele>2140</ele>
        <time>2021-11-14T22:11:50.392Z</time>
      </trkpt>
      <trkpt lat="44.16962" lon="7.65913">
        <ele>2138</ele>
        <time>2021-11-14T22:11:52.381Z</time>
      </trkpt>
      <trkpt lat="44.16943" lon="7.65932">
        <ele>2136</ele>
        <time>2021-11-14T22:11:54.374Z</time>
      </trkpt>
      <trkpt lat="44.1692" lon="7.65965">
        <ele>2134</ele>
        <time>2021-11-14T22:11:56.372Z</time>
      </trkpt>
      <trkpt lat="44.16919" lon="7.65987">
        <ele>2132</ele>
        <time>2021-11-14T22:11:58.373Z</time>
      </trkpt>
      <trkpt lat="44.16903" lon="7.66038">
        <ele>2130</ele>
        <time>2021-11-14T22:12:00.380Z</time>
      </trkpt>
      <trkpt lat="44.16909" lon="7.66073">
        <ele>2128</ele>
        <time>2021-11-14T22:12:02.391Z</time>
      </trkpt>
      <trkpt lat="44.16918" lon="7.6609">
        <ele>2126</ele>
        <time>2021-11-14T22:12:04.405Z</time>
      </trkpt>
      <trkpt lat="44.16944" lon="7.66121">
        <ele>2124</ele>
        <time>2021-11-14T22:12:06.424Z</time>
      </trkpt>
      <trkpt lat="44.16978" lon="7.66148">
        <ele>2123</ele>
        <time>2021-11-14T22:12:08.449Z</time>
      </trkpt>
      <trkpt lat="44.16983" lon="7.66156">
        <ele>2121</ele>
        <time>2021-11-14T22:12:10.476Z</time>
      </trkpt>
      <trkpt lat="44.16986" lon="7.66167">
        <ele>2120</ele>
        <time>2021-11-14T22:12:12.504Z</time>
      </trkpt>
      <trkpt lat="44.16987" lon="7.66202">
        <ele>2118</ele>
        <time>2021-11-14T22:12:14.536Z</time>
      </trkpt>
      <trkpt lat="44.16992" lon="7.66217">
        <ele>2117</ele>
        <time>2021-11-14T22:12:16.570Z</time>
      </trkpt>
      <trkpt lat="44.17017" lon="7.66229">
        <ele>2115</ele>
        <time>2021-11-14T22:12:18.608Z</time>
      </trkpt>
      <trkpt lat="44.17047" lon="7.66256">
        <ele>2114</ele>
        <time>2021-11-14T22:12:20.652Z</time>
      </trkpt>
      <trkpt lat="44.17087" lon="7.66285">
        <ele>2112</ele>
        <time>2021-11-14T22:12:22.703Z</time>
      </trkpt>
      <trkpt lat="44.17097" lon="7.66302">
        <ele>2111</ele>
        <time>2021-11-14T22:12:24.757Z</time>
      </trkpt>
      <trkpt lat="44.17097" lon="7.66318">
        <ele>2110</ele>
        <time>2021-11-14T22:12:26.812Z</time>
      </trkpt>
      <trkpt lat="44.17089" lon="7.66338">
        <ele>2109</ele>
        <time>2021-11-14T22:12:28.870Z</time>
      </trkpt>
      <trkpt lat="44.17091" lon="7.66366">
        <ele>2107</ele>
        <time>2021-11-14T22:12:30.931Z</time>
      </trkpt>
      <trkpt lat="44.17076" lon="7.66411">
        <ele>2107</ele>
        <time>2021-11-14T22:12:32.998Z</time>
      </trkpt>
      <trkpt lat="44.17033" lon="7.6648">
        <ele>2105</ele>
        <time>2021-11-14T22:12:35.075Z</time>
      </trkpt>
      <trkpt lat="44.17019" lon="7.66488">
        <ele>2104</ele>
        <time>2021-11-14T22:12:37.155Z</time>
      </trkpt>
      <trkpt lat="44.17004" lon="7.66492">
        <ele>2103</ele>
        <time>2021-11-14T22:12:39.237Z</time>
      </trkpt>
      <trkpt lat="44.16993" lon="7.66509">
        <ele>2102</ele>
        <time>2021-11-14T22:12:41.322Z</time>
      </trkpt>
      <trkpt lat="44.16993" lon="7.66525">
        <ele>2100</ele>
        <time>2021-11-14T22:12:43.409Z</time>
      </trkpt>
      <trkpt lat="44.17009" lon="7.66557">
        <ele>2099</ele>
        <time>2021-11-14T22:12:45.500Z</time>
      </trkpt>
      <trkpt lat="44.17023" lon="7.66598">
        <ele>2098</ele>
        <time>2021-11-14T22:12:47.597Z</time>
      </trkpt>
      <trkpt lat="44.17017" lon="7.66625">
        <ele>2097</ele>
        <time>2021-11-14T22:12:49.697Z</time>
      </trkpt>
      <trkpt lat="44.17013" lon="7.66631">
        <ele>2096</ele>
        <time>2021-11-14T22:12:51.798Z</time>
      </trkpt>
      <trkpt lat="44.16978" lon="7.66653">
        <ele>2095</ele>
        <time>2021-11-14T22:12:53.905Z</time>
      </trkpt>
      <trkpt lat="44.16934" lon="7.66704">
        <ele>2093</ele>
        <time>2021-11-14T22:12:56.021Z</time>
      </trkpt>
      <trkpt lat="44.16925" lon="7.6672">
        <ele>2092</ele>
        <time>2021-11-14T22:12:58.139Z</time>
      </trkpt>
      <trkpt lat="44.16905" lon="7.66724">
        <ele>2091</ele>
        <time>2021-11-14T22:13:00.261Z</time>
      </trkpt>
      <trkpt lat="44.16883" lon="7.66746">
        <ele>2090</ele>
        <time>2021-11-14T22:13:02.387Z</time>
      </trkpt>
      <trkpt lat="44.16873" lon="7.66752">
        <ele>2088</ele>
        <time>2021-11-14T22:13:04.515Z</time>
      </trkpt>
      <trkpt lat="44.1686" lon="7.6675">
        <ele>2087</ele>
        <time>2021-11-14T22:13:06.645Z</time>
      </trkpt>
      <trkpt lat="44.1685" lon="7.66741">
        <ele>2086</ele>
        <time>2021-11-14T22:13:08.777Z</time>
      </trkpt>
      <trkpt lat="44.16834" lon="7.66742">
        <ele>2085</ele>
        <time>2021-11-14T22:13:10.911Z</time>
      </trkpt>
      <trkpt lat="44.16821" lon="7.66763">
        <ele>2084</ele>
        <time>2021-11-14T22:13:13.048Z</time>
      </trkpt>
      <trkpt lat="44.16804" lon="7.66778">
        <ele>2083</ele>
        <time>2021-11-14T22:13:15.189Z</time>
      </trkpt>
      <trkpt lat="44.16797" lon="7.6678">
        <ele>2082</ele>
        <time>2021-11-14T22:13:17.331Z</time>
      </trkpt>
      <trkpt lat="44.16785" lon="7.66776">
        <ele>2081</ele>
        <time>2021-11-14T22:13:19.475Z</time>
      </trkpt>
      <trkpt lat="44.16758" lon="7.66784">
        <ele>2080</ele>
        <time>2021-11-14T22:13:21.623Z</time>
      </trkpt>
      <trkpt lat="44.16745" lon="7.66782">
        <ele>2079</ele>
        <time>2021-11-14T22:13:23.773Z</time>
      </trkpt>
      <trkpt lat="44.16723" lon="7.66772">
        <ele>2078</ele>
        <time>2021-11-14T22:13:25.927Z</time>
      </trkpt>
      <trkpt lat="44.16703" lon="7.66783">
        <ele>2077</ele>
        <time>2021-11-14T22:13:28.084Z</time>
      </trkpt>
      <trkpt lat="44.16684" lon="7.66781">
        <ele>2076</ele>
        <time>2021-11-14T22:13:30.244Z</time>
      </trkpt>
      <trkpt lat="44.16676" lon="7.66785">
        <ele>2075</ele>
        <time>2021-11-14T22:13:32.406Z</time>
      </trkpt>
      <trkpt lat="44.16672" lon="7.66794">
        <ele>2074</ele>
        <time>2021-11-14T22:13:34.569Z</time>
      </trkpt>
      <trkpt lat="44.16674" lon="7.66809">
        <ele>2074</ele>
        <time>2021-11-14T22:13:36.734Z</time>
      </trkpt>
      <trkpt lat="44.16671" lon="7.66832">
        <ele>2073</ele>
        <time>2021-11-14T22:13:38.902Z</time>
      </trkpt>
      <trkpt lat="44.16659" lon="7.66841">
        <ele>2073</ele>
        <time>2021-11-14T22:13:41.072Z</time>
      </trkpt>
      <trkpt lat="44.16653" lon="7.6684">
        <ele>2072</ele>
        <time>2021-11-14T22:13:43.243Z</time>
      </trkpt>
      <trkpt lat="44.16643" lon="7.6683">
        <ele>2071</ele>
        <time>2021-11-14T22:13:45.416Z</time>
      </trkpt>
      <trkpt lat="44.1663" lon="7.66826">
        <ele>2071</ele>
        <time>2021-11-14T22:13:47.591Z</time>
      </trkpt>
      <trkpt lat="44.16613" lon="7.66826">
        <ele>2070</ele>
        <time>2021-11-14T22:13:49.768Z</time>
      </trkpt>
      <trkpt lat="44.16601" lon="7.6683">
        <ele>2070</ele>
        <time>2021-11-14T22:13:51.947Z</time>
      </trkpt>
      <trkpt lat="44.16587" lon="7.6685">
        <ele>2069</ele>
        <time>2021-11-14T22:13:54.130Z</time>
      </trkpt>
      <trkpt lat="44.16574" lon="7.66856">
        <ele>2069</ele>
        <time>2021-11-14T22:13:56.315Z</time>
      </trkpt>
      <trkpt lat="44.16559" lon="7.66853">
        <ele>2069</ele>
        <time>2021-11-14T22:13:58.502Z</time>
      </trkpt>
      <trkpt lat="44.16531" lon="7.66873">
        <ele>2068</ele>
        <time>2021-11-14T22:14:00.694Z</time>
      </trkpt>
      <trkpt lat="44.16504" lon="7.66856">
        <ele>2068</ele>
        <time>2021-11-14T22:14:02.891Z</time>
      </trkpt>
      <trkpt lat="44.1649" lon="7.66858">
        <ele>2068</ele>
        <time>2021-11-14T22:14:05.090Z</time>
      </trkpt>
      <trkpt lat="44.16481" lon="7.66867">
        <ele>2067</ele>
        <time>2021-11-14T22:14:07.291Z</time>
      </trkpt>
      <trkpt lat="44.1648" lon="7.66874">
        <ele>2067</ele>
        <time>2021-11-14T22:14:09.493Z</time>
      </trkpt>
      <trkpt lat="44.1649" lon="7.66895">
        <ele>2068</ele>
        <time>2021-11-14T22:14:11.698Z</time>
      </trkpt>
      <trkpt lat="44.1649" lon="7.66907">
        <ele>2068</ele>
        <time>2021-11-14T22:14:13.904Z</time>
      </trkpt>
      <trkpt lat="44.16487" lon="7.66911">
        <ele>2068</ele>
        <time>2021-11-14T22:14:16.111Z</time>
      </trkpt>
      <trkpt lat="44.16483" lon="7.66913">
        <ele>2068</ele>
        <time>2021-11-14T22:14:18.319Z</time>
      </trkpt>
      <trkpt lat="44.16464" lon="7.66911">
        <ele>2068</ele>
        <time>2021-11-14T22:14:20.530Z</time>
      </trkpt>
      <trkpt lat="44.1643" lon="7.66948">
        <ele>2068</ele>
        <time>2021-11-14T22:14:22.747Z</time>
      </trkpt>
      <trkpt lat="44.16422" lon="7.66952">
        <ele>2069</ele>
        <time>2021-11-14T22:14:24.966Z</time>
      </trkpt>
      <trkpt lat="44.16403" lon="7.66951">
        <ele>2069</ele>
        <time>2021-11-14T22:14:27.188Z</time>
      </trkpt>
      <trkpt lat="44.16372" lon="7.66972">
        <ele>2069</ele>
        <time>2021-11-14T22:14:29.415Z</time>
      </trkpt>
      <trkpt lat="44.16349" lon="7.66965">
        <ele>2070</ele>
        <time>2021-11-14T22:14:31.646Z</time>
      </trkpt>
      <trkpt lat="44.16333" lon="7.66955">
        <ele>2070</ele>
        <time>2021-11-14T22:14:33.880Z</time>
      </trkpt>
      <trkpt lat="44.16302" lon="7.66947">
        <ele>2071</ele>
        <time>2021-11-14T22:14:36.119Z</time>
      </trkpt>
      <trkpt lat="44.16264" lon="7.66974">
        <ele>2072</ele>
        <time>2021-11-14T22:14:38.365Z</time>
      </trkpt>
      <trkpt lat="44.16238" lon="7.66972">
        <ele>2072</ele>
        <time>2021-11-14T22:14:40.615Z</time>
      </trkpt>
      <trkpt lat="44.16204" lon="7.66958">
        <ele>2073</ele>
        <time>2021-11-14T22:14:42.871Z</time>
      </trkpt>
      <trkpt lat="44.16178" lon="7.66952">
        <ele>2074</ele>
        <time>2021-11-14T22:14:45.131Z</time>
      </trkpt>
      <trkpt lat="44.16154" lon="7.66955">
        <ele>2075</ele>
        <time>2021-11-14T22:14:47.395Z</time>
      </trkpt>
      <trkpt lat="44.16136" lon="7.66951">
        <ele>2076</ele>
        <time>2021-11-14T22:14:49.662Z</time>
      </trkpt>
      <trkpt lat="44.16126" lon="7.66952">
        <ele>2077</ele>
        <time>2021-11-14T22:14:51.930Z</time>
      </trkpt>
      <trkpt lat="44.16104" lon="7.66993">
        <ele>2078</ele>
        <time>2021-11-14T22:14:54.204Z</time>
      </trkpt>
      <trkpt lat="44.16098" lon="7.66999">
        <ele>2080</ele>
        <time>2021-11-14T22:14:56.479Z</time>
      </trkpt>
      <trkpt lat="44.16089" lon="7.67">
        <ele>2081</ele>
        <time>2021-11-14T22:14:58.756Z</time>
      </trkpt>
      <trkpt lat="44.16045" lon="7.6699">
        <ele>2082</ele>
        <time>2021-11-14T22:15:01.040Z</time>
      </trkpt>
      <trkpt lat="44.16012" lon="7.66971">
        <ele>2083</ele>
        <time>2021-11-14T22:15:03.330Z</time>
      </trkpt>
      <trkpt lat="44.16004" lon="7.66973">
        <ele>2084</ele>
        <time>2021-11-14T22:15:05.621Z</time>
      </trkpt>
      <trkpt lat="44.1598" lon="7.67004">
        <ele>2086</ele>
        <time>2021-11-14T22:15:07.917Z</time>
      </trkpt>
      <trkpt lat="44.15965" lon="7.67015">
        <ele>2087</ele>
        <time>2021-11-14T22:15:10.216Z</time>
      </trkpt>
      <trkpt lat="44.15942" lon="7.67044">
        <ele>2089</ele>
        <time>2021-11-14T22:15:12.520Z</time>
      </trkpt>
      <trkpt lat="44.15934" lon="7.67063">
        <ele>2091</ele>
        <time>2021-11-14T22:15:14.826Z</time>
      </trkpt>
      <trkpt lat="44.15928" lon="7.67091">
        <ele>2092</ele>
        <time>2021-11-14T22:15:17.136Z</time>
      </trkpt>
      <trkpt lat="44.15917" lon="7.6711">
        <ele>2094</ele>
        <time>2021-11-14T22:15:19.449Z</time>
      </trkpt>
      <trkpt lat="44.15911" lon="7.67113">
        <ele>2096</ele>
        <time>2021-11-14T22:15:21.763Z</time>
      </trkpt>
      <trkpt lat="44.15882" lon="7.67114">
        <ele>2098</ele>
        <time>2021-11-14T22:15:24.081Z</time>
      </trkpt>
      <trkpt lat="44.15826" lon="7.67152">
        <ele>2100</ele>
        <time>2021-11-14T22:15:26.409Z</time>
      </trkpt>
      <trkpt lat="44.15819" lon="7.67153">
        <ele>2102</ele>
        <time>2021-11-14T22:15:28.738Z</time>
      </trkpt>
      <trkpt lat="44.15802" lon="7.67148">
        <ele>2104</ele>
        <time>2021-11-14T22:15:31.070Z</time>
      </trkpt>
      <trkpt lat="44.1578" lon="7.67126">
        <ele>2106</ele>
        <time>2021-11-14T22:15:33.406Z</time>
      </trkpt>
      <trkpt lat="44.15772" lon="7.67123">
        <ele>2108</ele>
        <time>2021-11-14T22:15:35.744Z</time>
      </trkpt>
      <trkpt lat="44.15749" lon="7.67121">
        <ele>2111</ele>
        <time>2021-11-14T22:15:38.085Z</time>
      </trkpt>
      <trkpt lat="44.1573" lon="7.6711">
        <ele>2113</ele>
        <time>2021-11-14T22:15:40.430Z</time>
      </trkpt>
      <trkpt lat="44.15693" lon="7.67108">
        <ele>2116</ele>
        <time>2021-11-14T22:15:42.781Z</time>
      </trkpt>
      <trkpt lat="44.15673" lon="7.67112">
        <ele>2118</ele>
        <time>2021-11-14T22:15:45.135Z</time>
      </trkpt>
      <trkpt lat="44.15654" lon="7.67132">
        <ele>2121</ele>
        <time>2021-11-14T22:15:47.493Z</time>
      </trkpt>
      <trkpt lat="44.15638" lon="7.67143">
        <ele>2124</ele>
        <time>2021-11-14T22:15:49.854Z</time>
      </trkpt>
      <trkpt lat="44.15622" lon="7.67149">
        <ele>2127</ele>
        <time>2021-11-14T22:15:52.217Z</time>
      </trkpt>
      <trkpt lat="44.15604" lon="7.67149">
        <ele>2129</ele>
        <time>2021-11-14T22:15:54.583Z</time>
      </trkpt>
      <trkpt lat="44.15577" lon="7.6714">
        <ele>2132</ele>
        <time>2021-11-14T22:15:56.954Z</time>
      </trkpt>
      <trkpt lat="44.15562" lon="7.67126">
        <ele>2136</ele>
        <time>2021-11-14T22:15:59.327Z</time>
      </trkpt>
      <trkpt lat="44.15535" lon="7.67123">
        <ele>2139</ele>
        <time>2021-11-14T22:16:01.705Z</time>
      </trkpt>
      <trkpt lat="44.1553" lon="7.67119">
        <ele>2142</ele>
        <time>2021-11-14T22:16:04.084Z</time>
      </trkpt>
      <trkpt lat="44.15521" lon="7.67095">
        <ele>2145</ele>
        <time>2021-11-14T22:16:06.466Z</time>
      </trkpt>
      <trkpt lat="44.1551" lon="7.67088">
        <ele>2148</ele>
        <time>2021-11-14T22:16:08.850Z</time>
      </trkpt>
      <trkpt lat="44.15501" lon="7.67087">
        <ele>2151</ele>
        <time>2021-11-14T22:16:11.235Z</time>
      </trkpt>
      <trkpt lat="44.15491" lon="7.67092">
        <ele>2154</ele>
        <time>2021-11-14T22:16:13.622Z</time>
      </trkpt>
      <trkpt lat="44.15478" lon="7.6711">
        <ele>2157</ele>
        <time>2021-11-14T22:16:16.012Z</time>
      </trkpt>
      <trkpt lat="44.15459" lon="7.67114">
        <ele>2161</ele>
        <time>2021-11-14T22:16:18.405Z</time>
      </trkpt>
      <trkpt lat="44.15442" lon="7.67125">
        <ele>2164</ele>
        <time>2021-11-14T22:16:20.801Z</time>
      </trkpt>
      <trkpt lat="44.15422" lon="7.67132">
        <ele>2167</ele>
        <time>2021-11-14T22:16:23.200Z</time>
      </trkpt>
      <trkpt lat="44.15406" lon="7.67127">
        <ele>2170</ele>
        <time>2021-11-14T22:16:25.602Z</time>
      </trkpt>
      <trkpt lat="44.15377" lon="7.6713">
        <ele>2174</ele>
        <time>2021-11-14T22:16:28.009Z</time>
      </trkpt>
      <trkpt lat="44.15368" lon="7.67136">
        <ele>2177</ele>
        <time>2021-11-14T22:16:30.417Z</time>
      </trkpt>
      <trkpt lat="44.15357" lon="7.67152">
        <ele>2180</ele>
        <time>2021-11-14T22:16:32.828Z</time>
      </trkpt>
      <trkpt lat="44.15338" lon="7.67191">
        <ele>2182</ele>
        <time>2021-11-14T22:16:35.244Z</time>
      </trkpt>
      <trkpt lat="44.15298" lon="7.6721">
        <ele>2185</ele>
        <time>2021-11-14T22:16:37.667Z</time>
      </trkpt>
      <trkpt lat="44.15261" lon="7.67263">
        <ele>2189</ele>
        <time>2021-11-14T22:16:40.098Z</time>
      </trkpt>
      <trkpt lat="44.15255" lon="7.67279">
        <ele>2191</ele>
        <time>2021-11-14T22:16:42.531Z</time>
      </trkpt>
      <trkpt lat="44.15214" lon="7.67302">
        <ele>2194</ele>
        <time>2021-11-14T22:16:44.972Z</time>
      </trkpt>
      <trkpt lat="44.15191" lon="7.67304">
        <ele>2197</ele>
        <time>2021-11-14T22:16:47.416Z</time>
      </trkpt>
      <trkpt lat="44.15168" lon="7.67317">
        <ele>2200</ele>
        <time>2021-11-14T22:16:49.864Z</time>
      </trkpt>
      <trkpt lat="44.15122" lon="7.6746">
        <ele>2203</ele>
        <time>2021-11-14T22:16:52.330Z</time>
      </trkpt>
      <trkpt lat="44.1511" lon="7.67543">
        <ele>2205</ele>
        <time>2021-11-14T22:16:54.806Z</time>
      </trkpt>
      <trkpt lat="44.15078" lon="7.67633">
        <ele>2207</ele>
        <time>2021-11-14T22:16:57.294Z</time>
      </trkpt>
      <trkpt lat="44.15038" lon="7.67678">
        <ele>2210</ele>
        <time>2021-11-14T22:16:59.790Z</time>
      </trkpt>
      <trkpt lat="44.15028" lon="7.67703">
        <ele>2212</ele>
        <time>2021-11-14T22:17:02.289Z</time>
      </trkpt>
      <trkpt lat="44.15015" lon="7.67781">
        <ele>2214</ele>
        <time>2021-11-14T22:17:04.797Z</time>
      </trkpt>
      <trkpt lat="44.15007" lon="7.67803">
        <ele>2216</ele>
        <time>2021-11-14T22:17:07.308Z</time>
      </trkpt>
      <trkpt lat="44.15006" lon="7.67835">
        <ele>2217</ele>
        <time>2021-11-14T22:17:09.823Z</time>
      </trkpt>
      <trkpt lat="44.14983" lon="7.67933">
        <ele>2220</ele>
        <time>2021-11-14T22:17:12.350Z</time>
      </trkpt>
      <trkpt lat="44.1497" lon="7.67956">
        <ele>2222</ele>
        <time>2021-11-14T22:17:14.880Z</time>
      </trkpt>
      <trkpt lat="44.14979" lon="7.68011">
        <ele>2222</ele>
        <time>2021-11-14T22:17:17.417Z</time>
      </trkpt>
      <trkpt lat="44.14974" lon="7.6804">
        <ele>2223</ele>
        <time>2021-11-14T22:17:19.957Z</time>
      </trkpt>
      <trkpt lat="44.14947" lon="7.6812">
        <ele>2225</ele>
        <time>2021-11-14T22:17:22.507Z</time>
      </trkpt>
      <trkpt lat="44.14931" lon="7.68239">
        <ele>2226</ele>
        <time>2021-11-14T22:17:25.071Z</time>
      </trkpt>
      <trkpt lat="44.14897" lon="7.68322">
        <ele>2226</ele>
        <time>2021-11-14T22:17:27.646Z</time>
      </trkpt>
      <trkpt lat="44.14871" lon="7.68317">
        <ele>2227</ele>
        <time>2021-11-14T22:17:30.225Z</time>
      </trkpt>
      <trkpt lat="44.14855" lon="7.68322">
        <ele>2227</ele>
        <time>2021-11-14T22:17:32.807Z</time>
      </trkpt>
      <trkpt lat="44.14822" lon="7.68341">
        <ele>2227</ele>
        <time>2021-11-14T22:17:35.395Z</time>
      </trkpt>
      <trkpt lat="44.14792" lon="7.68383">
        <ele>2227</ele>
        <time>2021-11-14T22:17:37.989Z</time>
      </trkpt>
      <trkpt lat="44.14769" lon="7.68493">
        <ele>2226</ele>
        <time>2021-11-14T22:17:40.597Z</time>
      </trkpt>
      <trkpt lat="44.14747" lon="7.68574">
        <ele>2225</ele>
        <time>2021-11-14T22:17:43.215Z</time>
      </trkpt>
      <trkpt lat="44.14727" lon="7.68623">
        <ele>2224</ele>
        <time>2021-11-14T22:17:45.839Z</time>
      </trkpt>
      <trkpt lat="44.14718" lon="7.68676">
        <ele>2223</ele>
        <time>2021-11-14T22:17:48.469Z</time>
      </trkpt>
      <trkpt lat="44.14731" lon="7.68722">
        <ele>2221</ele>
        <time>2021-11-14T22:17:51.105Z</time>
      </trkpt>
      <trkpt lat="44.1477" lon="7.6879">
        <ele>2220</ele>
        <time>2021-11-14T22:17:53.751Z</time>
      </trkpt>
      <trkpt lat="44.14776" lon="7.68816">
        <ele>2218</ele>
        <time>2021-11-14T22:17:56.400Z</time>
      </trkpt>
      <trkpt lat="44.14775" lon="7.68912">
        <ele>2216</ele>
        <time>2021-11-14T22:17:59.060Z</time>
      </trkpt>
      <trkpt lat="44.14763" lon="7.69037">
        <ele>2214</ele>
        <time>2021-11-14T22:18:01.735Z</time>
      </trkpt>
      <trkpt lat="44.1476" lon="7.69118">
        <ele>2212</ele>
        <time>2021-11-14T22:18:04.419Z</time>
      </trkpt>
      <trkpt lat="44.14738" lon="7.69314">
        <ele>2210</ele>
        <time>2021-11-14T22:18:07.126Z</time>
      </trkpt>
      <trkpt lat="44.14742" lon="7.69443">
        <ele>2207</ele>
        <time>2021-11-14T22:18:09.848Z</time>
      </trkpt>
      <trkpt lat="44.14752" lon="7.69526">
        <ele>2204</ele>
        <time>2021-11-14T22:18:12.580Z</time>
      </trkpt>
      <trkpt lat="44.14748" lon="7.69547">
        <ele>2202</ele>
        <time>2021-11-14T22:18:15.314Z</time>
      </trkpt>
      <trkpt lat="44.14738" lon="7.69554">
        <ele>2200</ele>
        <time>2021-11-14T22:18:18.050Z</time>
      </trkpt>
      <trkpt lat="44.14726" lon="7.69548">
        <ele>2197</ele>
        <time>2021-11-14T22:18:20.788Z</time>
      </trkpt>
      <trkpt lat="44.14713" lon="7.69478">
        <ele>2195</ele>
        <time>2021-11-14T22:18:23.534Z</time>
      </trkpt>
      <trkpt lat="44.14667" lon="7.69379">
        <ele>2193</ele>
        <time>2021-11-14T22:18:26.294Z</time>
      </trkpt>
      <trkpt lat="44.14638" lon="7.69302">
        <ele>2190</ele>
        <time>2021-11-14T22:18:29.064Z</time>
      </trkpt>
      <trkpt lat="44.14613" lon="7.69267">
        <ele>2188</ele>
        <time>2021-11-14T22:18:31.840Z</time>
      </trkpt>
      <trkpt lat="44.14589" lon="7.69221">
        <ele>2185</ele>
        <time>2021-11-14T22:18:34.622Z</time>
      </trkpt>
      <trkpt lat="44.14577" lon="7.69181">
        <ele>2182</ele>
        <time>2021-11-14T22:18:37.409Z</time>
      </trkpt>
      <trkpt lat="44.14538" lon="7.68966">
        <ele>2179</ele>
        <time>2021-11-14T22:18:40.222Z</time>
      </trkpt>
      <trkpt lat="44.14535" lon="7.68885">
        <ele>2176</ele>
        <time>2021-11-14T22:18:43.044Z</time>
      </trkpt>
      <trkpt lat="44.14522" lon="7.68837">
        <ele>2174</ele>
        <time>2021-11-14T22:18:45.872Z</time>
      </trkpt>
      <trkpt lat="44.145" lon="7.68795">
        <ele>2171</ele>
        <time>2021-11-14T22:18:48.706Z</time>
      </trkpt>
      <trkpt lat="44.14483" lon="7.68714">
        <ele>2168</ele>
        <time>2021-11-14T22:18:51.550Z</time>
      </trkpt>
      <trkpt lat="44.14483" lon="7.68698">
        <ele>2165</ele>
        <time>2021-11-14T22:18:54.395Z</time>
      </trkpt>
      <trkpt lat="44.14499" lon="7.68655">
        <ele>2163</ele>
        <time>2021-11-14T22:18:57.246Z</time>
      </trkpt>
      <trkpt lat="44.14494" lon="7.68628">
        <ele>2160</ele>
        <time>2021-11-14T22:19:00.100Z</time>
      </trkpt>
      <trkpt lat="44.14494" lon="7.68607">
        <ele>2157</ele>
        <time>2021-11-14T22:19:02.957Z</time>
      </trkpt>
      <trkpt lat="44.14505" lon="7.68566">
        <ele>2155</ele>
        <time>2021-11-14T22:19:05.819Z</time>
      </trkpt>
      <trkpt lat="44.14505" lon="7.68547">
        <ele>2153</ele>
        <time>2021-11-14T22:19:08.683Z</time>
      </trkpt>
      <trkpt lat="44.14481" lon="7.68499">
        <ele>2150</ele>
        <time>2021-11-14T22:19:11.554Z</time>
      </trkpt>
      <trkpt lat="44.14478" lon="7.68476">
        <ele>2147</ele>
        <time>2021-11-14T22:19:14.427Z</time>
      </trkpt>
      <trkpt lat="44.14479" lon="7.6844">
        <ele>2145</ele>
        <time>2021-11-14T22:19:17.304Z</time>
      </trkpt>
      <trkpt lat="44.14472" lon="7.68368">
        <ele>2143</ele>
        <time>2021-11-14T22:19:20.190Z</time>
      </trkpt>
      <trkpt lat="44.14466" lon="7.68342">
        <ele>2140</ele>
        <time>2021-11-14T22:19:23.079Z</time>
      </trkpt>
      <trkpt lat="44.14449" lon="7.68306">
        <ele>2137</ele>
        <time>2021-11-14T22:19:25.973Z</time>
      </trkpt>
      <trkpt lat="44.14442" lon="7.68268">
        <ele>2134</ele>
        <time>2021-11-14T22:19:28.871Z</time>
      </trkpt>
      <trkpt lat="44.14424" lon="7.68203">
        <ele>2131</ele>
        <time>2021-11-14T22:19:31.777Z</time>
      </trkpt>
      <trkpt lat="44.14422" lon="7.68184">
        <ele>2129</ele>
        <time>2021-11-14T22:19:34.686Z</time>
      </trkpt>
      <trkpt lat="44.1443" lon="7.68115">
        <ele>2126</ele>
        <time>2021-11-14T22:19:37.603Z</time>
      </trkpt>
      <trkpt lat="44.14429" lon="7.68057">
        <ele>2123</ele>
        <time>2021-11-14T22:19:40.526Z</time>
      </trkpt>
      <trkpt lat="44.14419" lon="7.68007">
        <ele>2121</ele>
        <time>2021-11-14T22:19:43.455Z</time>
      </trkpt>
      <trkpt lat="44.14419" lon="7.67978">
        <ele>2118</ele>
        <time>2021-11-14T22:19:46.388Z</time>
      </trkpt>
      <trkpt lat="44.14402" lon="7.67919">
        <ele>2115</ele>
        <time>2021-11-14T22:19:49.328Z</time>
      </trkpt>
      <trkpt lat="44.144" lon="7.67894">
        <ele>2113</ele>
        <time>2021-11-14T22:19:52.271Z</time>
      </trkpt>
      <trkpt lat="44.14393" lon="7.67873">
        <ele>2110</ele>
        <time>2021-11-14T22:19:55.217Z</time>
      </trkpt>
      <trkpt lat="44.14393" lon="7.67854">
        <ele>2107</ele>
        <time>2021-11-14T22:19:58.165Z</time>
      </trkpt>
      <trkpt lat="44.14375" lon="7.67802">
        <ele>2104</ele>
        <time>2021-11-14T22:20:01.119Z</time>
      </trkpt>
      <trkpt lat="44.14342" lon="7.67757">
        <ele>2101</ele>
        <time>2021-11-14T22:20:04.081Z</time>
      </trkpt>
      <trkpt lat="44.14323" lon="7.67746">
        <ele>2098</ele>
        <time>2021-11-14T22:20:07.046Z</time>
      </trkpt>
      <trkpt lat="44.1432" lon="7.67739">
        <ele>2095</ele>
        <time>2021-11-14T22:20:10.012Z</time>
      </trkpt>
      <trkpt lat="44.14296" lon="7.67714">
        <ele>2092</ele>
        <time>2021-11-14T22:20:12.983Z</time>
      </trkpt>
      <trkpt lat="44.14261" lon="7.67701">
        <ele>2089</ele>
        <time>2021-11-14T22:20:15.960Z</time>
      </trkpt>
      <trkpt lat="44.142" lon="7.67687">
        <ele>2086</ele>
        <time>2021-11-14T22:20:18.947Z</time>
      </trkpt>
      <trkpt lat="44.14173" lon="7.67688">
        <ele>2083</ele>
        <time>2021-11-14T22:20:21.938Z</time>
      </trkpt>
      <trkpt lat="44.14159" lon="7.67694">
        <ele>2079</ele>
        <time>2021-11-14T22:20:24.931Z</time>
      </trkpt>
      <trkpt lat="44.14136" lon="7.67698">
        <ele>2076</ele>
        <time>2021-11-14T22:20:27.928Z</time>
      </trkpt>
      <trkpt lat="44.14055" lon="7.67708">
        <ele>2073</ele>
        <time>2021-11-14T22:20:30.938Z</time>
      </trkpt>
      <trkpt lat="44.14033" lon="7.67706">
        <ele>2070</ele>
        <time>2021-11-14T22:20:33.952Z</time>
      </trkpt>
      <trkpt lat="44.13976" lon="7.67677">
        <ele>2066</ele>
        <time>2021-11-14T22:20:36.975Z</time>
      </trkpt>
      <trkpt lat="44.13943" lon="7.67644">
        <ele>2063</ele>
        <time>2021-11-14T22:20:40.005Z</time>
      </trkpt>
      <trkpt lat="44.13926" lon="7.67639">
        <ele>2059</ele>
        <time>2021-11-14T22:20:43.038Z</time>
      </trkpt>
      <trkpt lat="44.1391" lon="7.67643">
        <ele>2056</ele>
        <time>2021-11-14T22:20:46.073Z</time>
      </trkpt>
      <trkpt lat="44.13808" lon="7.677">
        <ele>2052</ele>
        <time>2021-11-14T22:20:49.126Z</time>
      </trkpt>
      <trkpt lat="44.13774" lon="7.67725">
        <ele>2048</ele>
        <time>2021-11-14T22:20:52.185Z</time>
      </trkpt>
      <trkpt lat="44.13766" lon="7.67724">
        <ele>2044</ele>
        <time>2021-11-14T22:20:55.245Z</time>
      </trkpt>
      <trkpt lat="44.13757" lon="7.67717">
        <ele>2041</ele>
        <time>2021-11-14T22:20:58.307Z</time>
      </trkpt>
      <trkpt lat="44.13729" lon="7.67649">
        <ele>2038</ele>
        <time>2021-11-14T22:21:01.378Z</time>
      </trkpt>
      <trkpt lat="44.1368" lon="7.67574">
        <ele>2034</ele>
        <time>2021-11-14T22:21:04.460Z</time>
      </trkpt>
      <trkpt lat="44.13671" lon="7.67554">
        <ele>2030</ele>
        <time>2021-11-14T22:21:07.545Z</time>
      </trkpt>
      <trkpt lat="44.13667" lon="7.67514">
        <ele>2027</ele>
        <time>2021-11-14T22:21:10.635Z</time>
      </trkpt>
      <trkpt lat="44.1366" lon="7.67503">
        <ele>2024</ele>
        <time>2021-11-14T22:21:13.727Z</time>
      </trkpt>
      <trkpt lat="44.13648" lon="7.67494">
        <ele>2020</ele>
        <time>2021-11-14T22:21:16.821Z</time>
      </trkpt>
      <trkpt lat="44.1362" lon="7.67438">
        <ele>2017</ele>
        <time>2021-11-14T22:21:19.923Z</time>
      </trkpt>
      <trkpt lat="44.136" lon="7.67435">
        <ele>2014</ele>
        <time>2021-11-14T22:21:23.028Z</time>
      </trkpt>
      <trkpt lat="44.13567" lon="7.67412">
        <ele>2010</ele>
        <time>2021-11-14T22:21:26.139Z</time>
      </trkpt>
      <trkpt lat="44.13511" lon="7.6738">
        <ele>2007</ele>
        <time>2021-11-14T22:21:29.259Z</time>
      </trkpt>
      <trkpt lat="44.13495" lon="7.67365">
        <ele>2004</ele>
        <time>2021-11-14T22:21:32.382Z</time>
      </trkpt>
      <trkpt lat="44.13473" lon="7.67331">
        <ele>2001</ele>
        <time>2021-11-14T22:21:35.511Z</time>
      </trkpt>
      <trkpt lat="44.13459" lon="7.6733">
        <ele>1998</ele>
        <time>2021-11-14T22:21:38.642Z</time>
      </trkpt>
      <trkpt lat="44.13434" lon="7.67369">
        <ele>1995</ele>
        <time>2021-11-14T22:21:41.779Z</time>
      </trkpt>
      <trkpt lat="44.13375" lon="7.67446">
        <ele>1992</ele>
        <time>2021-11-14T22:21:44.929Z</time>
      </trkpt>
      <trkpt lat="44.13372" lon="7.67471">
        <ele>1990</ele>
        <time>2021-11-14T22:21:48.082Z</time>
      </trkpt>
      <trkpt lat="44.13377" lon="7.675">
        <ele>1987</ele>
        <time>2021-11-14T22:21:51.238Z</time>
      </trkpt>
      <trkpt lat="44.13375" lon="7.67514">
        <ele>1985</ele>
        <time>2021-11-14T22:21:54.396Z</time>
      </trkpt>
      <trkpt lat="44.13369" lon="7.67525">
        <ele>1983</ele>
        <time>2021-11-14T22:21:57.556Z</time>
      </trkpt>
      <trkpt lat="44.13339" lon="7.67743">
        <ele>1981</ele>
        <time>2021-11-14T22:22:00.741Z</time>
      </trkpt>
      <trkpt lat="44.13343" lon="7.67767">
        <ele>1979</ele>
        <time>2021-11-14T22:22:03.929Z</time>
      </trkpt>
      <trkpt lat="44.1334" lon="7.6779">
        <ele>1977</ele>
        <time>2021-11-14T22:22:07.120Z</time>
      </trkpt>
      <trkpt lat="44.13332" lon="7.67802">
        <ele>1976</ele>
        <time>2021-11-14T22:22:10.313Z</time>
      </trkpt>
      <trkpt lat="44.13312" lon="7.67816">
        <ele>1975</ele>
        <time>2021-11-14T22:22:13.509Z</time>
      </trkpt>
      <trkpt lat="44.13278" lon="7.67827">
        <ele>1974</ele>
        <time>2021-11-14T22:22:16.711Z</time>
      </trkpt>
      <trkpt lat="44.13268" lon="7.67838">
        <ele>1973</ele>
        <time>2021-11-14T22:22:19.915Z</time>
      </trkpt>
      <trkpt lat="44.1322" lon="7.6792">
        <ele>1972</ele>
        <time>2021-11-14T22:22:23.131Z</time>
      </trkpt>
      <trkpt lat="44.1319" lon="7.68">
        <ele>1971</ele>
        <time>2021-11-14T22:22:26.357Z</time>
      </trkpt>
      <trkpt lat="44.13173" lon="7.68112">
        <ele>1970</ele>
        <time>2021-11-14T22:22:29.597Z</time>
      </trkpt>
      <trkpt lat="44.13166" lon="7.68131">
        <ele>1969</ele>
        <time>2021-11-14T22:22:32.839Z</time>
      </trkpt>
      <trkpt lat="44.13158" lon="7.68137">
        <ele>1969</ele>
        <time>2021-11-14T22:22:36.082Z</time>
      </trkpt>
      <trkpt lat="44.13143" lon="7.68138">
        <ele>1968</ele>
        <time>2021-11-14T22:22:39.328Z</time>
      </trkpt>
      <trkpt lat="44.13132" lon="7.68146">
        <ele>1968</ele>
        <time>2021-11-14T22:22:42.576Z</time>
      </trkpt>
      <trkpt lat="44.13126" lon="7.68167">
        <ele>1968</ele>
        <time>2021-11-14T22:22:45.826Z</time>
      </trkpt>
      <trkpt lat="44.13117" lon="7.68179">
        <ele>1967</ele>
        <time>2021-11-14T22:22:49.078Z</time>
      </trkpt>
      <trkpt lat="44.13107" lon="7.68182">
        <ele>1967</ele>
        <time>2021-11-14T22:22:52.332Z</time>
      </trkpt>
      <trkpt lat="44.13091" lon="7.68169">
        <ele>1967</ele>
        <time>2021-11-14T22:22:55.589Z</time>
      </trkpt>
      <trkpt lat="44.13026" lon="7.68067">
        <ele>1968</ele>
        <time>2021-11-14T22:22:58.862Z</time>
      </trkpt>
      <trkpt lat="44.13014" lon="7.68041">
        <ele>1969</ele>
        <time>2021-11-14T22:23:02.138Z</time>
      </trkpt>
      <trkpt lat="44.12976" lon="7.6798">
        <ele>1969</ele>
        <time>2021-11-14T22:23:05.424Z</time>
      </trkpt>
      <trkpt lat="44.1296" lon="7.67971">
        <ele>1969</ele>
        <time>2021-11-14T22:23:08.712Z</time>
      </trkpt>
      <trkpt lat="44.12939" lon="7.67968">
        <ele>1968</ele>
        <time>2021-11-14T22:23:12.004Z</time>
      </trkpt>
      <trkpt lat="44.12922" lon="7.67999">
        <ele>1968</ele>
        <time>2021-11-14T22:23:15.300Z</time>
      </trkpt>
      <trkpt lat="44.12898" lon="7.68028">
        <ele>1968</ele>
        <time>2021-11-14T22:23:18.601Z</time>
      </trkpt>
      <trkpt lat="44.12873" lon="7.68042">
        <ele>1968</ele>
        <time>2021-11-14T22:23:21.907Z</time>
      </trkpt>
      <trkpt lat="44.1286" lon="7.68039">
        <ele>1968</ele>
        <time>2021-11-14T22:23:25.215Z</time>
      </trkpt>
      <trkpt lat="44.12839" lon="7.67996">
        <ele>1969</ele>
        <time>2021-11-14T22:23:28.529Z</time>
      </trkpt>
      <trkpt lat="44.12831" lon="7.67989">
        <ele>1969</ele>
        <time>2021-11-14T22:23:31.844Z</time>
      </trkpt>
      <trkpt lat="44.12819" lon="7.6799">
        <ele>1969</ele>
        <time>2021-11-14T22:23:35.161Z</time>
      </trkpt>
      <trkpt lat="44.12801" lon="7.68012">
        <ele>1969</ele>
        <time>2021-11-14T22:23:38.482Z</time>
      </trkpt>
      <trkpt lat="44.12785" lon="7.6802">
        <ele>1969</ele>
        <time>2021-11-14T22:23:41.806Z</time>
      </trkpt>
      <trkpt lat="44.12765" lon="7.68016">
        <ele>1969</ele>
        <time>2021-11-14T22:23:45.133Z</time>
      </trkpt>
      <trkpt lat="44.12707" lon="7.67988">
        <ele>1969</ele>
        <time>2021-11-14T22:23:48.470Z</time>
      </trkpt>
      <trkpt lat="44.12698" lon="7.6799">
        <ele>1969</ele>
        <time>2021-11-14T22:23:51.808Z</time>
      </trkpt>
      <trkpt lat="44.12691" lon="7.67995">
        <ele>1969</ele>
        <time>2021-11-14T22:23:55.147Z</time>
      </trkpt>
      <trkpt lat="44.12666" lon="7.68033">
        <ele>1968</ele>
        <time>2021-11-14T22:23:58.492Z</time>
      </trkpt>
      <trkpt lat="44.1266" lon="7.68051">
        <ele>1968</ele>
        <time>2021-11-14T22:24:01.840Z</time>
      </trkpt>
      <trkpt lat="44.12663" lon="7.68068">
        <ele>1967</ele>
        <time>2021-11-14T22:24:05.190Z</time>
      </trkpt>
      <trkpt lat="44.12688" lon="7.68128">
        <ele>1967</ele>
        <time>2021-11-14T22:24:08.548Z</time>
      </trkpt>
      <trkpt lat="44.1269" lon="7.68146">
        <ele>1966</ele>
        <time>2021-11-14T22:24:11.908Z</time>
      </trkpt>
      <trkpt lat="44.12677" lon="7.682">
        <ele>1966</ele>
        <time>2021-11-14T22:24:15.274Z</time>
      </trkpt>
      <trkpt lat="44.12685" lon="7.6825">
        <ele>1966</ele>
        <time>2021-11-14T22:24:18.646Z</time>
      </trkpt>
      <trkpt lat="44.12678" lon="7.68277">
        <ele>1965</ele>
        <time>2021-11-14T22:24:22.022Z</time>
      </trkpt>
      <trkpt lat="44.12672" lon="7.68287">
        <ele>1964</ele>
        <time>2021-11-14T22:24:25.399Z</time>
      </trkpt>
      <trkpt lat="44.12672" lon="7.68305">
        <ele>1964</ele>
        <time>2021-11-14T22:24:28.778Z</time>
      </trkpt>
      <trkpt lat="44.12742" lon="7.68502">
        <ele>1963</ele>
        <time>2021-11-14T22:24:32.182Z</time>
      </trkpt>
      <trkpt lat="44.12795" lon="7.68607">
        <ele>1962</ele>
        <time>2021-11-14T22:24:35.601Z</time>
      </trkpt>
      <trkpt lat="44.12835" lon="7.68665">
        <ele>1961</ele>
        <time>2021-11-14T22:24:39.030Z</time>
      </trkpt>
      <trkpt lat="44.12837" lon="7.68699">
        <ele>1960</ele>
        <time>2021-11-14T22:24:42.462Z</time>
      </trkpt>
      <trkpt lat="44.1282" lon="7.68785">
        <ele>1959</ele>
        <time>2021-11-14T22:24:45.905Z</time>
      </trkpt>
      <trkpt lat="44.1285" lon="7.68905">
        <ele>1958</ele>
        <time>2021-11-14T22:24:49.362Z</time>
      </trkpt>
      <trkpt lat="44.12848" lon="7.68937">
        <ele>1957</ele>
        <time>2021-11-14T22:24:52.823Z</time>
      </trkpt>
      <trkpt lat="44.12828" lon="7.69031">
        <ele>1956</ele>
        <time>2021-11-14T22:24:56.295Z</time>
      </trkpt>
      <trkpt lat="44.12817" lon="7.69055">
        <ele>1955</ele>
        <time>2021-11-14T22:24:59.771Z</time>
      </trkpt>
      <trkpt lat="44.12801" lon="7.69076">
        <ele>1954</ele>
        <time>2021-11-14T22:25:03.250Z</time>
      </trkpt>
      <trkpt lat="44.1277" lon="7.691">
        <ele>1953</ele>
        <time>2021-11-14T22:25:06.735Z</time>
      </trkpt>
      <trkpt lat="44.12728" lon="7.6912">
        <ele>1952</ele>
        <time>2021-11-14T22:25:10.227Z</time>
      </trkpt>
      <trkpt lat="44.12676" lon="7.69163">
        <ele>1951</ele>
        <time>2021-11-14T22:25:13.729Z</time>
      </trkpt>
      <trkpt lat="44.12535" lon="7.69232">
        <ele>1949</ele>
        <time>2021-11-14T22:25:17.255Z</time>
      </trkpt>
      <trkpt lat="44.12522" lon="7.69234">
        <ele>1947</ele>
        <time>2021-11-14T22:25:20.783Z</time>
      </trkpt>
      <trkpt lat="44.12508" lon="7.69217">
        <ele>1945</ele>
        <time>2021-11-14T22:25:24.314Z</time>
      </trkpt>
      <trkpt lat="44.12495" lon="7.69183">
        <ele>1944</ele>
        <time>2021-11-14T22:25:27.849Z</time>
      </trkpt>
      <trkpt lat="44.12485" lon="7.69142">
        <ele>1943</ele>
        <time>2021-11-14T22:25:31.389Z</time>
      </trkpt>
      <trkpt lat="44.12451" lon="7.69102">
        <ele>1942</ele>
        <time>2021-11-14T22:25:34.936Z</time>
      </trkpt>
      <trkpt lat="44.12421" lon="7.6908">
        <ele>1941</ele>
        <time>2021-11-14T22:25:38.489Z</time>
      </trkpt>
      <trkpt lat="44.12396" lon="7.6907">
        <ele>1939</ele>
        <time>2021-11-14T22:25:42.046Z</time>
      </trkpt>
      <trkpt lat="44.12349" lon="7.69066">
        <ele>1938</ele>
        <time>2021-11-14T22:25:45.610Z</time>
      </trkpt>
      <trkpt lat="44.12319" lon="7.69054">
        <ele>1936</ele>
        <time>2021-11-14T22:25:49.179Z</time>
      </trkpt>
      <trkpt lat="44.12285" lon="7.69054">
        <ele>1935</ele>
        <time>2021-11-14T22:25:52.754Z</time>
      </trkpt>
      <trkpt lat="44.1225" lon="7.69022">
        <ele>1933</ele>
        <time>2021-11-14T22:25:56.335Z</time>
      </trkpt>
      <trkpt lat="44.12212" lon="7.69023">
        <ele>1932</ele>
        <time>2021-11-14T22:25:59.923Z</time>
      </trkpt>
      <trkpt lat="44.12201" lon="7.69031">
        <ele>1930</ele>
        <time>2021-11-14T22:26:03.513Z</time>
      </trkpt>
      <trkpt lat="44.12197" lon="7.69041">
        <ele>1929</ele>
        <time>2021-11-14T22:26:07.104Z</time>
      </trkpt>
      <trkpt lat="44.12197" lon="7.69092">
        <ele>1927</ele>
        <time>2021-11-14T22:26:10.701Z</time>
      </trkpt>
      <trkpt lat="44.1219" lon="7.69116">
        <ele>1926</ele>
        <time>2021-11-14T22:26:14.301Z</time>
      </trkpt>
      <trkpt lat="44.1217" lon="7.69127">
        <ele>1924</ele>
        <time>2021-11-14T22:26:17.904Z</time>
      </trkpt>
      <trkpt lat="44.12129" lon="7.6914">
        <ele>1923</ele>
        <time>2021-11-14T22:26:21.514Z</time>
      </trkpt>
      <trkpt lat="44.12108" lon="7.69131">
        <ele>1922</ele>
        <time>2021-11-14T22:26:25.127Z</time>
      </trkpt>
      <trkpt lat="44.12097" lon="7.69136">
        <ele>1920</ele>
        <time>2021-11-14T22:26:28.742Z</time>
      </trkpt>
      <trkpt lat="44.12085" lon="7.69155">
        <ele>1919</ele>
        <time>2021-11-14T22:26:32.360Z</time>
      </trkpt>
      <trkpt lat="44.12062" lon="7.69235">
        <ele>1917</ele>
        <time>2021-11-14T22:26:35.988Z</time>
      </trkpt>
      <trkpt lat="44.12047" lon="7.69266">
        <ele>1916</ele>
        <time>2021-11-14T22:26:39.620Z</time>
      </trkpt>
      <trkpt lat="44.12036" lon="7.69353">
        <ele>1914</ele>
        <time>2021-11-14T22:26:43.263Z</time>
      </trkpt>
      <trkpt lat="44.12033" lon="7.69477">
        <ele>1913</ele>
        <time>2021-11-14T22:26:46.920Z</time>
      </trkpt>
      <trkpt lat="44.12016" lon="7.6953">
        <ele>1912</ele>
        <time>2021-11-14T22:26:50.584Z</time>
      </trkpt>
      <trkpt lat="44.1201" lon="7.69608">
        <ele>1910</ele>
        <time>2021-11-14T22:26:54.257Z</time>
      </trkpt>
      <trkpt lat="44.12" lon="7.69653">
        <ele>1909</ele>
        <time>2021-11-14T22:26:57.935Z</time>
      </trkpt>
      <trkpt lat="44.11953" lon="7.69769">
        <ele>1908</ele>
        <time>2021-11-14T22:27:01.628Z</time>
      </trkpt>
      <trkpt lat="44.11934" lon="7.69796">
        <ele>1907</ele>
        <time>2021-11-14T22:27:05.326Z</time>
      </trkpt>
      <trkpt lat="44.11898" lon="7.69817">
        <ele>1906</ele>
        <time>2021-11-14T22:27:09.030Z</time>
      </trkpt>
      <trkpt lat="44.11858" lon="7.69917">
        <ele>1905</ele>
        <time>2021-11-14T22:27:12.747Z</time>
      </trkpt>
      <trkpt lat="44.11857" lon="7.69969">
        <ele>1904</ele>
        <time>2021-11-14T22:27:16.470Z</time>
      </trkpt>
      <trkpt lat="44.11854" lon="7.69987">
        <ele>1903</ele>
        <time>2021-11-14T22:27:20.195Z</time>
      </trkpt>
      <trkpt lat="44.11847" lon="7.69998">
        <ele>1902</ele>
        <time>2021-11-14T22:27:23.922Z</time>
      </trkpt>
      <trkpt lat="44.11834" lon="7.6999">
        <ele>1901</ele>
        <time>2021-11-14T22:27:27.651Z</time>
      </trkpt>
      <trkpt lat="44.11798" lon="7.69838">
        <ele>1901</ele>
        <time>2021-11-14T22:27:31.399Z</time>
      </trkpt>
      <trkpt lat="44.11742" lon="7.69759">
        <ele>1900</ele>
        <time>2021-11-14T22:27:35.159Z</time>
      </trkpt>
      <trkpt lat="44.11731" lon="7.69757">
        <ele>1899</ele>
        <time>2021-11-14T22:27:38.921Z</time>
      </trkpt>
      <trkpt lat="44.11712" lon="7.69784">
        <ele>1899</ele>
        <time>2021-11-14T22:27:42.688Z</time>
      </trkpt>
      <trkpt lat="44.11678" lon="7.69844">
        <ele>1898</ele>
        <time>2021-11-14T22:27:46.463Z</time>
      </trkpt>
      <trkpt lat="44.11668" lon="7.69848">
        <ele>1897</ele>
        <time>2021-11-14T22:27:50.240Z</time>
      </trkpt>
      <trkpt lat="44.11651" lon="7.69849">
        <ele>1897</ele>
        <time>2021-11-14T22:27:54.020Z</time>
      </trkpt>
      <trkpt lat="44.11632" lon="7.69886">
        <ele>1897</ele>
        <time>2021-11-14T22:27:57.805Z</time>
      </trkpt>
      <trkpt lat="44.11621" lon="7.69889">
        <ele>1896</ele>
        <time>2021-11-14T22:28:01.592Z</time>
      </trkpt>
      <trkpt lat="44.11606" lon="7.69874">
        <ele>1896</ele>
        <time>2021-11-14T22:28:05.382Z</time>
      </trkpt>
      <trkpt lat="44.11587" lon="7.6982">
        <ele>1897</ele>
        <time>2021-11-14T22:28:09.179Z</time>
      </trkpt>
      <trkpt lat="44.11569" lon="7.69818">
        <ele>1897</ele>
        <time>2021-11-14T22:28:12.979Z</time>
      </trkpt>
      <trkpt lat="44.1154" lon="7.69842">
        <ele>1897</ele>
        <time>2021-11-14T22:28:16.784Z</time>
      </trkpt>
      <trkpt lat="44.11483" lon="7.69975">
        <ele>1897</ele>
        <time>2021-11-14T22:28:20.607Z</time>
      </trkpt>
      <trkpt lat="44.11472" lon="7.69996">
        <ele>1897</ele>
        <time>2021-11-14T22:28:24.433Z</time>
      </trkpt>
      <trkpt lat="44.11452" lon="7.70015">
        <ele>1898</ele>
        <time>2021-11-14T22:28:28.263Z</time>
      </trkpt>
      <trkpt lat="44.11446" lon="7.7005">
        <ele>1898</ele>
        <time>2021-11-14T22:28:32.097Z</time>
      </trkpt>
      <trkpt lat="44.1146" lon="7.70135">
        <ele>1898</ele>
        <time>2021-11-14T22:28:35.941Z</time>
      </trkpt>
      <trkpt lat="44.11448" lon="7.70154">
        <ele>1898</ele>
        <time>2021-11-14T22:28:39.788Z</time>
      </trkpt>
      <trkpt lat="44.11428" lon="7.70162">
        <ele>1899</ele>
        <time>2021-11-14T22:28:43.638Z</time>
      </trkpt>
      <trkpt lat="44.11404" lon="7.702">
        <ele>1900</ele>
        <time>2021-11-14T22:28:47.494Z</time>
      </trkpt>
      <trkpt lat="44.11307" lon="7.70424">
        <ele>1900</ele>
        <time>2021-11-14T22:28:51.380Z</time>
      </trkpt>
      <trkpt lat="44.11264" lon="7.705">
        <ele>1901</ele>
        <time>2021-11-14T22:28:55.277Z</time>
      </trkpt>
      <trkpt lat="44.11243" lon="7.70507">
        <ele>1901</ele>
        <time>2021-11-14T22:28:59.178Z</time>
      </trkpt>
      <trkpt lat="44.11228" lon="7.70497">
        <ele>1902</ele>
        <time>2021-11-14T22:29:03.081Z</time>
      </trkpt>
      <trkpt lat="44.11211" lon="7.70471">
        <ele>1902</ele>
        <time>2021-11-14T22:29:06.988Z</time>
      </trkpt>
      <trkpt lat="44.11198" lon="7.7043">
        <ele>1903</ele>
        <time>2021-11-14T22:29:10.901Z</time>
      </trkpt>
      <trkpt lat="44.11187" lon="7.70412">
        <ele>1904</ele>
        <time>2021-11-14T22:29:14.816Z</time>
      </trkpt>
      <trkpt lat="44.11172" lon="7.70403">
        <ele>1905</ele>
        <time>2021-11-14T22:29:18.734Z</time>
      </trkpt>
      <trkpt lat="44.11114" lon="7.70392">
        <ele>1905</ele>
        <time>2021-11-14T22:29:22.661Z</time>
      </trkpt>
      <trkpt lat="44.10999" lon="7.70337">
        <ele>1905</ele>
        <time>2021-11-14T22:29:26.608Z</time>
      </trkpt>
      <trkpt lat="44.10981" lon="7.70332">
        <ele>1906</ele>
        <time>2021-11-14T22:29:30.558Z</time>
      </trkpt>
      <trkpt lat="44.10954" lon="7.70334">
        <ele>1906</ele>
        <time>2021-11-14T22:29:34.512Z</time>
      </trkpt>
      <trkpt lat="44.10938" lon="7.70342">
        <ele>1907</ele>
        <time>2021-11-14T22:29:38.469Z</time>
      </trkpt>
      <trkpt lat="44.10903" lon="7.70385">
        <ele>1907</ele>
        <time>2021-11-14T22:29:42.433Z</time>
      </trkpt>
      <trkpt lat="44.10876" lon="7.70388">
        <ele>1908</ele>
        <time>2021-11-14T22:29:46.402Z</time>
      </trkpt>
      <trkpt lat="44.10826" lon="7.70415">
        <ele>1909</ele>
        <time>2021-11-14T22:29:50.379Z</time>
      </trkpt>
      <trkpt lat="44.10811" lon="7.70445">
        <ele>1909</ele>
        <time>2021-11-14T22:29:54.360Z</time>
      </trkpt>
      <trkpt lat="44.10807" lon="7.70504">
        <ele>1909</ele>
        <time>2021-11-14T22:29:58.348Z</time>
      </trkpt>
      <trkpt lat="44.1078" lon="7.70581">
        <ele>1909</ele>
        <time>2021-11-14T22:30:02.346Z</time>
      </trkpt>
      <trkpt lat="44.10746" lon="7.7064">
        <ele>1909</ele>
        <time>2021-11-14T22:30:06.353Z</time>
      </trkpt>
      <trkpt lat="44.10737" lon="7.70678">
        <ele>1910</ele>
        <time>2021-11-14T22:30:10.364Z</time>
      </trkpt>
      <trkpt lat="44.1071" lon="7.70761">
        <ele>1910</ele>
        <time>2021-11-14T22:30:14.386Z</time>
      </trkpt>
      <trkpt lat="44.10678" lon="7.70821">
        <ele>1910</ele>
        <time>2021-11-14T22:30:18.416Z</time>
      </trkpt>
      <trkpt lat="44.10662" lon="7.70862">
        <ele>1910</ele>
        <time>2021-11-14T22:30:22.452Z</time>
      </trkpt>
      <trkpt lat="44.10645" lon="7.70888">
        <ele>1910</ele>
        <time>2021-11-14T22:30:26.492Z</time>
      </trkpt>
      <trkpt lat="44.10582" lon="7.70962">
        <ele>1909</ele>
        <time>2021-11-14T22:30:30.545Z</time>
      </trkpt>
      <trkpt lat="44.10564" lon="7.70997">
        <ele>1909</ele>
        <time>2021-11-14T22:30:34.603Z</time>
      </trkpt>
      <trkpt lat="44.10527" lon="7.71035">
        <ele>1909</ele>
        <time>2021-11-14T22:30:38.668Z</time>
      </trkpt>
      <trkpt lat="44.10508" lon="7.71041">
        <ele>1908</ele>
        <time>2021-11-14T22:30:42.736Z</time>
      </trkpt>
      <trkpt lat="44.10493" lon="7.71034">
        <ele>1908</ele>
        <time>2021-11-14T22:30:46.807Z</time>
      </trkpt>
      <trkpt lat="44.10452" lon="7.70987">
        <ele>1908</ele>
        <time>2021-11-14T22:30:50.887Z</time>
      </trkpt>
      <trkpt lat="44.10425" lon="7.70972">
        <ele>1907</ele>
        <time>2021-11-14T22:30:54.971Z</time>
      </trkpt>
      <trkpt lat="44.10388" lon="7.7097">
        <ele>1905</ele>
        <time>2021-11-14T22:30:59.061Z</time>
      </trkpt>
      <trkpt lat="44.10345" lon="7.7096">
        <ele>1904</ele>
        <time>2021-11-14T22:31:03.158Z</time>
      </trkpt>
      <trkpt lat="44.10296" lon="7.7093">
        <ele>1903</ele>
        <time>2021-11-14T22:31:07.264Z</time>
      </trkpt>
      <trkpt lat="44.10275" lon="7.70931">
        <ele>1902</ele>
        <time>2021-11-14T22:31:11.373Z</time>
      </trkpt>
      <trkpt lat="44.10265" lon="7.70945">
        <ele>1900</ele>
        <time>2021-11-14T22:31:15.484Z</time>
      </trkpt>
      <trkpt lat="44.10249" lon="7.71179">
        <ele>1898</ele>
        <time>2021-11-14T22:31:19.622Z</time>
      </trkpt>
      <trkpt lat="44.10243" lon="7.71212">
        <ele>1897</ele>
        <time>2021-11-14T22:31:23.764Z</time>
      </trkpt>
      <trkpt lat="44.10209" lon="7.71293">
        <ele>1895</ele>
        <time>2021-11-14T22:31:27.917Z</time>
      </trkpt>
      <trkpt lat="44.10213" lon="7.71372">
        <ele>1893</ele>
        <time>2021-11-14T22:31:32.079Z</time>
      </trkpt>
      <trkpt lat="44.10202" lon="7.71468">
        <ele>1891</ele>
        <time>2021-11-14T22:31:36.252Z</time>
      </trkpt>
      <trkpt lat="44.10189" lon="7.71496">
        <ele>1889</ele>
        <time>2021-11-14T22:31:40.429Z</time>
      </trkpt>
      <trkpt lat="44.10161" lon="7.71526">
        <ele>1888</ele>
        <time>2021-11-14T22:31:44.612Z</time>
      </trkpt>
      <trkpt lat="44.10173" lon="7.71608">
        <ele>1886</ele>
        <time>2021-11-14T22:31:48.805Z</time>
      </trkpt>
      <trkpt lat="44.102" lon="7.71665">
        <ele>1884</ele>
        <time>2021-11-14T22:31:53.005Z</time>
      </trkpt>
      <trkpt lat="44.10233" lon="7.71678">
        <ele>1882</ele>
        <time>2021-11-14T22:31:57.211Z</time>
      </trkpt>
      <trkpt lat="44.10297" lon="7.7174">
        <ele>1879</ele>
        <time>2021-11-14T22:32:01.429Z</time>
      </trkpt>
      <trkpt lat="44.103" lon="7.71825">
        <ele>1878</ele>
        <time>2021-11-14T22:32:05.657Z</time>
      </trkpt>
      <trkpt lat="44.10297" lon="7.71839">
        <ele>1877</ele>
        <time>2021-11-14T22:32:09.887Z</time>
      </trkpt>
      <trkpt lat="44.10281" lon="7.71852">
        <ele>1875</ele>
        <time>2021-11-14T22:32:14.120Z</time>
      </trkpt>
      <trkpt lat="44.10248" lon="7.71838">
        <ele>1873</ele>
        <time>2021-11-14T22:32:18.358Z</time>
      </trkpt>
      <trkpt lat="44.10228" lon="7.7184">
        <ele>1872</ele>
        <time>2021-11-14T22:32:22.600Z</time>
      </trkpt>
      <trkpt lat="44.1017" lon="7.71899">
        <ele>1870</ele>
        <time>2021-11-14T22:32:26.853Z</time>
      </trkpt>
      <trkpt lat="44.10153" lon="7.71904">
        <ele>1868</ele>
        <time>2021-11-14T22:32:31.109Z</time>
      </trkpt>
      <trkpt lat="44.10131" lon="7.719">
        <ele>1867</ele>
        <time>2021-11-14T22:32:35.368Z</time>
      </trkpt>
      <trkpt lat="44.10023" lon="7.71789">
        <ele>1866</ele>
        <time>2021-11-14T22:32:39.649Z</time>
      </trkpt>
      <trkpt lat="44.09963" lon="7.7175">
        <ele>1864</ele>
        <time>2021-11-14T22:32:43.941Z</time>
      </trkpt>
      <trkpt lat="44.09937" lon="7.71746">
        <ele>1863</ele>
        <time>2021-11-14T22:32:48.237Z</time>
      </trkpt>
      <trkpt lat="44.09916" lon="7.71726">
        <ele>1861</ele>
        <time>2021-11-14T22:32:52.537Z</time>
      </trkpt>
      <trkpt lat="44.0987" lon="7.71649">
        <ele>1860</ele>
        <time>2021-11-14T22:32:56.848Z</time>
      </trkpt>
      <trkpt lat="44.09827" lon="7.71605">
        <ele>1859</ele>
        <time>2021-11-14T22:33:01.168Z</time>
      </trkpt>
      <trkpt lat="44.09804" lon="7.71563">
        <ele>1858</ele>
        <time>2021-11-14T22:33:05.494Z</time>
      </trkpt>
      <trkpt lat="44.09786" lon="7.7155">
        <ele>1856</ele>
        <time>2021-11-14T22:33:09.823Z</time>
      </trkpt>
      <trkpt lat="44.09772" lon="7.71549">
        <ele>1855</ele>
        <time>2021-11-14T22:33:14.155Z</time>
      </trkpt>
      <trkpt lat="44.09759" lon="7.71555">
        <ele>1854</ele>
        <time>2021-11-14T22:33:18.489Z</time>
      </trkpt>
      <trkpt lat="44.09744" lon="7.71584">
        <ele>1852</ele>
        <time>2021-11-14T22:33:22.827Z</time>
      </trkpt>
      <trkpt lat="44.09698" lon="7.71645">
        <ele>1851</ele>
        <time>2021-11-14T22:33:27.175Z</time>
      </trkpt>
      <trkpt lat="44.09672" lon="7.71691">
        <ele>1850</ele>
        <time>2021-11-14T22:33:31.530Z</time>
      </trkpt>
      <trkpt lat="44.09663" lon="7.71827">
        <ele>1848</ele>
        <time>2021-11-14T22:33:35.900Z</time>
      </trkpt>
      <trkpt lat="44.09643" lon="7.7195">
        <ele>1847</ele>
        <time>2021-11-14T22:33:40.285Z</time>
      </trkpt>
      <trkpt lat="44.09628" lon="7.7198">
        <ele>1846</ele>
        <time>2021-11-14T22:33:44.674Z</time>
      </trkpt>
      <trkpt lat="44.09615" lon="7.72018">
        <ele>1844</ele>
        <time>2021-11-14T22:33:49.068Z</time>
      </trkpt>
      <trkpt lat="44.09605" lon="7.7212">
        <ele>1843</ele>
        <time>2021-11-14T22:33:53.474Z</time>
      </trkpt>
      <trkpt lat="44.09602" lon="7.72259">
        <ele>1841</ele>
        <time>2021-11-14T22:33:57.896Z</time>
      </trkpt>
      <trkpt lat="44.09591" lon="7.7228">
        <ele>1840</ele>
        <time>2021-11-14T22:34:02.321Z</time>
      </trkpt>
      <trkpt lat="44.09575" lon="7.72287">
        <ele>1840</ele>
        <time>2021-11-14T22:34:06.749Z</time>
      </trkpt>
      <trkpt lat="44.09534" lon="7.72271">
        <ele>1839</ele>
        <time>2021-11-14T22:34:11.183Z</time>
      </trkpt>
      <trkpt lat="44.09524" lon="7.72255">
        <ele>1838</ele>
        <time>2021-11-14T22:34:15.620Z</time>
      </trkpt>
      <trkpt lat="44.09465" lon="7.722">
        <ele>1837</ele>
        <time>2021-11-14T22:34:20.068Z</time>
      </trkpt>
      <trkpt lat="44.09408" lon="7.72172">
        <ele>1836</ele>
        <time>2021-11-14T22:34:24.526Z</time>
      </trkpt>
      <trkpt lat="44.09397" lon="7.72174">
        <ele>1836</ele>
        <time>2021-11-14T22:34:28.986Z</time>
      </trkpt>
      <trkpt lat="44.09362" lon="7.72196">
        <ele>1835</ele>
        <time>2021-11-14T22:34:33.452Z</time>
      </trkpt>
      <trkpt lat="44.09345" lon="7.72196">
        <ele>1834</ele>
        <time>2021-11-14T22:34:37.921Z</time>
      </trkpt>
      <trkpt lat="44.09324" lon="7.72182">
        <ele>1834</ele>
        <time>2021-11-14T22:34:42.393Z</time>
      </trkpt>
      <trkpt lat="44.09297" lon="7.72154">
        <ele>1833</ele>
        <time>2021-11-14T22:34:46.871Z</time>
      </trkpt>
      <trkpt lat="44.09285" lon="7.72139">
        <ele>1833</ele>
        <time>2021-11-14T22:34:51.351Z</time>
      </trkpt>
      <trkpt lat="44.09275" lon="7.72117">
        <ele>1832</ele>
        <time>2021-11-14T22:34:55.834Z</time>
      </trkpt>
      <trkpt lat="44.09257" lon="7.72094">
        <ele>1832</ele>
        <time>2021-11-14T22:35:00.321Z</time>
      </trkpt>
      <trkpt lat="44.09217" lon="7.72076">
        <ele>1831</ele>
        <time>2021-11-14T22:35:04.815Z</time>
      </trkpt>
      <trkpt lat="44.09199" lon="7.7208">
        <ele>1830</ele>
        <time>2021-11-14T22:35:09.312Z</time>
      </trkpt>
      <trkpt lat="44.09182" lon="7.72088">
        <ele>1830</ele>
        <time>2021-11-14T22:35:13.812Z</time>
      </trkpt>
      <trkpt lat="44.09166" lon="7.72084">
        <ele>1829</ele>
        <time>2021-11-14T22:35:18.314Z</time>
      </trkpt>
      <trkpt lat="44.09065" lon="7.72035">
        <ele>1829</ele>
        <time>2021-11-14T22:35:22.833Z</time>
      </trkpt>
      <trkpt lat="44.09029" lon="7.72005">
        <ele>1829</ele>
        <time>2021-11-14T22:35:27.359Z</time>
      </trkpt>
      <trkpt lat="44.09015" lon="7.72007">
        <ele>1828</ele>
        <time>2021-11-14T22:35:31.887Z</time>
      </trkpt>
      <trkpt lat="44.09004" lon="7.72024">
        <ele>1827</ele>
        <time>2021-11-14T22:35:36.418Z</time>
      </trkpt>
      <trkpt lat="44.08984" lon="7.72118">
        <ele>1827</ele>
        <time>2021-11-14T22:35:40.960Z</time>
      </trkpt>
      <trkpt lat="44.08982" lon="7.72163">
        <ele>1826</ele>
        <time>2021-11-14T22:35:45.508Z</time>
      </trkpt>
      <trkpt lat="44.08975" lon="7.72176">
        <ele>1826</ele>
        <time>2021-11-14T22:35:50.057Z</time>
      </trkpt>
      <trkpt lat="44.08957" lon="7.72184">
        <ele>1826</ele>
        <time>2021-11-14T22:35:54.609Z</time>
      </trkpt>
      <trkpt lat="44.08952" lon="7.7219">
        <ele>1826</ele>
        <time>2021-11-14T22:35:59.163Z</time>
      </trkpt>
      <trkpt lat="44.08937" lon="7.72234">
        <ele>1826</ele>
        <time>2021-11-14T22:36:03.722Z</time>
      </trkpt>
      <trkpt lat="44.08925" lon="7.72247">
        <ele>1825</ele>
        <time>2021-11-14T22:36:08.284Z</time>
      </trkpt>
      <trkpt lat="44.08853" lon="7.72262">
        <ele>1825</ele>
        <time>2021-11-14T22:36:12.857Z</time>
      </trkpt>
      <trkpt lat="44.08836" lon="7.72272">
        <ele>1825</ele>
        <time>2021-11-14T22:36:17.433Z</time>
      </trkpt>
      <trkpt lat="44.08818" lon="7.72294">
        <ele>1825</ele>
        <time>2021-11-14T22:36:22.013Z</time>
      </trkpt>
      <trkpt lat="44.08805" lon="7.72334">
        <ele>1825</ele>
        <time>2021-11-14T22:36:26.598Z</time>
      </trkpt>
      <trkpt lat="44.08805" lon="7.72381">
        <ele>1825</ele>
        <time>2021-11-14T22:36:31.189Z</time>
      </trkpt>
      <trkpt lat="44.08815" lon="7.72443">
        <ele>1825</ele>
        <time>2021-11-14T22:36:35.787Z</time>
      </trkpt>
      <trkpt lat="44.08798" lon="7.72554">
        <ele>1825</ele>
        <time>2021-11-14T22:36:40.398Z</time>
      </trkpt>
      <trkpt lat="44.08781" lon="7.72641">
        <ele>1825</ele>
        <time>2021-11-14T22:36:45.019Z</time>
      </trkpt>
      <trkpt lat="44.0874" lon="7.72756">
        <ele>1825</ele>
        <time>2021-11-14T22:36:49.655Z</time>
      </trkpt>
      <trkpt lat="44.08641" lon="7.72939">
        <ele>1826</ele>
        <time>2021-11-14T22:36:54.318Z</time>
      </trkpt>
      <trkpt lat="44.08555" lon="7.7299">
        <ele>1826</ele>
        <time>2021-11-14T22:36:58.995Z</time>
      </trkpt>
      <trkpt lat="44.08535" lon="7.73023">
        <ele>1826</ele>
        <time>2021-11-14T22:37:03.677Z</time>
      </trkpt>
      <trkpt lat="44.08501" lon="7.73095">
        <ele>1826</ele>
        <time>2021-11-14T22:37:08.369Z</time>
      </trkpt>
      <trkpt lat="44.08467" lon="7.73152">
        <ele>1827</ele>
        <time>2021-11-14T22:37:13.070Z</time>
      </trkpt>
      <trkpt lat="44.08425" lon="7.73207">
        <ele>1827</ele>
        <time>2021-11-14T22:37:17.780Z</time>
      </trkpt>
      <trkpt lat="44.08399" lon="7.73231">
        <ele>1827</ele>
        <time>2021-11-14T22:37:22.495Z</time>
      </trkpt>
      <trkpt lat="44.08358" lon="7.73289">
        <ele>1827</ele>
        <time>2021-11-14T22:37:27.220Z</time>
      </trkpt>
      <trkpt lat="44.08354" lon="7.73293">
        <ele>1828</ele>
        <time>2021-11-14T22:37:31.945Z</time>
      </trkpt>
      <trkpt lat="44.08348" lon="7.73293">
        <ele>1828</ele>
        <time>2021-11-14T22:37:36.671Z</time>
      </trkpt>
      <trkpt lat="44.08337" lon="7.73276">
        <ele>1828</ele>
        <time>2021-11-14T22:37:41.400Z</time>
      </trkpt>
      <trkpt lat="44.08326" lon="7.73225">
        <ele>1829</ele>
        <time>2021-11-14T22:37:46.135Z</time>
      </trkpt>
      <trkpt lat="44.08304" lon="7.73176">
        <ele>1829</ele>
        <time>2021-11-14T22:37:50.877Z</time>
      </trkpt>
      <trkpt lat="44.08283" lon="7.73134">
        <ele>1830</ele>
        <time>2021-11-14T22:37:55.625Z</time>
      </trkpt>
      <trkpt lat="44.08251" lon="7.73093">
        <ele>1830</ele>
        <time>2021-11-14T22:38:00.380Z</time>
      </trkpt>
      <trkpt lat="44.08241" lon="7.73074">
        <ele>1830</ele>
        <time>2021-11-14T22:38:05.137Z</time>
      </trkpt>
      <trkpt lat="44.08225" lon="7.7302">
        <ele>1831</ele>
        <time>2021-11-14T22:38:09.901Z</time>
      </trkpt>
      <trkpt lat="44.08189" lon="7.72958">
        <ele>1831</ele>
        <time>2021-11-14T22:38:14.674Z</time>
      </trkpt>
      <trkpt lat="44.08167" lon="7.72901">
        <ele>1832</ele>
        <time>2021-11-14T22:38:19.455Z</time>
      </trkpt>
      <trkpt lat="44.08129" lon="7.72859">
        <ele>1832</ele>
        <time>2021-11-14T22:38:24.243Z</time>
      </trkpt>
      <trkpt lat="44.08065" lon="7.72799">
        <ele>1832</ele>
        <time>2021-11-14T22:38:29.044Z</time>
      </trkpt>
      <trkpt lat="44.08022" lon="7.72786">
        <ele>1832</ele>
        <time>2021-11-14T22:38:33.852Z</time>
      </trkpt>
      <trkpt lat="44.07994" lon="7.7277">
        <ele>1832</ele>
        <time>2021-11-14T22:38:38.665Z</time>
      </trkpt>
      <trkpt lat="44.07982" lon="7.72751">
        <ele>1833</ele>
        <time>2021-11-14T22:38:43.481Z</time>
      </trkpt>
      <trkpt lat="44.07975" lon="7.72723">
        <ele>1833</ele>
        <time>2021-11-14T22:38:48.300Z</time>
      </trkpt>
      <trkpt lat="44.07969" lon="7.72658">
        <ele>1833</ele>
        <time>2021-11-14T22:38:53.127Z</time>
      </trkpt>
      <trkpt lat="44.0797" lon="7.72612">
        <ele>1834</ele>
        <time>2021-11-14T22:38:57.959Z</time>
      </trkpt>
      <trkpt lat="44.07965" lon="7.72594">
        <ele>1835</ele>
        <time>2021-11-14T22:39:02.793Z</time>
      </trkpt>
      <trkpt lat="44.07936" lon="7.72564">
        <ele>1834</ele>
        <time>2021-11-14T22:39:07.633Z</time>
      </trkpt>
      <trkpt lat="44.07874" lon="7.72362">
        <ele>1835</ele>
        <time>2021-11-14T22:39:12.498Z</time>
      </trkpt>
      <trkpt lat="44.07865" lon="7.72315">
        <ele>1835</ele>
        <time>2021-11-14T22:39:17.369Z</time>
      </trkpt>
      <trkpt lat="44.07863" lon="7.72277">
        <ele>1836</ele>
        <time>2021-11-14T22:39:22.244Z</time>
      </trkpt>
      <trkpt lat="44.07857" lon="7.72259">
        <ele>1836</ele>
        <time>2021-11-14T22:39:27.121Z</time>
      </trkpt>
      <trkpt lat="44.07814" lon="7.7222">
        <ele>1836</ele>
        <time>2021-11-14T22:39:32.007Z</time>
      </trkpt>
      <trkpt lat="44.07793" lon="7.72212">
        <ele>1837</ele>
        <time>2021-11-14T22:39:36.896Z</time>
      </trkpt>
      <trkpt lat="44.07773" lon="7.72212">
        <ele>1837</ele>
        <time>2021-11-14T22:39:41.788Z</time>
      </trkpt>
      <trkpt lat="44.07753" lon="7.72183">
        <ele>1838</ele>
        <time>2021-11-14T22:39:46.685Z</time>
      </trkpt>
      <trkpt lat="44.07711" lon="7.72168">
        <ele>1838</ele>
        <time>2021-11-14T22:39:51.589Z</time>
      </trkpt>
      <trkpt lat="44.07704" lon="7.72154">
        <ele>1838</ele>
        <time>2021-11-14T22:39:56.495Z</time>
      </trkpt>
      <trkpt lat="44.07698" lon="7.72102">
        <ele>1839</ele>
        <time>2021-11-14T22:40:01.407Z</time>
      </trkpt>
      <trkpt lat="44.07691" lon="7.72092">
        <ele>1840</ele>
        <time>2021-11-14T22:40:06.321Z</time>
      </trkpt>
      <trkpt lat="44.07677" lon="7.72084">
        <ele>1840</ele>
        <time>2021-11-14T22:40:11.237Z</time>
      </trkpt>
      <trkpt lat="44.07638" lon="7.72098">
        <ele>1841</ele>
        <time>2021-11-14T22:40:16.159Z</time>
      </trkpt>
      <trkpt lat="44.07631" lon="7.72104">
        <ele>1842</ele>
        <time>2021-11-14T22:40:21.083Z</time>
      </trkpt>
      <trkpt lat="44.0763" lon="7.72099">
        <ele>1843</ele>
        <time>2021-11-14T22:40:26.007Z</time>
      </trkpt>
      <trkpt lat="44.07625" lon="7.72098">
        <ele>1844</ele>
        <time>2021-11-14T22:40:30.932Z</time>
      </trkpt>
      <trkpt lat="44.07573" lon="7.72135">
        <ele>1845</ele>
        <time>2021-11-14T22:40:35.867Z</time>
      </trkpt>
      <trkpt lat="44.07563" lon="7.72137">
        <ele>1846</ele>
        <time>2021-11-14T22:40:40.803Z</time>
      </trkpt>
      <trkpt lat="44.07551" lon="7.72127">
        <ele>1847</ele>
        <time>2021-11-14T22:40:45.741Z</time>
      </trkpt>
      <trkpt lat="44.07551" lon="7.72118">
        <ele>1848</ele>
        <time>2021-11-14T22:40:50.680Z</time>
      </trkpt>
      <trkpt lat="44.07566" lon="7.72108">
        <ele>1850</ele>
        <time>2021-11-14T22:40:55.622Z</time>
      </trkpt>
      <trkpt lat="44.07584" lon="7.72063">
        <ele>1851</ele>
        <time>2021-11-14T22:41:00.570Z</time>
      </trkpt>
      <trkpt lat="44.07604" lon="7.72036">
        <ele>1853</ele>
        <time>2021-11-14T22:41:05.523Z</time>
      </trkpt>
      <trkpt lat="44.07617" lon="7.72027">
        <ele>1855</ele>
        <time>2021-11-14T22:41:10.478Z</time>
      </trkpt>
      <trkpt lat="44.07658" lon="7.72009">
        <ele>1856</ele>
        <time>2021-11-14T22:41:15.440Z</time>
      </trkpt>
      <trkpt lat="44.07667" lon="7.72002">
        <ele>1858</ele>
        <time>2021-11-14T22:41:20.403Z</time>
      </trkpt>
      <trkpt lat="44.07669" lon="7.71995">
        <ele>1860</ele>
        <time>2021-11-14T22:41:25.367Z</time>
      </trkpt>
      <trkpt lat="44.07666" lon="7.71987">
        <ele>1862</ele>
        <time>2021-11-14T22:41:30.332Z</time>
      </trkpt>
      <trkpt lat="44.07642" lon="7.71988">
        <ele>1864</ele>
        <time>2021-11-14T22:41:35.301Z</time>
      </trkpt>
      <trkpt lat="44.07625" lon="7.71983">
        <ele>1866</ele>
        <time>2021-11-14T22:41:40.273Z</time>
      </trkpt>
      <trkpt lat="44.07586" lon="7.71982">
        <ele>1868</ele>
        <time>2021-11-14T22:41:45.251Z</time>
      </trkpt>
      <trkpt lat="44.07567" lon="7.71978">
        <ele>1870</ele>
        <time>2021-11-14T22:41:50.232Z</time>
      </trkpt>
      <trkpt lat="44.07534" lon="7.71992">
        <ele>1872</ele>
        <time>2021-11-14T22:41:55.219Z</time>
      </trkpt>
      <trkpt lat="44.07529" lon="7.71987">
        <ele>1875</ele>
        <time>2021-11-14T22:42:00.207Z</time>
      </trkpt>
      <trkpt lat="44.07532" lon="7.71979">
        <ele>1877</ele>
        <time>2021-11-14T22:42:05.196Z</time>
      </trkpt>
      <trkpt lat="44.07541" lon="7.71972">
        <ele>1880</ele>
        <time>2021-11-14T22:42:10.186Z</time>
      </trkpt>
      <trkpt lat="44.07568" lon="7.71929">
        <ele>1882</ele>
        <time>2021-11-14T22:42:15.183Z</time>
      </trkpt>
      <trkpt lat="44.07593" lon="7.71917">
        <ele>1885</ele>
        <time>2021-11-14T22:42:20.184Z</time>
      </trkpt>
      <trkpt lat="44.07604" lon="7.71906">
        <ele>1887</ele>
        <time>2021-11-14T22:42:25.187Z</time>
      </trkpt>
      <trkpt lat="44.07629" lon="7.71896">
        <ele>1890</ele>
        <time>2021-11-14T22:42:30.195Z</time>
      </trkpt>
      <trkpt lat="44.07665" lon="7.71874">
        <ele>1893</ele>
        <time>2021-11-14T22:42:35.209Z</time>
      </trkpt>
      <trkpt lat="44.07667" lon="7.71864">
        <ele>1896</ele>
        <time>2021-11-14T22:42:40.224Z</time>
      </trkpt>
      <trkpt lat="44.07661" lon="7.7186">
        <ele>1898</ele>
        <time>2021-11-14T22:42:45.240Z</time>
      </trkpt>
      <trkpt lat="44.07634" lon="7.71859">
        <ele>1901</ele>
        <time>2021-11-14T22:42:50.260Z</time>
      </trkpt>
      <trkpt lat="44.07572" lon="7.71839">
        <ele>1904</ele>
        <time>2021-11-14T22:42:55.291Z</time>
      </trkpt>
      <trkpt lat="44.07543" lon="7.71834">
        <ele>1907</ele>
        <time>2021-11-14T22:43:00.326Z</time>
      </trkpt>
      <trkpt lat="44.07516" lon="7.71846">
        <ele>1910</ele>
        <time>2021-11-14T22:43:05.366Z</time>
      </trkpt>
      <trkpt lat="44.0744" lon="7.71896">
        <ele>1913</ele>
        <time>2021-11-14T22:43:10.419Z</time>
      </trkpt>
      <trkpt lat="44.07416" lon="7.719">
        <ele>1916</ele>
        <time>2021-11-14T22:43:15.476Z</time>
      </trkpt>
      <trkpt lat="44.07418" lon="7.71887">
        <ele>1919</ele>
        <time>2021-11-14T22:43:20.535Z</time>
      </trkpt>
      <trkpt lat="44.07437" lon="7.71874">
        <ele>1923</ele>
        <time>2021-11-14T22:43:25.597Z</time>
      </trkpt>
      <trkpt lat="44.07459" lon="7.71837">
        <ele>1926</ele>
        <time>2021-11-14T22:43:30.665Z</time>
      </trkpt>
      <trkpt lat="44.07458" lon="7.7183">
        <ele>1929</ele>
        <time>2021-11-14T22:43:35.733Z</time>
      </trkpt>
      <trkpt lat="44.07454" lon="7.71827">
        <ele>1932</ele>
        <time>2021-11-14T22:43:40.802Z</time>
      </trkpt>
      <trkpt lat="44.0744" lon="7.71841">
        <ele>1935</ele>
        <time>2021-11-14T22:43:45.874Z</time>
      </trkpt>
      <trkpt lat="44.07415" lon="7.71857">
        <ele>1939</ele>
        <time>2021-11-14T22:43:50.950Z</time>
      </trkpt>
      <trkpt lat="44.07402" lon="7.7186">
        <ele>1942</ele>
        <time>2021-11-14T22:43:56.028Z</time>
      </trkpt>
      <trkpt lat="44.07394" lon="7.71857">
        <ele>1945</ele>
        <time>2021-11-14T22:44:01.108Z</time>
      </trkpt>
      <trkpt lat="44.07397" lon="7.71849">
        <ele>1949</ele>
        <time>2021-11-14T22:44:06.189Z</time>
      </trkpt>
      <trkpt lat="44.07416" lon="7.7183">
        <ele>1952</ele>
        <time>2021-11-14T22:44:11.274Z</time>
      </trkpt>
      <trkpt lat="44.07437" lon="7.71797">
        <ele>1956</ele>
        <time>2021-11-14T22:44:16.364Z</time>
      </trkpt>
      <trkpt lat="44.07464" lon="7.71771">
        <ele>1959</ele>
        <time>2021-11-14T22:44:21.459Z</time>
      </trkpt>
      <trkpt lat="44.07488" lon="7.71736">
        <ele>1963</ele>
        <time>2021-11-14T22:44:26.559Z</time>
      </trkpt>
      <trkpt lat="44.0751" lon="7.71714">
        <ele>1966</ele>
        <time>2021-11-14T22:44:31.664Z</time>
      </trkpt>
      <trkpt lat="44.07523" lon="7.71711">
        <ele>1970</ele>
        <time>2021-11-14T22:44:36.771Z</time>
      </trkpt>
      <trkpt lat="44.07534" lon="7.71701">
        <ele>1973</ele>
        <time>2021-11-14T22:44:41.880Z</time>
      </trkpt>
      <trkpt lat="44.07529" lon="7.71695">
        <ele>1977</ele>
        <time>2021-11-14T22:44:46.990Z</time>
      </trkpt>
      <trkpt lat="44.07437" lon="7.71725">
        <ele>1980</ele>
        <time>2021-11-14T22:44:52.115Z</time>
      </trkpt>
      <trkpt lat="44.07432" lon="7.71726">
        <ele>1984</ele>
        <time>2021-11-14T22:44:57.241Z</time>
      </trkpt>
      <trkpt lat="44.07429" lon="7.71722">
        <ele>1987</ele>
        <time>2021-11-14T22:45:02.368Z</time>
      </trkpt>
      <trkpt lat="44.07431" lon="7.71715">
        <ele>1990</ele>
        <time>2021-11-14T22:45:07.496Z</time>
      </trkpt>
      <trkpt lat="44.07468" lon="7.71674">
        <ele>1994</ele>
        <time>2021-11-14T22:45:12.631Z</time>
      </trkpt>
      <trkpt lat="44.07484" lon="7.71646">
        <ele>1998</ele>
        <time>2021-11-14T22:45:17.770Z</time>
      </trkpt>
      <trkpt lat="44.07516" lon="7.71638">
        <ele>2001</ele>
        <time>2021-11-14T22:45:22.914Z</time>
      </trkpt>
      <trkpt lat="44.07534" lon="7.71629">
        <ele>2004</ele>
        <time>2021-11-14T22:45:28.062Z</time>
      </trkpt>
      <trkpt lat="44.07537" lon="7.71622">
        <ele>2007</ele>
        <time>2021-11-14T22:45:33.210Z</time>
      </trkpt>
      <trkpt lat="44.07531" lon="7.71617">
        <ele>2010</ele>
        <time>2021-11-14T22:45:38.360Z</time>
      </trkpt>
      <trkpt lat="44.07512" lon="7.71621">
        <ele>2013</ele>
        <time>2021-11-14T22:45:43.513Z</time>
      </trkpt>
      <trkpt lat="44.07487" lon="7.71621">
        <ele>2016</ele>
        <time>2021-11-14T22:45:48.670Z</time>
      </trkpt>
      <trkpt lat="44.0744" lon="7.71634">
        <ele>2019</ele>
        <time>2021-11-14T22:45:53.834Z</time>
      </trkpt>
      <trkpt lat="44.07361" lon="7.71676">
        <ele>2021</ele>
        <time>2021-11-14T22:45:59.012Z</time>
      </trkpt>
      <trkpt lat="44.07359" lon="7.71672">
        <ele>2024</ele>
        <time>2021-11-14T22:46:04.190Z</time>
      </trkpt>
      <trkpt lat="44.07362" lon="7.71661">
        <ele>2026</ele>
        <time>2021-11-14T22:46:09.370Z</time>
      </trkpt>
      <trkpt lat="44.07416" lon="7.71605">
        <ele>2028</ele>
        <time>2021-11-14T22:46:14.561Z</time>
      </trkpt>
      <trkpt lat="44.07457" lon="7.71576">
        <ele>2030</ele>
        <time>2021-11-14T22:46:19.759Z</time>
      </trkpt>
      <trkpt lat="44.07479" lon="7.71556">
        <ele>2032</ele>
        <time>2021-11-14T22:46:24.961Z</time>
      </trkpt>
      <trkpt lat="44.0749" lon="7.71552">
        <ele>2034</ele>
        <time>2021-11-14T22:46:30.165Z</time>
      </trkpt>
      <trkpt lat="44.0757" lon="7.71551">
        <ele>2035</ele>
        <time>2021-11-14T22:46:35.382Z</time>
      </trkpt>
      <trkpt lat="44.07733" lon="7.7158">
        <ele>2037</ele>
        <time>2021-11-14T22:46:40.625Z</time>
      </trkpt>
      <trkpt lat="44.07782" lon="7.71572">
        <ele>2037</ele>
        <time>2021-11-14T22:46:45.876Z</time>
      </trkpt>
      <trkpt lat="44.07833" lon="7.71559">
        <ele>2038</ele>
        <time>2021-11-14T22:46:51.135Z</time>
      </trkpt>
      <trkpt lat="44.07867" lon="7.71534">
        <ele>2038</ele>
        <time>2021-11-14T22:46:56.400Z</time>
      </trkpt>
      <trkpt lat="44.07918" lon="7.71511">
        <ele>2038</ele>
        <time>2021-11-14T22:47:01.674Z</time>
      </trkpt>
      <trkpt lat="44.08015" lon="7.71458">
        <ele>2038</ele>
        <time>2021-11-14T22:47:06.965Z</time>
      </trkpt>
      <trkpt lat="44.08013" lon="7.71451">
        <ele>2037</ele>
        <time>2021-11-14T22:47:12.257Z</time>
      </trkpt>
      <trkpt lat="44.08008" lon="7.71451">
        <ele>2036</ele>
        <time>2021-11-14T22:47:17.549Z</time>
      </trkpt>
      <trkpt lat="44.07946" lon="7.71472">
        <ele>2034</ele>
        <time>2021-11-14T22:47:22.852Z</time>
      </trkpt>
      <trkpt lat="44.07913" lon="7.71478">
        <ele>2033</ele>
        <time>2021-11-14T22:47:28.160Z</time>
      </trkpt>
      <trkpt lat="44.0791" lon="7.71473">
        <ele>2031</ele>
        <time>2021-11-14T22:47:33.469Z</time>
      </trkpt>
      <trkpt lat="44.07912" lon="7.71466">
        <ele>2029</ele>
        <time>2021-11-14T22:47:38.778Z</time>
      </trkpt>
      <trkpt lat="44.07967" lon="7.71445">
        <ele>2026</ele>
        <time>2021-11-14T22:47:44.097Z</time>
      </trkpt>
      <trkpt lat="44.07967" lon="7.71436">
        <ele>2023</ele>
        <time>2021-11-14T22:47:49.417Z</time>
      </trkpt>
      <trkpt lat="44.07917" lon="7.71447">
        <ele>2020</ele>
        <time>2021-11-14T22:47:54.745Z</time>
      </trkpt>
      <trkpt lat="44.07864" lon="7.71444">
        <ele>2017</ele>
        <time>2021-11-14T22:48:00.081Z</time>
      </trkpt>
      <trkpt lat="44.07846" lon="7.71439">
        <ele>2013</ele>
        <time>2021-11-14T22:48:05.420Z</time>
      </trkpt>
      <trkpt lat="44.07793" lon="7.71414">
        <ele>2010</ele>
        <time>2021-11-14T22:48:10.768Z</time>
      </trkpt>
      <trkpt lat="44.07758" lon="7.71378">
        <ele>2005</ele>
        <time>2021-11-14T22:48:16.123Z</time>
      </trkpt>
      <trkpt lat="44.07739" lon="7.7135">
        <ele>2001</ele>
        <time>2021-11-14T22:48:21.483Z</time>
      </trkpt>
      <trkpt lat="44.07667" lon="7.71159">
        <ele>1996</ele>
        <time>2021-11-14T22:48:26.867Z</time>
      </trkpt>
      <trkpt lat="44.07631" lon="7.71076">
        <ele>1992</ele>
        <time>2021-11-14T22:48:32.263Z</time>
      </trkpt>
      <trkpt lat="44.07595" lon="7.71002">
        <ele>1987</ele>
        <time>2021-11-14T22:48:37.669Z</time>
      </trkpt>
      <trkpt lat="44.07551" lon="7.70932">
        <ele>1982</ele>
        <time>2021-11-14T22:48:43.086Z</time>
      </trkpt>
      <trkpt lat="44.07546" lon="7.70931">
        <ele>1977</ele>
        <time>2021-11-14T22:48:48.503Z</time>
      </trkpt>
      <trkpt lat="44.07541" lon="7.70935">
        <ele>1973</ele>
        <time>2021-11-14T22:48:53.921Z</time>
      </trkpt>
      <trkpt lat="44.0747" lon="7.71015">
        <ele>1968</ele>
        <time>2021-11-14T22:48:59.354Z</time>
      </trkpt>
      <trkpt lat="44.0745" lon="7.71024">
        <ele>1963</ele>
        <time>2021-11-14T22:49:04.790Z</time>
      </trkpt>
      <trkpt lat="44.07427" lon="7.7102">
        <ele>1958</ele>
        <time>2021-11-14T22:49:10.230Z</time>
      </trkpt>
      <trkpt lat="44.07398" lon="7.71006">
        <ele>1952</ele>
        <time>2021-11-14T22:49:15.675Z</time>
      </trkpt>
      <trkpt lat="44.07394" lon="7.71009">
        <ele>1947</ele>
        <time>2021-11-14T22:49:21.121Z</time>
      </trkpt>
      <trkpt lat="44.07378" lon="7.71048">
        <ele>1943</ele>
        <time>2021-11-14T22:49:26.572Z</time>
      </trkpt>
      <trkpt lat="44.07372" lon="7.71056">
        <ele>1938</ele>
        <time>2021-11-14T22:49:32.024Z</time>
      </trkpt>
      <trkpt lat="44.07349" lon="7.71068">
        <ele>1933</ele>
        <time>2021-11-14T22:49:37.480Z</time>
      </trkpt>
      <trkpt lat="44.07332" lon="7.71067">
        <ele>1928</ele>
        <time>2021-11-14T22:49:42.939Z</time>
      </trkpt>
      <trkpt lat="44.07316" lon="7.71062">
        <ele>1923</ele>
        <time>2021-11-14T22:49:48.400Z</time>
      </trkpt>
      <trkpt lat="44.07287" lon="7.71038">
        <ele>1918</ele>
        <time>2021-11-14T22:49:53.867Z</time>
      </trkpt>
      <trkpt lat="44.07244" lon="7.71033">
        <ele>1913</ele>
        <time>2021-11-14T22:49:59.341Z</time>
      </trkpt>
      <trkpt lat="44.07187" lon="7.71097">
        <ele>1909</ele>
        <time>2021-11-14T22:50:04.826Z</time>
      </trkpt>
      <trkpt lat="44.07171" lon="7.71094">
        <ele>1904</ele>
        <time>2021-11-14T22:50:10.314Z</time>
      </trkpt>
      <trkpt lat="44.07146" lon="7.71083">
        <ele>1899</ele>
        <time>2021-11-14T22:50:15.806Z</time>
      </trkpt>
      <trkpt lat="44.07134" lon="7.71074">
        <ele>1894</ele>
        <time>2021-11-14T22:50:21.300Z</time>
      </trkpt>
      <trkpt lat="44.07123" lon="7.71071">
        <ele>1889</ele>
        <time>2021-11-14T22:50:26.796Z</time>
      </trkpt>
      <trkpt lat="44.071" lon="7.71075">
        <ele>1885</ele>
        <time>2021-11-14T22:50:32.296Z</time>
      </trkpt>
      <trkpt lat="44.07063" lon="7.71114">
        <ele>1881</ele>
        <time>2021-11-14T22:50:37.803Z</time>
      </trkpt>
      <trkpt lat="44.07" lon="7.71106">
        <ele>1876</ele>
        <time>2021-11-14T22:50:43.321Z</time>
      </trkpt>
      <trkpt lat="44.06974" lon="7.71117">
        <ele>1873</ele>
        <time>2021-11-14T22:50:48.843Z</time>
      </trkpt>
      <trkpt lat="44.06954" lon="7.7109">
        <ele>1868</ele>
        <time>2021-11-14T22:50:54.369Z</time>
      </trkpt>
      <trkpt lat="44.0694" lon="7.71062">
        <ele>1864</ele>
        <time>2021-11-14T22:50:59.899Z</time>
      </trkpt>
      <trkpt lat="44.06926" lon="7.7102">
        <ele>1860</ele>
        <time>2021-11-14T22:51:05.435Z</time>
      </trkpt>
      <trkpt lat="44.06906" lon="7.70989">
        <ele>1856</ele>
        <time>2021-11-14T22:51:10.975Z</time>
      </trkpt>
      <trkpt lat="44.06897" lon="7.70959">
        <ele>1852</ele>
        <time>2021-11-14T22:51:16.519Z</time>
      </trkpt>
      <trkpt lat="44.06886" lon="7.70945">
        <ele>1849</ele>
        <time>2021-11-14T22:51:22.066Z</time>
      </trkpt>
      <trkpt lat="44.06856" lon="7.70938">
        <ele>1846</ele>
        <time>2021-11-14T22:51:27.617Z</time>
      </trkpt>
      <trkpt lat="44.06838" lon="7.70833">
        <ele>1842</ele>
        <time>2021-11-14T22:51:33.181Z</time>
      </trkpt>
      <trkpt lat="44.06835" lon="7.70787">
        <ele>1838</ele>
        <time>2021-11-14T22:51:38.750Z</time>
      </trkpt>
      <trkpt lat="44.06823" lon="7.70755">
        <ele>1835</ele>
        <time>2021-11-14T22:51:44.323Z</time>
      </trkpt>
      <trkpt lat="44.06818" lon="7.70751">
        <ele>1832</ele>
        <time>2021-11-14T22:51:49.897Z</time>
      </trkpt>
      <trkpt lat="44.06813" lon="7.70753">
        <ele>1829</ele>
        <time>2021-11-14T22:51:55.472Z</time>
      </trkpt>
      <trkpt lat="44.06795" lon="7.70776">
        <ele>1827</ele>
        <time>2021-11-14T22:52:01.051Z</time>
      </trkpt>
      <trkpt lat="44.06776" lon="7.70776">
        <ele>1824</ele>
        <time>2021-11-14T22:52:06.633Z</time>
      </trkpt>
      <trkpt lat="44.06761" lon="7.70785">
        <ele>1822</ele>
        <time>2021-11-14T22:52:12.218Z</time>
      </trkpt>
      <trkpt lat="44.06747" lon="7.70788">
        <ele>1819</ele>
        <time>2021-11-14T22:52:17.805Z</time>
      </trkpt>
      <trkpt lat="44.06726" lon="7.70798">
        <ele>1816</ele>
        <time>2021-11-14T22:52:23.395Z</time>
      </trkpt>
      <trkpt lat="44.06719" lon="7.70803">
        <ele>1814</ele>
        <time>2021-11-14T22:52:28.987Z</time>
      </trkpt>
      <trkpt lat="44.0671" lon="7.70819">
        <ele>1812</ele>
        <time>2021-11-14T22:52:34.581Z</time>
      </trkpt>
      <trkpt lat="44.06698" lon="7.70832">
        <ele>1810</ele>
        <time>2021-11-14T22:52:40.178Z</time>
      </trkpt>
      <trkpt lat="44.06672" lon="7.70836">
        <ele>1807</ele>
        <time>2021-11-14T22:52:45.779Z</time>
      </trkpt>
      <trkpt lat="44.06649" lon="7.7086">
        <ele>1805</ele>
        <time>2021-11-14T22:52:51.384Z</time>
      </trkpt>
      <trkpt lat="44.06639" lon="7.70863">
        <ele>1803</ele>
        <time>2021-11-14T22:52:56.991Z</time>
      </trkpt>
      <trkpt lat="44.06617" lon="7.7084">
        <ele>1800</ele>
        <time>2021-11-14T22:53:02.602Z</time>
      </trkpt>
      <trkpt lat="44.06595" lon="7.70806">
        <ele>1798</ele>
        <time>2021-11-14T22:53:08.219Z</time>
      </trkpt>
      <trkpt lat="44.06585" lon="7.70784">
        <ele>1796</ele>
        <time>2021-11-14T22:53:13.839Z</time>
      </trkpt>
      <trkpt lat="44.0658" lon="7.70759">
        <ele>1793</ele>
        <time>2021-11-14T22:53:19.462Z</time>
      </trkpt>
      <trkpt lat="44.06553" lon="7.70705">
        <ele>1791</ele>
        <time>2021-11-14T22:53:25.092Z</time>
      </trkpt>
      <trkpt lat="44.06543" lon="7.70696">
        <ele>1789</ele>
        <time>2021-11-14T22:53:30.724Z</time>
      </trkpt>
      <trkpt lat="44.06532" lon="7.70692">
        <ele>1786</ele>
        <time>2021-11-14T22:53:36.358Z</time>
      </trkpt>
      <trkpt lat="44.06491" lon="7.707">
        <ele>1785</ele>
        <time>2021-11-14T22:53:41.999Z</time>
      </trkpt>
      <trkpt lat="44.06475" lon="7.70667">
        <ele>1782</ele>
        <time>2021-11-14T22:53:47.644Z</time>
      </trkpt>
      <trkpt lat="44.06454" lon="7.70653">
        <ele>1780</ele>
        <time>2021-11-14T22:53:53.293Z</time>
      </trkpt>
      <trkpt lat="44.06441" lon="7.70615">
        <ele>1778</ele>
        <time>2021-11-14T22:53:58.947Z</time>
      </trkpt>
      <trkpt lat="44.0644" lon="7.70599">
        <ele>1776</ele>
        <time>2021-11-14T22:54:04.603Z</time>
      </trkpt>
      <trkpt lat="44.06444" lon="7.70575">
        <ele>1774</ele>
        <time>2021-11-14T22:54:10.261Z</time>
      </trkpt>
      <trkpt lat="44.06453" lon="7.70554">
        <ele>1771</ele>
        <time>2021-11-14T22:54:15.922Z</time>
      </trkpt>
      <trkpt lat="44.06459" lon="7.7052">
        <ele>1769</ele>
        <time>2021-11-14T22:54:21.587Z</time>
      </trkpt>
      <trkpt lat="44.0645" lon="7.70478">
        <ele>1767</ele>
        <time>2021-11-14T22:54:27.257Z</time>
      </trkpt>
      <trkpt lat="44.06435" lon="7.70438">
        <ele>1765</ele>
        <time>2021-11-14T22:54:32.933Z</time>
      </trkpt>
      <trkpt lat="44.06443" lon="7.70445">
        <ele>1763</ele>
        <time>2021-11-14T22:54:38.610Z</time>
      </trkpt>
      <trkpt lat="44.06472" lon="7.70501">
        <ele>1761</ele>
        <time>2021-11-14T22:54:44.295Z</time>
      </trkpt>
      <trkpt lat="44.06475" lon="7.70504">
        <ele>1759</ele>
        <time>2021-11-14T22:54:49.981Z</time>
      </trkpt>
      <trkpt lat="44.0648" lon="7.705">
        <ele>1757</ele>
        <time>2021-11-14T22:54:55.668Z</time>
      </trkpt>
      <trkpt lat="44.06458" lon="7.70457">
        <ele>1756</ele>
        <time>2021-11-14T22:55:01.361Z</time>
      </trkpt>
      <trkpt lat="44.06443" lon="7.70406">
        <ele>1754</ele>
        <time>2021-11-14T22:55:07.060Z</time>
      </trkpt>
      <trkpt lat="44.06434" lon="7.70399">
        <ele>1752</ele>
        <time>2021-11-14T22:55:12.761Z</time>
      </trkpt>
      <trkpt lat="44.06414" lon="7.70406">
        <ele>1751</ele>
        <time>2021-11-14T22:55:18.465Z</time>
      </trkpt>
      <trkpt lat="44.06398" lon="7.70404">
        <ele>1749</ele>
        <time>2021-11-14T22:55:24.171Z</time>
      </trkpt>
      <trkpt lat="44.06388" lon="7.70406">
        <ele>1747</ele>
        <time>2021-11-14T22:55:29.879Z</time>
      </trkpt>
      <trkpt lat="44.06378" lon="7.70417">
        <ele>1746</ele>
        <time>2021-11-14T22:55:35.589Z</time>
      </trkpt>
      <trkpt lat="44.06345" lon="7.70472">
        <ele>1745</ele>
        <time>2021-11-14T22:55:41.307Z</time>
      </trkpt>
      <trkpt lat="44.06331" lon="7.70485">
        <ele>1744</ele>
        <time>2021-11-14T22:55:47.028Z</time>
      </trkpt>
      <trkpt lat="44.06323" lon="7.70486">
        <ele>1743</ele>
        <time>2021-11-14T22:55:52.750Z</time>
      </trkpt>
      <trkpt lat="44.06317" lon="7.70482">
        <ele>1741</ele>
        <time>2021-11-14T22:55:58.473Z</time>
      </trkpt>
      <trkpt lat="44.06296" lon="7.70445">
        <ele>1739</ele>
        <time>2021-11-14T22:56:04.202Z</time>
      </trkpt>
      <trkpt lat="44.06285" lon="7.70439">
        <ele>1738</ele>
        <time>2021-11-14T22:56:09.933Z</time>
      </trkpt>
      <trkpt lat="44.06205" lon="7.70436">
        <ele>1737</ele>
        <time>2021-11-14T22:56:15.677Z</time>
      </trkpt>
      <trkpt lat="44.0617" lon="7.70415">
        <ele>1735</ele>
        <time>2021-11-14T22:56:21.427Z</time>
      </trkpt>
      <trkpt lat="44.06148" lon="7.70425">
        <ele>1734</ele>
        <time>2021-11-14T22:56:27.180Z</time>
      </trkpt>
      <trkpt lat="44.06139" lon="7.70422">
        <ele>1733</ele>
        <time>2021-11-14T22:56:32.935Z</time>
      </trkpt>
      <trkpt lat="44.06122" lon="7.70408">
        <ele>1731</ele>
        <time>2021-11-14T22:56:38.693Z</time>
      </trkpt>
      <trkpt lat="44.06095" lon="7.70399">
        <ele>1730</ele>
        <time>2021-11-14T22:56:44.455Z</time>
      </trkpt>
      <trkpt lat="44.06077" lon="7.70363">
        <ele>1728</ele>
        <time>2021-11-14T22:56:50.223Z</time>
      </trkpt>
      <trkpt lat="44.06067" lon="7.70353">
        <ele>1727</ele>
        <time>2021-11-14T22:56:55.992Z</time>
      </trkpt>
      <trkpt lat="44.06055" lon="7.70351">
        <ele>1725</ele>
        <time>2021-11-14T22:57:01.763Z</time>
      </trkpt>
      <trkpt lat="44.0603" lon="7.70365">
        <ele>1725</ele>
        <time>2021-11-14T22:57:07.539Z</time>
      </trkpt>
      <trkpt lat="44.0601" lon="7.70364">
        <ele>1723</ele>
        <time>2021-11-14T22:57:13.318Z</time>
      </trkpt>
      <trkpt lat="44.0595" lon="7.70343">
        <ele>1722</ele>
        <time>2021-11-14T22:57:19.107Z</time>
      </trkpt>
      <trkpt lat="44.05925" lon="7.70315">
        <ele>1720</ele>
        <time>2021-11-14T22:57:24.901Z</time>
      </trkpt>
      <trkpt lat="44.05921" lon="7.70314">
        <ele>1718</ele>
        <time>2021-11-14T22:57:30.696Z</time>
      </trkpt>
      <trkpt lat="44.05916" lon="7.70318">
        <ele>1717</ele>
        <time>2021-11-14T22:57:36.492Z</time>
      </trkpt>
      <trkpt lat="44.05903" lon="7.70378">
        <ele>1715</ele>
        <time>2021-11-14T22:57:42.295Z</time>
      </trkpt>
      <trkpt lat="44.05899" lon="7.70435">
        <ele>1714</ele>
        <time>2021-11-14T22:57:48.104Z</time>
      </trkpt>
      <trkpt lat="44.05891" lon="7.70453">
        <ele>1712</ele>
        <time>2021-11-14T22:57:53.916Z</time>
      </trkpt>
      <trkpt lat="44.05859" lon="7.70491">
        <ele>1710</ele>
        <time>2021-11-14T22:57:59.735Z</time>
      </trkpt>
      <trkpt lat="44.05818" lon="7.70494">
        <ele>1708</ele>
        <time>2021-11-14T22:58:05.560Z</time>
      </trkpt>
      <trkpt lat="44.05753" lon="7.70488">
        <ele>1706</ele>
        <time>2021-11-14T22:58:11.396Z</time>
      </trkpt>
      <trkpt lat="44.05716" lon="7.7049">
        <ele>1703</ele>
        <time>2021-11-14T22:58:17.237Z</time>
      </trkpt>
      <trkpt lat="44.05693" lon="7.70505">
        <ele>1701</ele>
        <time>2021-11-14T22:58:23.083Z</time>
      </trkpt>
      <trkpt lat="44.0567" lon="7.70531">
        <ele>1699</ele>
        <time>2021-11-14T22:58:28.933Z</time>
      </trkpt>
      <trkpt lat="44.05653" lon="7.7054">
        <ele>1697</ele>
        <time>2021-11-14T22:58:34.786Z</time>
      </trkpt>
      <trkpt lat="44.05633" lon="7.70532">
        <ele>1694</ele>
        <time>2021-11-14T22:58:40.643Z</time>
      </trkpt>
      <trkpt lat="44.05601" lon="7.70508">
        <ele>1691</ele>
        <time>2021-11-14T22:58:46.505Z</time>
      </trkpt>
      <trkpt lat="44.0557" lon="7.70471">
        <ele>1688</ele>
        <time>2021-11-14T22:58:52.374Z</time>
      </trkpt>
      <trkpt lat="44.05533" lon="7.7041">
        <ele>1685</ele>
        <time>2021-11-14T22:58:58.252Z</time>
      </trkpt>
      <trkpt lat="44.05515" lon="7.7036">
        <ele>1682</ele>
        <time>2021-11-14T22:59:04.137Z</time>
      </trkpt>
      <trkpt lat="44.05497" lon="7.70338">
        <ele>1679</ele>
        <time>2021-11-14T22:59:10.025Z</time>
      </trkpt>
      <trkpt lat="44.05486" lon="7.70335">
        <ele>1676</ele>
        <time>2021-11-14T22:59:15.915Z</time>
      </trkpt>
      <trkpt lat="44.05478" lon="7.70338">
        <ele>1673</ele>
        <time>2021-11-14T22:59:21.807Z</time>
      </trkpt>
      <trkpt lat="44.05469" lon="7.70347">
        <ele>1670</ele>
        <time>2021-11-14T22:59:27.700Z</time>
      </trkpt>
      <trkpt lat="44.05454" lon="7.70368">
        <ele>1667</ele>
        <time>2021-11-14T22:59:33.597Z</time>
      </trkpt>
      <trkpt lat="44.05425" lon="7.70424">
        <ele>1664</ele>
        <time>2021-11-14T22:59:39.502Z</time>
      </trkpt>
      <trkpt lat="44.05407" lon="7.70442">
        <ele>1661</ele>
        <time>2021-11-14T22:59:45.410Z</time>
      </trkpt>
      <trkpt lat="44.05357" lon="7.70457">
        <ele>1657</ele>
        <time>2021-11-14T22:59:51.326Z</time>
      </trkpt>
      <trkpt lat="44.05322" lon="7.70445">
        <ele>1654</ele>
        <time>2021-11-14T22:59:57.248Z</time>
      </trkpt>
      <trkpt lat="44.05304" lon="7.70433">
        <ele>1651</ele>
        <time>2021-11-14T23:00:03.173Z</time>
      </trkpt>
      <trkpt lat="44.05273" lon="7.70403">
        <ele>1648</ele>
        <time>2021-11-14T23:00:09.104Z</time>
      </trkpt>
      <trkpt lat="44.05214" lon="7.70368">
        <ele>1644</ele>
        <time>2021-11-14T23:00:15.046Z</time>
      </trkpt>
      <trkpt lat="44.05187" lon="7.70325">
        <ele>1642</ele>
        <time>2021-11-14T23:00:20.994Z</time>
      </trkpt>
      <trkpt lat="44.05177" lon="7.7029">
        <ele>1638</ele>
        <time>2021-11-14T23:00:26.947Z</time>
      </trkpt>
      <trkpt lat="44.05167" lon="7.70282">
        <ele>1636</ele>
        <time>2021-11-14T23:00:32.901Z</time>
      </trkpt>
      <trkpt lat="44.05156" lon="7.70284">
        <ele>1633</ele>
        <time>2021-11-14T23:00:38.857Z</time>
      </trkpt>
      <trkpt lat="44.05111" lon="7.7033">
        <ele>1630</ele>
        <time>2021-11-14T23:00:44.822Z</time>
      </trkpt>
      <trkpt lat="44.05104" lon="7.70332">
        <ele>1628</ele>
        <time>2021-11-14T23:00:50.788Z</time>
      </trkpt>
      <trkpt lat="44.05103" lon="7.70323">
        <ele>1625</ele>
        <time>2021-11-14T23:00:56.755Z</time>
      </trkpt>
      <trkpt lat="44.05145" lon="7.70268">
        <ele>1623</ele>
        <time>2021-11-14T23:01:02.732Z</time>
      </trkpt>
      <trkpt lat="44.05177" lon="7.70206">
        <ele>1621</ele>
        <time>2021-11-14T23:01:08.717Z</time>
      </trkpt>
      <trkpt lat="44.05171" lon="7.70196">
        <ele>1619</ele>
        <time>2021-11-14T23:01:14.704Z</time>
      </trkpt>
      <trkpt lat="44.05163" lon="7.70204">
        <ele>1617</ele>
        <time>2021-11-14T23:01:20.692Z</time>
      </trkpt>
      <trkpt lat="44.05154" lon="7.70228">
        <ele>1616</ele>
        <time>2021-11-14T23:01:26.684Z</time>
      </trkpt>
      <trkpt lat="44.05125" lon="7.70262">
        <ele>1615</ele>
        <time>2021-11-14T23:01:32.682Z</time>
      </trkpt>
      <trkpt lat="44.05096" lon="7.70281">
        <ele>1613</ele>
        <time>2021-11-14T23:01:38.685Z</time>
      </trkpt>
      <trkpt lat="44.05045" lon="7.703">
        <ele>1612</ele>
        <time>2021-11-14T23:01:44.696Z</time>
      </trkpt>
      <trkpt lat="44.05018" lon="7.70302">
        <ele>1611</ele>
        <time>2021-11-14T23:01:50.712Z</time>
      </trkpt>
      <trkpt lat="44.04993" lon="7.70294">
        <ele>1611</ele>
        <time>2021-11-14T23:01:56.732Z</time>
      </trkpt>
      <trkpt lat="44.04915" lon="7.70245">
        <ele>1610</ele>
        <time>2021-11-14T23:02:02.765Z</time>
      </trkpt>
      <trkpt lat="44.04896" lon="7.70238">
        <ele>1610</ele>
        <time>2021-11-14T23:02:08.802Z</time>
      </trkpt>
      <trkpt lat="44.04875" lon="7.70245">
        <ele>1610</ele>
        <time>2021-11-14T23:02:14.842Z</time>
      </trkpt>
      <trkpt lat="44.04835" lon="7.70273">
        <ele>1611</ele>
        <time>2021-11-14T23:02:20.889Z</time>
      </trkpt>
      <trkpt lat="44.04815" lon="7.70279">
        <ele>1611</ele>
        <time>2021-11-14T23:02:26.939Z</time>
      </trkpt>
      <trkpt lat="44.04779" lon="7.70282">
        <ele>1612</ele>
        <time>2021-11-14T23:02:32.995Z</time>
      </trkpt>
      <trkpt lat="44.04706" lon="7.70276">
        <ele>1614</ele>
        <time>2021-11-14T23:02:39.063Z</time>
      </trkpt>
      <trkpt lat="44.04639" lon="7.70289">
        <ele>1615</ele>
        <time>2021-11-14T23:02:45.142Z</time>
      </trkpt>
      <trkpt lat="44.04629" lon="7.70302">
        <ele>1617</ele>
        <time>2021-11-14T23:02:51.223Z</time>
      </trkpt>
      <trkpt lat="44.04577" lon="7.70343">
        <ele>1619</ele>
        <time>2021-11-14T23:02:57.314Z</time>
      </trkpt>
      <trkpt lat="44.0453" lon="7.70362">
        <ele>1621</ele>
        <time>2021-11-14T23:03:03.412Z</time>
      </trkpt>
      <trkpt lat="44.0447" lon="7.70403">
        <ele>1623</ele>
        <time>2021-11-14T23:03:09.521Z</time>
      </trkpt>
      <trkpt lat="44.04446" lon="7.70425">
        <ele>1625</ele>
        <time>2021-11-14T23:03:15.635Z</time>
      </trkpt>
      <trkpt lat="44.04405" lon="7.70471">
        <ele>1627</ele>
        <time>2021-11-14T23:03:21.757Z</time>
      </trkpt>
      <trkpt lat="44.0434" lon="7.70531">
        <ele>1630</ele>
        <time>2021-11-14T23:03:27.892Z</time>
      </trkpt>
      <trkpt lat="44.04333" lon="7.70532">
        <ele>1632</ele>
        <time>2021-11-14T23:03:34.028Z</time>
      </trkpt>
      <trkpt lat="44.04307" lon="7.70522">
        <ele>1635</ele>
        <time>2021-11-14T23:03:40.168Z</time>
      </trkpt>
      <trkpt lat="44.0429" lon="7.70492">
        <ele>1637</ele>
        <time>2021-11-14T23:03:46.312Z</time>
      </trkpt>
      <trkpt lat="44.04287" lon="7.70481">
        <ele>1640</ele>
        <time>2021-11-14T23:03:52.458Z</time>
      </trkpt>
      <trkpt lat="44.0429" lon="7.70431">
        <ele>1643</ele>
        <time>2021-11-14T23:03:58.610Z</time>
      </trkpt>
      <trkpt lat="44.04288" lon="7.7041">
        <ele>1645</ele>
        <time>2021-11-14T23:04:04.764Z</time>
      </trkpt>
      <trkpt lat="44.04276" lon="7.70382">
        <ele>1647</ele>
        <time>2021-11-14T23:04:10.922Z</time>
      </trkpt>
      <trkpt lat="44.04277" lon="7.70338">
        <ele>1650</ele>
        <time>2021-11-14T23:04:17.085Z</time>
      </trkpt>
      <trkpt lat="44.04268" lon="7.70303">
        <ele>1652</ele>
        <time>2021-11-14T23:04:23.252Z</time>
      </trkpt>
      <trkpt lat="44.04268" lon="7.70282">
        <ele>1654</ele>
        <time>2021-11-14T23:04:29.422Z</time>
      </trkpt>
      <trkpt lat="44.04249" lon="7.70249">
        <ele>1656</ele>
        <time>2021-11-14T23:04:35.596Z</time>
      </trkpt>
      <trkpt lat="44.04224" lon="7.70235">
        <ele>1658</ele>
        <time>2021-11-14T23:04:41.775Z</time>
      </trkpt>
      <trkpt lat="44.04217" lon="7.70224">
        <ele>1660</ele>
        <time>2021-11-14T23:04:47.955Z</time>
      </trkpt>
      <trkpt lat="44.0421" lon="7.70207">
        <ele>1661</ele>
        <time>2021-11-14T23:04:54.138Z</time>
      </trkpt>
      <trkpt lat="44.04207" lon="7.70185">
        <ele>1663</ele>
        <time>2021-11-14T23:05:00.323Z</time>
      </trkpt>
      <trkpt lat="44.04199" lon="7.70173">
        <ele>1665</ele>
        <time>2021-11-14T23:05:06.510Z</time>
      </trkpt>
      <trkpt lat="44.04171" lon="7.70163">
        <ele>1666</ele>
        <time>2021-11-14T23:05:12.702Z</time>
      </trkpt>
      <trkpt lat="44.04157" lon="7.70144">
        <ele>1667</ele>
        <time>2021-11-14T23:05:18.897Z</time>
      </trkpt>
      <trkpt lat="44.04147" lon="7.70137">
        <ele>1668</ele>
        <time>2021-11-14T23:05:25.094Z</time>
      </trkpt>
      <trkpt lat="44.04123" lon="7.70144">
        <ele>1669</ele>
        <time>2021-11-14T23:05:31.295Z</time>
      </trkpt>
      <trkpt lat="44.04102" lon="7.70136">
        <ele>1669</ele>
        <time>2021-11-14T23:05:37.499Z</time>
      </trkpt>
      <trkpt lat="44.0408" lon="7.70119">
        <ele>1671</ele>
        <time>2021-11-14T23:05:43.707Z</time>
      </trkpt>
      <trkpt lat="44.04064" lon="7.70118">
        <ele>1671</ele>
        <time>2021-11-14T23:05:49.918Z</time>
      </trkpt>
      <trkpt lat="44.04039" lon="7.70126">
        <ele>1672</ele>
        <time>2021-11-14T23:05:56.133Z</time>
      </trkpt>
      <trkpt lat="44.04025" lon="7.70133">
        <ele>1672</ele>
        <time>2021-11-14T23:06:02.350Z</time>
      </trkpt>
      <trkpt lat="44.04006" lon="7.70153">
        <ele>1672</ele>
        <time>2021-11-14T23:06:08.571Z</time>
      </trkpt>
      <trkpt lat="44.03991" lon="7.70157">
        <ele>1672</ele>
        <time>2021-11-14T23:06:14.794Z</time>
      </trkpt>
      <trkpt lat="44.03977" lon="7.70149">
        <ele>1673</ele>
        <time>2021-11-14T23:06:21.020Z</time>
      </trkpt>
      <trkpt lat="44.03948" lon="7.70103">
        <ele>1673</ele>
        <time>2021-11-14T23:06:27.253Z</time>
      </trkpt>
      <trkpt lat="44.03949" lon="7.70085">
        <ele>1673</ele>
        <time>2021-11-14T23:06:33.488Z</time>
      </trkpt>
      <trkpt lat="44.03958" lon="7.70056">
        <ele>1673</ele>
        <time>2021-11-14T23:06:39.727Z</time>
      </trkpt>
      <trkpt lat="44.03984" lon="7.70007">
        <ele>1674</ele>
        <time>2021-11-14T23:06:45.973Z</time>
      </trkpt>
      <trkpt lat="44.04007" lon="7.69975">
        <ele>1674</ele>
        <time>2021-11-14T23:06:52.224Z</time>
      </trkpt>
      <trkpt lat="44.04017" lon="7.69954">
        <ele>1674</ele>
        <time>2021-11-14T23:06:58.478Z</time>
      </trkpt>
      <trkpt lat="44.04018" lon="7.69932">
        <ele>1674</ele>
        <time>2021-11-14T23:07:04.734Z</time>
      </trkpt>
      <trkpt lat="44.04002" lon="7.69847">
        <ele>1674</ele>
        <time>2021-11-14T23:07:11.001Z</time>
      </trkpt>
      <trkpt lat="44.03931" lon="7.69764">
        <ele>1674</ele>
        <time>2021-11-14T23:07:17.282Z</time>
      </trkpt>
      <trkpt lat="44.03912" lon="7.69723">
        <ele>1674</ele>
        <time>2021-11-14T23:07:23.569Z</time>
      </trkpt>
      <trkpt lat="44.03905" lon="7.69718">
        <ele>1674</ele>
        <time>2021-11-14T23:07:29.857Z</time>
      </trkpt>
      <trkpt lat="44.0387" lon="7.69709">
        <ele>1674</ele>
        <time>2021-11-14T23:07:36.151Z</time>
      </trkpt>
      <trkpt lat="44.03852" lon="7.69699">
        <ele>1674</ele>
        <time>2021-11-14T23:07:42.448Z</time>
      </trkpt>
      <trkpt lat="44.03839" lon="7.69689">
        <ele>1674</ele>
        <time>2021-11-14T23:07:48.747Z</time>
      </trkpt>
      <trkpt lat="44.03826" lon="7.69669">
        <ele>1674</ele>
        <time>2021-11-14T23:07:55.050Z</time>
      </trkpt>
      <trkpt lat="44.03815" lon="7.69665">
        <ele>1674</ele>
        <time>2021-11-14T23:08:01.354Z</time>
      </trkpt>
      <trkpt lat="44.03753" lon="7.69671">
        <ele>1673</ele>
        <time>2021-11-14T23:08:07.668Z</time>
      </trkpt>
      <trkpt lat="44.037" lon="7.69662">
        <ele>1673</ele>
        <time>2021-11-14T23:08:13.991Z</time>
      </trkpt>
      <trkpt lat="44.03629" lon="7.69666">
        <ele>1673</ele>
        <time>2021-11-14T23:08:20.325Z</time>
      </trkpt>
      <trkpt lat="44.03624" lon="7.6966">
        <ele>1673</ele>
        <time>2021-11-14T23:08:26.660Z</time>
      </trkpt>
      <trkpt lat="44.03623" lon="7.69648">
        <ele>1673</ele>
        <time>2021-11-14T23:08:32.997Z</time>
      </trkpt>
      <trkpt lat="44.03644" lon="7.69612">
        <ele>1673</ele>
        <time>2021-11-14T23:08:39.339Z</time>
      </trkpt>
      <trkpt lat="44.03779" lon="7.69515">
        <ele>1673</ele>
        <time>2021-11-14T23:08:45.705Z</time>
      </trkpt>
      <trkpt lat="44.03801" lon="7.69488">
        <ele>1673</ele>
        <time>2021-11-14T23:08:52.076Z</time>
      </trkpt>
      <trkpt lat="44.03816" lon="7.69461">
        <ele>1674</ele>
        <time>2021-11-14T23:08:58.451Z</time>
      </trkpt>
      <trkpt lat="44.03827" lon="7.69396">
        <ele>1673</ele>
        <time>2021-11-14T23:09:04.834Z</time>
      </trkpt>
      <trkpt lat="44.03881" lon="7.69296">
        <ele>1674</ele>
        <time>2021-11-14T23:09:11.231Z</time>
      </trkpt>
      <trkpt lat="44.03888" lon="7.6927">
        <ele>1674</ele>
        <time>2021-11-14T23:09:17.631Z</time>
      </trkpt>
      <trkpt lat="44.03887" lon="7.69234">
        <ele>1674</ele>
        <time>2021-11-14T23:09:24.035Z</time>
      </trkpt>
      <trkpt lat="44.03895" lon="7.69196">
        <ele>1674</ele>
        <time>2021-11-14T23:09:30.444Z</time>
      </trkpt>
      <trkpt lat="44.03895" lon="7.69166">
        <ele>1674</ele>
        <time>2021-11-14T23:09:36.856Z</time>
      </trkpt>
      <trkpt lat="44.03877" lon="7.69092">
        <ele>1674</ele>
        <time>2021-11-14T23:09:43.277Z</time>
      </trkpt>
      <trkpt lat="44.03889" lon="7.69045">
        <ele>1674</ele>
        <time>2021-11-14T23:09:49.704Z</time>
      </trkpt>
      <trkpt lat="44.03888" lon="7.69005">
        <ele>1674</ele>
        <time>2021-11-14T23:09:56.136Z</time>
      </trkpt>
      <trkpt lat="44.0388" lon="7.68958">
        <ele>1674</ele>
        <time>2021-11-14T23:10:02.573Z</time>
      </trkpt>
      <trkpt lat="44.03866" lon="7.68931">
        <ele>1674</ele>
        <time>2021-11-14T23:10:09.014Z</time>
      </trkpt>
      <trkpt lat="44.03821" lon="7.6887">
        <ele>1674</ele>
        <time>2021-11-14T23:10:15.465Z</time>
      </trkpt>
      <trkpt lat="44.03817" lon="7.68859">
        <ele>1674</ele>
        <time>2021-11-14T23:10:21.918Z</time>
      </trkpt>
      <trkpt lat="44.03811" lon="7.6881">
        <ele>1675</ele>
        <time>2021-11-14T23:10:28.377Z</time>
      </trkpt>
      <trkpt lat="44.03789" lon="7.68759">
        <ele>1675</ele>
        <time>2021-11-14T23:10:34.842Z</time>
      </trkpt>
      <trkpt lat="44.03775" lon="7.68744">
        <ele>1675</ele>
        <time>2021-11-14T23:10:41.310Z</time>
      </trkpt>
      <trkpt lat="44.03725" lon="7.68706">
        <ele>1675</ele>
        <time>2021-11-14T23:10:47.787Z</time>
      </trkpt>
      <trkpt lat="44.03721" lon="7.68697">
        <ele>1675</ele>
        <time>2021-11-14T23:10:54.266Z</time>
      </trkpt>
      <trkpt lat="44.0372" lon="7.68668">
        <ele>1675</ele>
        <time>2021-11-14T23:11:00.748Z</time>
      </trkpt>
      <trkpt lat="44.03736" lon="7.68601">
        <ele>1676</ele>
        <time>2021-11-14T23:11:07.238Z</time>
      </trkpt>
      <trkpt lat="44.03737" lon="7.68569">
        <ele>1676</ele>
        <time>2021-11-14T23:11:13.732Z</time>
      </trkpt>
      <trkpt lat="44.03732" lon="7.68519">
        <ele>1677</ele>
        <time>2021-11-14T23:11:20.232Z</time>
      </trkpt>
      <trkpt lat="44.03722" lon="7.68476">
        <ele>1677</ele>
        <time>2021-11-14T23:11:26.737Z</time>
      </trkpt>
      <trkpt lat="44.03705" lon="7.68441">
        <ele>1677</ele>
        <time>2021-11-14T23:11:33.247Z</time>
      </trkpt>
      <trkpt lat="44.03684" lon="7.68409">
        <ele>1678</ele>
        <time>2021-11-14T23:11:39.762Z</time>
      </trkpt>
      <trkpt lat="44.03665" lon="7.68344">
        <ele>1678</ele>
        <time>2021-11-14T23:11:46.285Z</time>
      </trkpt>
      <trkpt lat="44.03642" lon="7.68313">
        <ele>1679</ele>
        <time>2021-11-14T23:11:52.813Z</time>
      </trkpt>
      <trkpt lat="44.03624" lon="7.68297">
        <ele>1680</ele>
        <time>2021-11-14T23:11:59.344Z</time>
      </trkpt>
      <trkpt lat="44.03565" lon="7.6826">
        <ele>1681</ele>
        <time>2021-11-14T23:12:05.886Z</time>
      </trkpt>
      <trkpt lat="44.03547" lon="7.68226">
        <ele>1683</ele>
        <time>2021-11-14T23:12:12.433Z</time>
      </trkpt>
      <trkpt lat="44.03528" lon="7.68162">
        <ele>1684</ele>
        <time>2021-11-14T23:12:18.988Z</time>
      </trkpt>
      <trkpt lat="44.03497" lon="7.68123">
        <ele>1685</ele>
        <time>2021-11-14T23:12:25.549Z</time>
      </trkpt>
      <trkpt lat="44.03467" lon="7.68075">
        <ele>1686</ele>
        <time>2021-11-14T23:12:32.118Z</time>
      </trkpt>
      <trkpt lat="44.03388" lon="7.67969">
        <ele>1688</ele>
        <time>2021-11-14T23:12:38.704Z</time>
      </trkpt>
      <trkpt lat="44.03381" lon="7.6795">
        <ele>1689</ele>
        <time>2021-11-14T23:12:45.293Z</time>
      </trkpt>
      <trkpt lat="44.03378" lon="7.67907">
        <ele>1691</ele>
        <time>2021-11-14T23:12:51.887Z</time>
      </trkpt>
      <trkpt lat="44.03361" lon="7.67857">
        <ele>1693</ele>
        <time>2021-11-14T23:12:58.487Z</time>
      </trkpt>
      <trkpt lat="44.0331" lon="7.67785">
        <ele>1695</ele>
        <time>2021-11-14T23:13:05.099Z</time>
      </trkpt>
      <trkpt lat="44.03298" lon="7.67772">
        <ele>1697</ele>
        <time>2021-11-14T23:13:11.713Z</time>
      </trkpt>
      <trkpt lat="44.03269" lon="7.67754">
        <ele>1699</ele>
        <time>2021-11-14T23:13:18.332Z</time>
      </trkpt>
      <trkpt lat="44.03262" lon="7.67744">
        <ele>1701</ele>
        <time>2021-11-14T23:13:24.953Z</time>
      </trkpt>
      <trkpt lat="44.03255" lon="7.67731">
        <ele>1703</ele>
        <time>2021-11-14T23:13:31.576Z</time>
      </trkpt>
      <trkpt lat="44.03236" lon="7.67664">
        <ele>1705</ele>
        <time>2021-11-14T23:13:38.207Z</time>
      </trkpt>
      <trkpt lat="44.03231" lon="7.67655">
        <ele>1708</ele>
        <time>2021-11-14T23:13:44.839Z</time>
      </trkpt>
      <trkpt lat="44.03194" lon="7.6762">
        <ele>1711</ele>
        <time>2021-11-14T23:13:51.478Z</time>
      </trkpt>
      <trkpt lat="44.03136" lon="7.67591">
        <ele>1713</ele>
        <time>2021-11-14T23:13:58.127Z</time>
      </trkpt>
      <trkpt lat="44.03075" lon="7.67546">
        <ele>1717</ele>
        <time>2021-11-14T23:14:04.787Z</time>
      </trkpt>
      <trkpt lat="44.03059" lon="7.6754">
        <ele>1719</ele>
        <time>2021-11-14T23:14:11.450Z</time>
      </trkpt>
      <trkpt lat="44.03042" lon="7.67539">
        <ele>1722</ele>
        <time>2021-11-14T23:14:18.116Z</time>
      </trkpt>
      <trkpt lat="44.02999" lon="7.67546">
        <ele>1725</ele>
        <time>2021-11-14T23:14:24.789Z</time>
      </trkpt>
      <trkpt lat="44.02962" lon="7.67564">
        <ele>1728</ele>
        <time>2021-11-14T23:14:31.468Z</time>
      </trkpt>
      <trkpt lat="44.02949" lon="7.67564">
        <ele>1731</ele>
        <time>2021-11-14T23:14:38.149Z</time>
      </trkpt>
      <trkpt lat="44.02944" lon="7.67557">
        <ele>1734</ele>
        <time>2021-11-14T23:14:44.831Z</time>
      </trkpt>
      <trkpt lat="44.02934" lon="7.67511">
        <ele>1738</ele>
        <time>2021-11-14T23:14:51.519Z</time>
      </trkpt>
      <trkpt lat="44.02933" lon="7.67469">
        <ele>1741</ele>
        <time>2021-11-14T23:14:58.212Z</time>
      </trkpt>
      <trkpt lat="44.02938" lon="7.67446">
        <ele>1744</ele>
        <time>2021-11-14T23:15:04.907Z</time>
      </trkpt>
      <trkpt lat="44.02966" lon="7.67373">
        <ele>1747</ele>
        <time>2021-11-14T23:15:11.612Z</time>
      </trkpt>
      <trkpt lat="44.02971" lon="7.67352">
        <ele>1751</ele>
        <time>2021-11-14T23:15:18.319Z</time>
      </trkpt>
      <trkpt lat="44.02974" lon="7.6733">
        <ele>1754</ele>
        <time>2021-11-14T23:15:25.029Z</time>
      </trkpt>
      <trkpt lat="44.02974" lon="7.67266">
        <ele>1757</ele>
        <time>2021-11-14T23:15:31.746Z</time>
      </trkpt>
      <trkpt lat="44.02981" lon="7.67233">
        <ele>1761</ele>
        <time>2021-11-14T23:15:38.467Z</time>
      </trkpt>
      <trkpt lat="44.02989" lon="7.67203">
        <ele>1764</ele>
        <time>2021-11-14T23:15:45.192Z</time>
      </trkpt>
      <trkpt lat="44.03037" lon="7.67102">
        <ele>1768</ele>
        <time>2021-11-14T23:15:51.931Z</time>
      </trkpt>
      <trkpt lat="44.03057" lon="7.6704">
        <ele>1771</ele>
        <time>2021-11-14T23:15:58.678Z</time>
      </trkpt>
      <trkpt lat="44.03061" lon="7.67004">
        <ele>1775</ele>
        <time>2021-11-14T23:16:05.429Z</time>
      </trkpt>
      <trkpt lat="44.0306" lon="7.66956">
        <ele>1778</ele>
        <time>2021-11-14T23:16:12.186Z</time>
      </trkpt>
      <trkpt lat="44.03076" lon="7.66813">
        <ele>1782</ele>
        <time>2021-11-14T23:16:18.959Z</time>
      </trkpt>
      <trkpt lat="44.03076" lon="7.66751">
        <ele>1786</ele>
        <time>2021-11-14T23:16:25.739Z</time>
      </trkpt>
      <trkpt lat="44.03069" lon="7.6672">
        <ele>1790</ele>
        <time>2021-11-14T23:16:32.523Z</time>
      </trkpt>
      <trkpt lat="44.03054" lon="7.66709">
        <ele>1793</ele>
        <time>2021-11-14T23:16:39.310Z</time>
      </trkpt>
      <trkpt lat="44.03019" lon="7.66707">
        <ele>1796</ele>
        <time>2021-11-14T23:16:46.103Z</time>
      </trkpt>
      <trkpt lat="44.02984" lon="7.66695">
        <ele>1800</ele>
        <time>2021-11-14T23:16:52.901Z</time>
      </trkpt>
      <trkpt lat="44.02971" lon="7.66677">
        <ele>1803</ele>
        <time>2021-11-14T23:16:59.702Z</time>
      </trkpt>
      <trkpt lat="44.02958" lon="7.66667">
        <ele>1806</ele>
        <time>2021-11-14T23:17:06.506Z</time>
      </trkpt>
      <trkpt lat="44.02944" lon="7.66663">
        <ele>1809</ele>
        <time>2021-11-14T23:17:13.312Z</time>
      </trkpt>
      <trkpt lat="44.02876" lon="7.66675">
        <ele>1812</ele>
        <time>2021-11-14T23:17:20.129Z</time>
      </trkpt>
      <trkpt lat="44.02861" lon="7.6667">
        <ele>1815</ele>
        <time>2021-11-14T23:17:26.948Z</time>
      </trkpt>
      <trkpt lat="44.02849" lon="7.6665">
        <ele>1818</ele>
        <time>2021-11-14T23:17:33.770Z</time>
      </trkpt>
      <trkpt lat="44.02836" lon="7.66602">
        <ele>1822</ele>
        <time>2021-11-14T23:17:40.598Z</time>
      </trkpt>
      <trkpt lat="44.02814" lon="7.66494">
        <ele>1825</ele>
        <time>2021-11-14T23:17:47.439Z</time>
      </trkpt>
      <trkpt lat="44.02809" lon="7.66434">
        <ele>1828</ele>
        <time>2021-11-14T23:17:54.287Z</time>
      </trkpt>
      <trkpt lat="44.02803" lon="7.66427">
        <ele>1831</ele>
        <time>2021-11-14T23:18:01.136Z</time>
      </trkpt>
      <trkpt lat="44.02795" lon="7.66423">
        <ele>1834</ele>
        <time>2021-11-14T23:18:07.987Z</time>
      </trkpt>
      <trkpt lat="44.0277" lon="7.6642">
        <ele>1837</ele>
        <time>2021-11-14T23:18:14.842Z</time>
      </trkpt>
      <trkpt lat="44.02738" lon="7.66409">
        <ele>1840</ele>
        <time>2021-11-14T23:18:21.702Z</time>
      </trkpt>
      <trkpt lat="44.02726" lon="7.6641">
        <ele>1843</ele>
        <time>2021-11-14T23:18:28.564Z</time>
      </trkpt>
      <trkpt lat="44.02687" lon="7.66426">
        <ele>1845</ele>
        <time>2021-11-14T23:18:35.433Z</time>
      </trkpt>
      <trkpt lat="44.02659" lon="7.66422">
        <ele>1849</ele>
        <time>2021-11-14T23:18:42.306Z</time>
      </trkpt>
      <trkpt lat="44.02632" lon="7.6641">
        <ele>1852</ele>
        <time>2021-11-14T23:18:49.184Z</time>
      </trkpt>
      <trkpt lat="44.02586" lon="7.66406">
        <ele>1855</ele>
        <time>2021-11-14T23:18:56.069Z</time>
      </trkpt>
      <trkpt lat="44.02556" lon="7.6641">
        <ele>1857</ele>
        <time>2021-11-14T23:19:02.959Z</time>
      </trkpt>
      <trkpt lat="44.02528" lon="7.66424">
        <ele>1860</ele>
        <time>2021-11-14T23:19:09.854Z</time>
      </trkpt>
      <trkpt lat="44.02503" lon="7.66422">
        <ele>1863</ele>
        <time>2021-11-14T23:19:16.753Z</time>
      </trkpt>
      <trkpt lat="44.02483" lon="7.6641">
        <ele>1866</ele>
        <time>2021-11-14T23:19:23.655Z</time>
      </trkpt>
      <trkpt lat="44.02448" lon="7.6636">
        <ele>1869</ele>
        <time>2021-11-14T23:19:30.565Z</time>
      </trkpt>
      <trkpt lat="44.02417" lon="7.66339">
        <ele>1872</ele>
        <time>2021-11-14T23:19:37.481Z</time>
      </trkpt>
      <trkpt lat="44.02377" lon="7.66331">
        <ele>1875</ele>
        <time>2021-11-14T23:19:44.403Z</time>
      </trkpt>
      <trkpt lat="44.02315" lon="7.66337">
        <ele>1878</ele>
        <time>2021-11-14T23:19:51.335Z</time>
      </trkpt>
      <trkpt lat="44.02303" lon="7.66332">
        <ele>1881</ele>
        <time>2021-11-14T23:19:58.269Z</time>
      </trkpt>
      <trkpt lat="44.02276" lon="7.66313">
        <ele>1884</ele>
        <time>2021-11-14T23:20:05.208Z</time>
      </trkpt>
      <trkpt lat="44.02263" lon="7.66322">
        <ele>1887</ele>
        <time>2021-11-14T23:20:12.149Z</time>
      </trkpt>
      <trkpt lat="44.02222" lon="7.66362">
        <ele>1891</ele>
        <time>2021-11-14T23:20:19.098Z</time>
      </trkpt>
      <trkpt lat="44.02197" lon="7.66408">
        <ele>1894</ele>
        <time>2021-11-14T23:20:26.054Z</time>
      </trkpt>
      <trkpt lat="44.02173" lon="7.66464">
        <ele>1897</ele>
        <time>2021-11-14T23:20:33.017Z</time>
      </trkpt>
      <trkpt lat="44.02159" lon="7.66479">
        <ele>1900</ele>
        <time>2021-11-14T23:20:39.983Z</time>
      </trkpt>
      <trkpt lat="44.02135" lon="7.66489">
        <ele>1903</ele>
        <time>2021-11-14T23:20:46.953Z</time>
      </trkpt>
      <trkpt lat="44.02112" lon="7.66489">
        <ele>1906</ele>
        <time>2021-11-14T23:20:53.927Z</time>
      </trkpt>
      <trkpt lat="44.02087" lon="7.66469">
        <ele>1910</ele>
        <time>2021-11-14T23:21:00.905Z</time>
      </trkpt>
      <trkpt lat="44.02062" lon="7.66462">
        <ele>1913</ele>
        <time>2021-11-14T23:21:07.888Z</time>
      </trkpt>
      <trkpt lat="44.02019" lon="7.66428">
        <ele>1916</ele>
        <time>2021-11-14T23:21:14.878Z</time>
      </trkpt>
      <trkpt lat="44.01987" lon="7.6641">
        <ele>1918</ele>
        <time>2021-11-14T23:21:21.874Z</time>
      </trkpt>
      <trkpt lat="44.0195" lon="7.66379">
        <ele>1922</ele>
        <time>2021-11-14T23:21:28.877Z</time>
      </trkpt>
      <trkpt lat="44.0193" lon="7.66358">
        <ele>1925</ele>
        <time>2021-11-14T23:21:35.884Z</time>
      </trkpt>
      <trkpt lat="44.01854" lon="7.6631">
        <ele>1928</ele>
        <time>2021-11-14T23:21:42.904Z</time>
      </trkpt>
      <trkpt lat="44.01818" lon="7.66278">
        <ele>1930</ele>
        <time>2021-11-14T23:21:49.931Z</time>
      </trkpt>
      <trkpt lat="44.01806" lon="7.66258">
        <ele>1933</ele>
        <time>2021-11-14T23:21:56.961Z</time>
      </trkpt>
      <trkpt lat="44.01797" lon="7.66251">
        <ele>1936</ele>
        <time>2021-11-14T23:22:03.993Z</time>
      </trkpt>
      <trkpt lat="44.01785" lon="7.6625">
        <ele>1938</ele>
        <time>2021-11-14T23:22:11.027Z</time>
      </trkpt>
      <trkpt lat="44.01716" lon="7.66276">
        <ele>1940</ele>
        <time>2021-11-14T23:22:18.072Z</time>
      </trkpt>
      <trkpt lat="44.01706" lon="7.66288">
        <ele>1942</ele>
        <time>2021-11-14T23:22:25.119Z</time>
      </trkpt>
      <trkpt lat="44.01694" lon="7.66296">
        <ele>1944</ele>
        <time>2021-11-14T23:22:32.168Z</time>
      </trkpt>
      <trkpt lat="44.0164" lon="7.66308">
        <ele>1949</ele>
        <time>2021-11-14T23:22:39.226Z</time>
      </trkpt>
      <trkpt lat="44.01584" lon="7.66307">
        <ele>1951</ele>
        <time>2021-11-14T23:22:46.293Z</time>
      </trkpt>
      <trkpt lat="44.01561" lon="7.66312">
        <ele>1953</ele>
        <time>2021-11-14T23:22:53.364Z</time>
      </trkpt>
      <trkpt lat="44.01519" lon="7.66332">
        <ele>1955</ele>
        <time>2021-11-14T23:23:00.442Z</time>
      </trkpt>
      <trkpt lat="44.01504" lon="7.66356">
        <ele>1957</ele>
        <time>2021-11-14T23:23:07.524Z</time>
      </trkpt>
      <trkpt lat="44.01494" lon="7.66366">
        <ele>1958</ele>
        <time>2021-11-14T23:23:14.608Z</time>
      </trkpt>
      <trkpt lat="44.01437" lon="7.6639">
        <ele>1960</ele>
        <time>2021-11-14T23:23:21.701Z</time>
      </trkpt>
      <trkpt lat="44.01411" lon="7.66398">
        <ele>1962</ele>
        <time>2021-11-14T23:23:28.798Z</time>
      </trkpt>
      <trkpt lat="44.01389" lon="7.664">
        <ele>1963</ele>
        <time>2021-11-14T23:23:35.899Z</time>
      </trkpt>
      <trkpt lat="44.01398" lon="7.6639">
        <ele>1964</ele>
        <time>2021-11-14T23:23:43.002Z</time>
      </trkpt>
      <trkpt lat="44.01419" lon="7.66388">
        <ele>1966</ele>
        <time>2021-11-14T23:23:50.108Z</time>
      </trkpt>
      <trkpt lat="44.01436" lon="7.66382">
        <ele>1967</ele>
        <time>2021-11-14T23:23:57.217Z</time>
      </trkpt>
      <trkpt lat="44.01475" lon="7.66345">
        <ele>1968</ele>
        <time>2021-11-14T23:24:04.333Z</time>
      </trkpt>
      <trkpt lat="44.01487" lon="7.66324">
        <ele>1969</ele>
        <time>2021-11-14T23:24:11.453Z</time>
      </trkpt>
      <trkpt lat="44.01487" lon="7.66302">
        <ele>1971</ele>
        <time>2021-11-14T23:24:18.575Z</time>
      </trkpt>
      <trkpt lat="44.01484" lon="7.66297">
        <ele>1972</ele>
        <time>2021-11-14T23:24:25.698Z</time>
      </trkpt>
      <trkpt lat="44.01385" lon="7.66333">
        <ele>1972</ele>
        <time>2021-11-14T23:24:32.837Z</time>
      </trkpt>
      <trkpt lat="44.01356" lon="7.66359">
        <ele>1973</ele>
        <time>2021-11-14T23:24:39.982Z</time>
      </trkpt>
      <trkpt lat="44.01269" lon="7.66404">
        <ele>1974</ele>
        <time>2021-11-14T23:24:47.142Z</time>
      </trkpt>
      <trkpt lat="44.01219" lon="7.66465">
        <ele>1974</ele>
        <time>2021-11-14T23:24:54.312Z</time>
      </trkpt>
      <trkpt lat="44.01175" lon="7.66538">
        <ele>1975</ele>
        <time>2021-11-14T23:25:01.493Z</time>
      </trkpt>
      <trkpt lat="44.01158" lon="7.66558">
        <ele>1975</ele>
        <time>2021-11-14T23:25:08.678Z</time>
      </trkpt>
      <trkpt lat="44.01139" lon="7.66569">
        <ele>1976</ele>
        <time>2021-11-14T23:25:15.866Z</time>
      </trkpt>
      <trkpt lat="44.01121" lon="7.66573">
        <ele>1976</ele>
        <time>2021-11-14T23:25:23.057Z</time>
      </trkpt>
      <trkpt lat="44.01105" lon="7.66572">
        <ele>1976</ele>
        <time>2021-11-14T23:25:30.251Z</time>
      </trkpt>
      <trkpt lat="44.01013" lon="7.66536">
        <ele>1976</ele>
        <time>2021-11-14T23:25:37.460Z</time>
      </trkpt>
      <trkpt lat="44.00924" lon="7.66518">
        <ele>1976</ele>
        <time>2021-11-14T23:25:44.683Z</time>
      </trkpt>
      <trkpt lat="44.00887" lon="7.66524">
        <ele>1976</ele>
        <time>2021-11-14T23:25:51.912Z</time>
      </trkpt>
      <trkpt lat="44.00835" lon="7.66559">
        <ele>1976</ele>
        <time>2021-11-14T23:25:59.151Z</time>
      </trkpt>
      <trkpt lat="44.00801" lon="7.66573">
        <ele>1976</ele>
        <time>2021-11-14T23:26:06.395Z</time>
      </trkpt>
      <trkpt lat="44.00751" lon="7.66617">
        <ele>1976</ele>
        <time>2021-11-14T23:26:13.649Z</time>
      </trkpt>
      <trkpt lat="44.00677" lon="7.66748">
        <ele>1975</ele>
        <time>2021-11-14T23:26:20.922Z</time>
      </trkpt>
      <trkpt lat="44.00671" lon="7.66765">
        <ele>1975</ele>
        <time>2021-11-14T23:26:28.197Z</time>
      </trkpt>
      <trkpt lat="44.00645" lon="7.6679">
        <ele>1975</ele>
        <time>2021-11-14T23:26:35.477Z</time>
      </trkpt>
      <trkpt lat="44.00628" lon="7.66794">
        <ele>1974</ele>
        <time>2021-11-14T23:26:42.760Z</time>
      </trkpt>
      <trkpt lat="44.00549" lon="7.66773">
        <ele>1974</ele>
        <time>2021-11-14T23:26:50.056Z</time>
      </trkpt>
      <trkpt lat="44.00523" lon="7.66768">
        <ele>1973</ele>
        <time>2021-11-14T23:26:57.356Z</time>
      </trkpt>
      <trkpt lat="44.00505" lon="7.6677">
        <ele>1972</ele>
        <time>2021-11-14T23:27:04.659Z</time>
      </trkpt>
      <trkpt lat="44.00488" lon="7.66773">
        <ele>1970</ele>
        <time>2021-11-14T23:27:11.965Z</time>
      </trkpt>
      <trkpt lat="44.00422" lon="7.66802">
        <ele>1969</ele>
        <time>2021-11-14T23:27:19.282Z</time>
      </trkpt>
      <trkpt lat="44.0029" lon="7.66817">
        <ele>1967</ele>
        <time>2021-11-14T23:27:26.620Z</time>
      </trkpt>
      <trkpt lat="44.00224" lon="7.66846">
        <ele>1965</ele>
        <time>2021-11-14T23:27:33.969Z</time>
      </trkpt>
      <trkpt lat="44.00209" lon="7.66849">
        <ele>1963</ele>
        <time>2021-11-14T23:27:41.320Z</time>
      </trkpt>
      <trkpt lat="44.00178" lon="7.66847">
        <ele>1961</ele>
        <time>2021-11-14T23:27:48.676Z</time>
      </trkpt>
      <trkpt lat="44.0016" lon="7.66853">
        <ele>1959</ele>
        <time>2021-11-14T23:27:56.035Z</time>
      </trkpt>
      <trkpt lat="44.00137" lon="7.66872">
        <ele>1957</ele>
        <time>2021-11-14T23:28:03.399Z</time>
      </trkpt>
      <trkpt lat="44.00123" lon="7.66891">
        <ele>1954</ele>
        <time>2021-11-14T23:28:10.766Z</time>
      </trkpt>
      <trkpt lat="44.00076" lon="7.66975">
        <ele>1951</ele>
        <time>2021-11-14T23:28:18.145Z</time>
      </trkpt>
      <trkpt lat="44.00043" lon="7.66992">
        <ele>1949</ele>
        <time>2021-11-14T23:28:25.530Z</time>
      </trkpt>
      <trkpt lat="44.00017" lon="7.66998">
        <ele>1946</ele>
        <time>2021-11-14T23:28:32.919Z</time>
      </trkpt>
      <trkpt lat="43.99967" lon="7.67048">
        <ele>1943</ele>
        <time>2021-11-14T23:28:40.318Z</time>
      </trkpt>
      <trkpt lat="43.99939" lon="7.67097">
        <ele>1939</ele>
        <time>2021-11-14T23:28:47.724Z</time>
      </trkpt>
      <trkpt lat="43.999" lon="7.67105">
        <ele>1936</ele>
        <time>2021-11-14T23:28:55.136Z</time>
      </trkpt>
      <trkpt lat="43.99885" lon="7.67123">
        <ele>1933</ele>
        <time>2021-11-14T23:29:02.551Z</time>
      </trkpt>
      <trkpt lat="43.99862" lon="7.67163">
        <ele>1930</ele>
        <time>2021-11-14T23:29:09.972Z</time>
      </trkpt>
      <trkpt lat="43.9985" lon="7.67193">
        <ele>1926</ele>
        <time>2021-11-14T23:29:17.397Z</time>
      </trkpt>
      <trkpt lat="43.99842" lon="7.67341">
        <ele>1920</ele>
        <time>2021-11-14T23:29:24.839Z</time>
      </trkpt>
      <trkpt lat="43.99812" lon="7.67381">
        <ele>1917</ele>
        <time>2021-11-14T23:29:32.288Z</time>
      </trkpt>
      <trkpt lat="43.99799" lon="7.67417">
        <ele>1912</ele>
        <time>2021-11-14T23:29:39.742Z</time>
      </trkpt>
      <trkpt lat="43.99755" lon="7.67439">
        <ele>1908</ele>
        <time>2021-11-14T23:29:47.203Z</time>
      </trkpt>
      <trkpt lat="43.99727" lon="7.67441">
        <ele>1904</ele>
        <time>2021-11-14T23:29:54.669Z</time>
      </trkpt>
      <trkpt lat="43.99705" lon="7.6743">
        <ele>1900</ele>
        <time>2021-11-14T23:30:02.138Z</time>
      </trkpt>
      <trkpt lat="43.99636" lon="7.6737">
        <ele>1895</ele>
        <time>2021-11-14T23:30:09.620Z</time>
      </trkpt>
      <trkpt lat="43.99604" lon="7.67309">
        <ele>1892</ele>
        <time>2021-11-14T23:30:17.111Z</time>
      </trkpt>
      <trkpt lat="43.99583" lon="7.67278">
        <ele>1888</ele>
        <time>2021-11-14T23:30:24.607Z</time>
      </trkpt>
      <trkpt lat="43.99572" lon="7.67268">
        <ele>1884</ele>
        <time>2021-11-14T23:30:32.105Z</time>
      </trkpt>
      <trkpt lat="43.99567" lon="7.6725">
        <ele>1880</ele>
        <time>2021-11-14T23:30:39.605Z</time>
      </trkpt>
      <trkpt lat="43.99568" lon="7.67238">
        <ele>1876</ele>
        <time>2021-11-14T23:30:47.107Z</time>
      </trkpt>
      <trkpt lat="43.99591" lon="7.67199">
        <ele>1874</ele>
        <time>2021-11-14T23:30:54.615Z</time>
      </trkpt>
      <trkpt lat="43.99591" lon="7.67176">
        <ele>1870</ele>
        <time>2021-11-14T23:31:02.125Z</time>
      </trkpt>
      <trkpt lat="43.99585" lon="7.67144">
        <ele>1866</ele>
        <time>2021-11-14T23:31:09.639Z</time>
      </trkpt>
      <trkpt lat="43.99583" lon="7.6711">
        <ele>1863</ele>
        <time>2021-11-14T23:31:17.157Z</time>
      </trkpt>
      <trkpt lat="43.99601" lon="7.67065">
        <ele>1861</ele>
        <time>2021-11-14T23:31:24.681Z</time>
      </trkpt>
      <trkpt lat="43.99601" lon="7.67034">
        <ele>1858</ele>
        <time>2021-11-14T23:31:32.209Z</time>
      </trkpt>
      <trkpt lat="43.99594" lon="7.66994">
        <ele>1855</ele>
        <time>2021-11-14T23:31:39.741Z</time>
      </trkpt>
      <trkpt lat="43.99584" lon="7.66963">
        <ele>1852</ele>
        <time>2021-11-14T23:31:47.277Z</time>
      </trkpt>
      <trkpt lat="43.99584" lon="7.66934">
        <ele>1849</ele>
        <time>2021-11-14T23:31:54.817Z</time>
      </trkpt>
      <trkpt lat="43.99607" lon="7.66806">
        <ele>1847</ele>
        <time>2021-11-14T23:32:02.372Z</time>
      </trkpt>
      <trkpt lat="43.99588" lon="7.66766">
        <ele>1845</ele>
        <time>2021-11-14T23:32:09.932Z</time>
      </trkpt>
      <trkpt lat="43.99578" lon="7.66753">
        <ele>1842</ele>
        <time>2021-11-14T23:32:17.495Z</time>
      </trkpt>
      <trkpt lat="43.99507" lon="7.66701">
        <ele>1840</ele>
        <time>2021-11-14T23:32:25.070Z</time>
      </trkpt>
      <trkpt lat="43.99459" lon="7.66723">
        <ele>1837</ele>
        <time>2021-11-14T23:32:32.654Z</time>
      </trkpt>
      <trkpt lat="43.99405" lon="7.66739">
        <ele>1834</ele>
        <time>2021-11-14T23:32:40.246Z</time>
      </trkpt>
      <trkpt lat="43.99399" lon="7.66735">
        <ele>1831</ele>
        <time>2021-11-14T23:32:47.839Z</time>
      </trkpt>
      <trkpt lat="43.99364" lon="7.66648">
        <ele>1829</ele>
        <time>2021-11-14T23:32:55.444Z</time>
      </trkpt>
      <trkpt lat="43.99347" lon="7.66617">
        <ele>1827</ele>
        <time>2021-11-14T23:33:03.053Z</time>
      </trkpt>
      <trkpt lat="43.99327" lon="7.66593">
        <ele>1825</ele>
        <time>2021-11-14T23:33:10.667Z</time>
      </trkpt>
      <trkpt lat="43.99222" lon="7.66501">
        <ele>1822</ele>
        <time>2021-11-14T23:33:18.301Z</time>
      </trkpt>
      <trkpt lat="43.99196" lon="7.66472">
        <ele>1821</ele>
        <time>2021-11-14T23:33:25.940Z</time>
      </trkpt>
      <trkpt lat="43.99171" lon="7.66471">
        <ele>1818</ele>
        <time>2021-11-14T23:33:33.583Z</time>
      </trkpt>
      <trkpt lat="43.99134" lon="7.66508">
        <ele>1816</ele>
        <time>2021-11-14T23:33:41.233Z</time>
      </trkpt>
      <trkpt lat="43.99092" lon="7.66566">
        <ele>1813</ele>
        <time>2021-11-14T23:33:48.893Z</time>
      </trkpt>
      <trkpt lat="43.99072" lon="7.66585">
        <ele>1811</ele>
        <time>2021-11-14T23:33:56.557Z</time>
      </trkpt>
      <trkpt lat="43.99037" lon="7.66611">
        <ele>1809</ele>
        <time>2021-11-14T23:34:04.227Z</time>
      </trkpt>
      <trkpt lat="43.9899" lon="7.66679">
        <ele>1805</ele>
        <time>2021-11-14T23:34:11.908Z</time>
      </trkpt>
      <trkpt lat="43.98975" lon="7.66692">
        <ele>1803</ele>
        <time>2021-11-14T23:34:19.592Z</time>
      </trkpt>
      <trkpt lat="43.98967" lon="7.66704">
        <ele>1801</ele>
        <time>2021-11-14T23:34:27.277Z</time>
      </trkpt>
      <trkpt lat="43.98973" lon="7.66714">
        <ele>1798</ele>
        <time>2021-11-14T23:34:34.964Z</time>
      </trkpt>
      <trkpt lat="43.9898" lon="7.66713">
        <ele>1796</ele>
        <time>2021-11-14T23:34:42.652Z</time>
      </trkpt>
      <trkpt lat="43.99048" lon="7.66641">
        <ele>1794</ele>
        <time>2021-11-14T23:34:50.354Z</time>
      </trkpt>
      <trkpt lat="43.99116" lon="7.66598">
        <ele>1791</ele>
        <time>2021-11-14T23:34:58.068Z</time>
      </trkpt>
      <trkpt lat="43.99131" lon="7.66586">
        <ele>1789</ele>
        <time>2021-11-14T23:35:05.785Z</time>
      </trkpt>
      <trkpt lat="43.99164" lon="7.6655">
        <ele>1786</ele>
        <time>2021-11-14T23:35:13.508Z</time>
      </trkpt>
      <trkpt lat="43.99173" lon="7.66545">
        <ele>1784</ele>
        <time>2021-11-14T23:35:21.233Z</time>
      </trkpt>
      <trkpt lat="43.99181" lon="7.66546">
        <ele>1781</ele>
        <time>2021-11-14T23:35:28.959Z</time>
      </trkpt>
      <trkpt lat="43.99205" lon="7.66587">
        <ele>1777</ele>
        <time>2021-11-14T23:35:36.691Z</time>
      </trkpt>
      <trkpt lat="43.9925" lon="7.66648">
        <ele>1775</ele>
        <time>2021-11-14T23:35:44.433Z</time>
      </trkpt>
      <trkpt lat="43.99281" lon="7.66676">
        <ele>1772</ele>
        <time>2021-11-14T23:35:52.181Z</time>
      </trkpt>
      <trkpt lat="43.99305" lon="7.66743">
        <ele>1769</ele>
        <time>2021-11-14T23:35:59.938Z</time>
      </trkpt>
      <trkpt lat="43.99324" lon="7.66834">
        <ele>1765</ele>
        <time>2021-11-14T23:36:07.706Z</time>
      </trkpt>
      <trkpt lat="43.99335" lon="7.66857">
        <ele>1762</ele>
        <time>2021-11-14T23:36:15.477Z</time>
      </trkpt>
      <trkpt lat="43.99343" lon="7.66858">
        <ele>1760</ele>
        <time>2021-11-14T23:36:23.249Z</time>
      </trkpt>
      <trkpt lat="43.99359" lon="7.66846">
        <ele>1757</ele>
        <time>2021-11-14T23:36:31.024Z</time>
      </trkpt>
      <trkpt lat="43.99365" lon="7.66847">
        <ele>1755</ele>
        <time>2021-11-14T23:36:38.800Z</time>
      </trkpt>
      <trkpt lat="43.99372" lon="7.66853">
        <ele>1752</ele>
        <time>2021-11-14T23:36:46.577Z</time>
      </trkpt>
      <trkpt lat="43.99395" lon="7.6689">
        <ele>1749</ele>
        <time>2021-11-14T23:36:54.360Z</time>
      </trkpt>
      <trkpt lat="43.99417" lon="7.66871">
        <ele>1746</ele>
        <time>2021-11-14T23:37:02.147Z</time>
      </trkpt>
      <trkpt lat="43.99424" lon="7.66871">
        <ele>1744</ele>
        <time>2021-11-14T23:37:09.935Z</time>
      </trkpt>
      <trkpt lat="43.99439" lon="7.66889">
        <ele>1741</ele>
        <time>2021-11-14T23:37:17.727Z</time>
      </trkpt>
      <trkpt lat="43.99441" lon="7.66971">
        <ele>1737</ele>
        <time>2021-11-14T23:37:25.528Z</time>
      </trkpt>
      <trkpt lat="43.99453" lon="7.67021">
        <ele>1735</ele>
        <time>2021-11-14T23:37:33.335Z</time>
      </trkpt>
      <trkpt lat="43.99457" lon="7.67059">
        <ele>1731</ele>
        <time>2021-11-14T23:37:41.147Z</time>
      </trkpt>
      <trkpt lat="43.99439" lon="7.67142">
        <ele>1728</ele>
        <time>2021-11-14T23:37:48.969Z</time>
      </trkpt>
      <trkpt lat="43.99391" lon="7.6719">
        <ele>1725</ele>
        <time>2021-11-14T23:37:56.800Z</time>
      </trkpt>
      <trkpt lat="43.99383" lon="7.67208">
        <ele>1722</ele>
        <time>2021-11-14T23:38:04.633Z</time>
      </trkpt>
      <trkpt lat="43.99394" lon="7.67325">
        <ele>1719</ele>
        <time>2021-11-14T23:38:12.480Z</time>
      </trkpt>
      <trkpt lat="43.9941" lon="7.67368">
        <ele>1717</ele>
        <time>2021-11-14T23:38:20.333Z</time>
      </trkpt>
      <trkpt lat="43.9941" lon="7.67378">
        <ele>1714</ele>
        <time>2021-11-14T23:38:28.187Z</time>
      </trkpt>
      <trkpt lat="43.99387" lon="7.67452">
        <ele>1711</ele>
        <time>2021-11-14T23:38:36.050Z</time>
      </trkpt>
      <trkpt lat="43.99385" lon="7.67505">
        <ele>1708</ele>
        <time>2021-11-14T23:38:43.919Z</time>
      </trkpt>
      <trkpt lat="43.99379" lon="7.67555">
        <ele>1706</ele>
        <time>2021-11-14T23:38:51.794Z</time>
      </trkpt>
      <trkpt lat="43.99381" lon="7.67567">
        <ele>1703</ele>
        <time>2021-11-14T23:38:59.671Z</time>
      </trkpt>
      <trkpt lat="43.99389" lon="7.67575">
        <ele>1701</ele>
        <time>2021-11-14T23:39:07.549Z</time>
      </trkpt>
      <trkpt lat="43.99421" lon="7.67572">
        <ele>1699</ele>
        <time>2021-11-14T23:39:15.432Z</time>
      </trkpt>
      <trkpt lat="43.99434" lon="7.67596">
        <ele>1697</ele>
        <time>2021-11-14T23:39:23.319Z</time>
      </trkpt>
      <trkpt lat="43.99448" lon="7.67613">
        <ele>1694</ele>
        <time>2021-11-14T23:39:31.209Z</time>
      </trkpt>
      <trkpt lat="43.99449" lon="7.67619">
        <ele>1692</ele>
        <time>2021-11-14T23:39:39.099Z</time>
      </trkpt>
      <trkpt lat="43.99444" lon="7.67624">
        <ele>1690</ele>
        <time>2021-11-14T23:39:46.990Z</time>
      </trkpt>
      <trkpt lat="43.99438" lon="7.67622">
        <ele>1688</ele>
        <time>2021-11-14T23:39:54.882Z</time>
      </trkpt>
      <trkpt lat="43.99418" lon="7.67576">
        <ele>1685</ele>
        <time>2021-11-14T23:40:02.781Z</time>
      </trkpt>
      <trkpt lat="43.994" lon="7.67586">
        <ele>1683</ele>
        <time>2021-11-14T23:40:10.683Z</time>
      </trkpt>
      <trkpt lat="43.99385" lon="7.6759">
        <ele>1680</ele>
        <time>2021-11-14T23:40:18.587Z</time>
      </trkpt>
      <trkpt lat="43.99369" lon="7.67579">
        <ele>1678</ele>
        <time>2021-11-14T23:40:26.494Z</time>
      </trkpt>
      <trkpt lat="43.99365" lon="7.6757">
        <ele>1675</ele>
        <time>2021-11-14T23:40:34.402Z</time>
      </trkpt>
      <trkpt lat="43.99366" lon="7.67504">
        <ele>1673</ele>
        <time>2021-11-14T23:40:42.318Z</time>
      </trkpt>
      <trkpt lat="43.99359" lon="7.67449">
        <ele>1671</ele>
        <time>2021-11-14T23:40:50.240Z</time>
      </trkpt>
      <trkpt lat="43.99369" lon="7.67387">
        <ele>1669</ele>
        <time>2021-11-14T23:40:58.170Z</time>
      </trkpt>
      <trkpt lat="43.99368" lon="7.67376">
        <ele>1666</ele>
        <time>2021-11-14T23:41:06.101Z</time>
      </trkpt>
      <trkpt lat="43.99352" lon="7.67344">
        <ele>1664</ele>
        <time>2021-11-14T23:41:14.036Z</time>
      </trkpt>
      <trkpt lat="43.99314" lon="7.67189">
        <ele>1661</ele>
        <time>2021-11-14T23:41:21.990Z</time>
      </trkpt>
      <trkpt lat="43.99318" lon="7.67157">
        <ele>1659</ele>
        <time>2021-11-14T23:41:29.948Z</time>
      </trkpt>
      <trkpt lat="43.99328" lon="7.67134">
        <ele>1656</ele>
        <time>2021-11-14T23:41:37.909Z</time>
      </trkpt>
      <trkpt lat="43.99347" lon="7.67112">
        <ele>1654</ele>
        <time>2021-11-14T23:41:45.874Z</time>
      </trkpt>
      <trkpt lat="43.99347" lon="7.67102">
        <ele>1652</ele>
        <time>2021-11-14T23:41:53.840Z</time>
      </trkpt>
      <trkpt lat="43.99341" lon="7.671">
        <ele>1649</ele>
        <time>2021-11-14T23:42:01.807Z</time>
      </trkpt>
      <trkpt lat="43.99329" lon="7.67112">
        <ele>1647</ele>
        <time>2021-11-14T23:42:09.777Z</time>
      </trkpt>
      <trkpt lat="43.99309" lon="7.67151">
        <ele>1645</ele>
        <time>2021-11-14T23:42:17.752Z</time>
      </trkpt>
      <trkpt lat="43.99301" lon="7.6717">
        <ele>1642</ele>
        <time>2021-11-14T23:42:25.730Z</time>
      </trkpt>
      <trkpt lat="43.99298" lon="7.67187">
        <ele>1640</ele>
        <time>2021-11-14T23:42:33.710Z</time>
      </trkpt>
      <trkpt lat="43.99297" lon="7.67204">
        <ele>1637</ele>
        <time>2021-11-14T23:42:41.692Z</time>
      </trkpt>
      <trkpt lat="43.99311" lon="7.67346">
        <ele>1635</ele>
        <time>2021-11-14T23:42:49.690Z</time>
      </trkpt>
      <trkpt lat="43.99317" lon="7.67366">
        <ele>1632</ele>
        <time>2021-11-14T23:42:57.691Z</time>
      </trkpt>
      <trkpt lat="43.99317" lon="7.67386">
        <ele>1630</ele>
        <time>2021-11-14T23:43:05.694Z</time>
      </trkpt>
      <trkpt lat="43.99303" lon="7.67465">
        <ele>1627</ele>
        <time>2021-11-14T23:43:13.706Z</time>
      </trkpt>
      <trkpt lat="43.99305" lon="7.67503">
        <ele>1625</ele>
        <time>2021-11-14T23:43:21.723Z</time>
      </trkpt>
      <trkpt lat="43.99302" lon="7.67533">
        <ele>1622</ele>
        <time>2021-11-14T23:43:29.743Z</time>
      </trkpt>
      <trkpt lat="43.99282" lon="7.67609">
        <ele>1620</ele>
        <time>2021-11-14T23:43:37.773Z</time>
      </trkpt>
      <trkpt lat="43.99283" lon="7.6763">
        <ele>1617</ele>
        <time>2021-11-14T23:43:45.805Z</time>
      </trkpt>
      <trkpt lat="43.99287" lon="7.67643">
        <ele>1615</ele>
        <time>2021-11-14T23:43:53.839Z</time>
      </trkpt>
      <trkpt lat="43.9931" lon="7.67682">
        <ele>1613</ele>
        <time>2021-11-14T23:44:01.879Z</time>
      </trkpt>
      <trkpt lat="43.9932" lon="7.67687">
        <ele>1611</ele>
        <time>2021-11-14T23:44:09.920Z</time>
      </trkpt>
      <trkpt lat="43.99326" lon="7.67699">
        <ele>1608</ele>
        <time>2021-11-14T23:44:17.963Z</time>
      </trkpt>
      <trkpt lat="43.99308" lon="7.67747">
        <ele>1606</ele>
        <time>2021-11-14T23:44:26.012Z</time>
      </trkpt>
      <trkpt lat="43.99278" lon="7.6781">
        <ele>1603</ele>
        <time>2021-11-14T23:44:34.070Z</time>
      </trkpt>
      <trkpt lat="43.99251" lon="7.67966">
        <ele>1601</ele>
        <time>2021-11-14T23:44:42.146Z</time>
      </trkpt>
      <trkpt lat="43.99218" lon="7.68006">
        <ele>1598</ele>
        <time>2021-11-14T23:44:50.229Z</time>
      </trkpt>
      <trkpt lat="43.99187" lon="7.68022">
        <ele>1596</ele>
        <time>2021-11-14T23:44:58.318Z</time>
      </trkpt>
      <trkpt lat="43.99161" lon="7.68051">
        <ele>1593</ele>
        <time>2021-11-14T23:45:06.412Z</time>
      </trkpt>
      <trkpt lat="43.99164" lon="7.68066">
        <ele>1591</ele>
        <time>2021-11-14T23:45:14.508Z</time>
      </trkpt>
      <trkpt lat="43.99179" lon="7.68083">
        <ele>1589</ele>
        <time>2021-11-14T23:45:22.607Z</time>
      </trkpt>
      <trkpt lat="43.99183" lon="7.68094">
        <ele>1587</ele>
        <time>2021-11-14T23:45:30.707Z</time>
      </trkpt>
      <trkpt lat="43.99185" lon="7.68105">
        <ele>1585</ele>
        <time>2021-11-14T23:45:38.809Z</time>
      </trkpt>
      <trkpt lat="43.9918" lon="7.68149">
        <ele>1582</ele>
        <time>2021-11-14T23:45:46.916Z</time>
      </trkpt>
      <trkpt lat="43.99193" lon="7.68188">
        <ele>1580</ele>
        <time>2021-11-14T23:45:55.028Z</time>
      </trkpt>
      <trkpt lat="43.99189" lon="7.68241">
        <ele>1577</ele>
        <time>2021-11-14T23:46:03.146Z</time>
      </trkpt>
      <trkpt lat="43.99174" lon="7.68264">
        <ele>1575</ele>
        <time>2021-11-14T23:46:11.268Z</time>
      </trkpt>
      <trkpt lat="43.99157" lon="7.683">
        <ele>1572</ele>
        <time>2021-11-14T23:46:19.395Z</time>
      </trkpt>
      <trkpt lat="43.99156" lon="7.68329">
        <ele>1570</ele>
        <time>2021-11-14T23:46:27.525Z</time>
      </trkpt>
      <trkpt lat="43.99165" lon="7.68346">
        <ele>1568</ele>
        <time>2021-11-14T23:46:35.657Z</time>
      </trkpt>
      <trkpt lat="43.99168" lon="7.68367">
        <ele>1565</ele>
        <time>2021-11-14T23:46:43.792Z</time>
      </trkpt>
      <trkpt lat="43.99133" lon="7.68417">
        <ele>1563</ele>
        <time>2021-11-14T23:46:51.935Z</time>
      </trkpt>
      <trkpt lat="43.99124" lon="7.68423">
        <ele>1560</ele>
        <time>2021-11-14T23:47:00.079Z</time>
      </trkpt>
      <trkpt lat="43.99047" lon="7.68403">
        <ele>1558</ele>
        <time>2021-11-14T23:47:08.236Z</time>
      </trkpt>
      <trkpt lat="43.99008" lon="7.68401">
        <ele>1555</ele>
        <time>2021-11-14T23:47:16.399Z</time>
      </trkpt>
      <trkpt lat="43.9892" lon="7.68386">
        <ele>1553</ele>
        <time>2021-11-14T23:47:24.576Z</time>
      </trkpt>
      <trkpt lat="43.9891" lon="7.68388">
        <ele>1550</ele>
        <time>2021-11-14T23:47:32.755Z</time>
      </trkpt>
      <trkpt lat="43.98906" lon="7.68395">
        <ele>1548</ele>
        <time>2021-11-14T23:47:40.935Z</time>
      </trkpt>
      <trkpt lat="43.98906" lon="7.68404">
        <ele>1545</ele>
        <time>2021-11-14T23:47:49.116Z</time>
      </trkpt>
      <trkpt lat="43.98947" lon="7.68434">
        <ele>1543</ele>
        <time>2021-11-14T23:47:57.305Z</time>
      </trkpt>
      <trkpt lat="43.98965" lon="7.68464">
        <ele>1540</ele>
        <time>2021-11-14T23:48:05.498Z</time>
      </trkpt>
      <trkpt lat="43.98928" lon="7.68439">
        <ele>1538</ele>
        <time>2021-11-14T23:48:13.698Z</time>
      </trkpt>
      <trkpt lat="43.98859" lon="7.68445">
        <ele>1535</ele>
        <time>2021-11-14T23:48:21.909Z</time>
      </trkpt>
      <trkpt lat="43.98838" lon="7.68468">
        <ele>1532</ele>
        <time>2021-11-14T23:48:30.124Z</time>
      </trkpt>
      <trkpt lat="43.98824" lon="7.68492">
        <ele>1530</ele>
        <time>2021-11-14T23:48:38.343Z</time>
      </trkpt>
      <trkpt lat="43.98804" lon="7.68506">
        <ele>1527</ele>
        <time>2021-11-14T23:48:46.565Z</time>
      </trkpt>
      <trkpt lat="43.98779" lon="7.68538">
        <ele>1524</ele>
        <time>2021-11-14T23:48:54.793Z</time>
      </trkpt>
      <trkpt lat="43.98725" lon="7.68657">
        <ele>1521</ele>
        <time>2021-11-14T23:49:03.037Z</time>
      </trkpt>
      <trkpt lat="43.98669" lon="7.6877">
        <ele>1517</ele>
        <time>2021-11-14T23:49:11.297Z</time>
      </trkpt>
      <trkpt lat="43.98626" lon="7.68839">
        <ele>1514</ele>
        <time>2021-11-14T23:49:19.567Z</time>
      </trkpt>
      <trkpt lat="43.98608" lon="7.68851">
        <ele>1511</ele>
        <time>2021-11-14T23:49:27.840Z</time>
      </trkpt>
      <trkpt lat="43.98595" lon="7.68851">
        <ele>1508</ele>
        <time>2021-11-14T23:49:36.115Z</time>
      </trkpt>
      <trkpt lat="43.98579" lon="7.68837">
        <ele>1504</ele>
        <time>2021-11-14T23:49:44.393Z</time>
      </trkpt>
      <trkpt lat="43.98574" lon="7.68824">
        <ele>1501</ele>
        <time>2021-11-14T23:49:52.673Z</time>
      </trkpt>
      <trkpt lat="43.98568" lon="7.68823">
        <ele>1498</ele>
        <time>2021-11-14T23:50:00.954Z</time>
      </trkpt>
      <trkpt lat="43.98566" lon="7.68835">
        <ele>1495</ele>
        <time>2021-11-14T23:50:09.237Z</time>
      </trkpt>
      <trkpt lat="43.98583" lon="7.68878">
        <ele>1491</ele>
        <time>2021-11-14T23:50:17.525Z</time>
      </trkpt>
      <trkpt lat="43.98594" lon="7.6889">
        <ele>1488</ele>
        <time>2021-11-14T23:50:25.815Z</time>
      </trkpt>
      <trkpt lat="43.98608" lon="7.68891">
        <ele>1484</ele>
        <time>2021-11-14T23:50:34.108Z</time>
      </trkpt>
      <trkpt lat="43.98633" lon="7.68886">
        <ele>1481</ele>
        <time>2021-11-14T23:50:42.405Z</time>
      </trkpt>
      <trkpt lat="43.98636" lon="7.68891">
        <ele>1477</ele>
        <time>2021-11-14T23:50:50.702Z</time>
      </trkpt>
      <trkpt lat="43.98622" lon="7.6892">
        <ele>1473</ele>
        <time>2021-11-14T23:50:59.004Z</time>
      </trkpt>
      <trkpt lat="43.9862" lon="7.68936">
        <ele>1470</ele>
        <time>2021-11-14T23:51:07.307Z</time>
      </trkpt>
      <trkpt lat="43.98635" lon="7.6894">
        <ele>1466</ele>
        <time>2021-11-14T23:51:15.613Z</time>
      </trkpt>
      <trkpt lat="43.98656" lon="7.68918">
        <ele>1462</ele>
        <time>2021-11-14T23:51:23.923Z</time>
      </trkpt>
      <trkpt lat="43.98713" lon="7.68879">
        <ele>1457</ele>
        <time>2021-11-14T23:51:32.243Z</time>
      </trkpt>
      <trkpt lat="43.98724" lon="7.68856">
        <ele>1454</ele>
        <time>2021-11-14T23:51:40.566Z</time>
      </trkpt>
      <trkpt lat="43.98737" lon="7.68844">
        <ele>1449</ele>
        <time>2021-11-14T23:51:48.892Z</time>
      </trkpt>
      <trkpt lat="43.98793" lon="7.68806">
        <ele>1445</ele>
        <time>2021-11-14T23:51:57.228Z</time>
      </trkpt>
      <trkpt lat="43.98852" lon="7.6875">
        <ele>1440</ele>
        <time>2021-11-14T23:52:05.575Z</time>
      </trkpt>
      <trkpt lat="43.98857" lon="7.68749">
        <ele>1436</ele>
        <time>2021-11-14T23:52:13.923Z</time>
      </trkpt>
      <trkpt lat="43.98797" lon="7.68881">
        <ele>1431</ele>
        <time>2021-11-14T23:52:22.289Z</time>
      </trkpt>
      <trkpt lat="43.98772" lon="7.6891">
        <ele>1427</ele>
        <time>2021-11-14T23:52:30.660Z</time>
      </trkpt>
      <trkpt lat="43.98768" lon="7.68939">
        <ele>1422</ele>
        <time>2021-11-14T23:52:39.035Z</time>
      </trkpt>
      <trkpt lat="43.98758" lon="7.68961">
        <ele>1418</ele>
        <time>2021-11-14T23:52:47.413Z</time>
      </trkpt>
      <trkpt lat="43.98728" lon="7.68981">
        <ele>1414</ele>
        <time>2021-11-14T23:52:55.796Z</time>
      </trkpt>
      <trkpt lat="43.98719" lon="7.68994">
        <ele>1409</ele>
        <time>2021-11-14T23:53:04.181Z</time>
      </trkpt>
      <trkpt lat="43.98715" lon="7.69021">
        <ele>1404</ele>
        <time>2021-11-14T23:53:12.569Z</time>
      </trkpt>
      <trkpt lat="43.98706" lon="7.69052">
        <ele>1399</ele>
        <time>2021-11-14T23:53:20.961Z</time>
      </trkpt>
      <trkpt lat="43.98692" lon="7.6908">
        <ele>1395</ele>
        <time>2021-11-14T23:53:29.357Z</time>
      </trkpt>
      <trkpt lat="43.98656" lon="7.69132">
        <ele>1390</ele>
        <time>2021-11-14T23:53:37.762Z</time>
      </trkpt>
      <trkpt lat="43.98628" lon="7.69153">
        <ele>1386</ele>
        <time>2021-11-14T23:53:46.172Z</time>
      </trkpt>
      <trkpt lat="43.9862" lon="7.69168">
        <ele>1381</ele>
        <time>2021-11-14T23:53:54.584Z</time>
      </trkpt>
      <trkpt lat="43.98611" lon="7.69196">
        <ele>1377</ele>
        <time>2021-11-14T23:54:02.999Z</time>
      </trkpt>
      <trkpt lat="43.98594" lon="7.69229">
        <ele>1372</ele>
        <time>2021-11-14T23:54:11.419Z</time>
      </trkpt>
      <trkpt lat="43.98586" lon="7.69255">
        <ele>1368</ele>
        <time>2021-11-14T23:54:19.842Z</time>
      </trkpt>
      <trkpt lat="43.98581" lon="7.69293">
        <ele>1363</ele>
        <time>2021-11-14T23:54:28.270Z</time>
      </trkpt>
      <trkpt lat="43.98573" lon="7.69321">
        <ele>1359</ele>
        <time>2021-11-14T23:54:36.701Z</time>
      </trkpt>
      <trkpt lat="43.98536" lon="7.69427">
        <ele>1354</ele>
        <time>2021-11-14T23:54:45.146Z</time>
      </trkpt>
      <trkpt lat="43.98478" lon="7.69548">
        <ele>1349</ele>
        <time>2021-11-14T23:54:53.608Z</time>
      </trkpt>
      <trkpt lat="43.9843" lon="7.69624">
        <ele>1345</ele>
        <time>2021-11-14T23:55:02.081Z</time>
      </trkpt>
      <trkpt lat="43.98359" lon="7.69681">
        <ele>1341</ele>
        <time>2021-11-14T23:55:10.567Z</time>
      </trkpt>
      <trkpt lat="43.98325" lon="7.69696">
        <ele>1337</ele>
        <time>2021-11-14T23:55:19.059Z</time>
      </trkpt>
      <trkpt lat="43.98271" lon="7.69701">
        <ele>1333</ele>
        <time>2021-11-14T23:55:27.560Z</time>
      </trkpt>
      <trkpt lat="43.9825" lon="7.69686">
        <ele>1329</ele>
        <time>2021-11-14T23:55:36.065Z</time>
      </trkpt>
      <trkpt lat="43.98237" lon="7.69655">
        <ele>1326</ele>
        <time>2021-11-14T23:55:44.574Z</time>
      </trkpt>
      <trkpt lat="43.98234" lon="7.69605">
        <ele>1323</ele>
        <time>2021-11-14T23:55:53.088Z</time>
      </trkpt>
      <trkpt lat="43.98231" lon="7.69584">
        <ele>1320</ele>
        <time>2021-11-14T23:56:01.605Z</time>
      </trkpt>
      <trkpt lat="43.98228" lon="7.69585">
        <ele>1317</ele>
        <time>2021-11-14T23:56:10.122Z</time>
      </trkpt>
      <trkpt lat="43.98219" lon="7.69617">
        <ele>1314</ele>
        <time>2021-11-14T23:56:18.643Z</time>
      </trkpt>
      <trkpt lat="43.98201" lon="7.69725">
        <ele>1311</ele>
        <time>2021-11-14T23:56:27.177Z</time>
      </trkpt>
      <trkpt lat="43.98201" lon="7.69743">
        <ele>1309</ele>
        <time>2021-11-14T23:56:35.713Z</time>
      </trkpt>
      <trkpt lat="43.98208" lon="7.69769">
        <ele>1307</ele>
        <time>2021-11-14T23:56:44.252Z</time>
      </trkpt>
      <trkpt lat="43.98207" lon="7.69777">
        <ele>1305</ele>
        <time>2021-11-14T23:56:52.792Z</time>
      </trkpt>
      <trkpt lat="43.98202" lon="7.69783">
        <ele>1304</ele>
        <time>2021-11-14T23:57:01.333Z</time>
      </trkpt>
      <trkpt lat="43.98195" lon="7.69782">
        <ele>1302</ele>
        <time>2021-11-14T23:57:09.876Z</time>
      </trkpt>
      <trkpt lat="43.98181" lon="7.69768">
        <ele>1301</ele>
        <time>2021-11-14T23:57:18.421Z</time>
      </trkpt>
      <trkpt lat="43.98156" lon="7.69757">
        <ele>1300</ele>
        <time>2021-11-14T23:57:26.971Z</time>
      </trkpt>
      <trkpt lat="43.98138" lon="7.69743">
        <ele>1299</ele>
        <time>2021-11-14T23:57:35.524Z</time>
      </trkpt>
      <trkpt lat="43.98102" lon="7.69726">
        <ele>1299</ele>
        <time>2021-11-14T23:57:44.083Z</time>
      </trkpt>
      <trkpt lat="43.98053" lon="7.69641">
        <ele>1297</ele>
        <time>2021-11-14T23:57:52.655Z</time>
      </trkpt>
      <trkpt lat="43.98041" lon="7.69648">
        <ele>1297</ele>
        <time>2021-11-14T23:58:01.229Z</time>
      </trkpt>
      <trkpt lat="43.98041" lon="7.69658">
        <ele>1296</ele>
        <time>2021-11-14T23:58:09.804Z</time>
      </trkpt>
      <trkpt lat="43.98065" lon="7.69705">
        <ele>1297</ele>
        <time>2021-11-14T23:58:18.385Z</time>
      </trkpt>
      <trkpt lat="43.98077" lon="7.69736">
        <ele>1297</ele>
        <time>2021-11-14T23:58:26.970Z</time>
      </trkpt>
      <trkpt lat="43.9808" lon="7.69754">
        <ele>1296</ele>
        <time>2021-11-14T23:58:35.558Z</time>
      </trkpt>
      <trkpt lat="43.98048" lon="7.6972">
        <ele>1296</ele>
        <time>2021-11-14T23:58:44.152Z</time>
      </trkpt>
      <trkpt lat="43.98032" lon="7.69717">
        <ele>1296</ele>
        <time>2021-11-14T23:58:52.749Z</time>
      </trkpt>
      <trkpt lat="43.98017" lon="7.69724">
        <ele>1295</ele>
        <time>2021-11-14T23:59:01.348Z</time>
      </trkpt>
      <trkpt lat="43.98012" lon="7.69732">
        <ele>1295</ele>
        <time>2021-11-14T23:59:09.948Z</time>
      </trkpt>
      <trkpt lat="43.98011" lon="7.69756">
        <ele>1295</ele>
        <time>2021-11-14T23:59:18.551Z</time>
      </trkpt>
      <trkpt lat="43.98032" lon="7.69832">
        <ele>1295</ele>
        <time>2021-11-14T23:59:27.164Z</time>
      </trkpt>
      <trkpt lat="43.98051" lon="7.69923">
        <ele>1294</ele>
        <time>2021-11-14T23:59:35.788Z</time>
      </trkpt>
      <trkpt lat="43.98064" lon="7.69965">
        <ele>1294</ele>
        <time>2021-11-14T23:59:44.417Z</time>
      </trkpt>
      <trkpt lat="43.98091" lon="7.70029">
        <ele>1293</ele>
        <time>2021-11-14T23:59:53.054Z</time>
      </trkpt>
      <trkpt lat="43.98095" lon="7.70052">
        <ele>1293</ele>
        <time>2021-11-15T00:00:01.694Z</time>
      </trkpt>
      <trkpt lat="43.98084" lon="7.70069">
        <ele>1293</ele>
        <time>2021-11-15T00:00:10.337Z</time>
      </trkpt>
      <trkpt lat="43.98061" lon="7.70094">
        <ele>1292</ele>
        <time>2021-11-15T00:00:18.984Z</time>
      </trkpt>
      <trkpt lat="43.9805" lon="7.70123">
        <ele>1292</ele>
        <time>2021-11-15T00:00:27.635Z</time>
      </trkpt>
      <trkpt lat="43.98046" lon="7.70156">
        <ele>1291</ele>
        <time>2021-11-15T00:00:36.290Z</time>
      </trkpt>
      <trkpt lat="43.98047" lon="7.70187">
        <ele>1291</ele>
        <time>2021-11-15T00:00:44.949Z</time>
      </trkpt>
      <trkpt lat="43.98066" lon="7.70229">
        <ele>1291</ele>
        <time>2021-11-15T00:00:53.613Z</time>
      </trkpt>
      <trkpt lat="43.98064" lon="7.70252">
        <ele>1290</ele>
        <time>2021-11-15T00:01:02.280Z</time>
      </trkpt>
      <trkpt lat="43.98058" lon="7.70264">
        <ele>1290</ele>
        <time>2021-11-15T00:01:10.949Z</time>
      </trkpt>
      <trkpt lat="43.97992" lon="7.70292">
        <ele>1289</ele>
        <time>2021-11-15T00:01:19.629Z</time>
      </trkpt>
      <trkpt lat="43.97977" lon="7.70301">
        <ele>1288</ele>
        <time>2021-11-15T00:01:28.311Z</time>
      </trkpt>
      <trkpt lat="43.97957" lon="7.70324">
        <ele>1288</ele>
        <time>2021-11-15T00:01:36.998Z</time>
      </trkpt>
      <trkpt lat="43.97956" lon="7.7035">
        <ele>1287</ele>
        <time>2021-11-15T00:01:45.688Z</time>
      </trkpt>
      <trkpt lat="43.97983" lon="7.70404">
        <ele>1287</ele>
        <time>2021-11-15T00:01:54.385Z</time>
      </trkpt>
      <trkpt lat="43.97996" lon="7.70442">
        <ele>1287</ele>
        <time>2021-11-15T00:02:03.087Z</time>
      </trkpt>
      <trkpt lat="43.97996" lon="7.70488">
        <ele>1286</ele>
        <time>2021-11-15T00:02:11.794Z</time>
      </trkpt>
      <trkpt lat="43.97999" lon="7.70506">
        <ele>1286</ele>
        <time>2021-11-15T00:02:20.503Z</time>
      </trkpt>
      <trkpt lat="43.97998" lon="7.70516">
        <ele>1285</ele>
        <time>2021-11-15T00:02:29.214Z</time>
      </trkpt>
      <trkpt lat="43.97966" lon="7.70582">
        <ele>1285</ele>
        <time>2021-11-15T00:02:37.934Z</time>
      </trkpt>
      <trkpt lat="43.97959" lon="7.7062">
        <ele>1284</ele>
        <time>2021-11-15T00:02:46.658Z</time>
      </trkpt>
      <trkpt lat="43.9793" lon="7.70658">
        <ele>1284</ele>
        <time>2021-11-15T00:02:55.389Z</time>
      </trkpt>
      <trkpt lat="43.97896" lon="7.70694">
        <ele>1284</ele>
        <time>2021-11-15T00:03:04.127Z</time>
      </trkpt>
      <trkpt lat="43.97876" lon="7.70702">
        <ele>1283</ele>
        <time>2021-11-15T00:03:12.868Z</time>
      </trkpt>
      <trkpt lat="43.97851" lon="7.70702">
        <ele>1283</ele>
        <time>2021-11-15T00:03:21.613Z</time>
      </trkpt>
      <trkpt lat="43.97829" lon="7.70709">
        <ele>1282</ele>
        <time>2021-11-15T00:03:30.362Z</time>
      </trkpt>
      <trkpt lat="43.97812" lon="7.7072">
        <ele>1282</ele>
        <time>2021-11-15T00:03:39.114Z</time>
      </trkpt>
      <trkpt lat="43.97797" lon="7.70745">
        <ele>1281</ele>
        <time>2021-11-15T00:03:47.869Z</time>
      </trkpt>
      <trkpt lat="43.97768" lon="7.70828">
        <ele>1281</ele>
        <time>2021-11-15T00:03:56.635Z</time>
      </trkpt>
      <trkpt lat="43.9775" lon="7.70867">
        <ele>1281</ele>
        <time>2021-11-15T00:04:05.406Z</time>
      </trkpt>
      <trkpt lat="43.97742" lon="7.70895">
        <ele>1280</ele>
        <time>2021-11-15T00:04:14.181Z</time>
      </trkpt>
      <trkpt lat="43.97743" lon="7.70902">
        <ele>1279</ele>
        <time>2021-11-15T00:04:22.957Z</time>
      </trkpt>
      <trkpt lat="43.97727" lon="7.70941">
        <ele>1279</ele>
        <time>2021-11-15T00:04:31.738Z</time>
      </trkpt>
      <trkpt lat="43.97717" lon="7.70961">
        <ele>1278</ele>
        <time>2021-11-15T00:04:40.522Z</time>
      </trkpt>
      <trkpt lat="43.97675" lon="7.71011">
        <ele>1277</ele>
        <time>2021-11-15T00:04:49.314Z</time>
      </trkpt>
      <trkpt lat="43.9766" lon="7.71023">
        <ele>1276</ele>
        <time>2021-11-15T00:04:58.109Z</time>
      </trkpt>
      <trkpt lat="43.97556" lon="7.71082">
        <ele>1275</ele>
        <time>2021-11-15T00:05:06.922Z</time>
      </trkpt>
      <trkpt lat="43.9749" lon="7.71141">
        <ele>1274</ele>
        <time>2021-11-15T00:05:15.748Z</time>
      </trkpt>
      <trkpt lat="43.97464" lon="7.71147">
        <ele>1273</ele>
        <time>2021-11-15T00:05:24.578Z</time>
      </trkpt>
      <trkpt lat="43.97459" lon="7.71153">
        <ele>1272</ele>
        <time>2021-11-15T00:05:33.409Z</time>
      </trkpt>
      <trkpt lat="43.97446" lon="7.71171">
        <ele>1270</ele>
        <time>2021-11-15T00:05:42.243Z</time>
      </trkpt>
      <trkpt lat="43.97425" lon="7.71226">
        <ele>1269</ele>
        <time>2021-11-15T00:05:51.084Z</time>
      </trkpt>
      <trkpt lat="43.97398" lon="7.71347">
        <ele>1266</ele>
        <time>2021-11-15T00:05:59.940Z</time>
      </trkpt>
      <trkpt lat="43.97381" lon="7.71397">
        <ele>1264</ele>
        <time>2021-11-15T00:06:08.802Z</time>
      </trkpt>
      <trkpt lat="43.97371" lon="7.71417">
        <ele>1262</ele>
        <time>2021-11-15T00:06:17.667Z</time>
      </trkpt>
      <trkpt lat="43.97348" lon="7.71449">
        <ele>1259</ele>
        <time>2021-11-15T00:06:26.537Z</time>
      </trkpt>
      <trkpt lat="43.97336" lon="7.7146">
        <ele>1257</ele>
        <time>2021-11-15T00:06:35.410Z</time>
      </trkpt>
      <trkpt lat="43.97319" lon="7.71466">
        <ele>1254</ele>
        <time>2021-11-15T00:06:44.285Z</time>
      </trkpt>
      <trkpt lat="43.97246" lon="7.71473">
        <ele>1252</ele>
        <time>2021-11-15T00:06:53.172Z</time>
      </trkpt>
      <trkpt lat="43.97232" lon="7.7148">
        <ele>1249</ele>
        <time>2021-11-15T00:07:02.061Z</time>
      </trkpt>
      <trkpt lat="43.97227" lon="7.71492">
        <ele>1246</ele>
        <time>2021-11-15T00:07:10.952Z</time>
      </trkpt>
      <trkpt lat="43.97181" lon="7.71647">
        <ele>1242</ele>
        <time>2021-11-15T00:07:19.862Z</time>
      </trkpt>
      <trkpt lat="43.97177" lon="7.71666">
        <ele>1239</ele>
        <time>2021-11-15T00:07:28.775Z</time>
      </trkpt>
      <trkpt lat="43.97181" lon="7.71696">
        <ele>1236</ele>
        <time>2021-11-15T00:07:37.691Z</time>
      </trkpt>
      <trkpt lat="43.97175" lon="7.71721">
        <ele>1232</ele>
        <time>2021-11-15T00:07:46.610Z</time>
      </trkpt>
      <trkpt lat="43.97135" lon="7.71775">
        <ele>1229</ele>
        <time>2021-11-15T00:07:55.538Z</time>
      </trkpt>
      <trkpt lat="43.97124" lon="7.71795">
        <ele>1225</ele>
        <time>2021-11-15T00:08:04.469Z</time>
      </trkpt>
      <trkpt lat="43.9712" lon="7.71811">
        <ele>1221</ele>
        <time>2021-11-15T00:08:13.402Z</time>
      </trkpt>
      <trkpt lat="43.97128" lon="7.71866">
        <ele>1217</ele>
        <time>2021-11-15T00:08:22.342Z</time>
      </trkpt>
      <trkpt lat="43.97125" lon="7.7188">
        <ele>1214</ele>
        <time>2021-11-15T00:08:31.283Z</time>
      </trkpt>
      <trkpt lat="43.9711" lon="7.71909">
        <ele>1210</ele>
        <time>2021-11-15T00:08:40.228Z</time>
      </trkpt>
      <trkpt lat="43.97105" lon="7.71936">
        <ele>1206</ele>
        <time>2021-11-15T00:08:49.177Z</time>
      </trkpt>
      <trkpt lat="43.97107" lon="7.72109">
        <ele>1202</ele>
        <time>2021-11-15T00:08:58.146Z</time>
      </trkpt>
      <trkpt lat="43.9709" lon="7.72176">
        <ele>1198</ele>
        <time>2021-11-15T00:09:07.123Z</time>
      </trkpt>
      <trkpt lat="43.97089" lon="7.72229">
        <ele>1195</ele>
        <time>2021-11-15T00:09:16.106Z</time>
      </trkpt>
      <trkpt lat="43.97098" lon="7.72266">
        <ele>1191</ele>
        <time>2021-11-15T00:09:25.093Z</time>
      </trkpt>
      <trkpt lat="43.97108" lon="7.72373">
        <ele>1187</ele>
        <time>2021-11-15T00:09:34.093Z</time>
      </trkpt>
      <trkpt lat="43.97117" lon="7.72405">
        <ele>1183</ele>
        <time>2021-11-15T00:09:43.097Z</time>
      </trkpt>
      <trkpt lat="43.97136" lon="7.72452">
        <ele>1179</ele>
        <time>2021-11-15T00:09:52.107Z</time>
      </trkpt>
      <trkpt lat="43.97142" lon="7.7246">
        <ele>1175</ele>
        <time>2021-11-15T00:10:01.118Z</time>
      </trkpt>
      <trkpt lat="43.97144" lon="7.72472">
        <ele>1172</ele>
        <time>2021-11-15T00:10:10.131Z</time>
      </trkpt>
      <trkpt lat="43.97139" lon="7.72481">
        <ele>1168</ele>
        <time>2021-11-15T00:10:19.145Z</time>
      </trkpt>
      <trkpt lat="43.97087" lon="7.72525">
        <ele>1165</ele>
        <time>2021-11-15T00:10:28.169Z</time>
      </trkpt>
      <trkpt lat="43.9708" lon="7.72535">
        <ele>1162</ele>
        <time>2021-11-15T00:10:37.194Z</time>
      </trkpt>
      <trkpt lat="43.97048" lon="7.7262">
        <ele>1158</ele>
        <time>2021-11-15T00:10:46.231Z</time>
      </trkpt>
      <trkpt lat="43.97037" lon="7.72676">
        <ele>1154</ele>
        <time>2021-11-15T00:10:55.274Z</time>
      </trkpt>
      <trkpt lat="43.97038" lon="7.72742">
        <ele>1152</ele>
        <time>2021-11-15T00:11:04.325Z</time>
      </trkpt>
      <trkpt lat="43.97067" lon="7.72818">
        <ele>1149</ele>
        <time>2021-11-15T00:11:13.386Z</time>
      </trkpt>
      <trkpt lat="43.97074" lon="7.72852">
        <ele>1146</ele>
        <time>2021-11-15T00:11:22.451Z</time>
      </trkpt>
      <trkpt lat="43.97071" lon="7.72871">
        <ele>1143</ele>
        <time>2021-11-15T00:11:31.518Z</time>
      </trkpt>
      <trkpt lat="43.97033" lon="7.72924">
        <ele>1141</ele>
        <time>2021-11-15T00:11:40.594Z</time>
      </trkpt>
      <trkpt lat="43.9701" lon="7.72946">
        <ele>1139</ele>
        <time>2021-11-15T00:11:49.674Z</time>
      </trkpt>
      <trkpt lat="43.96985" lon="7.72977">
        <ele>1136</ele>
        <time>2021-11-15T00:11:58.760Z</time>
      </trkpt>
      <trkpt lat="43.96956" lon="7.72989">
        <ele>1134</ele>
        <time>2021-11-15T00:12:07.850Z</time>
      </trkpt>
      <trkpt lat="43.96899" lon="7.73025">
        <ele>1132</ele>
        <time>2021-11-15T00:12:16.950Z</time>
      </trkpt>
      <trkpt lat="43.96882" lon="7.73046">
        <ele>1130</ele>
        <time>2021-11-15T00:12:26.054Z</time>
      </trkpt>
      <trkpt lat="43.96844" lon="7.73074">
        <ele>1127</ele>
        <time>2021-11-15T00:12:35.165Z</time>
      </trkpt>
      <trkpt lat="43.96824" lon="7.73093">
        <ele>1125</ele>
        <time>2021-11-15T00:12:44.280Z</time>
      </trkpt>
      <trkpt lat="43.96792" lon="7.73149">
        <ele>1123</ele>
        <time>2021-11-15T00:12:53.403Z</time>
      </trkpt>
      <trkpt lat="43.96787" lon="7.73162">
        <ele>1121</ele>
        <time>2021-11-15T00:13:02.528Z</time>
      </trkpt>
      <trkpt lat="43.96792" lon="7.7319">
        <ele>1120</ele>
        <time>2021-11-15T00:13:11.656Z</time>
      </trkpt>
      <trkpt lat="43.96792" lon="7.73241">
        <ele>1119</ele>
        <time>2021-11-15T00:13:20.790Z</time>
      </trkpt>
      <trkpt lat="43.96784" lon="7.73289">
        <ele>1117</ele>
        <time>2021-11-15T00:13:29.930Z</time>
      </trkpt>
      <trkpt lat="43.96773" lon="7.73329">
        <ele>1116</ele>
        <time>2021-11-15T00:13:39.075Z</time>
      </trkpt>
      <trkpt lat="43.96776" lon="7.73379">
        <ele>1115</ele>
        <time>2021-11-15T00:13:48.226Z</time>
      </trkpt>
      <trkpt lat="43.96755" lon="7.73466">
        <ele>1114</ele>
        <time>2021-11-15T00:13:57.387Z</time>
      </trkpt>
      <trkpt lat="43.96753" lon="7.73506">
        <ele>1113</ele>
        <time>2021-11-15T00:14:06.553Z</time>
      </trkpt>
      <trkpt lat="43.96769" lon="7.73607">
        <ele>1112</ele>
        <time>2021-11-15T00:14:15.731Z</time>
      </trkpt>
      <trkpt lat="43.96798" lon="7.73616">
        <ele>1110</ele>
        <time>2021-11-15T00:14:24.913Z</time>
      </trkpt>
      <trkpt lat="43.96835" lon="7.73616">
        <ele>1109</ele>
        <time>2021-11-15T00:14:34.101Z</time>
      </trkpt>
      <trkpt lat="43.96856" lon="7.73665">
        <ele>1109</ele>
        <time>2021-11-15T00:14:43.296Z</time>
      </trkpt>
      <trkpt lat="43.96959" lon="7.73743">
        <ele>1107</ele>
        <time>2021-11-15T00:14:52.510Z</time>
      </trkpt>
      <trkpt lat="43.96978" lon="7.73761">
        <ele>1106</ele>
        <time>2021-11-15T00:15:01.727Z</time>
      </trkpt>
      <trkpt lat="43.9699" lon="7.73807">
        <ele>1105</ele>
        <time>2021-11-15T00:15:10.950Z</time>
      </trkpt>
      <trkpt lat="43.97002" lon="7.73833">
        <ele>1105</ele>
        <time>2021-11-15T00:15:20.177Z</time>
      </trkpt>
      <trkpt lat="43.97" lon="7.73848">
        <ele>1104</ele>
        <time>2021-11-15T00:15:29.405Z</time>
      </trkpt>
      <trkpt lat="43.96996" lon="7.73857">
        <ele>1103</ele>
        <time>2021-11-15T00:15:38.635Z</time>
      </trkpt>
      <trkpt lat="43.96977" lon="7.73864">
        <ele>1103</ele>
        <time>2021-11-15T00:15:47.868Z</time>
      </trkpt>
      <trkpt lat="43.96942" lon="7.73853">
        <ele>1102</ele>
        <time>2021-11-15T00:15:57.107Z</time>
      </trkpt>
      <trkpt lat="43.96921" lon="7.73852">
        <ele>1102</ele>
        <time>2021-11-15T00:16:06.349Z</time>
      </trkpt>
      <trkpt lat="43.96897" lon="7.73859">
        <ele>1101</ele>
        <time>2021-11-15T00:16:15.595Z</time>
      </trkpt>
      <trkpt lat="43.96856" lon="7.73858">
        <ele>1101</ele>
        <time>2021-11-15T00:16:24.847Z</time>
      </trkpt>
      <trkpt lat="43.96824" lon="7.73873">
        <ele>1101</ele>
        <time>2021-11-15T00:16:34.105Z</time>
      </trkpt>
      <trkpt lat="43.96805" lon="7.73893">
        <ele>1100</ele>
        <time>2021-11-15T00:16:43.367Z</time>
      </trkpt>
      <trkpt lat="43.96776" lon="7.73933">
        <ele>1099</ele>
        <time>2021-11-15T00:16:52.635Z</time>
      </trkpt>
      <trkpt lat="43.96745" lon="7.73966">
        <ele>1099</ele>
        <time>2021-11-15T00:17:01.909Z</time>
      </trkpt>
      <trkpt lat="43.9673" lon="7.74029">
        <ele>1098</ele>
        <time>2021-11-15T00:17:11.191Z</time>
      </trkpt>
      <trkpt lat="43.96725" lon="7.74038">
        <ele>1097</ele>
        <time>2021-11-15T00:17:20.474Z</time>
      </trkpt>
      <trkpt lat="43.9671" lon="7.74046">
        <ele>1097</ele>
        <time>2021-11-15T00:17:29.760Z</time>
      </trkpt>
      <trkpt lat="43.96691" lon="7.74048">
        <ele>1096</ele>
        <time>2021-11-15T00:17:39.049Z</time>
      </trkpt>
      <trkpt lat="43.9668" lon="7.74059">
        <ele>1095</ele>
        <time>2021-11-15T00:17:48.340Z</time>
      </trkpt>
      <trkpt lat="43.96677" lon="7.74075">
        <ele>1095</ele>
        <time>2021-11-15T00:17:57.633Z</time>
      </trkpt>
      <trkpt lat="43.96682" lon="7.74103">
        <ele>1093</ele>
        <time>2021-11-15T00:18:06.929Z</time>
      </trkpt>
      <trkpt lat="43.96681" lon="7.74113">
        <ele>1093</ele>
        <time>2021-11-15T00:18:16.227Z</time>
      </trkpt>
      <trkpt lat="43.96666" lon="7.74142">
        <ele>1092</ele>
        <time>2021-11-15T00:18:25.529Z</time>
      </trkpt>
      <trkpt lat="43.96675" lon="7.74211">
        <ele>1091</ele>
        <time>2021-11-15T00:18:34.839Z</time>
      </trkpt>
      <trkpt lat="43.96673" lon="7.74245">
        <ele>1090</ele>
        <time>2021-11-15T00:18:44.153Z</time>
      </trkpt>
      <trkpt lat="43.96677" lon="7.74265">
        <ele>1089</ele>
        <time>2021-11-15T00:18:53.469Z</time>
      </trkpt>
      <trkpt lat="43.96683" lon="7.74268">
        <ele>1087</ele>
        <time>2021-11-15T00:19:02.786Z</time>
      </trkpt>
      <trkpt lat="43.96748" lon="7.74241">
        <ele>1085</ele>
        <time>2021-11-15T00:19:12.114Z</time>
      </trkpt>
      <trkpt lat="43.96756" lon="7.74242">
        <ele>1084</ele>
        <time>2021-11-15T00:19:21.443Z</time>
      </trkpt>
      <trkpt lat="43.96762" lon="7.74247">
        <ele>1082</ele>
        <time>2021-11-15T00:19:30.773Z</time>
      </trkpt>
      <trkpt lat="43.96766" lon="7.74256">
        <ele>1081</ele>
        <time>2021-11-15T00:19:40.105Z</time>
      </trkpt>
      <trkpt lat="43.96766" lon="7.74269">
        <ele>1079</ele>
        <time>2021-11-15T00:19:49.438Z</time>
      </trkpt>
      <trkpt lat="43.96751" lon="7.74308">
        <ele>1078</ele>
        <time>2021-11-15T00:19:58.776Z</time>
      </trkpt>
      <trkpt lat="43.96751" lon="7.74325">
        <ele>1077</ele>
        <time>2021-11-15T00:20:08.116Z</time>
      </trkpt>
      <trkpt lat="43.96764" lon="7.74356">
        <ele>1075</ele>
        <time>2021-11-15T00:20:17.460Z</time>
      </trkpt>
      <trkpt lat="43.96769" lon="7.74403">
        <ele>1073</ele>
        <time>2021-11-15T00:20:26.810Z</time>
      </trkpt>
      <trkpt lat="43.96774" lon="7.74415">
        <ele>1071</ele>
        <time>2021-11-15T00:20:36.161Z</time>
      </trkpt>
      <trkpt lat="43.96784" lon="7.74421">
        <ele>1069</ele>
        <time>2021-11-15T00:20:45.514Z</time>
      </trkpt>
      <trkpt lat="43.96809" lon="7.74425">
        <ele>1066</ele>
        <time>2021-11-15T00:20:54.871Z</time>
      </trkpt>
      <trkpt lat="43.96835" lon="7.74403">
        <ele>1064</ele>
        <time>2021-11-15T00:21:04.233Z</time>
      </trkpt>
      <trkpt lat="43.96843" lon="7.74401">
        <ele>1061</ele>
        <time>2021-11-15T00:21:13.596Z</time>
      </trkpt>
      <trkpt lat="43.9685" lon="7.74404">
        <ele>1059</ele>
        <time>2021-11-15T00:21:22.961Z</time>
      </trkpt>
      <trkpt lat="43.96857" lon="7.7441">
        <ele>1057</ele>
        <time>2021-11-15T00:21:32.327Z</time>
      </trkpt>
      <trkpt lat="43.9687" lon="7.74465">
        <ele>1055</ele>
        <time>2021-11-15T00:21:41.700Z</time>
      </trkpt>
      <trkpt lat="43.96877" lon="7.74481">
        <ele>1053</ele>
        <time>2021-11-15T00:21:51.075Z</time>
      </trkpt>
      <trkpt lat="43.96883" lon="7.74485">
        <ele>1050</ele>
        <time>2021-11-15T00:22:00.451Z</time>
      </trkpt>
      <trkpt lat="43.96938" lon="7.74476">
        <ele>1047</ele>
        <time>2021-11-15T00:22:09.836Z</time>
      </trkpt>
      <trkpt lat="43.96965" lon="7.74459">
        <ele>1044</ele>
        <time>2021-11-15T00:22:19.225Z</time>
      </trkpt>
      <trkpt lat="43.96987" lon="7.74456">
        <ele>1041</ele>
        <time>2021-11-15T00:22:28.618Z</time>
      </trkpt>
      <trkpt lat="43.97029" lon="7.7449">
        <ele>1039</ele>
        <time>2021-11-15T00:22:38.019Z</time>
      </trkpt>
      <trkpt lat="43.97052" lon="7.74495">
        <ele>1036</ele>
        <time>2021-11-15T00:22:47.423Z</time>
      </trkpt>
      <trkpt lat="43.97079" lon="7.74491">
        <ele>1033</ele>
        <time>2021-11-15T00:22:56.832Z</time>
      </trkpt>
      <trkpt lat="43.97094" lon="7.74472">
        <ele>1030</ele>
        <time>2021-11-15T00:23:06.244Z</time>
      </trkpt>
      <trkpt lat="43.97121" lon="7.74415">
        <ele>1027</ele>
        <time>2021-11-15T00:23:15.664Z</time>
      </trkpt>
      <trkpt lat="43.97136" lon="7.74406">
        <ele>1024</ele>
        <time>2021-11-15T00:23:25.087Z</time>
      </trkpt>
      <trkpt lat="43.97149" lon="7.74404">
        <ele>1022</ele>
        <time>2021-11-15T00:23:34.512Z</time>
      </trkpt>
      <trkpt lat="43.97169" lon="7.74406">
        <ele>1020</ele>
        <time>2021-11-15T00:23:43.940Z</time>
      </trkpt>
      <trkpt lat="43.97196" lon="7.74429">
        <ele>1017</ele>
        <time>2021-11-15T00:23:53.373Z</time>
      </trkpt>
      <trkpt lat="43.97219" lon="7.7444">
        <ele>1015</ele>
        <time>2021-11-15T00:24:02.810Z</time>
      </trkpt>
      <trkpt lat="43.97245" lon="7.74442">
        <ele>1012</ele>
        <time>2021-11-15T00:24:12.251Z</time>
      </trkpt>
      <trkpt lat="43.97253" lon="7.74433">
        <ele>1010</ele>
        <time>2021-11-15T00:24:21.694Z</time>
      </trkpt>
      <trkpt lat="43.97263" lon="7.74407">
        <ele>1007</ele>
        <time>2021-11-15T00:24:31.140Z</time>
      </trkpt>
      <trkpt lat="43.97269" lon="7.74398">
        <ele>1004</ele>
        <time>2021-11-15T00:24:40.587Z</time>
      </trkpt>
      <trkpt lat="43.97273" lon="7.74397">
        <ele>1002</ele>
        <time>2021-11-15T00:24:50.035Z</time>
      </trkpt>
      <trkpt lat="43.97279" lon="7.74399">
        <ele>1000</ele>
        <time>2021-11-15T00:24:59.484Z</time>
      </trkpt>
      <trkpt lat="43.97329" lon="7.74452">
        <ele>998</ele>
        <time>2021-11-15T00:25:08.943Z</time>
      </trkpt>
      <trkpt lat="43.97345" lon="7.74458">
        <ele>995</ele>
        <time>2021-11-15T00:25:18.405Z</time>
      </trkpt>
      <trkpt lat="43.97353" lon="7.74451">
        <ele>993</ele>
        <time>2021-11-15T00:25:27.868Z</time>
      </trkpt>
      <trkpt lat="43.97384" lon="7.7444">
        <ele>990</ele>
        <time>2021-11-15T00:25:37.336Z</time>
      </trkpt>
      <trkpt lat="43.974" lon="7.74419">
        <ele>988</ele>
        <time>2021-11-15T00:25:46.808Z</time>
      </trkpt>
      <trkpt lat="43.97423" lon="7.74342">
        <ele>985</ele>
        <time>2021-11-15T00:25:56.290Z</time>
      </trkpt>
      <trkpt lat="43.97462" lon="7.74281">
        <ele>983</ele>
        <time>2021-11-15T00:26:05.781Z</time>
      </trkpt>
      <trkpt lat="43.97471" lon="7.74277">
        <ele>980</ele>
        <time>2021-11-15T00:26:15.274Z</time>
      </trkpt>
      <trkpt lat="43.97549" lon="7.74289">
        <ele>978</ele>
        <time>2021-11-15T00:26:24.779Z</time>
      </trkpt>
      <trkpt lat="43.97554" lon="7.74295">
        <ele>976</ele>
        <time>2021-11-15T00:26:34.285Z</time>
      </trkpt>
      <trkpt lat="43.97556" lon="7.74304">
        <ele>974</ele>
        <time>2021-11-15T00:26:43.792Z</time>
      </trkpt>
      <trkpt lat="43.97537" lon="7.74369">
        <ele>973</ele>
        <time>2021-11-15T00:26:53.307Z</time>
      </trkpt>
      <trkpt lat="43.97536" lon="7.74381">
        <ele>971</ele>
        <time>2021-11-15T00:27:02.824Z</time>
      </trkpt>
      <trkpt lat="43.9755" lon="7.74442">
        <ele>968</ele>
        <time>2021-11-15T00:27:12.348Z</time>
      </trkpt>
      <trkpt lat="43.97546" lon="7.74471">
        <ele>966</ele>
        <time>2021-11-15T00:27:21.876Z</time>
      </trkpt>
      <trkpt lat="43.97532" lon="7.74499">
        <ele>964</ele>
        <time>2021-11-15T00:27:31.407Z</time>
      </trkpt>
      <trkpt lat="43.97531" lon="7.74518">
        <ele>962</ele>
        <time>2021-11-15T00:27:40.941Z</time>
      </trkpt>
      <trkpt lat="43.97534" lon="7.74526">
        <ele>960</ele>
        <time>2021-11-15T00:27:50.476Z</time>
      </trkpt>
      <trkpt lat="43.97552" lon="7.74532">
        <ele>958</ele>
        <time>2021-11-15T00:28:00.014Z</time>
      </trkpt>
      <trkpt lat="43.97571" lon="7.74543">
        <ele>956</ele>
        <time>2021-11-15T00:28:09.555Z</time>
      </trkpt>
      <trkpt lat="43.97615" lon="7.74577">
        <ele>953</ele>
        <time>2021-11-15T00:28:19.104Z</time>
      </trkpt>
      <trkpt lat="43.97641" lon="7.74589">
        <ele>951</ele>
        <time>2021-11-15T00:28:28.657Z</time>
      </trkpt>
      <trkpt lat="43.97654" lon="7.74601">
        <ele>949</ele>
        <time>2021-11-15T00:28:38.213Z</time>
      </trkpt>
      <trkpt lat="43.97683" lon="7.74645">
        <ele>947</ele>
        <time>2021-11-15T00:28:47.776Z</time>
      </trkpt>
      <trkpt lat="43.97724" lon="7.74654">
        <ele>944</ele>
        <time>2021-11-15T00:28:57.345Z</time>
      </trkpt>
      <trkpt lat="43.9775" lon="7.74647">
        <ele>942</ele>
        <time>2021-11-15T00:29:06.919Z</time>
      </trkpt>
      <trkpt lat="43.97768" lon="7.74649">
        <ele>940</ele>
        <time>2021-11-15T00:29:16.496Z</time>
      </trkpt>
      <trkpt lat="43.9779" lon="7.74659">
        <ele>937</ele>
        <time>2021-11-15T00:29:26.076Z</time>
      </trkpt>
      <trkpt lat="43.97807" lon="7.74663">
        <ele>935</ele>
        <time>2021-11-15T00:29:35.659Z</time>
      </trkpt>
      <trkpt lat="43.97818" lon="7.74662">
        <ele>933</ele>
        <time>2021-11-15T00:29:45.244Z</time>
      </trkpt>
      <trkpt lat="43.97829" lon="7.74657">
        <ele>931</ele>
        <time>2021-11-15T00:29:54.831Z</time>
      </trkpt>
      <trkpt lat="43.97849" lon="7.74625">
        <ele>928</ele>
        <time>2021-11-15T00:30:04.423Z</time>
      </trkpt>
      <trkpt lat="43.97857" lon="7.74624">
        <ele>926</ele>
        <time>2021-11-15T00:30:14.016Z</time>
      </trkpt>
      <trkpt lat="43.97927" lon="7.74645">
        <ele>924</ele>
        <time>2021-11-15T00:30:23.620Z</time>
      </trkpt>
      <trkpt lat="43.97943" lon="7.74643">
        <ele>922</ele>
        <time>2021-11-15T00:30:33.227Z</time>
      </trkpt>
      <trkpt lat="43.97958" lon="7.74629">
        <ele>920</ele>
        <time>2021-11-15T00:30:42.837Z</time>
      </trkpt>
      <trkpt lat="43.97983" lon="7.74585">
        <ele>917</ele>
        <time>2021-11-15T00:30:52.453Z</time>
      </trkpt>
      <trkpt lat="43.98006" lon="7.74557">
        <ele>914</ele>
        <time>2021-11-15T00:31:02.074Z</time>
      </trkpt>
      <trkpt lat="43.98017" lon="7.74551">
        <ele>912</ele>
        <time>2021-11-15T00:31:11.697Z</time>
      </trkpt>
      <trkpt lat="43.98021" lon="7.74553">
        <ele>910</ele>
        <time>2021-11-15T00:31:21.321Z</time>
      </trkpt>
      <trkpt lat="43.98025" lon="7.74564">
        <ele>909</ele>
        <time>2021-11-15T00:31:30.946Z</time>
      </trkpt>
      <trkpt lat="43.98019" lon="7.74613">
        <ele>907</ele>
        <time>2021-11-15T00:31:40.577Z</time>
      </trkpt>
      <trkpt lat="43.98019" lon="7.7464">
        <ele>905</ele>
        <time>2021-11-15T00:31:50.211Z</time>
      </trkpt>
      <trkpt lat="43.98022" lon="7.74652">
        <ele>903</ele>
        <time>2021-11-15T00:31:59.846Z</time>
      </trkpt>
      <trkpt lat="43.98032" lon="7.74675">
        <ele>901</ele>
        <time>2021-11-15T00:32:09.485Z</time>
      </trkpt>
      <trkpt lat="43.98055" lon="7.74701">
        <ele>899</ele>
        <time>2021-11-15T00:32:19.128Z</time>
      </trkpt>
      <trkpt lat="43.98071" lon="7.74735">
        <ele>897</ele>
        <time>2021-11-15T00:32:28.776Z</time>
      </trkpt>
      <trkpt lat="43.98098" lon="7.74773">
        <ele>895</ele>
        <time>2021-11-15T00:32:38.430Z</time>
      </trkpt>
      <trkpt lat="43.98112" lon="7.74791">
        <ele>892</ele>
        <time>2021-11-15T00:32:48.087Z</time>
      </trkpt>
      <trkpt lat="43.98151" lon="7.74823">
        <ele>890</ele>
        <time>2021-11-15T00:32:57.751Z</time>
      </trkpt>
      <trkpt lat="43.98173" lon="7.7482">
        <ele>887</ele>
        <time>2021-11-15T00:33:07.419Z</time>
      </trkpt>
      <trkpt lat="43.98195" lon="7.74808">
        <ele>885</ele>
        <time>2021-11-15T00:33:17.091Z</time>
      </trkpt>
      <trkpt lat="43.98214" lon="7.74814">
        <ele>882</ele>
        <time>2021-11-15T00:33:26.766Z</time>
      </trkpt>
      <trkpt lat="43.98221" lon="7.74821">
        <ele>880</ele>
        <time>2021-11-15T00:33:36.442Z</time>
      </trkpt>
      <trkpt lat="43.98233" lon="7.74845">
        <ele>878</ele>
        <time>2021-11-15T00:33:46.122Z</time>
      </trkpt>
      <trkpt lat="43.98228" lon="7.74958">
        <ele>876</ele>
        <time>2021-11-15T00:33:55.815Z</time>
      </trkpt>
      <trkpt lat="43.98219" lon="7.75">
        <ele>873</ele>
        <time>2021-11-15T00:34:05.513Z</time>
      </trkpt>
      <trkpt lat="43.98181" lon="7.75073">
        <ele>871</ele>
        <time>2021-11-15T00:34:15.221Z</time>
      </trkpt>
      <trkpt lat="43.98174" lon="7.75099">
        <ele>869</ele>
        <time>2021-11-15T00:34:24.932Z</time>
      </trkpt>
      <trkpt lat="43.98162" lon="7.75116">
        <ele>866</ele>
        <time>2021-11-15T00:34:34.646Z</time>
      </trkpt>
      <trkpt lat="43.98121" lon="7.75271">
        <ele>863</ele>
        <time>2021-11-15T00:34:44.379Z</time>
      </trkpt>
      <trkpt lat="43.98082" lon="7.75361">
        <ele>860</ele>
        <time>2021-11-15T00:34:54.124Z</time>
      </trkpt>
      <trkpt lat="43.9806" lon="7.75389">
        <ele>857</ele>
        <time>2021-11-15T00:35:03.874Z</time>
      </trkpt>
      <trkpt lat="43.98055" lon="7.754">
        <ele>855</ele>
        <time>2021-11-15T00:35:13.626Z</time>
      </trkpt>
      <trkpt lat="43.98055" lon="7.7541">
        <ele>852</ele>
        <time>2021-11-15T00:35:23.379Z</time>
      </trkpt>
      <trkpt lat="43.98062" lon="7.75415">
        <ele>850</ele>
        <time>2021-11-15T00:35:33.133Z</time>
      </trkpt>
      <trkpt lat="43.98072" lon="7.75408">
        <ele>847</ele>
        <time>2021-11-15T00:35:42.889Z</time>
      </trkpt>
      <trkpt lat="43.98082" lon="7.75379">
        <ele>845</ele>
        <time>2021-11-15T00:35:52.649Z</time>
      </trkpt>
      <trkpt lat="43.98092" lon="7.75366">
        <ele>843</ele>
        <time>2021-11-15T00:36:02.411Z</time>
      </trkpt>
      <trkpt lat="43.98105" lon="7.75355">
        <ele>840</ele>
        <time>2021-11-15T00:36:12.175Z</time>
      </trkpt>
      <trkpt lat="43.98139" lon="7.75336">
        <ele>837</ele>
        <time>2021-11-15T00:36:21.945Z</time>
      </trkpt>
      <trkpt lat="43.9817" lon="7.75308">
        <ele>834</ele>
        <time>2021-11-15T00:36:31.721Z</time>
      </trkpt>
      <trkpt lat="43.98199" lon="7.75213">
        <ele>832</ele>
        <time>2021-11-15T00:36:41.509Z</time>
      </trkpt>
      <trkpt lat="43.98206" lon="7.75204">
        <ele>829</ele>
        <time>2021-11-15T00:36:51.298Z</time>
      </trkpt>
      <trkpt lat="43.98254" lon="7.7519">
        <ele>826</ele>
        <time>2021-11-15T00:37:01.095Z</time>
      </trkpt>
      <trkpt lat="43.98291" lon="7.75159">
        <ele>823</ele>
        <time>2021-11-15T00:37:10.899Z</time>
      </trkpt>
      <trkpt lat="43.9831" lon="7.75114">
        <ele>820</ele>
        <time>2021-11-15T00:37:20.709Z</time>
      </trkpt>
      <trkpt lat="43.98315" lon="7.75073">
        <ele>817</ele>
        <time>2021-11-15T00:37:30.524Z</time>
      </trkpt>
      <trkpt lat="43.9832" lon="7.7506">
        <ele>815</ele>
        <time>2021-11-15T00:37:40.341Z</time>
      </trkpt>
      <trkpt lat="43.98346" lon="7.75028">
        <ele>812</ele>
        <time>2021-11-15T00:37:50.163Z</time>
      </trkpt>
      <trkpt lat="43.98391" lon="7.74985">
        <ele>809</ele>
        <time>2021-11-15T00:37:59.994Z</time>
      </trkpt>
      <trkpt lat="43.98399" lon="7.74981">
        <ele>806</ele>
        <time>2021-11-15T00:38:09.826Z</time>
      </trkpt>
      <trkpt lat="43.98409" lon="7.74979">
        <ele>803</ele>
        <time>2021-11-15T00:38:19.660Z</time>
      </trkpt>
      <trkpt lat="43.98425" lon="7.74983">
        <ele>800</ele>
        <time>2021-11-15T00:38:29.497Z</time>
      </trkpt>
      <trkpt lat="43.98441" lon="7.75004">
        <ele>797</ele>
        <time>2021-11-15T00:38:39.337Z</time>
      </trkpt>
      <trkpt lat="43.98449" lon="7.75031">
        <ele>794</ele>
        <time>2021-11-15T00:38:49.180Z</time>
      </trkpt>
      <trkpt lat="43.98446" lon="7.75062">
        <ele>791</ele>
        <time>2021-11-15T00:38:59.027Z</time>
      </trkpt>
      <trkpt lat="43.98394" lon="7.75171">
        <ele>789</ele>
        <time>2021-11-15T00:39:08.889Z</time>
      </trkpt>
      <trkpt lat="43.98385" lon="7.75198">
        <ele>786</ele>
        <time>2021-11-15T00:39:18.755Z</time>
      </trkpt>
      <trkpt lat="43.98379" lon="7.75261">
        <ele>783</ele>
        <time>2021-11-15T00:39:28.628Z</time>
      </trkpt>
      <trkpt lat="43.98371" lon="7.75284">
        <ele>780</ele>
        <time>2021-11-15T00:39:38.504Z</time>
      </trkpt>
      <trkpt lat="43.98342" lon="7.75331">
        <ele>777</ele>
        <time>2021-11-15T00:39:48.387Z</time>
      </trkpt>
      <trkpt lat="43.98339" lon="7.75342">
        <ele>775</ele>
        <time>2021-11-15T00:39:58.271Z</time>
      </trkpt>
      <trkpt lat="43.98339" lon="7.75429">
        <ele>772</ele>
        <time>2021-11-15T00:40:08.165Z</time>
      </trkpt>
      <trkpt lat="43.98336" lon="7.75457">
        <ele>769</ele>
        <time>2021-11-15T00:40:18.063Z</time>
      </trkpt>
      <trkpt lat="43.98304" lon="7.75613">
        <ele>766</ele>
        <time>2021-11-15T00:40:27.979Z</time>
      </trkpt>
      <trkpt lat="43.98304" lon="7.75649">
        <ele>763</ele>
        <time>2021-11-15T00:40:37.900Z</time>
      </trkpt>
      <trkpt lat="43.98312" lon="7.75695">
        <ele>760</ele>
        <time>2021-11-15T00:40:47.826Z</time>
      </trkpt>
      <trkpt lat="43.98314" lon="7.75735">
        <ele>758</ele>
        <time>2021-11-15T00:40:57.757Z</time>
      </trkpt>
      <trkpt lat="43.98304" lon="7.75781">
        <ele>755</ele>
        <time>2021-11-15T00:41:07.693Z</time>
      </trkpt>
      <trkpt lat="43.98306" lon="7.75794">
        <ele>753</ele>
        <time>2021-11-15T00:41:17.631Z</time>
      </trkpt>
      <trkpt lat="43.98311" lon="7.75799">
        <ele>750</ele>
        <time>2021-11-15T00:41:27.570Z</time>
      </trkpt>
      <trkpt lat="43.98325" lon="7.75803">
        <ele>748</ele>
        <time>2021-11-15T00:41:37.511Z</time>
      </trkpt>
      <trkpt lat="43.98334" lon="7.75799">
        <ele>745</ele>
        <time>2021-11-15T00:41:47.454Z</time>
      </trkpt>
      <trkpt lat="43.98355" lon="7.75744">
        <ele>743</ele>
        <time>2021-11-15T00:41:57.404Z</time>
      </trkpt>
      <trkpt lat="43.98361" lon="7.75719">
        <ele>741</ele>
        <time>2021-11-15T00:42:07.357Z</time>
      </trkpt>
      <trkpt lat="43.98365" lon="7.75675">
        <ele>739</ele>
        <time>2021-11-15T00:42:17.315Z</time>
      </trkpt>
      <trkpt lat="43.98371" lon="7.75657">
        <ele>737</ele>
        <time>2021-11-15T00:42:27.275Z</time>
      </trkpt>
      <trkpt lat="43.98378" lon="7.75659">
        <ele>735</ele>
        <time>2021-11-15T00:42:37.236Z</time>
      </trkpt>
      <trkpt lat="43.98383" lon="7.75668">
        <ele>732</ele>
        <time>2021-11-15T00:42:47.199Z</time>
      </trkpt>
      <trkpt lat="43.98384" lon="7.75694">
        <ele>730</ele>
        <time>2021-11-15T00:42:57.165Z</time>
      </trkpt>
      <trkpt lat="43.9837" lon="7.75743">
        <ele>728</ele>
        <time>2021-11-15T00:43:07.137Z</time>
      </trkpt>
      <trkpt lat="43.98366" lon="7.75771">
        <ele>726</ele>
        <time>2021-11-15T00:43:17.112Z</time>
      </trkpt>
      <trkpt lat="43.98346" lon="7.75853">
        <ele>724</ele>
        <time>2021-11-15T00:43:27.097Z</time>
      </trkpt>
      <trkpt lat="43.9834" lon="7.75862">
        <ele>722</ele>
        <time>2021-11-15T00:43:37.084Z</time>
      </trkpt>
      <trkpt lat="43.98323" lon="7.75876">
        <ele>720</ele>
        <time>2021-11-15T00:43:47.074Z</time>
      </trkpt>
      <trkpt lat="43.98272" lon="7.759">
        <ele>718</ele>
        <time>2021-11-15T00:43:57.072Z</time>
      </trkpt>
      <trkpt lat="43.98254" lon="7.75913">
        <ele>716</ele>
        <time>2021-11-15T00:44:07.074Z</time>
      </trkpt>
      <trkpt lat="43.98228" lon="7.75957">
        <ele>714</ele>
        <time>2021-11-15T00:44:17.082Z</time>
      </trkpt>
      <trkpt lat="43.98213" lon="7.75973">
        <ele>711</ele>
        <time>2021-11-15T00:44:27.093Z</time>
      </trkpt>
      <trkpt lat="43.98194" lon="7.7598">
        <ele>709</ele>
        <time>2021-11-15T00:44:37.107Z</time>
      </trkpt>
      <trkpt lat="43.98187" lon="7.75986">
        <ele>707</ele>
        <time>2021-11-15T00:44:47.123Z</time>
      </trkpt>
      <trkpt lat="43.98182" lon="7.75993">
        <ele>705</ele>
        <time>2021-11-15T00:44:57.140Z</time>
      </trkpt>
      <trkpt lat="43.98181" lon="7.76001">
        <ele>704</ele>
        <time>2021-11-15T00:45:07.158Z</time>
      </trkpt>
      <trkpt lat="43.98193" lon="7.76008">
        <ele>702</ele>
        <time>2021-11-15T00:45:17.178Z</time>
      </trkpt>
      <trkpt lat="43.98231" lon="7.7599">
        <ele>700</ele>
        <time>2021-11-15T00:45:27.204Z</time>
      </trkpt>
      <trkpt lat="43.98246" lon="7.75986">
        <ele>698</ele>
        <time>2021-11-15T00:45:37.233Z</time>
      </trkpt>
      <trkpt lat="43.98258" lon="7.75987">
        <ele>696</ele>
        <time>2021-11-15T00:45:47.264Z</time>
      </trkpt>
      <trkpt lat="43.98281" lon="7.75998">
        <ele>694</ele>
        <time>2021-11-15T00:45:57.298Z</time>
      </trkpt>
      <trkpt lat="43.98319" lon="7.76029">
        <ele>692</ele>
        <time>2021-11-15T00:46:07.339Z</time>
      </trkpt>
      <trkpt lat="43.9834" lon="7.76042">
        <ele>690</ele>
        <time>2021-11-15T00:46:17.384Z</time>
      </trkpt>
      <trkpt lat="43.98349" lon="7.76035">
        <ele>688</ele>
        <time>2021-11-15T00:46:27.431Z</time>
      </trkpt>
      <trkpt lat="43.98417" lon="7.75922">
        <ele>686</ele>
        <time>2021-11-15T00:46:37.495Z</time>
      </trkpt>
      <trkpt lat="43.98445" lon="7.75838">
        <ele>684</ele>
        <time>2021-11-15T00:46:47.570Z</time>
      </trkpt>
      <trkpt lat="43.98453" lon="7.75775">
        <ele>682</ele>
        <time>2021-11-15T00:46:57.652Z</time>
      </trkpt>
      <trkpt lat="43.9849" lon="7.75685">
        <ele>680</ele>
        <time>2021-11-15T00:47:07.746Z</time>
      </trkpt>
      <trkpt lat="43.98502" lon="7.75665">
        <ele>678</ele>
        <time>2021-11-15T00:47:17.843Z</time>
      </trkpt>
      <trkpt lat="43.98525" lon="7.7565">
        <ele>675</ele>
        <time>2021-11-15T00:47:27.944Z</time>
      </trkpt>
      <trkpt lat="43.98529" lon="7.75635">
        <ele>673</ele>
        <time>2021-11-15T00:47:38.047Z</time>
      </trkpt>
      <trkpt lat="43.98527" lon="7.75614">
        <ele>671</ele>
        <time>2021-11-15T00:47:48.152Z</time>
      </trkpt>
      <trkpt lat="43.9853" lon="7.75581">
        <ele>670</ele>
        <time>2021-11-15T00:47:58.261Z</time>
      </trkpt>
      <trkpt lat="43.9854" lon="7.75526">
        <ele>667</ele>
        <time>2021-11-15T00:48:08.377Z</time>
      </trkpt>
      <trkpt lat="43.98545" lon="7.75513">
        <ele>665</ele>
        <time>2021-11-15T00:48:18.494Z</time>
      </trkpt>
      <trkpt lat="43.98552" lon="7.75512">
        <ele>663</ele>
        <time>2021-11-15T00:48:28.612Z</time>
      </trkpt>
      <trkpt lat="43.98558" lon="7.7552">
        <ele>661</ele>
        <time>2021-11-15T00:48:38.732Z</time>
      </trkpt>
      <trkpt lat="43.98558" lon="7.75527">
        <ele>658</ele>
        <time>2021-11-15T00:48:48.853Z</time>
      </trkpt>
      <trkpt lat="43.98543" lon="7.75585">
        <ele>657</ele>
        <time>2021-11-15T00:48:58.981Z</time>
      </trkpt>
      <trkpt lat="43.98545" lon="7.75623">
        <ele>654</ele>
        <time>2021-11-15T00:49:09.113Z</time>
      </trkpt>
      <trkpt lat="43.98554" lon="7.75655">
        <ele>651</ele>
        <time>2021-11-15T00:49:19.249Z</time>
      </trkpt>
      <trkpt lat="43.98533" lon="7.75697">
        <ele>649</ele>
        <time>2021-11-15T00:49:29.391Z</time>
      </trkpt>
      <trkpt lat="43.98526" lon="7.75742">
        <ele>647</ele>
        <time>2021-11-15T00:49:39.538Z</time>
      </trkpt>
      <trkpt lat="43.98517" lon="7.75769">
        <ele>644</ele>
        <time>2021-11-15T00:49:49.689Z</time>
      </trkpt>
      <trkpt lat="43.98504" lon="7.7579">
        <ele>642</ele>
        <time>2021-11-15T00:49:59.843Z</time>
      </trkpt>
      <trkpt lat="43.985" lon="7.75804">
        <ele>640</ele>
        <time>2021-11-15T00:50:09.999Z</time>
      </trkpt>
      <trkpt lat="43.98499" lon="7.75818">
        <ele>637</ele>
        <time>2021-11-15T00:50:20.156Z</time>
      </trkpt>
      <trkpt lat="43.98509" lon="7.7587">
        <ele>634</ele>
        <time>2021-11-15T00:50:30.320Z</time>
      </trkpt>
      <trkpt lat="43.98503" lon="7.75907">
        <ele>631</ele>
        <time>2021-11-15T00:50:40.488Z</time>
      </trkpt>
      <trkpt lat="43.98495" lon="7.76019">
        <ele>627</ele>
        <time>2021-11-15T00:50:50.669Z</time>
      </trkpt>
      <trkpt lat="43.98467" lon="7.76071">
        <ele>625</ele>
        <time>2021-11-15T00:51:00.857Z</time>
      </trkpt>
      <trkpt lat="43.98443" lon="7.76135">
        <ele>622</ele>
        <time>2021-11-15T00:51:11.054Z</time>
      </trkpt>
      <trkpt lat="43.98428" lon="7.76212">
        <ele>618</ele>
        <time>2021-11-15T00:51:21.260Z</time>
      </trkpt>
      <trkpt lat="43.98401" lon="7.76257">
        <ele>615</ele>
        <time>2021-11-15T00:51:31.473Z</time>
      </trkpt>
      <trkpt lat="43.98402" lon="7.76268">
        <ele>612</ele>
        <time>2021-11-15T00:51:41.687Z</time>
      </trkpt>
      <trkpt lat="43.98406" lon="7.76271">
        <ele>608</ele>
        <time>2021-11-15T00:51:51.902Z</time>
      </trkpt>
      <trkpt lat="43.98411" lon="7.76269">
        <ele>605</ele>
        <time>2021-11-15T00:52:02.118Z</time>
      </trkpt>
      <trkpt lat="43.98457" lon="7.7621">
        <ele>602</ele>
        <time>2021-11-15T00:52:12.344Z</time>
      </trkpt>
      <trkpt lat="43.98477" lon="7.76168">
        <ele>598</ele>
        <time>2021-11-15T00:52:22.575Z</time>
      </trkpt>
      <trkpt lat="43.98499" lon="7.76153">
        <ele>594</ele>
        <time>2021-11-15T00:52:32.810Z</time>
      </trkpt>
      <trkpt lat="43.98523" lon="7.76094">
        <ele>591</ele>
        <time>2021-11-15T00:52:43.053Z</time>
      </trkpt>
      <trkpt lat="43.98574" lon="7.76005">
        <ele>587</ele>
        <time>2021-11-15T00:52:53.309Z</time>
      </trkpt>
      <trkpt lat="43.9858" lon="7.75989">
        <ele>583</ele>
        <time>2021-11-15T00:53:03.567Z</time>
      </trkpt>
      <trkpt lat="43.98584" lon="7.75965">
        <ele>580</ele>
        <time>2021-11-15T00:53:13.828Z</time>
      </trkpt>
      <trkpt lat="43.98579" lon="7.75933">
        <ele>576</ele>
        <time>2021-11-15T00:53:24.093Z</time>
      </trkpt>
      <trkpt lat="43.9859" lon="7.75904">
        <ele>572</ele>
        <time>2021-11-15T00:53:34.362Z</time>
      </trkpt>
      <trkpt lat="43.98596" lon="7.75844">
        <ele>568</ele>
        <time>2021-11-15T00:53:44.638Z</time>
      </trkpt>
      <trkpt lat="43.98605" lon="7.75823">
        <ele>564</ele>
        <time>2021-11-15T00:53:54.917Z</time>
      </trkpt>
      <trkpt lat="43.98636" lon="7.75783">
        <ele>560</ele>
        <time>2021-11-15T00:54:05.202Z</time>
      </trkpt>
      <trkpt lat="43.98665" lon="7.75732">
        <ele>556</ele>
        <time>2021-11-15T00:54:15.495Z</time>
      </trkpt>
      <trkpt lat="43.98669" lon="7.75732">
        <ele>552</ele>
        <time>2021-11-15T00:54:25.788Z</time>
      </trkpt>
      <trkpt lat="43.98676" lon="7.75742">
        <ele>547</ele>
        <time>2021-11-15T00:54:36.083Z</time>
      </trkpt>
      <trkpt lat="43.98676" lon="7.7575">
        <ele>543</ele>
        <time>2021-11-15T00:54:46.379Z</time>
      </trkpt>
      <trkpt lat="43.98634" lon="7.75817">
        <ele>539</ele>
        <time>2021-11-15T00:54:56.685Z</time>
      </trkpt>
      <trkpt lat="43.98622" lon="7.75851">
        <ele>535</ele>
        <time>2021-11-15T00:55:06.996Z</time>
      </trkpt>
      <trkpt lat="43.98621" lon="7.75866">
        <ele>531</ele>
        <time>2021-11-15T00:55:17.308Z</time>
      </trkpt>
      <trkpt lat="43.98628" lon="7.75942">
        <ele>526</ele>
        <time>2021-11-15T00:55:27.629Z</time>
      </trkpt>
      <trkpt lat="43.98636" lon="7.75966">
        <ele>522</ele>
        <time>2021-11-15T00:55:37.953Z</time>
      </trkpt>
      <trkpt lat="43.98648" lon="7.75986">
        <ele>517</ele>
        <time>2021-11-15T00:55:48.280Z</time>
      </trkpt>
      <trkpt lat="43.9865" lon="7.76002">
        <ele>513</ele>
        <time>2021-11-15T00:55:58.609Z</time>
      </trkpt>
      <trkpt lat="43.98644" lon="7.76093">
        <ele>509</ele>
        <time>2021-11-15T00:56:08.949Z</time>
      </trkpt>
      <trkpt lat="43.98658" lon="7.76185">
        <ele>504</ele>
        <time>2021-11-15T00:56:19.300Z</time>
      </trkpt>
      <trkpt lat="43.98666" lon="7.76274">
        <ele>500</ele>
        <time>2021-11-15T00:56:29.661Z</time>
      </trkpt>
      <trkpt lat="43.98636" lon="7.7638">
        <ele>495</ele>
        <time>2021-11-15T00:56:40.035Z</time>
      </trkpt>
      <trkpt lat="43.9863" lon="7.76392">
        <ele>491</ele>
        <time>2021-11-15T00:56:50.411Z</time>
      </trkpt>
      <trkpt lat="43.98597" lon="7.76428">
        <ele>487</ele>
        <time>2021-11-15T00:57:00.794Z</time>
      </trkpt>
      <trkpt lat="43.98548" lon="7.76534">
        <ele>483</ele>
        <time>2021-11-15T00:57:11.191Z</time>
      </trkpt>
      <trkpt lat="43.98515" lon="7.76571">
        <ele>479</ele>
        <time>2021-11-15T00:57:21.595Z</time>
      </trkpt>
      <trkpt lat="43.98477" lon="7.76627">
        <ele>475</ele>
        <time>2021-11-15T00:57:32.008Z</time>
      </trkpt>
      <trkpt lat="43.98458" lon="7.7667">
        <ele>471</ele>
        <time>2021-11-15T00:57:42.427Z</time>
      </trkpt>
      <trkpt lat="43.98455" lon="7.76693">
        <ele>468</ele>
        <time>2021-11-15T00:57:52.848Z</time>
      </trkpt>
      <trkpt lat="43.98471" lon="7.76869">
        <ele>464</ele>
        <time>2021-11-15T00:58:03.290Z</time>
      </trkpt>
      <trkpt lat="43.98477" lon="7.769">
        <ele>461</ele>
        <time>2021-11-15T00:58:13.735Z</time>
      </trkpt>
      <trkpt lat="43.98483" lon="7.76914">
        <ele>458</ele>
        <time>2021-11-15T00:58:24.182Z</time>
      </trkpt>
      <trkpt lat="43.9854" lon="7.77001">
        <ele>455</ele>
        <time>2021-11-15T00:58:34.643Z</time>
      </trkpt>
      <trkpt lat="43.98581" lon="7.77092">
        <ele>453</ele>
        <time>2021-11-15T00:58:45.116Z</time>
      </trkpt>
      <trkpt lat="43.98655" lon="7.77292">
        <ele>450</ele>
        <time>2021-11-15T00:58:55.615Z</time>
      </trkpt>
      <trkpt lat="43.98668" lon="7.77352">
        <ele>448</ele>
        <time>2021-11-15T00:59:06.121Z</time>
      </trkpt>
      <trkpt lat="43.98672" lon="7.77417">
        <ele>446</ele>
        <time>2021-11-15T00:59:16.635Z</time>
      </trkpt>
      <trkpt lat="43.98638" lon="7.77557">
        <ele>444</ele>
        <time>2021-11-15T00:59:27.166Z</time>
      </trkpt>
      <trkpt lat="43.9863" lon="7.77581">
        <ele>443</ele>
        <time>2021-11-15T00:59:37.700Z</time>
      </trkpt>
      <trkpt lat="43.98606" lon="7.77628">
        <ele>441</ele>
        <time>2021-11-15T00:59:48.241Z</time>
      </trkpt>
      <trkpt lat="43.98608" lon="7.77647">
        <ele>440</ele>
        <time>2021-11-15T00:59:58.784Z</time>
      </trkpt>
      <trkpt lat="43.98653" lon="7.77711">
        <ele>438</ele>
        <time>2021-11-15T01:00:09.337Z</time>
      </trkpt>
      <trkpt lat="43.98656" lon="7.77723">
        <ele>437</ele>
        <time>2021-11-15T01:00:19.892Z</time>
      </trkpt>
      <trkpt lat="43.98653" lon="7.77742">
        <ele>437</ele>
        <time>2021-11-15T01:00:30.449Z</time>
      </trkpt>
      <trkpt lat="43.98635" lon="7.77776">
        <ele>436</ele>
        <time>2021-11-15T01:00:41.011Z</time>
      </trkpt>
      <trkpt lat="43.98637" lon="7.77785">
        <ele>436</ele>
        <time>2021-11-15T01:00:51.574Z</time>
      </trkpt>
      <trkpt lat="43.98644" lon="7.77787">
        <ele>436</ele>
        <time>2021-11-15T01:01:02.138Z</time>
      </trkpt>
      <trkpt lat="43.98732" lon="7.77707">
        <ele>437</ele>
        <time>2021-11-15T01:01:12.719Z</time>
      </trkpt>
      <trkpt lat="43.98742" lon="7.77702">
        <ele>437</ele>
        <time>2021-11-15T01:01:23.302Z</time>
      </trkpt>
      <trkpt lat="43.98753" lon="7.77703">
        <ele>438</ele>
        <time>2021-11-15T01:01:33.886Z</time>
      </trkpt>
      <trkpt lat="43.98762" lon="7.77699">
        <ele>440</ele>
        <time>2021-11-15T01:01:44.472Z</time>
      </trkpt>
      <trkpt lat="43.98791" lon="7.77677">
        <ele>441</ele>
        <time>2021-11-15T01:01:55.063Z</time>
      </trkpt>
      <trkpt lat="43.9881" lon="7.77667">
        <ele>442</ele>
        <time>2021-11-15T01:02:05.657Z</time>
      </trkpt>
      <trkpt lat="43.98832" lon="7.77661">
        <ele>444</ele>
        <time>2021-11-15T01:02:16.255Z</time>
      </trkpt>
      <trkpt lat="43.98883" lon="7.77627">
        <ele>445</ele>
        <time>2021-11-15T01:02:26.862Z</time>
      </trkpt>
      <trkpt lat="43.98929" lon="7.77558">
        <ele>447</ele>
        <time>2021-11-15T01:02:37.480Z</time>
      </trkpt>
      <trkpt lat="43.98946" lon="7.77514">
        <ele>449</ele>
        <time>2021-11-15T01:02:48.104Z</time>
      </trkpt>
      <trkpt lat="43.98953" lon="7.77465">
        <ele>451</ele>
        <time>2021-11-15T01:02:58.734Z</time>
      </trkpt>
      <trkpt lat="43.98961" lon="7.77461">
        <ele>454</ele>
        <time>2021-11-15T01:03:09.365Z</time>
      </trkpt>
      <trkpt lat="43.98971" lon="7.77461">
        <ele>456</ele>
        <time>2021-11-15T01:03:19.997Z</time>
      </trkpt>
      <trkpt lat="43.98984" lon="7.77468">
        <ele>458</ele>
        <time>2021-11-15T01:03:30.632Z</time>
      </trkpt>
      <trkpt lat="43.99011" lon="7.7745">
        <ele>461</ele>
        <time>2021-11-15T01:03:41.272Z</time>
      </trkpt>
      <trkpt lat="43.99024" lon="7.77445">
        <ele>463</ele>
        <time>2021-11-15T01:03:51.914Z</time>
      </trkpt>
      <trkpt lat="43.99056" lon="7.77539">
        <ele>466</ele>
        <time>2021-11-15T01:04:02.568Z</time>
      </trkpt>
      <trkpt lat="43.99065" lon="7.77561">
        <ele>469</ele>
        <time>2021-11-15T01:04:13.225Z</time>
      </trkpt>
      <trkpt lat="43.99078" lon="7.77579">
        <ele>472</ele>
        <time>2021-11-15T01:04:23.885Z</time>
      </trkpt>
      <trkpt lat="43.99151" lon="7.77584">
        <ele>475</ele>
        <time>2021-11-15T01:04:34.556Z</time>
      </trkpt>
      <trkpt lat="43.99176" lon="7.77574">
        <ele>477</ele>
        <time>2021-11-15T01:04:45.231Z</time>
      </trkpt>
      <trkpt lat="43.99196" lon="7.77555">
        <ele>480</ele>
        <time>2021-11-15T01:04:55.910Z</time>
      </trkpt>
      <trkpt lat="43.99237" lon="7.77475">
        <ele>484</ele>
        <time>2021-11-15T01:05:06.601Z</time>
      </trkpt>
      <trkpt lat="43.99246" lon="7.77447">
        <ele>488</ele>
        <time>2021-11-15T01:05:17.295Z</time>
      </trkpt>
      <trkpt lat="43.99273" lon="7.77457">
        <ele>490</ele>
        <time>2021-11-15T01:05:27.994Z</time>
      </trkpt>
      <trkpt lat="43.99291" lon="7.77459">
        <ele>492</ele>
        <time>2021-11-15T01:05:38.696Z</time>
      </trkpt>
      <trkpt lat="43.99359" lon="7.77411">
        <ele>496</ele>
        <time>2021-11-15T01:05:49.410Z</time>
      </trkpt>
      <trkpt lat="43.99379" lon="7.77387">
        <ele>498</ele>
        <time>2021-11-15T01:06:00.128Z</time>
      </trkpt>
      <trkpt lat="43.994" lon="7.77334">
        <ele>501</ele>
        <time>2021-11-15T01:06:10.853Z</time>
      </trkpt>
      <trkpt lat="43.99426" lon="7.77293">
        <ele>504</ele>
        <time>2021-11-15T01:06:21.584Z</time>
      </trkpt>
      <trkpt lat="43.99443" lon="7.77272">
        <ele>507</ele>
        <time>2021-11-15T01:06:32.319Z</time>
      </trkpt>
      <trkpt lat="43.99565" lon="7.7723">
        <ele>510</ele>
        <time>2021-11-15T01:06:43.074Z</time>
      </trkpt>
      <trkpt lat="43.99577" lon="7.77217">
        <ele>513</ele>
        <time>2021-11-15T01:06:53.831Z</time>
      </trkpt>
      <trkpt lat="43.99594" lon="7.77189">
        <ele>516</ele>
        <time>2021-11-15T01:07:04.593Z</time>
      </trkpt>
      <trkpt lat="43.99642" lon="7.77141">
        <ele>519</ele>
        <time>2021-11-15T01:07:15.364Z</time>
      </trkpt>
      <trkpt lat="43.99654" lon="7.77115">
        <ele>522</ele>
        <time>2021-11-15T01:07:26.139Z</time>
      </trkpt>
      <trkpt lat="43.99663" lon="7.77103">
        <ele>525</ele>
        <time>2021-11-15T01:07:36.916Z</time>
      </trkpt>
      <trkpt lat="43.99689" lon="7.77088">
        <ele>527</ele>
        <time>2021-11-15T01:07:47.697Z</time>
      </trkpt>
      <trkpt lat="43.99702" lon="7.77066">
        <ele>530</ele>
        <time>2021-11-15T01:07:58.481Z</time>
      </trkpt>
      <trkpt lat="43.99717" lon="7.77057">
        <ele>533</ele>
        <time>2021-11-15T01:08:09.268Z</time>
      </trkpt>
      <trkpt lat="43.99756" lon="7.77047">
        <ele>535</ele>
        <time>2021-11-15T01:08:20.061Z</time>
      </trkpt>
      <trkpt lat="43.99801" lon="7.77016">
        <ele>538</ele>
        <time>2021-11-15T01:08:30.862Z</time>
      </trkpt>
      <trkpt lat="43.99869" lon="7.77005">
        <ele>541</ele>
        <time>2021-11-15T01:08:41.674Z</time>
      </trkpt>
      <trkpt lat="43.99918" lon="7.77011">
        <ele>543</ele>
        <time>2021-11-15T01:08:52.494Z</time>
      </trkpt>
      <trkpt lat="43.99964" lon="7.77011">
        <ele>546</ele>
        <time>2021-11-15T01:09:03.322Z</time>
      </trkpt>
      <trkpt lat="43.99985" lon="7.77014">
        <ele>548</ele>
        <time>2021-11-15T01:09:14.153Z</time>
      </trkpt>
      <trkpt lat="43.99999" lon="7.77021">
        <ele>551</ele>
        <time>2021-11-15T01:09:24.986Z</time>
      </trkpt>
      <trkpt lat="44.00007" lon="7.77018">
        <ele>553</ele>
        <time>2021-11-15T01:09:35.821Z</time>
      </trkpt>
      <trkpt lat="44.0007" lon="7.76973">
        <ele>555</ele>
        <time>2021-11-15T01:09:46.667Z</time>
      </trkpt>
      <trkpt lat="44.00081" lon="7.7697">
        <ele>557</ele>
        <time>2021-11-15T01:09:57.515Z</time>
      </trkpt>
      <trkpt lat="44.00105" lon="7.76972">
        <ele>559</ele>
        <time>2021-11-15T01:10:08.367Z</time>
      </trkpt>
      <trkpt lat="44.00116" lon="7.76966">
        <ele>562</ele>
        <time>2021-11-15T01:10:19.221Z</time>
      </trkpt>
      <trkpt lat="44.00126" lon="7.76949">
        <ele>564</ele>
        <time>2021-11-15T01:10:30.077Z</time>
      </trkpt>
      <trkpt lat="44.00159" lon="7.76871">
        <ele>565</ele>
        <time>2021-11-15T01:10:40.944Z</time>
      </trkpt>
      <trkpt lat="44.00169" lon="7.76862">
        <ele>567</ele>
        <time>2021-11-15T01:10:51.813Z</time>
      </trkpt>
      <trkpt lat="44.00233" lon="7.76842">
        <ele>570</ele>
        <time>2021-11-15T01:11:02.692Z</time>
      </trkpt>
      <trkpt lat="44.00314" lon="7.76811">
        <ele>572</ele>
        <time>2021-11-15T01:11:13.584Z</time>
      </trkpt>
      <trkpt lat="44.00369" lon="7.76772">
        <ele>574</ele>
        <time>2021-11-15T01:11:24.486Z</time>
      </trkpt>
      <trkpt lat="44.00445" lon="7.76735">
        <ele>576</ele>
        <time>2021-11-15T01:11:35.401Z</time>
      </trkpt>
      <trkpt lat="44.00473" lon="7.76718">
        <ele>578</ele>
        <time>2021-11-15T01:11:46.321Z</time>
      </trkpt>
      <trkpt lat="44.00478" lon="7.76708">
        <ele>580</ele>
        <time>2021-11-15T01:11:57.243Z</time>
      </trkpt>
      <trkpt lat="44.0047" lon="7.76655">
        <ele>581</ele>
        <time>2021-11-15T01:12:08.171Z</time>
      </trkpt>
      <trkpt lat="44.00462" lon="7.76641">
        <ele>583</ele>
        <time>2021-11-15T01:12:19.101Z</time>
      </trkpt>
      <trkpt lat="44.0045" lon="7.76636">
        <ele>585</ele>
        <time>2021-11-15T01:12:30.033Z</time>
      </trkpt>
      <trkpt lat="44.00445" lon="7.76637">
        <ele>586</ele>
        <time>2021-11-15T01:12:40.966Z</time>
      </trkpt>
      <trkpt lat="44.00402" lon="7.76671">
        <ele>588</ele>
        <time>2021-11-15T01:12:51.907Z</time>
      </trkpt>
      <trkpt lat="44.00394" lon="7.76673">
        <ele>590</ele>
        <time>2021-11-15T01:13:02.849Z</time>
      </trkpt>
      <trkpt lat="44.00374" lon="7.76671">
        <ele>591</ele>
        <time>2021-11-15T01:13:13.794Z</time>
      </trkpt>
      <trkpt lat="44.00337" lon="7.76645">
        <ele>593</ele>
        <time>2021-11-15T01:13:24.746Z</time>
      </trkpt>
      <trkpt lat="44.00302" lon="7.76639">
        <ele>595</ele>
        <time>2021-11-15T01:13:35.703Z</time>
      </trkpt>
      <trkpt lat="44.00278" lon="7.76639">
        <ele>596</ele>
        <time>2021-11-15T01:13:46.664Z</time>
      </trkpt>
      <trkpt lat="44.00242" lon="7.76661">
        <ele>598</ele>
        <time>2021-11-15T01:13:57.632Z</time>
      </trkpt>
      <trkpt lat="44.00202" lon="7.76673">
        <ele>600</ele>
        <time>2021-11-15T01:14:08.606Z</time>
      </trkpt>
      <trkpt lat="44.00178" lon="7.76693">
        <ele>601</ele>
        <time>2021-11-15T01:14:19.585Z</time>
      </trkpt>
      <trkpt lat="44.00143" lon="7.76711">
        <ele>603</ele>
        <time>2021-11-15T01:14:30.570Z</time>
      </trkpt>
      <trkpt lat="44.00034" lon="7.76738">
        <ele>605</ele>
        <time>2021-11-15T01:14:41.572Z</time>
      </trkpt>
      <trkpt lat="44.00006" lon="7.76755">
        <ele>606</ele>
        <time>2021-11-15T01:14:52.579Z</time>
      </trkpt>
      <trkpt lat="43.99982" lon="7.76762">
        <ele>607</ele>
        <time>2021-11-15T01:15:03.590Z</time>
      </trkpt>
      <trkpt lat="43.99943" lon="7.76767">
        <ele>609</ele>
        <time>2021-11-15T01:15:14.607Z</time>
      </trkpt>
      <trkpt lat="43.99934" lon="7.76764">
        <ele>610</ele>
        <time>2021-11-15T01:15:25.626Z</time>
      </trkpt>
      <trkpt lat="43.99929" lon="7.76758">
        <ele>612</ele>
        <time>2021-11-15T01:15:36.646Z</time>
      </trkpt>
      <trkpt lat="43.99931" lon="7.76742">
        <ele>613</ele>
        <time>2021-11-15T01:15:47.668Z</time>
      </trkpt>
      <trkpt lat="43.99941" lon="7.76743">
        <ele>615</ele>
        <time>2021-11-15T01:15:58.691Z</time>
      </trkpt>
      <trkpt lat="43.99957" lon="7.76755">
        <ele>616</ele>
        <time>2021-11-15T01:16:09.717Z</time>
      </trkpt>
      <trkpt lat="43.99968" lon="7.76756">
        <ele>617</ele>
        <time>2021-11-15T01:16:20.745Z</time>
      </trkpt>
      <trkpt lat="44.00007" lon="7.76728">
        <ele>619</ele>
        <time>2021-11-15T01:16:31.780Z</time>
      </trkpt>
      <trkpt lat="44.00041" lon="7.76695">
        <ele>621</ele>
        <time>2021-11-15T01:16:42.822Z</time>
      </trkpt>
      <trkpt lat="44.00058" lon="7.76686">
        <ele>623</ele>
        <time>2021-11-15T01:16:53.867Z</time>
      </trkpt>
      <trkpt lat="44.00105" lon="7.76685">
        <ele>624</ele>
        <time>2021-11-15T01:17:04.919Z</time>
      </trkpt>
      <trkpt lat="44.00115" lon="7.7668">
        <ele>625</ele>
        <time>2021-11-15T01:17:15.973Z</time>
      </trkpt>
      <trkpt lat="44.00128" lon="7.76668">
        <ele>627</ele>
        <time>2021-11-15T01:17:27.029Z</time>
      </trkpt>
      <trkpt lat="44.00131" lon="7.76662">
        <ele>629</ele>
        <time>2021-11-15T01:17:38.086Z</time>
      </trkpt>
      <trkpt lat="44.00129" lon="7.76653">
        <ele>630</ele>
        <time>2021-11-15T01:17:49.144Z</time>
      </trkpt>
      <trkpt lat="44.00123" lon="7.7665">
        <ele>632</ele>
        <time>2021-11-15T01:18:00.203Z</time>
      </trkpt>
      <trkpt lat="44.00105" lon="7.76671">
        <ele>633</ele>
        <time>2021-11-15T01:18:11.266Z</time>
      </trkpt>
      <trkpt lat="44.00098" lon="7.76675">
        <ele>635</ele>
        <time>2021-11-15T01:18:22.330Z</time>
      </trkpt>
      <trkpt lat="44.00089" lon="7.76677">
        <ele>636</ele>
        <time>2021-11-15T01:18:33.396Z</time>
      </trkpt>
      <trkpt lat="44.00049" lon="7.76671">
        <ele>638</ele>
        <time>2021-11-15T01:18:44.468Z</time>
      </trkpt>
      <trkpt lat="44.00033" lon="7.76677">
        <ele>640</ele>
        <time>2021-11-15T01:18:55.543Z</time>
      </trkpt>
      <trkpt lat="44.00018" lon="7.76688">
        <ele>641</ele>
        <time>2021-11-15T01:19:06.621Z</time>
      </trkpt>
      <trkpt lat="43.99987" lon="7.76703">
        <ele>643</ele>
        <time>2021-11-15T01:19:17.704Z</time>
      </trkpt>
      <trkpt lat="43.99961" lon="7.76693">
        <ele>645</ele>
        <time>2021-11-15T01:19:28.791Z</time>
      </trkpt>
      <trkpt lat="43.99928" lon="7.76689">
        <ele>647</ele>
        <time>2021-11-15T01:19:39.883Z</time>
      </trkpt>
      <trkpt lat="43.99909" lon="7.76682">
        <ele>649</ele>
        <time>2021-11-15T01:19:50.979Z</time>
      </trkpt>
      <trkpt lat="43.99892" lon="7.76668">
        <ele>651</ele>
        <time>2021-11-15T01:20:02.078Z</time>
      </trkpt>
      <trkpt lat="43.99858" lon="7.76629">
        <ele>654</ele>
        <time>2021-11-15T01:20:13.184Z</time>
      </trkpt>
      <trkpt lat="43.99848" lon="7.76626">
        <ele>656</ele>
        <time>2021-11-15T01:20:24.291Z</time>
      </trkpt>
      <trkpt lat="43.99843" lon="7.76629">
        <ele>659</ele>
        <time>2021-11-15T01:20:35.399Z</time>
      </trkpt>
      <trkpt lat="43.99811" lon="7.7668">
        <ele>661</ele>
        <time>2021-11-15T01:20:46.515Z</time>
      </trkpt>
      <trkpt lat="43.99781" lon="7.7671">
        <ele>663</ele>
        <time>2021-11-15T01:20:57.637Z</time>
      </trkpt>
      <trkpt lat="43.99747" lon="7.76738">
        <ele>665</ele>
        <time>2021-11-15T01:21:08.765Z</time>
      </trkpt>
      <trkpt lat="43.99739" lon="7.7674">
        <ele>667</ele>
        <time>2021-11-15T01:21:19.895Z</time>
      </trkpt>
      <trkpt lat="43.99701" lon="7.76735">
        <ele>671</ele>
        <time>2021-11-15T01:21:31.031Z</time>
      </trkpt>
      <trkpt lat="43.99691" lon="7.76738">
        <ele>673</ele>
        <time>2021-11-15T01:21:42.168Z</time>
      </trkpt>
      <trkpt lat="43.99658" lon="7.76761">
        <ele>676</ele>
        <time>2021-11-15T01:21:53.311Z</time>
      </trkpt>
      <trkpt lat="43.99628" lon="7.76775">
        <ele>679</ele>
        <time>2021-11-15T01:22:04.459Z</time>
      </trkpt>
      <trkpt lat="43.99613" lon="7.76786">
        <ele>681</ele>
        <time>2021-11-15T01:22:15.610Z</time>
      </trkpt>
      <trkpt lat="43.99586" lon="7.76816">
        <ele>684</ele>
        <time>2021-11-15T01:22:26.767Z</time>
      </trkpt>
      <trkpt lat="43.99562" lon="7.76828">
        <ele>686</ele>
        <time>2021-11-15T01:22:37.928Z</time>
      </trkpt>
      <trkpt lat="43.99533" lon="7.76836">
        <ele>689</ele>
        <time>2021-11-15T01:22:49.093Z</time>
      </trkpt>
      <trkpt lat="43.9951" lon="7.76832">
        <ele>691</ele>
        <time>2021-11-15T01:23:00.262Z</time>
      </trkpt>
      <trkpt lat="43.99472" lon="7.76805">
        <ele>695</ele>
        <time>2021-11-15T01:23:11.438Z</time>
      </trkpt>
      <trkpt lat="43.9945" lon="7.76801">
        <ele>697</ele>
        <time>2021-11-15T01:23:22.617Z</time>
      </trkpt>
      <trkpt lat="43.99429" lon="7.7679">
        <ele>700</ele>
        <time>2021-11-15T01:23:33.800Z</time>
      </trkpt>
      <trkpt lat="43.994" lon="7.76763">
        <ele>704</ele>
        <time>2021-11-15T01:23:44.989Z</time>
      </trkpt>
      <trkpt lat="43.99334" lon="7.76784">
        <ele>707</ele>
        <time>2021-11-15T01:23:56.189Z</time>
      </trkpt>
      <trkpt lat="43.99277" lon="7.76908">
        <ele>710</ele>
        <time>2021-11-15T01:24:07.405Z</time>
      </trkpt>
      <trkpt lat="43.9926" lon="7.76953">
        <ele>712</ele>
        <time>2021-11-15T01:24:18.627Z</time>
      </trkpt>
      <trkpt lat="43.9924" lon="7.76977">
        <ele>715</ele>
        <time>2021-11-15T01:24:29.854Z</time>
      </trkpt>
      <trkpt lat="43.99232" lon="7.76981">
        <ele>717</ele>
        <time>2021-11-15T01:24:41.082Z</time>
      </trkpt>
      <trkpt lat="43.9922" lon="7.76979">
        <ele>720</ele>
        <time>2021-11-15T01:24:52.312Z</time>
      </trkpt>
      <trkpt lat="43.9918" lon="7.76923">
        <ele>724</ele>
        <time>2021-11-15T01:25:03.551Z</time>
      </trkpt>
      <trkpt lat="43.99143" lon="7.76905">
        <ele>726</ele>
        <time>2021-11-15T01:25:14.796Z</time>
      </trkpt>
      <trkpt lat="43.99124" lon="7.76888">
        <ele>729</ele>
        <time>2021-11-15T01:25:26.045Z</time>
      </trkpt>
      <trkpt lat="43.99113" lon="7.76885">
        <ele>732</ele>
        <time>2021-11-15T01:25:37.296Z</time>
      </trkpt>
      <trkpt lat="43.99038" lon="7.76883">
        <ele>734</ele>
        <time>2021-11-15T01:25:48.559Z</time>
      </trkpt>
      <trkpt lat="43.9903" lon="7.76872">
        <ele>736</ele>
        <time>2021-11-15T01:25:59.823Z</time>
      </trkpt>
      <trkpt lat="43.99032" lon="7.76844">
        <ele>739</ele>
        <time>2021-11-15T01:26:11.091Z</time>
      </trkpt>
      <trkpt lat="43.9906" lon="7.76785">
        <ele>741</ele>
        <time>2021-11-15T01:26:22.367Z</time>
      </trkpt>
      <trkpt lat="43.99109" lon="7.76716">
        <ele>744</ele>
        <time>2021-11-15T01:26:33.654Z</time>
      </trkpt>
      <trkpt lat="43.99163" lon="7.76575">
        <ele>746</ele>
        <time>2021-11-15T01:26:44.960Z</time>
      </trkpt>
      <trkpt lat="43.99183" lon="7.7655">
        <ele>748</ele>
        <time>2021-11-15T01:26:56.270Z</time>
      </trkpt>
      <trkpt lat="43.99218" lon="7.76533">
        <ele>750</ele>
        <time>2021-11-15T01:27:07.586Z</time>
      </trkpt>
      <trkpt lat="43.99236" lon="7.7652">
        <ele>752</ele>
        <time>2021-11-15T01:27:18.905Z</time>
      </trkpt>
      <trkpt lat="43.99278" lon="7.76477">
        <ele>753</ele>
        <time>2021-11-15T01:27:30.232Z</time>
      </trkpt>
      <trkpt lat="43.99309" lon="7.76411">
        <ele>755</ele>
        <time>2021-11-15T01:27:41.568Z</time>
      </trkpt>
      <trkpt lat="43.9932" lon="7.76378">
        <ele>756</ele>
        <time>2021-11-15T01:27:52.909Z</time>
      </trkpt>
      <trkpt lat="43.99326" lon="7.76275">
        <ele>758</ele>
        <time>2021-11-15T01:28:04.262Z</time>
      </trkpt>
      <trkpt lat="43.99317" lon="7.76181">
        <ele>759</ele>
        <time>2021-11-15T01:28:15.626Z</time>
      </trkpt>
      <trkpt lat="43.99332" lon="7.76044">
        <ele>759</ele>
        <time>2021-11-15T01:28:27.006Z</time>
      </trkpt>
      <trkpt lat="43.99339" lon="7.76041">
        <ele>760</ele>
        <time>2021-11-15T01:28:38.387Z</time>
      </trkpt>
      <trkpt lat="43.99336" lon="7.76033">
        <ele>760</ele>
        <time>2021-11-15T01:28:49.769Z</time>
      </trkpt>
      <trkpt lat="43.99339" lon="7.76">
        <ele>760</ele>
        <time>2021-11-15T01:29:01.155Z</time>
      </trkpt>
      <trkpt lat="43.99353" lon="7.75953">
        <ele>760</ele>
        <time>2021-11-15T01:29:12.546Z</time>
      </trkpt>
      <trkpt lat="43.99352" lon="7.75931">
        <ele>759</ele>
        <time>2021-11-15T01:29:23.940Z</time>
      </trkpt>
      <trkpt lat="43.99337" lon="7.75861">
        <ele>758</ele>
        <time>2021-11-15T01:29:35.342Z</time>
      </trkpt>
      <trkpt lat="43.99337" lon="7.7582">
        <ele>758</ele>
        <time>2021-11-15T01:29:46.749Z</time>
      </trkpt>
      <trkpt lat="43.99341" lon="7.75788">
        <ele>757</ele>
        <time>2021-11-15T01:29:58.160Z</time>
      </trkpt>
      <trkpt lat="43.9934" lon="7.75746">
        <ele>755</ele>
        <time>2021-11-15T01:30:09.576Z</time>
      </trkpt>
      <trkpt lat="43.99322" lon="7.75636">
        <ele>753</ele>
        <time>2021-11-15T01:30:21.005Z</time>
      </trkpt>
      <trkpt lat="43.99317" lon="7.75574">
        <ele>752</ele>
        <time>2021-11-15T01:30:32.441Z</time>
      </trkpt>
      <trkpt lat="43.99352" lon="7.75343">
        <ele>749</ele>
        <time>2021-11-15T01:30:43.904Z</time>
      </trkpt>
      <trkpt lat="43.99348" lon="7.75312">
        <ele>748</ele>
        <time>2021-11-15T01:30:55.371Z</time>
      </trkpt>
      <trkpt lat="43.99331" lon="7.75264">
        <ele>745</ele>
        <time>2021-11-15T01:31:06.844Z</time>
      </trkpt>
      <trkpt lat="43.99326" lon="7.75159">
        <ele>743</ele>
        <time>2021-11-15T01:31:18.329Z</time>
      </trkpt>
      <trkpt lat="43.99332" lon="7.75115">
        <ele>740</ele>
        <time>2021-11-15T01:31:29.819Z</time>
      </trkpt>
      <trkpt lat="43.9933" lon="7.75086">
        <ele>737</ele>
        <time>2021-11-15T01:31:41.313Z</time>
      </trkpt>
      <trkpt lat="43.99334" lon="7.75076">
        <ele>735</ele>
        <time>2021-11-15T01:31:52.808Z</time>
      </trkpt>
      <trkpt lat="43.9935" lon="7.75055">
        <ele>733</ele>
        <time>2021-11-15T01:32:04.307Z</time>
      </trkpt>
      <trkpt lat="43.99361" lon="7.75027">
        <ele>730</ele>
        <time>2021-11-15T01:32:15.809Z</time>
      </trkpt>
      <trkpt lat="43.9938" lon="7.75009">
        <ele>728</ele>
        <time>2021-11-15T01:32:27.315Z</time>
      </trkpt>
      <trkpt lat="43.99385" lon="7.74979">
        <ele>725</ele>
        <time>2021-11-15T01:32:38.825Z</time>
      </trkpt>
      <trkpt lat="43.99385" lon="7.74934">
        <ele>722</ele>
        <time>2021-11-15T01:32:50.340Z</time>
      </trkpt>
      <trkpt lat="43.99396" lon="7.74906">
        <ele>719</ele>
        <time>2021-11-15T01:33:01.858Z</time>
      </trkpt>
      <trkpt lat="43.99399" lon="7.74887">
        <ele>716</ele>
        <time>2021-11-15T01:33:13.379Z</time>
      </trkpt>
      <trkpt lat="43.99396" lon="7.74877">
        <ele>713</ele>
        <time>2021-11-15T01:33:24.901Z</time>
      </trkpt>
      <trkpt lat="43.9939" lon="7.7487">
        <ele>710</ele>
        <time>2021-11-15T01:33:36.424Z</time>
      </trkpt>
      <trkpt lat="43.99371" lon="7.74865">
        <ele>706</ele>
        <time>2021-11-15T01:33:47.950Z</time>
      </trkpt>
      <trkpt lat="43.99357" lon="7.74853">
        <ele>703</ele>
        <time>2021-11-15T01:33:59.479Z</time>
      </trkpt>
      <trkpt lat="43.99353" lon="7.74844">
        <ele>700</ele>
        <time>2021-11-15T01:34:11.009Z</time>
      </trkpt>
      <trkpt lat="43.99354" lon="7.74832">
        <ele>696</ele>
        <time>2021-11-15T01:34:22.541Z</time>
      </trkpt>
      <trkpt lat="43.99373" lon="7.74812">
        <ele>693</ele>
        <time>2021-11-15T01:34:34.076Z</time>
      </trkpt>
      <trkpt lat="43.99401" lon="7.74765">
        <ele>689</ele>
        <time>2021-11-15T01:34:45.618Z</time>
      </trkpt>
      <trkpt lat="43.99415" lon="7.74757">
        <ele>686</ele>
        <time>2021-11-15T01:34:57.163Z</time>
      </trkpt>
      <trkpt lat="43.99432" lon="7.74755">
        <ele>684</ele>
        <time>2021-11-15T01:35:08.711Z</time>
      </trkpt>
      <trkpt lat="43.99504" lon="7.74681">
        <ele>680</ele>
        <time>2021-11-15T01:35:20.273Z</time>
      </trkpt>
      <trkpt lat="43.99512" lon="7.74665">
        <ele>677</ele>
        <time>2021-11-15T01:35:31.837Z</time>
      </trkpt>
      <trkpt lat="43.99509" lon="7.7464">
        <ele>674</ele>
        <time>2021-11-15T01:35:43.404Z</time>
      </trkpt>
      <trkpt lat="43.9949" lon="7.74603">
        <ele>670</ele>
        <time>2021-11-15T01:35:54.976Z</time>
      </trkpt>
      <trkpt lat="43.99487" lon="7.74586">
        <ele>667</ele>
        <time>2021-11-15T01:36:06.550Z</time>
      </trkpt>
      <trkpt lat="43.99489" lon="7.74543">
        <ele>664</ele>
        <time>2021-11-15T01:36:18.129Z</time>
      </trkpt>
      <trkpt lat="43.99485" lon="7.74528">
        <ele>661</ele>
        <time>2021-11-15T01:36:29.710Z</time>
      </trkpt>
      <trkpt lat="43.99476" lon="7.74515">
        <ele>658</ele>
        <time>2021-11-15T01:36:41.293Z</time>
      </trkpt>
      <trkpt lat="43.99464" lon="7.74506">
        <ele>655</ele>
        <time>2021-11-15T01:36:52.878Z</time>
      </trkpt>
      <trkpt lat="43.99415" lon="7.74479">
        <ele>651</ele>
        <time>2021-11-15T01:37:04.472Z</time>
      </trkpt>
      <trkpt lat="43.99407" lon="7.74471">
        <ele>648</ele>
        <time>2021-11-15T01:37:16.067Z</time>
      </trkpt>
      <trkpt lat="43.99385" lon="7.74437">
        <ele>645</ele>
        <time>2021-11-15T01:37:27.668Z</time>
      </trkpt>
      <trkpt lat="43.99365" lon="7.74394">
        <ele>642</ele>
        <time>2021-11-15T01:37:39.275Z</time>
      </trkpt>
      <trkpt lat="43.99359" lon="7.74366">
        <ele>639</ele>
        <time>2021-11-15T01:37:50.885Z</time>
      </trkpt>
      <trkpt lat="43.99347" lon="7.74236">
        <ele>636</ele>
        <time>2021-11-15T01:38:02.510Z</time>
      </trkpt>
      <trkpt lat="43.99347" lon="7.74205">
        <ele>634</ele>
        <time>2021-11-15T01:38:14.139Z</time>
      </trkpt>
      <trkpt lat="43.99359" lon="7.74154">
        <ele>631</ele>
        <time>2021-11-15T01:38:25.774Z</time>
      </trkpt>
      <trkpt lat="43.99362" lon="7.74134">
        <ele>629</ele>
        <time>2021-11-15T01:38:37.411Z</time>
      </trkpt>
      <trkpt lat="43.99361" lon="7.74112">
        <ele>627</ele>
        <time>2021-11-15T01:38:49.051Z</time>
      </trkpt>
      <trkpt lat="43.99328" lon="7.74005">
        <ele>625</ele>
        <time>2021-11-15T01:39:00.704Z</time>
      </trkpt>
      <trkpt lat="43.99327" lon="7.73986">
        <ele>623</ele>
        <time>2021-11-15T01:39:12.359Z</time>
      </trkpt>
      <trkpt lat="43.99338" lon="7.73968">
        <ele>622</ele>
        <time>2021-11-15T01:39:24.017Z</time>
      </trkpt>
      <trkpt lat="43.99345" lon="7.73962">
        <ele>621</ele>
        <time>2021-11-15T01:39:35.676Z</time>
      </trkpt>
      <trkpt lat="43.99377" lon="7.73977">
        <ele>620</ele>
        <time>2021-11-15T01:39:47.341Z</time>
      </trkpt>
      <trkpt lat="43.994" lon="7.73982">
        <ele>619</ele>
        <time>2021-11-15T01:39:59.010Z</time>
      </trkpt>
      <trkpt lat="43.99414" lon="7.73977">
        <ele>618</ele>
        <time>2021-11-15T01:40:10.681Z</time>
      </trkpt>
      <trkpt lat="43.99513" lon="7.73922">
        <ele>618</ele>
        <time>2021-11-15T01:40:22.369Z</time>
      </trkpt>
      <trkpt lat="43.99526" lon="7.73911">
        <ele>618</ele>
        <time>2021-11-15T01:40:34.059Z</time>
      </trkpt>
      <trkpt lat="43.99533" lon="7.73893">
        <ele>618</ele>
        <time>2021-11-15T01:40:45.752Z</time>
      </trkpt>
      <trkpt lat="43.9953" lon="7.73842">
        <ele>617</ele>
        <time>2021-11-15T01:40:57.451Z</time>
      </trkpt>
      <trkpt lat="43.99535" lon="7.73802">
        <ele>617</ele>
        <time>2021-11-15T01:41:09.154Z</time>
      </trkpt>
      <trkpt lat="43.99539" lon="7.73792">
        <ele>617</ele>
        <time>2021-11-15T01:41:20.859Z</time>
      </trkpt>
      <trkpt lat="43.99546" lon="7.73776">
        <ele>618</ele>
        <time>2021-11-15T01:41:32.566Z</time>
      </trkpt>
      <trkpt lat="43.99566" lon="7.73746">
        <ele>620</ele>
        <time>2021-11-15T01:41:44.278Z</time>
      </trkpt>
      <trkpt lat="43.99607" lon="7.73702">
        <ele>621</ele>
        <time>2021-11-15T01:41:55.998Z</time>
      </trkpt>
      <trkpt lat="43.99641" lon="7.73645">
        <ele>622</ele>
        <time>2021-11-15T01:42:07.726Z</time>
      </trkpt>
      <trkpt lat="43.99688" lon="7.7348">
        <ele>625</ele>
        <time>2021-11-15T01:42:19.475Z</time>
      </trkpt>
      <trkpt lat="43.99699" lon="7.73462">
        <ele>626</ele>
        <time>2021-11-15T01:42:31.227Z</time>
      </trkpt>
      <trkpt lat="43.99733" lon="7.73421">
        <ele>629</ele>
        <time>2021-11-15T01:42:42.986Z</time>
      </trkpt>
      <trkpt lat="43.99746" lon="7.7339">
        <ele>631</ele>
        <time>2021-11-15T01:42:54.749Z</time>
      </trkpt>
      <trkpt lat="43.99798" lon="7.73316">
        <ele>633</ele>
        <time>2021-11-15T01:43:06.524Z</time>
      </trkpt>
      <trkpt lat="43.99833" lon="7.73281">
        <ele>636</ele>
        <time>2021-11-15T01:43:18.306Z</time>
      </trkpt>
      <trkpt lat="43.99843" lon="7.73263">
        <ele>639</ele>
        <time>2021-11-15T01:43:30.090Z</time>
      </trkpt>
      <trkpt lat="43.99861" lon="7.73248">
        <ele>642</ele>
        <time>2021-11-15T01:43:41.878Z</time>
      </trkpt>
      <trkpt lat="43.99873" lon="7.73231">
        <ele>644</ele>
        <time>2021-11-15T01:43:53.669Z</time>
      </trkpt>
      <trkpt lat="43.9989" lon="7.73215">
        <ele>647</ele>
        <time>2021-11-15T01:44:05.463Z</time>
      </trkpt>
      <trkpt lat="43.99955" lon="7.73203">
        <ele>651</ele>
        <time>2021-11-15T01:44:17.267Z</time>
      </trkpt>
      <trkpt lat="43.99976" lon="7.73181">
        <ele>654</ele>
        <time>2021-11-15T01:44:29.076Z</time>
      </trkpt>
      <trkpt lat="44.00018" lon="7.73161">
        <ele>657</ele>
        <time>2021-11-15T01:44:40.892Z</time>
      </trkpt>
      <trkpt lat="44.00034" lon="7.73163">
        <ele>660</ele>
        <time>2021-11-15T01:44:52.710Z</time>
      </trkpt>
      <trkpt lat="44.00042" lon="7.73171">
        <ele>664</ele>
        <time>2021-11-15T01:45:04.530Z</time>
      </trkpt>
      <trkpt lat="44.00058" lon="7.73197">
        <ele>667</ele>
        <time>2021-11-15T01:45:16.354Z</time>
      </trkpt>
      <trkpt lat="44.00081" lon="7.73245">
        <ele>671</ele>
        <time>2021-11-15T01:45:28.184Z</time>
      </trkpt>
      <trkpt lat="44.00124" lon="7.73313">
        <ele>674</ele>
        <time>2021-11-15T01:45:40.025Z</time>
      </trkpt>
      <trkpt lat="44.00164" lon="7.73394">
        <ele>678</ele>
        <time>2021-11-15T01:45:51.877Z</time>
      </trkpt>
      <trkpt lat="44.00193" lon="7.73481">
        <ele>681</ele>
        <time>2021-11-15T01:46:03.740Z</time>
      </trkpt>
      <trkpt lat="44.00211" lon="7.73518">
        <ele>684</ele>
        <time>2021-11-15T01:46:15.608Z</time>
      </trkpt>
      <trkpt lat="44.00246" lon="7.73573">
        <ele>687</ele>
        <time>2021-11-15T01:46:27.485Z</time>
      </trkpt>
      <trkpt lat="44.00269" lon="7.7359">
        <ele>690</ele>
        <time>2021-11-15T01:46:39.366Z</time>
      </trkpt>
      <trkpt lat="44.00315" lon="7.73606">
        <ele>693</ele>
        <time>2021-11-15T01:46:51.255Z</time>
      </trkpt>
      <trkpt lat="44.00337" lon="7.73608">
        <ele>696</ele>
        <time>2021-11-15T01:47:03.147Z</time>
      </trkpt>
      <trkpt lat="44.00355" lon="7.73576">
        <ele>700</ele>
        <time>2021-11-15T01:47:15.044Z</time>
      </trkpt>
      <trkpt lat="44.00352" lon="7.73554">
        <ele>703</ele>
        <time>2021-11-15T01:47:26.943Z</time>
      </trkpt>
      <trkpt lat="44.00295" lon="7.73493">
        <ele>705</ele>
        <time>2021-11-15T01:47:38.854Z</time>
      </trkpt>
      <trkpt lat="44.00284" lon="7.73471">
        <ele>708</ele>
        <time>2021-11-15T01:47:50.768Z</time>
      </trkpt>
      <trkpt lat="44.00276" lon="7.73436">
        <ele>710</ele>
        <time>2021-11-15T01:48:02.686Z</time>
      </trkpt>
      <trkpt lat="44.00276" lon="7.73402">
        <ele>713</ele>
        <time>2021-11-15T01:48:14.608Z</time>
      </trkpt>
      <trkpt lat="44.0029" lon="7.7338">
        <ele>716</ele>
        <time>2021-11-15T01:48:26.534Z</time>
      </trkpt>
      <trkpt lat="44.00295" lon="7.73365">
        <ele>719</ele>
        <time>2021-11-15T01:48:38.462Z</time>
      </trkpt>
      <trkpt lat="44.00291" lon="7.73345">
        <ele>721</ele>
        <time>2021-11-15T01:48:50.392Z</time>
      </trkpt>
      <trkpt lat="44.00279" lon="7.73321">
        <ele>724</ele>
        <time>2021-11-15T01:49:02.325Z</time>
      </trkpt>
      <trkpt lat="44.00271" lon="7.73275">
        <ele>726</ele>
        <time>2021-11-15T01:49:14.264Z</time>
      </trkpt>
      <trkpt lat="44.00275" lon="7.73239">
        <ele>729</ele>
        <time>2021-11-15T01:49:26.207Z</time>
      </trkpt>
      <trkpt lat="44.0029" lon="7.73192">
        <ele>732</ele>
        <time>2021-11-15T01:49:38.156Z</time>
      </trkpt>
      <trkpt lat="44.00289" lon="7.73181">
        <ele>734</ele>
        <time>2021-11-15T01:49:50.106Z</time>
      </trkpt>
      <trkpt lat="44.00281" lon="7.73169">
        <ele>736</ele>
        <time>2021-11-15T01:50:02.058Z</time>
      </trkpt>
      <trkpt lat="44.00234" lon="7.73138">
        <ele>738</ele>
        <time>2021-11-15T01:50:14.018Z</time>
      </trkpt>
      <trkpt lat="44.00221" lon="7.73116">
        <ele>740</ele>
        <time>2021-11-15T01:50:25.982Z</time>
      </trkpt>
      <trkpt lat="44.00205" lon="7.73075">
        <ele>743</ele>
        <time>2021-11-15T01:50:37.951Z</time>
      </trkpt>
      <trkpt lat="44.00199" lon="7.7305">
        <ele>745</ele>
        <time>2021-11-15T01:50:49.923Z</time>
      </trkpt>
      <trkpt lat="44.002" lon="7.73034">
        <ele>747</ele>
        <time>2021-11-15T01:51:01.897Z</time>
      </trkpt>
      <trkpt lat="44.00205" lon="7.73012">
        <ele>749</ele>
        <time>2021-11-15T01:51:13.874Z</time>
      </trkpt>
      <trkpt lat="44.00237" lon="7.72952">
        <ele>751</ele>
        <time>2021-11-15T01:51:25.859Z</time>
      </trkpt>
      <trkpt lat="44.00265" lon="7.72844">
        <ele>754</ele>
        <time>2021-11-15T01:51:37.857Z</time>
      </trkpt>
      <trkpt lat="44.00274" lon="7.7282">
        <ele>756</ele>
        <time>2021-11-15T01:51:49.859Z</time>
      </trkpt>
      <trkpt lat="44.00301" lon="7.7278">
        <ele>758</ele>
        <time>2021-11-15T01:52:01.867Z</time>
      </trkpt>
      <trkpt lat="44.0033" lon="7.72766">
        <ele>760</ele>
        <time>2021-11-15T01:52:13.880Z</time>
      </trkpt>
      <trkpt lat="44.00338" lon="7.72757">
        <ele>763</ele>
        <time>2021-11-15T01:52:25.895Z</time>
      </trkpt>
      <trkpt lat="44.00338" lon="7.72685">
        <ele>765</ele>
        <time>2021-11-15T01:52:37.918Z</time>
      </trkpt>
      <trkpt lat="44.00347" lon="7.72658">
        <ele>767</ele>
        <time>2021-11-15T01:52:49.944Z</time>
      </trkpt>
      <trkpt lat="44.0035" lon="7.72612">
        <ele>769</ele>
        <time>2021-11-15T01:53:01.976Z</time>
      </trkpt>
      <trkpt lat="44.00366" lon="7.72576">
        <ele>771</ele>
        <time>2021-11-15T01:53:14.012Z</time>
      </trkpt>
      <trkpt lat="44.00368" lon="7.72564">
        <ele>773</ele>
        <time>2021-11-15T01:53:26.050Z</time>
      </trkpt>
      <trkpt lat="44.00353" lon="7.72506">
        <ele>774</ele>
        <time>2021-11-15T01:53:38.095Z</time>
      </trkpt>
      <trkpt lat="44.00356" lon="7.72491">
        <ele>776</ele>
        <time>2021-11-15T01:53:50.142Z</time>
      </trkpt>
      <trkpt lat="44.00377" lon="7.72446">
        <ele>778</ele>
        <time>2021-11-15T01:54:02.195Z</time>
      </trkpt>
      <trkpt lat="44.00378" lon="7.72437">
        <ele>780</ele>
        <time>2021-11-15T01:54:14.249Z</time>
      </trkpt>
      <trkpt lat="44.00378" lon="7.72422">
        <ele>782</ele>
        <time>2021-11-15T01:54:26.305Z</time>
      </trkpt>
      <trkpt lat="44.00366" lon="7.72384">
        <ele>783</ele>
        <time>2021-11-15T01:54:38.366Z</time>
      </trkpt>
      <trkpt lat="44.00361" lon="7.72356">
        <ele>784</ele>
        <time>2021-11-15T01:54:50.430Z</time>
      </trkpt>
      <trkpt lat="44.00378" lon="7.72283">
        <ele>786</ele>
        <time>2021-11-15T01:55:02.503Z</time>
      </trkpt>
      <trkpt lat="44.0038" lon="7.72199">
        <ele>787</ele>
        <time>2021-11-15T01:55:14.585Z</time>
      </trkpt>
      <trkpt lat="44.00387" lon="7.7216">
        <ele>788</ele>
        <time>2021-11-15T01:55:26.672Z</time>
      </trkpt>
      <trkpt lat="44.00412" lon="7.72101">
        <ele>789</ele>
        <time>2021-11-15T01:55:38.767Z</time>
      </trkpt>
      <trkpt lat="44.00468" lon="7.72086">
        <ele>791</ele>
        <time>2021-11-15T01:55:50.871Z</time>
      </trkpt>
      <trkpt lat="44.00493" lon="7.72068">
        <ele>792</ele>
        <time>2021-11-15T01:56:02.980Z</time>
      </trkpt>
      <trkpt lat="44.00507" lon="7.72062">
        <ele>793</ele>
        <time>2021-11-15T01:56:15.091Z</time>
      </trkpt>
      <trkpt lat="44.00535" lon="7.72068">
        <ele>794</ele>
        <time>2021-11-15T01:56:27.207Z</time>
      </trkpt>
      <trkpt lat="44.00543" lon="7.72067">
        <ele>795</ele>
        <time>2021-11-15T01:56:39.324Z</time>
      </trkpt>
      <trkpt lat="44.00551" lon="7.72055">
        <ele>795</ele>
        <time>2021-11-15T01:56:51.443Z</time>
      </trkpt>
      <trkpt lat="44.00552" lon="7.72011">
        <ele>795</ele>
        <time>2021-11-15T01:57:03.567Z</time>
      </trkpt>
      <trkpt lat="44.00555" lon="7.71999">
        <ele>795</ele>
        <time>2021-11-15T01:57:15.692Z</time>
      </trkpt>
      <trkpt lat="44.00585" lon="7.71943">
        <ele>795</ele>
        <time>2021-11-15T01:57:27.825Z</time>
      </trkpt>
      <trkpt lat="44.0059" lon="7.71924">
        <ele>796</ele>
        <time>2021-11-15T01:57:39.961Z</time>
      </trkpt>
      <trkpt lat="44.00629" lon="7.71683">
        <ele>796</ele>
        <time>2021-11-15T01:57:52.125Z</time>
      </trkpt>
      <trkpt lat="44.00644" lon="7.71627">
        <ele>796</ele>
        <time>2021-11-15T01:58:04.296Z</time>
      </trkpt>
      <trkpt lat="44.00651" lon="7.71615">
        <ele>795</ele>
        <time>2021-11-15T01:58:16.469Z</time>
      </trkpt>
      <trkpt lat="44.00658" lon="7.71613">
        <ele>795</ele>
        <time>2021-11-15T01:58:28.643Z</time>
      </trkpt>
      <trkpt lat="44.00672" lon="7.71616">
        <ele>795</ele>
        <time>2021-11-15T01:58:40.819Z</time>
      </trkpt>
      <trkpt lat="44.00685" lon="7.71623">
        <ele>795</ele>
        <time>2021-11-15T01:58:52.997Z</time>
      </trkpt>
      <trkpt lat="44.00702" lon="7.71627">
        <ele>794</ele>
        <time>2021-11-15T01:59:05.178Z</time>
      </trkpt>
      <trkpt lat="44.00716" lon="7.71633">
        <ele>794</ele>
        <time>2021-11-15T01:59:17.362Z</time>
      </trkpt>
      <trkpt lat="44.00724" lon="7.71641">
        <ele>794</ele>
        <time>2021-11-15T01:59:29.547Z</time>
      </trkpt>
      <trkpt lat="44.00762" lon="7.71656">
        <ele>794</ele>
        <time>2021-11-15T01:59:41.738Z</time>
      </trkpt>
      <trkpt lat="44.00771" lon="7.71653">
        <ele>793</ele>
        <time>2021-11-15T01:59:53.931Z</time>
      </trkpt>
      <trkpt lat="44.00778" lon="7.71644">
        <ele>793</ele>
        <time>2021-11-15T02:00:06.125Z</time>
      </trkpt>
      <trkpt lat="44.00782" lon="7.71628">
        <ele>793</ele>
        <time>2021-11-15T02:00:18.321Z</time>
      </trkpt>
      <trkpt lat="44.00776" lon="7.71612">
        <ele>792</ele>
        <time>2021-11-15T02:00:30.520Z</time>
      </trkpt>
      <trkpt lat="44.00734" lon="7.71544">
        <ele>791</ele>
        <time>2021-11-15T02:00:42.729Z</time>
      </trkpt>
      <trkpt lat="44.00727" lon="7.71528">
        <ele>790</ele>
        <time>2021-11-15T02:00:54.940Z</time>
      </trkpt>
      <trkpt lat="44.00728" lon="7.71511">
        <ele>790</ele>
        <time>2021-11-15T02:01:07.153Z</time>
      </trkpt>
      <trkpt lat="44.0074" lon="7.71494">
        <ele>790</ele>
        <time>2021-11-15T02:01:19.369Z</time>
      </trkpt>
      <trkpt lat="44.00749" lon="7.71487">
        <ele>790</ele>
        <time>2021-11-15T02:01:31.586Z</time>
      </trkpt>
      <trkpt lat="44.00782" lon="7.71473">
        <ele>790</ele>
        <time>2021-11-15T02:01:43.809Z</time>
      </trkpt>
      <trkpt lat="44.00802" lon="7.71455">
        <ele>790</ele>
        <time>2021-11-15T02:01:56.036Z</time>
      </trkpt>
      <trkpt lat="44.00888" lon="7.71356">
        <ele>790</ele>
        <time>2021-11-15T02:02:08.281Z</time>
      </trkpt>
      <trkpt lat="44.01048" lon="7.71235">
        <ele>791</ele>
        <time>2021-11-15T02:02:20.555Z</time>
      </trkpt>
      <trkpt lat="44.01092" lon="7.71188">
        <ele>791</ele>
        <time>2021-11-15T02:02:32.838Z</time>
      </trkpt>
      <trkpt lat="44.01106" lon="7.71178">
        <ele>791</ele>
        <time>2021-11-15T02:02:45.123Z</time>
      </trkpt>
      <trkpt lat="44.01121" lon="7.7117">
        <ele>792</ele>
        <time>2021-11-15T02:02:57.411Z</time>
      </trkpt>
      <trkpt lat="44.01155" lon="7.71165">
        <ele>793</ele>
        <time>2021-11-15T02:03:09.704Z</time>
      </trkpt>
      <trkpt lat="44.01284" lon="7.71172">
        <ele>793</ele>
        <time>2021-11-15T02:03:22.018Z</time>
      </trkpt>
      <trkpt lat="44.01317" lon="7.71183">
        <ele>794</ele>
        <time>2021-11-15T02:03:34.337Z</time>
      </trkpt>
      <trkpt lat="44.01349" lon="7.71211">
        <ele>795</ele>
        <time>2021-11-15T02:03:46.662Z</time>
      </trkpt>
      <trkpt lat="44.01366" lon="7.71219">
        <ele>796</ele>
        <time>2021-11-15T02:03:58.990Z</time>
      </trkpt>
      <trkpt lat="44.01388" lon="7.71206">
        <ele>797</ele>
        <time>2021-11-15T02:04:11.322Z</time>
      </trkpt>
      <trkpt lat="44.01404" lon="7.71202">
        <ele>798</ele>
        <time>2021-11-15T02:04:23.657Z</time>
      </trkpt>
      <trkpt lat="44.0149" lon="7.71223">
        <ele>799</ele>
        <time>2021-11-15T02:04:36.006Z</time>
      </trkpt>
      <trkpt lat="44.01553" lon="7.71234">
        <ele>801</ele>
        <time>2021-11-15T02:04:48.365Z</time>
      </trkpt>
      <trkpt lat="44.01655" lon="7.71237">
        <ele>803</ele>
        <time>2021-11-15T02:05:00.740Z</time>
      </trkpt>
      <trkpt lat="44.01712" lon="7.71254">
        <ele>804</ele>
        <time>2021-11-15T02:05:13.124Z</time>
      </trkpt>
      <trkpt lat="44.0175" lon="7.71278">
        <ele>806</ele>
        <time>2021-11-15T02:05:25.515Z</time>
      </trkpt>
      <trkpt lat="44.01766" lon="7.71292">
        <ele>808</ele>
        <time>2021-11-15T02:05:37.909Z</time>
      </trkpt>
      <trkpt lat="44.01804" lon="7.71351">
        <ele>810</ele>
        <time>2021-11-15T02:05:50.312Z</time>
      </trkpt>
      <trkpt lat="44.01817" lon="7.71359">
        <ele>812</ele>
        <time>2021-11-15T02:06:02.718Z</time>
      </trkpt>
      <trkpt lat="44.01849" lon="7.71356">
        <ele>814</ele>
        <time>2021-11-15T02:06:15.129Z</time>
      </trkpt>
      <trkpt lat="44.01862" lon="7.71363">
        <ele>816</ele>
        <time>2021-11-15T02:06:27.542Z</time>
      </trkpt>
      <trkpt lat="44.01909" lon="7.71416">
        <ele>818</ele>
        <time>2021-11-15T02:06:39.965Z</time>
      </trkpt>
      <trkpt lat="44.02009" lon="7.715">
        <ele>820</ele>
        <time>2021-11-15T02:06:52.406Z</time>
      </trkpt>
      <trkpt lat="44.02017" lon="7.71519">
        <ele>822</ele>
        <time>2021-11-15T02:07:04.850Z</time>
      </trkpt>
      <trkpt lat="44.02008" lon="7.71581">
        <ele>826</ele>
        <time>2021-11-15T02:07:17.301Z</time>
      </trkpt>
      <trkpt lat="44.02009" lon="7.71595">
        <ele>829</ele>
        <time>2021-11-15T02:07:29.754Z</time>
      </trkpt>
      <trkpt lat="44.02019" lon="7.71613">
        <ele>831</ele>
        <time>2021-11-15T02:07:42.209Z</time>
      </trkpt>
      <trkpt lat="44.0203" lon="7.71613">
        <ele>833</ele>
        <time>2021-11-15T02:07:54.666Z</time>
      </trkpt>
      <trkpt lat="44.02038" lon="7.71608">
        <ele>835</ele>
        <time>2021-11-15T02:08:07.125Z</time>
      </trkpt>
      <trkpt lat="44.02111" lon="7.71541">
        <ele>836</ele>
        <time>2021-11-15T02:08:19.598Z</time>
      </trkpt>
      <trkpt lat="44.02126" lon="7.71533">
        <ele>839</ele>
        <time>2021-11-15T02:08:32.073Z</time>
      </trkpt>
      <trkpt lat="44.02176" lon="7.71531">
        <ele>841</ele>
        <time>2021-11-15T02:08:44.556Z</time>
      </trkpt>
      <trkpt lat="44.02187" lon="7.71535">
        <ele>844</ele>
        <time>2021-11-15T02:08:57.041Z</time>
      </trkpt>
      <trkpt lat="44.02229" lon="7.71539">
        <ele>846</ele>
        <time>2021-11-15T02:09:09.533Z</time>
      </trkpt>
      <trkpt lat="44.02264" lon="7.71571">
        <ele>848</ele>
        <time>2021-11-15T02:09:22.031Z</time>
      </trkpt>
      <trkpt lat="44.02304" lon="7.71631">
        <ele>851</ele>
        <time>2021-11-15T02:09:34.539Z</time>
      </trkpt>
      <trkpt lat="44.02313" lon="7.71631">
        <ele>854</ele>
        <time>2021-11-15T02:09:47.048Z</time>
      </trkpt>
      <trkpt lat="44.0234" lon="7.71599">
        <ele>856</ele>
        <time>2021-11-15T02:09:59.563Z</time>
      </trkpt>
      <trkpt lat="44.02353" lon="7.71599">
        <ele>858</ele>
        <time>2021-11-15T02:10:12.080Z</time>
      </trkpt>
      <trkpt lat="44.02366" lon="7.71607">
        <ele>861</ele>
        <time>2021-11-15T02:10:24.599Z</time>
      </trkpt>
      <trkpt lat="44.02389" lon="7.71628">
        <ele>864</ele>
        <time>2021-11-15T02:10:37.123Z</time>
      </trkpt>
      <trkpt lat="44.02425" lon="7.71678">
        <ele>867</ele>
        <time>2021-11-15T02:10:49.655Z</time>
      </trkpt>
      <trkpt lat="44.02458" lon="7.71715">
        <ele>870</ele>
        <time>2021-11-15T02:11:02.194Z</time>
      </trkpt>
      <trkpt lat="44.02479" lon="7.71732">
        <ele>873</ele>
        <time>2021-11-15T02:11:14.737Z</time>
      </trkpt>
      <trkpt lat="44.02501" lon="7.71743">
        <ele>875</ele>
        <time>2021-11-15T02:11:27.283Z</time>
      </trkpt>
      <trkpt lat="44.0253" lon="7.71767">
        <ele>878</ele>
        <time>2021-11-15T02:11:39.835Z</time>
      </trkpt>
      <trkpt lat="44.02546" lon="7.71785">
        <ele>881</ele>
        <time>2021-11-15T02:11:52.390Z</time>
      </trkpt>
      <trkpt lat="44.02597" lon="7.71769">
        <ele>884</ele>
        <time>2021-11-15T02:12:04.953Z</time>
      </trkpt>
      <trkpt lat="44.0263" lon="7.71802">
        <ele>887</ele>
        <time>2021-11-15T02:12:17.523Z</time>
      </trkpt>
      <trkpt lat="44.02656" lon="7.71847">
        <ele>890</ele>
        <time>2021-11-15T02:12:30.100Z</time>
      </trkpt>
      <trkpt lat="44.02688" lon="7.71875">
        <ele>893</ele>
        <time>2021-11-15T02:12:42.683Z</time>
      </trkpt>
      <trkpt lat="44.02718" lon="7.71886">
        <ele>897</ele>
        <time>2021-11-15T02:12:55.271Z</time>
      </trkpt>
      <trkpt lat="44.02733" lon="7.71895">
        <ele>900</ele>
        <time>2021-11-15T02:13:07.861Z</time>
      </trkpt>
      <trkpt lat="44.02766" lon="7.719">
        <ele>903</ele>
        <time>2021-11-15T02:13:20.457Z</time>
      </trkpt>
      <trkpt lat="44.02804" lon="7.71858">
        <ele>905</ele>
        <time>2021-11-15T02:13:33.060Z</time>
      </trkpt>
      <trkpt lat="44.02816" lon="7.71851">
        <ele>908</ele>
        <time>2021-11-15T02:13:45.665Z</time>
      </trkpt>
      <trkpt lat="44.0283" lon="7.71853">
        <ele>911</ele>
        <time>2021-11-15T02:13:58.273Z</time>
      </trkpt>
      <trkpt lat="44.02858" lon="7.71863">
        <ele>914</ele>
        <time>2021-11-15T02:14:10.885Z</time>
      </trkpt>
      <trkpt lat="44.0296" lon="7.71954">
        <ele>919</ele>
        <time>2021-11-15T02:14:23.517Z</time>
      </trkpt>
      <trkpt lat="44.02998" lon="7.71974">
        <ele>923</ele>
        <time>2021-11-15T02:14:36.155Z</time>
      </trkpt>
      <trkpt lat="44.03039" lon="7.71978">
        <ele>926</ele>
        <time>2021-11-15T02:14:48.800Z</time>
      </trkpt>
      <trkpt lat="44.03062" lon="7.71973">
        <ele>929</ele>
        <time>2021-11-15T02:15:01.448Z</time>
      </trkpt>
      <trkpt lat="44.03102" lon="7.71956">
        <ele>931</ele>
        <time>2021-11-15T02:15:14.103Z</time>
      </trkpt>
      <trkpt lat="44.03127" lon="7.71963">
        <ele>934</ele>
        <time>2021-11-15T02:15:26.762Z</time>
      </trkpt>
      <trkpt lat="44.03142" lon="7.71997">
        <ele>937</ele>
        <time>2021-11-15T02:15:39.426Z</time>
      </trkpt>
      <trkpt lat="44.03146" lon="7.72021">
        <ele>940</ele>
        <time>2021-11-15T02:15:52.093Z</time>
      </trkpt>
      <trkpt lat="44.0317" lon="7.72067">
        <ele>943</ele>
        <time>2021-11-15T02:16:04.766Z</time>
      </trkpt>
      <trkpt lat="44.03178" lon="7.72073">
        <ele>946</ele>
        <time>2021-11-15T02:16:17.441Z</time>
      </trkpt>
      <trkpt lat="44.03189" lon="7.72074">
        <ele>949</ele>
        <time>2021-11-15T02:16:30.117Z</time>
      </trkpt>
      <trkpt lat="44.03242" lon="7.72041">
        <ele>953</ele>
        <time>2021-11-15T02:16:42.803Z</time>
      </trkpt>
      <trkpt lat="44.03297" lon="7.72004">
        <ele>956</ele>
        <time>2021-11-15T02:16:55.499Z</time>
      </trkpt>
      <trkpt lat="44.03394" lon="7.71923">
        <ele>959</ele>
        <time>2021-11-15T02:17:08.213Z</time>
      </trkpt>
      <trkpt lat="44.03422" lon="7.71909">
        <ele>963</ele>
        <time>2021-11-15T02:17:20.931Z</time>
      </trkpt>
      <trkpt lat="44.03486" lon="7.71913">
        <ele>966</ele>
        <time>2021-11-15T02:17:33.660Z</time>
      </trkpt>
      <trkpt lat="44.03554" lon="7.71936">
        <ele>970</ele>
        <time>2021-11-15T02:17:46.400Z</time>
      </trkpt>
      <trkpt lat="44.03589" lon="7.71936">
        <ele>973</ele>
        <time>2021-11-15T02:17:59.145Z</time>
      </trkpt>
      <trkpt lat="44.03658" lon="7.71949">
        <ele>977</ele>
        <time>2021-11-15T02:18:11.902Z</time>
      </trkpt>
      <trkpt lat="44.03681" lon="7.71958">
        <ele>981</ele>
        <time>2021-11-15T02:18:24.662Z</time>
      </trkpt>
      <trkpt lat="44.03709" lon="7.71963">
        <ele>984</ele>
        <time>2021-11-15T02:18:37.427Z</time>
      </trkpt>
      <trkpt lat="44.03739" lon="7.71956">
        <ele>988</ele>
        <time>2021-11-15T02:18:50.197Z</time>
      </trkpt>
      <trkpt lat="44.0382" lon="7.71951">
        <ele>992</ele>
        <time>2021-11-15T02:19:02.980Z</time>
      </trkpt>
      <trkpt lat="44.03868" lon="7.7193">
        <ele>996</ele>
        <time>2021-11-15T02:19:15.771Z</time>
      </trkpt>
      <trkpt lat="44.03901" lon="7.7191">
        <ele>999</ele>
        <time>2021-11-15T02:19:28.568Z</time>
      </trkpt>
      <trkpt lat="44.0391" lon="7.719">
        <ele>1003</ele>
        <time>2021-11-15T02:19:41.366Z</time>
      </trkpt>
      <trkpt lat="44.0392" lon="7.71877">
        <ele>1007</ele>
        <time>2021-11-15T02:19:54.168Z</time>
      </trkpt>
      <trkpt lat="44.03942" lon="7.71792">
        <ele>1011</ele>
        <time>2021-11-15T02:20:06.980Z</time>
      </trkpt>
      <trkpt lat="44.03956" lon="7.71788">
        <ele>1015</ele>
        <time>2021-11-15T02:20:19.794Z</time>
      </trkpt>
      <trkpt lat="44.03899" lon="7.71805">
        <ele>1019</ele>
        <time>2021-11-15T02:20:32.618Z</time>
      </trkpt>
      <trkpt lat="44.03866" lon="7.71821">
        <ele>1023</ele>
        <time>2021-11-15T02:20:45.447Z</time>
      </trkpt>
      <trkpt lat="44.03845" lon="7.71825">
        <ele>1027</ele>
        <time>2021-11-15T02:20:58.280Z</time>
      </trkpt>
      <trkpt lat="44.03809" lon="7.7183">
        <ele>1031</ele>
        <time>2021-11-15T02:21:11.118Z</time>
      </trkpt>
      <trkpt lat="44.0375" lon="7.7182">
        <ele>1035</ele>
        <time>2021-11-15T02:21:23.966Z</time>
      </trkpt>
      <trkpt lat="44.03608" lon="7.71736">
        <ele>1039</ele>
        <time>2021-11-15T02:21:36.839Z</time>
      </trkpt>
      <trkpt lat="44.03589" lon="7.71719">
        <ele>1044</ele>
        <time>2021-11-15T02:21:49.715Z</time>
      </trkpt>
      <trkpt lat="44.03583" lon="7.71704">
        <ele>1048</ele>
        <time>2021-11-15T02:22:02.593Z</time>
      </trkpt>
      <trkpt lat="44.03579" lon="7.71692">
        <ele>1053</ele>
        <time>2021-11-15T02:22:15.473Z</time>
      </trkpt>
      <trkpt lat="44.03589" lon="7.71637">
        <ele>1058</ele>
        <time>2021-11-15T02:22:28.359Z</time>
      </trkpt>
      <trkpt lat="44.03628" lon="7.71512">
        <ele>1063</ele>
        <time>2021-11-15T02:22:41.261Z</time>
      </trkpt>
      <trkpt lat="44.03633" lon="7.71509">
        <ele>1068</ele>
        <time>2021-11-15T02:22:54.164Z</time>
      </trkpt>
      <trkpt lat="44.03639" lon="7.71513">
        <ele>1073</ele>
        <time>2021-11-15T02:23:07.068Z</time>
      </trkpt>
      <trkpt lat="44.03647" lon="7.7153">
        <ele>1078</ele>
        <time>2021-11-15T02:23:19.974Z</time>
      </trkpt>
      <trkpt lat="44.03654" lon="7.71615">
        <ele>1082</ele>
        <time>2021-11-15T02:23:32.890Z</time>
      </trkpt>
      <trkpt lat="44.0366" lon="7.71636">
        <ele>1087</ele>
        <time>2021-11-15T02:23:45.809Z</time>
      </trkpt>
      <trkpt lat="44.03674" lon="7.71646">
        <ele>1092</ele>
        <time>2021-11-15T02:23:58.730Z</time>
      </trkpt>
      <trkpt lat="44.03705" lon="7.71658">
        <ele>1098</ele>
        <time>2021-11-15T02:24:11.656Z</time>
      </trkpt>
      <trkpt lat="44.03744" lon="7.71655">
        <ele>1103</ele>
        <time>2021-11-15T02:24:24.589Z</time>
      </trkpt>
      <trkpt lat="44.0377" lon="7.71661">
        <ele>1108</ele>
        <time>2021-11-15T02:24:37.526Z</time>
      </trkpt>
      <trkpt lat="44.03778" lon="7.71652">
        <ele>1113</ele>
        <time>2021-11-15T02:24:50.465Z</time>
      </trkpt>
      <trkpt lat="44.03773" lon="7.71646">
        <ele>1118</ele>
        <time>2021-11-15T02:25:03.405Z</time>
      </trkpt>
      <trkpt lat="44.03735" lon="7.71629">
        <ele>1123</ele>
        <time>2021-11-15T02:25:16.351Z</time>
      </trkpt>
      <trkpt lat="44.03717" lon="7.71609">
        <ele>1127</ele>
        <time>2021-11-15T02:25:29.301Z</time>
      </trkpt>
      <trkpt lat="44.03725" lon="7.71532">
        <ele>1132</ele>
        <time>2021-11-15T02:25:42.260Z</time>
      </trkpt>
      <trkpt lat="44.03725" lon="7.71492">
        <ele>1137</ele>
        <time>2021-11-15T02:25:55.223Z</time>
      </trkpt>
      <trkpt lat="44.03741" lon="7.71415">
        <ele>1142</ele>
        <time>2021-11-15T02:26:08.196Z</time>
      </trkpt>
      <trkpt lat="44.03738" lon="7.71319">
        <ele>1147</ele>
        <time>2021-11-15T02:26:21.180Z</time>
      </trkpt>
      <trkpt lat="44.03747" lon="7.7129">
        <ele>1152</ele>
        <time>2021-11-15T02:26:34.167Z</time>
      </trkpt>
      <trkpt lat="44.03745" lon="7.71274">
        <ele>1156</ele>
        <time>2021-11-15T02:26:47.156Z</time>
      </trkpt>
      <trkpt lat="44.0372" lon="7.71219">
        <ele>1161</ele>
        <time>2021-11-15T02:27:00.153Z</time>
      </trkpt>
      <trkpt lat="44.03719" lon="7.71187">
        <ele>1165</ele>
        <time>2021-11-15T02:27:13.153Z</time>
      </trkpt>
      <trkpt lat="44.03713" lon="7.71169">
        <ele>1170</ele>
        <time>2021-11-15T02:27:26.156Z</time>
      </trkpt>
      <trkpt lat="44.03715" lon="7.71143">
        <ele>1174</ele>
        <time>2021-11-15T02:27:39.162Z</time>
      </trkpt>
      <trkpt lat="44.03732" lon="7.71105">
        <ele>1178</ele>
        <time>2021-11-15T02:27:52.173Z</time>
      </trkpt>
      <trkpt lat="44.03741" lon="7.71061">
        <ele>1182</ele>
        <time>2021-11-15T02:28:05.189Z</time>
      </trkpt>
      <trkpt lat="44.03736" lon="7.7104">
        <ele>1186</ele>
        <time>2021-11-15T02:28:18.208Z</time>
      </trkpt>
      <trkpt lat="44.03723" lon="7.71007">
        <ele>1190</ele>
        <time>2021-11-15T02:28:31.231Z</time>
      </trkpt>
      <trkpt lat="44.03699" lon="7.71008">
        <ele>1194</ele>
        <time>2021-11-15T02:28:44.258Z</time>
      </trkpt>
      <trkpt lat="44.03684" lon="7.71005">
        <ele>1197</ele>
        <time>2021-11-15T02:28:57.287Z</time>
      </trkpt>
      <trkpt lat="44.03668" lon="7.70996">
        <ele>1201</ele>
        <time>2021-11-15T02:29:10.319Z</time>
      </trkpt>
      <trkpt lat="44.03642" lon="7.70991">
        <ele>1205</ele>
        <time>2021-11-15T02:29:23.355Z</time>
      </trkpt>
      <trkpt lat="44.03578" lon="7.71017">
        <ele>1208</ele>
        <time>2021-11-15T02:29:36.402Z</time>
      </trkpt>
      <trkpt lat="44.03527" lon="7.7105">
        <ele>1211</ele>
        <time>2021-11-15T02:29:49.458Z</time>
      </trkpt>
      <trkpt lat="44.03521" lon="7.71043">
        <ele>1214</ele>
        <time>2021-11-15T02:30:02.515Z</time>
      </trkpt>
      <trkpt lat="44.03516" lon="7.71017">
        <ele>1218</ele>
        <time>2021-11-15T02:30:15.575Z</time>
      </trkpt>
      <trkpt lat="44.03516" lon="7.70972">
        <ele>1221</ele>
        <time>2021-11-15T02:30:28.640Z</time>
      </trkpt>
      <trkpt lat="44.03531" lon="7.70894">
        <ele>1225</ele>
        <time>2021-11-15T02:30:41.715Z</time>
      </trkpt>
      <trkpt lat="44.03536" lon="7.7084">
        <ele>1228</ele>
        <time>2021-11-15T02:30:54.796Z</time>
      </trkpt>
      <trkpt lat="44.03547" lon="7.70779">
        <ele>1232</ele>
        <time>2021-11-15T02:31:07.884Z</time>
      </trkpt>
      <trkpt lat="44.03545" lon="7.7077">
        <ele>1235</ele>
        <time>2021-11-15T02:31:20.973Z</time>
      </trkpt>
      <trkpt lat="44.03536" lon="7.70762">
        <ele>1237</ele>
        <time>2021-11-15T02:31:34.064Z</time>
      </trkpt>
      <trkpt lat="44.03507" lon="7.70767">
        <ele>1239</ele>
        <time>2021-11-15T02:31:47.160Z</time>
      </trkpt>
      <trkpt lat="44.03483" lon="7.70764">
        <ele>1242</ele>
        <time>2021-11-15T02:32:00.260Z</time>
      </trkpt>
      <trkpt lat="44.03469" lon="7.7077">
        <ele>1244</ele>
        <time>2021-11-15T02:32:13.362Z</time>
      </trkpt>
      <trkpt lat="44.03385" lon="7.7079">
        <ele>1247</ele>
        <time>2021-11-15T02:32:26.478Z</time>
      </trkpt>
      <trkpt lat="44.0337" lon="7.70789">
        <ele>1249</ele>
        <time>2021-11-15T02:32:39.596Z</time>
      </trkpt>
      <trkpt lat="44.03347" lon="7.70767">
        <ele>1252</ele>
        <time>2021-11-15T02:32:52.718Z</time>
      </trkpt>
      <trkpt lat="44.03315" lon="7.70782">
        <ele>1254</ele>
        <time>2021-11-15T02:33:05.846Z</time>
      </trkpt>
      <trkpt lat="44.03287" lon="7.70811">
        <ele>1256</ele>
        <time>2021-11-15T02:33:18.979Z</time>
      </trkpt>
      <trkpt lat="44.03265" lon="7.70827">
        <ele>1258</ele>
        <time>2021-11-15T02:33:32.116Z</time>
      </trkpt>
      <trkpt lat="44.03197" lon="7.70832">
        <ele>1261</ele>
        <time>2021-11-15T02:33:45.264Z</time>
      </trkpt>
      <trkpt lat="44.03178" lon="7.70835">
        <ele>1263</ele>
        <time>2021-11-15T02:33:58.415Z</time>
      </trkpt>
      <trkpt lat="44.03164" lon="7.70844">
        <ele>1265</ele>
        <time>2021-11-15T02:34:11.569Z</time>
      </trkpt>
      <trkpt lat="44.03138" lon="7.70846">
        <ele>1267</ele>
        <time>2021-11-15T02:34:24.727Z</time>
      </trkpt>
      <trkpt lat="44.03116" lon="7.70831">
        <ele>1269</ele>
        <time>2021-11-15T02:34:37.889Z</time>
      </trkpt>
      <trkpt lat="44.03094" lon="7.70821">
        <ele>1270</ele>
        <time>2021-11-15T02:34:51.055Z</time>
      </trkpt>
      <trkpt lat="44.03081" lon="7.70807">
        <ele>1272</ele>
        <time>2021-11-15T02:35:04.223Z</time>
      </trkpt>
      <trkpt lat="44.03074" lon="7.70805">
        <ele>1274</ele>
        <time>2021-11-15T02:35:17.392Z</time>
      </trkpt>
      <trkpt lat="44.03053" lon="7.70811">
        <ele>1275</ele>
        <time>2021-11-15T02:35:30.565Z</time>
      </trkpt>
      <trkpt lat="44.03033" lon="7.70821">
        <ele>1276</ele>
        <time>2021-11-15T02:35:43.741Z</time>
      </trkpt>
      <trkpt lat="44.03001" lon="7.70844">
        <ele>1278</ele>
        <time>2021-11-15T02:35:56.923Z</time>
      </trkpt>
      <trkpt lat="44.02998" lon="7.70843">
        <ele>1279</ele>
        <time>2021-11-15T02:36:10.106Z</time>
      </trkpt>
      <trkpt lat="44.02997" lon="7.70836">
        <ele>1280</ele>
        <time>2021-11-15T02:36:23.289Z</time>
      </trkpt>
      <trkpt lat="44.02999" lon="7.70825">
        <ele>1282</ele>
        <time>2021-11-15T02:36:36.474Z</time>
      </trkpt>
      <trkpt lat="44.03025" lon="7.70757">
        <ele>1283</ele>
        <time>2021-11-15T02:36:49.668Z</time>
      </trkpt>
      <trkpt lat="44.03026" lon="7.70744">
        <ele>1285</ele>
        <time>2021-11-15T02:37:02.863Z</time>
      </trkpt>
      <trkpt lat="44.03023" lon="7.70738">
        <ele>1286</ele>
        <time>2021-11-15T02:37:16.059Z</time>
      </trkpt>
      <trkpt lat="44.03006" lon="7.70724">
        <ele>1287</ele>
        <time>2021-11-15T02:37:29.258Z</time>
      </trkpt>
      <trkpt lat="44.02995" lon="7.70719">
        <ele>1288</ele>
        <time>2021-11-15T02:37:42.459Z</time>
      </trkpt>
      <trkpt lat="44.02981" lon="7.70718">
        <ele>1289</ele>
        <time>2021-11-15T02:37:55.662Z</time>
      </trkpt>
      <trkpt lat="44.0297" lon="7.70726">
        <ele>1290</ele>
        <time>2021-11-15T02:38:08.867Z</time>
      </trkpt>
      <trkpt lat="44.02879" lon="7.70844">
        <ele>1291</ele>
        <time>2021-11-15T02:38:22.092Z</time>
      </trkpt>
      <trkpt lat="44.02871" lon="7.70847">
        <ele>1292</ele>
        <time>2021-11-15T02:38:35.318Z</time>
      </trkpt>
      <trkpt lat="44.02828" lon="7.70836">
        <ele>1293</ele>
        <time>2021-11-15T02:38:48.551Z</time>
      </trkpt>
      <trkpt lat="44.02822" lon="7.70833">
        <ele>1294</ele>
        <time>2021-11-15T02:39:01.785Z</time>
      </trkpt>
      <trkpt lat="44.02815" lon="7.70823">
        <ele>1295</ele>
        <time>2021-11-15T02:39:15.021Z</time>
      </trkpt>
      <trkpt lat="44.0281" lon="7.70808">
        <ele>1297</ele>
        <time>2021-11-15T02:39:28.259Z</time>
      </trkpt>
      <trkpt lat="44.02808" lon="7.70756">
        <ele>1298</ele>
        <time>2021-11-15T02:39:41.503Z</time>
      </trkpt>
      <trkpt lat="44.02796" lon="7.70711">
        <ele>1299</ele>
        <time>2021-11-15T02:39:54.752Z</time>
      </trkpt>
      <trkpt lat="44.02778" lon="7.70578">
        <ele>1301</ele>
        <time>2021-11-15T02:40:08.017Z</time>
      </trkpt>
      <trkpt lat="44.02773" lon="7.70566">
        <ele>1302</ele>
        <time>2021-11-15T02:40:21.284Z</time>
      </trkpt>
      <trkpt lat="44.0277" lon="7.70562">
        <ele>1304</ele>
        <time>2021-11-15T02:40:34.551Z</time>
      </trkpt>
      <trkpt lat="44.02731" lon="7.70555">
        <ele>1305</ele>
        <time>2021-11-15T02:40:47.825Z</time>
      </trkpt>
      <trkpt lat="44.02705" lon="7.70546">
        <ele>1306</ele>
        <time>2021-11-15T02:41:01.103Z</time>
      </trkpt>
      <trkpt lat="44.02672" lon="7.70508">
        <ele>1308</ele>
        <time>2021-11-15T02:41:14.388Z</time>
      </trkpt>
      <trkpt lat="44.02631" lon="7.70471">
        <ele>1310</ele>
        <time>2021-11-15T02:41:27.681Z</time>
      </trkpt>
      <trkpt lat="44.02617" lon="7.70468">
        <ele>1311</ele>
        <time>2021-11-15T02:41:40.976Z</time>
      </trkpt>
      <trkpt lat="44.02577" lon="7.70474">
        <ele>1313</ele>
        <time>2021-11-15T02:41:54.277Z</time>
      </trkpt>
      <trkpt lat="44.02566" lon="7.7047">
        <ele>1314</ele>
        <time>2021-11-15T02:42:07.580Z</time>
      </trkpt>
      <trkpt lat="44.02559" lon="7.70458">
        <ele>1316</ele>
        <time>2021-11-15T02:42:20.885Z</time>
      </trkpt>
      <trkpt lat="44.02555" lon="7.70436">
        <ele>1318</ele>
        <time>2021-11-15T02:42:34.193Z</time>
      </trkpt>
      <trkpt lat="44.02576" lon="7.70335">
        <ele>1321</ele>
        <time>2021-11-15T02:42:47.513Z</time>
      </trkpt>
      <trkpt lat="44.02589" lon="7.70293">
        <ele>1323</ele>
        <time>2021-11-15T02:43:00.838Z</time>
      </trkpt>
      <trkpt lat="44.0261" lon="7.70241">
        <ele>1325</ele>
        <time>2021-11-15T02:43:14.170Z</time>
      </trkpt>
      <trkpt lat="44.02632" lon="7.70216">
        <ele>1327</ele>
        <time>2021-11-15T02:43:27.506Z</time>
      </trkpt>
      <trkpt lat="44.0264" lon="7.70161">
        <ele>1330</ele>
        <time>2021-11-15T02:43:40.849Z</time>
      </trkpt>
      <trkpt lat="44.02664" lon="7.70125">
        <ele>1332</ele>
        <time>2021-11-15T02:43:54.198Z</time>
      </trkpt>
      <trkpt lat="44.02674" lon="7.70115">
        <ele>1334</ele>
        <time>2021-11-15T02:44:07.549Z</time>
      </trkpt>
      <trkpt lat="44.02703" lon="7.70101">
        <ele>1337</ele>
        <time>2021-11-15T02:44:20.904Z</time>
      </trkpt>
      <trkpt lat="44.02752" lon="7.70115">
        <ele>1340</ele>
        <time>2021-11-15T02:44:34.267Z</time>
      </trkpt>
      <trkpt lat="44.02802" lon="7.70147">
        <ele>1342</ele>
        <time>2021-11-15T02:44:47.639Z</time>
      </trkpt>
      <trkpt lat="44.0286" lon="7.70176">
        <ele>1345</ele>
        <time>2021-11-15T02:45:01.021Z</time>
      </trkpt>
      <trkpt lat="44.02928" lon="7.70236">
        <ele>1348</ele>
        <time>2021-11-15T02:45:14.416Z</time>
      </trkpt>
      <trkpt lat="44.0299" lon="7.70257">
        <ele>1350</ele>
        <time>2021-11-15T02:45:27.821Z</time>
      </trkpt>
      <trkpt lat="44.03043" lon="7.70263">
        <ele>1353</ele>
        <time>2021-11-15T02:45:41.235Z</time>
      </trkpt>
      <trkpt lat="44.03104" lon="7.70255">
        <ele>1356</ele>
        <time>2021-11-15T02:45:54.659Z</time>
      </trkpt>
      <trkpt lat="44.03156" lon="7.70261">
        <ele>1358</ele>
        <time>2021-11-15T02:46:08.091Z</time>
      </trkpt>
      <trkpt lat="44.03204" lon="7.70276">
        <ele>1361</ele>
        <time>2021-11-15T02:46:21.531Z</time>
      </trkpt>
      <trkpt lat="44.03244" lon="7.70282">
        <ele>1364</ele>
        <time>2021-11-15T02:46:34.977Z</time>
      </trkpt>
      <trkpt lat="44.03256" lon="7.7028">
        <ele>1366</ele>
        <time>2021-11-15T02:46:48.425Z</time>
      </trkpt>
      <trkpt lat="44.03282" lon="7.70263">
        <ele>1369</ele>
        <time>2021-11-15T02:47:01.878Z</time>
      </trkpt>
      <trkpt lat="44.03294" lon="7.70245">
        <ele>1371</ele>
        <time>2021-11-15T02:47:15.334Z</time>
      </trkpt>
      <trkpt lat="44.03288" lon="7.70232">
        <ele>1373</ele>
        <time>2021-11-15T02:47:28.791Z</time>
      </trkpt>
      <trkpt lat="44.03248" lon="7.70221">
        <ele>1375</ele>
        <time>2021-11-15T02:47:42.255Z</time>
      </trkpt>
      <trkpt lat="44.03241" lon="7.70216">
        <ele>1377</ele>
        <time>2021-11-15T02:47:55.720Z</time>
      </trkpt>
      <trkpt lat="44.0322" lon="7.70195">
        <ele>1379</ele>
        <time>2021-11-15T02:48:09.189Z</time>
      </trkpt>
      <trkpt lat="44.03214" lon="7.70174">
        <ele>1381</ele>
        <time>2021-11-15T02:48:22.661Z</time>
      </trkpt>
      <trkpt lat="44.03206" lon="7.70162">
        <ele>1382</ele>
        <time>2021-11-15T02:48:36.135Z</time>
      </trkpt>
      <trkpt lat="44.03193" lon="7.70151">
        <ele>1384</ele>
        <time>2021-11-15T02:48:49.611Z</time>
      </trkpt>
      <trkpt lat="44.03161" lon="7.70146">
        <ele>1385</ele>
        <time>2021-11-15T02:49:03.092Z</time>
      </trkpt>
      <trkpt lat="44.03147" lon="7.70136">
        <ele>1386</ele>
        <time>2021-11-15T02:49:16.576Z</time>
      </trkpt>
      <trkpt lat="44.0311" lon="7.70121">
        <ele>1388</ele>
        <time>2021-11-15T02:49:30.066Z</time>
      </trkpt>
      <trkpt lat="44.03097" lon="7.70106">
        <ele>1389</ele>
        <time>2021-11-15T02:49:43.559Z</time>
      </trkpt>
      <trkpt lat="44.03099" lon="7.70054">
        <ele>1391</ele>
        <time>2021-11-15T02:49:57.058Z</time>
      </trkpt>
      <trkpt lat="44.03075" lon="7.7">
        <ele>1391</ele>
        <time>2021-11-15T02:50:10.564Z</time>
      </trkpt>
      <trkpt lat="44.03079" lon="7.69967">
        <ele>1393</ele>
        <time>2021-11-15T02:50:24.074Z</time>
      </trkpt>
      <trkpt lat="44.03105" lon="7.69887">
        <ele>1394</ele>
        <time>2021-11-15T02:50:37.594Z</time>
      </trkpt>
      <trkpt lat="44.03105" lon="7.69864">
        <ele>1395</ele>
        <time>2021-11-15T02:50:51.117Z</time>
      </trkpt>
      <trkpt lat="44.03101" lon="7.69855">
        <ele>1395</ele>
        <time>2021-11-15T02:51:04.641Z</time>
      </trkpt>
      <trkpt lat="44.03093" lon="7.6985">
        <ele>1395</ele>
        <time>2021-11-15T02:51:18.166Z</time>
      </trkpt>
      <trkpt lat="44.03068" lon="7.69846">
        <ele>1395</ele>
        <time>2021-11-15T02:51:31.695Z</time>
      </trkpt>
      <trkpt lat="44.03027" lon="7.69856">
        <ele>1395</ele>
        <time>2021-11-15T02:51:45.231Z</time>
      </trkpt>
      <trkpt lat="44.02952" lon="7.69863">
        <ele>1395</ele>
        <time>2021-11-15T02:51:58.779Z</time>
      </trkpt>
      <trkpt lat="44.02914" lon="7.69855">
        <ele>1395</ele>
        <time>2021-11-15T02:52:12.333Z</time>
      </trkpt>
      <trkpt lat="44.02903" lon="7.69849">
        <ele>1395</ele>
        <time>2021-11-15T02:52:25.889Z</time>
      </trkpt>
      <trkpt lat="44.02888" lon="7.69829">
        <ele>1395</ele>
        <time>2021-11-15T02:52:39.448Z</time>
      </trkpt>
      <trkpt lat="44.02884" lon="7.69732">
        <ele>1395</ele>
        <time>2021-11-15T02:52:53.019Z</time>
      </trkpt>
      <trkpt lat="44.02866" lon="7.69709">
        <ele>1395</ele>
        <time>2021-11-15T02:53:06.594Z</time>
      </trkpt>
      <trkpt lat="44.02861" lon="7.69654">
        <ele>1394</ele>
        <time>2021-11-15T02:53:20.175Z</time>
      </trkpt>
      <trkpt lat="44.02848" lon="7.69631">
        <ele>1394</ele>
        <time>2021-11-15T02:53:33.759Z</time>
      </trkpt>
      <trkpt lat="44.02843" lon="7.69629">
        <ele>1394</ele>
        <time>2021-11-15T02:53:47.344Z</time>
      </trkpt>
      <trkpt lat="44.02804" lon="7.69633">
        <ele>1392</ele>
        <time>2021-11-15T02:54:00.935Z</time>
      </trkpt>
      <trkpt lat="44.0279" lon="7.69596">
        <ele>1392</ele>
        <time>2021-11-15T02:54:14.531Z</time>
      </trkpt>
      <trkpt lat="44.02783" lon="7.69587">
        <ele>1392</ele>
        <time>2021-11-15T02:54:28.129Z</time>
      </trkpt>
      <trkpt lat="44.02755" lon="7.6958">
        <ele>1391</ele>
        <time>2021-11-15T02:54:41.731Z</time>
      </trkpt>
      <trkpt lat="44.02747" lon="7.69571">
        <ele>1390</ele>
        <time>2021-11-15T02:54:55.335Z</time>
      </trkpt>
      <trkpt lat="44.02741" lon="7.69557">
        <ele>1390</ele>
        <time>2021-11-15T02:55:08.941Z</time>
      </trkpt>
      <trkpt lat="44.02738" lon="7.69491">
        <ele>1390</ele>
        <time>2021-11-15T02:55:22.555Z</time>
      </trkpt>
      <trkpt lat="44.02753" lon="7.69424">
        <ele>1390</ele>
        <time>2021-11-15T02:55:36.177Z</time>
      </trkpt>
      <trkpt lat="44.02743" lon="7.69368">
        <ele>1389</ele>
        <time>2021-11-15T02:55:49.805Z</time>
      </trkpt>
      <trkpt lat="44.02742" lon="7.69345">
        <ele>1389</ele>
        <time>2021-11-15T02:56:03.436Z</time>
      </trkpt>
      <trkpt lat="44.02751" lon="7.69303">
        <ele>1389</ele>
        <time>2021-11-15T02:56:17.072Z</time>
      </trkpt>
      <trkpt lat="44.02744" lon="7.69287">
        <ele>1389</ele>
        <time>2021-11-15T02:56:30.710Z</time>
      </trkpt>
      <trkpt lat="44.02734" lon="7.69282">
        <ele>1389</ele>
        <time>2021-11-15T02:56:44.350Z</time>
      </trkpt>
      <trkpt lat="44.02727" lon="7.69273">
        <ele>1389</ele>
        <time>2021-11-15T02:56:57.991Z</time>
      </trkpt>
      <trkpt lat="44.02725" lon="7.69253">
        <ele>1389</ele>
        <time>2021-11-15T02:57:11.635Z</time>
      </trkpt>
      <trkpt lat="44.02731" lon="7.69241">
        <ele>1389</ele>
        <time>2021-11-15T02:57:25.280Z</time>
      </trkpt>
      <trkpt lat="44.02746" lon="7.69228">
        <ele>1389</ele>
        <time>2021-11-15T02:57:38.928Z</time>
      </trkpt>
      <trkpt lat="44.0282" lon="7.69221">
        <ele>1390</ele>
        <time>2021-11-15T02:57:52.588Z</time>
      </trkpt>
      <trkpt lat="44.02871" lon="7.69209">
        <ele>1391</ele>
        <time>2021-11-15T02:58:06.256Z</time>
      </trkpt>
      <trkpt lat="44.02902" lon="7.69197">
        <ele>1391</ele>
        <time>2021-11-15T02:58:19.930Z</time>
      </trkpt>
      <trkpt lat="44.02913" lon="7.69195">
        <ele>1391</ele>
        <time>2021-11-15T02:58:33.605Z</time>
      </trkpt>
      <trkpt lat="44.02932" lon="7.69197">
        <ele>1392</ele>
        <time>2021-11-15T02:58:47.283Z</time>
      </trkpt>
      <trkpt lat="44.02949" lon="7.69192">
        <ele>1393</ele>
        <time>2021-11-15T02:59:00.964Z</time>
      </trkpt>
      <trkpt lat="44.02991" lon="7.69172">
        <ele>1393</ele>
        <time>2021-11-15T02:59:14.652Z</time>
      </trkpt>
      <trkpt lat="44.03001" lon="7.69156">
        <ele>1394</ele>
        <time>2021-11-15T02:59:28.343Z</time>
      </trkpt>
      <trkpt lat="44.02988" lon="7.69073">
        <ele>1395</ele>
        <time>2021-11-15T02:59:42.043Z</time>
      </trkpt>
      <trkpt lat="44.02981" lon="7.69054">
        <ele>1396</ele>
        <time>2021-11-15T02:59:55.746Z</time>
      </trkpt>
      <trkpt lat="44.02971" lon="7.69046">
        <ele>1397</ele>
        <time>2021-11-15T03:00:09.451Z</time>
      </trkpt>
      <trkpt lat="44.02954" lon="7.69048">
        <ele>1398</ele>
        <time>2021-11-15T03:00:23.159Z</time>
      </trkpt>
      <trkpt lat="44.02946" lon="7.69044">
        <ele>1399</ele>
        <time>2021-11-15T03:00:36.868Z</time>
      </trkpt>
      <trkpt lat="44.02895" lon="7.69009">
        <ele>1401</ele>
        <time>2021-11-15T03:00:50.586Z</time>
      </trkpt>
      <trkpt lat="44.02893" lon="7.69001">
        <ele>1402</ele>
        <time>2021-11-15T03:01:04.305Z</time>
      </trkpt>
      <trkpt lat="44.02897" lon="7.68968">
        <ele>1403</ele>
        <time>2021-11-15T03:01:18.028Z</time>
      </trkpt>
      <trkpt lat="44.02891" lon="7.68958">
        <ele>1405</ele>
        <time>2021-11-15T03:01:31.752Z</time>
      </trkpt>
      <trkpt lat="44.02836" lon="7.68939">
        <ele>1406</ele>
        <time>2021-11-15T03:01:45.485Z</time>
      </trkpt>
      <trkpt lat="44.02823" lon="7.68926">
        <ele>1408</ele>
        <time>2021-11-15T03:01:59.221Z</time>
      </trkpt>
      <trkpt lat="44.02795" lon="7.6891">
        <ele>1409</ele>
        <time>2021-11-15T03:02:12.962Z</time>
      </trkpt>
      <trkpt lat="44.02789" lon="7.68904">
        <ele>1411</ele>
        <time>2021-11-15T03:02:26.704Z</time>
      </trkpt>
      <trkpt lat="44.02783" lon="7.68879">
        <ele>1413</ele>
        <time>2021-11-15T03:02:40.449Z</time>
      </trkpt>
      <trkpt lat="44.02778" lon="7.68872">
        <ele>1414</ele>
        <time>2021-11-15T03:02:54.195Z</time>
      </trkpt>
      <trkpt lat="44.0277" lon="7.68869">
        <ele>1416</ele>
        <time>2021-11-15T03:03:07.942Z</time>
      </trkpt>
      <trkpt lat="44.02747" lon="7.68876">
        <ele>1418</ele>
        <time>2021-11-15T03:03:21.693Z</time>
      </trkpt>
      <trkpt lat="44.02729" lon="7.68892">
        <ele>1420</ele>
        <time>2021-11-15T03:03:35.448Z</time>
      </trkpt>
      <trkpt lat="44.02713" lon="7.68897">
        <ele>1422</ele>
        <time>2021-11-15T03:03:49.205Z</time>
      </trkpt>
      <trkpt lat="44.02663" lon="7.68898">
        <ele>1424</ele>
        <time>2021-11-15T03:04:02.970Z</time>
      </trkpt>
      <trkpt lat="44.02648" lon="7.68895">
        <ele>1426</ele>
        <time>2021-11-15T03:04:16.738Z</time>
      </trkpt>
      <trkpt lat="44.02613" lon="7.689">
        <ele>1428</ele>
        <time>2021-11-15T03:04:30.511Z</time>
      </trkpt>
      <trkpt lat="44.02606" lon="7.68906">
        <ele>1430</ele>
        <time>2021-11-15T03:04:44.286Z</time>
      </trkpt>
      <trkpt lat="44.02589" lon="7.68937">
        <ele>1432</ele>
        <time>2021-11-15T03:04:58.065Z</time>
      </trkpt>
      <trkpt lat="44.02585" lon="7.68936">
        <ele>1435</ele>
        <time>2021-11-15T03:05:11.845Z</time>
      </trkpt>
      <trkpt lat="44.02584" lon="7.68925">
        <ele>1437</ele>
        <time>2021-11-15T03:05:25.626Z</time>
      </trkpt>
      <trkpt lat="44.0261" lon="7.6889">
        <ele>1440</ele>
        <time>2021-11-15T03:05:39.413Z</time>
      </trkpt>
      <trkpt lat="44.02635" lon="7.68876">
        <ele>1442</ele>
        <time>2021-11-15T03:05:53.204Z</time>
      </trkpt>
      <trkpt lat="44.02666" lon="7.68849">
        <ele>1445</ele>
        <time>2021-11-15T03:06:07.001Z</time>
      </trkpt>
      <trkpt lat="44.02693" lon="7.68831">
        <ele>1448</ele>
        <time>2021-11-15T03:06:20.803Z</time>
      </trkpt>
      <trkpt lat="44.02713" lon="7.68812">
        <ele>1450</ele>
        <time>2021-11-15T03:06:34.609Z</time>
      </trkpt>
      <trkpt lat="44.02723" lon="7.68808">
        <ele>1453</ele>
        <time>2021-11-15T03:06:48.416Z</time>
      </trkpt>
      <trkpt lat="44.0273" lon="7.68809">
        <ele>1456</ele>
        <time>2021-11-15T03:07:02.225Z</time>
      </trkpt>
      <trkpt lat="44.02736" lon="7.68803">
        <ele>1458</ele>
        <time>2021-11-15T03:07:16.035Z</time>
      </trkpt>
      <trkpt lat="44.02758" lon="7.68684">
        <ele>1462</ele>
        <time>2021-11-15T03:07:29.859Z</time>
      </trkpt>
      <trkpt lat="44.02768" lon="7.68654">
        <ele>1465</ele>
        <time>2021-11-15T03:07:43.687Z</time>
      </trkpt>
      <trkpt lat="44.0279" lon="7.68623">
        <ele>1468</ele>
        <time>2021-11-15T03:07:57.520Z</time>
      </trkpt>
      <trkpt lat="44.02815" lon="7.68574">
        <ele>1471</ele>
        <time>2021-11-15T03:08:11.360Z</time>
      </trkpt>
      <trkpt lat="44.02831" lon="7.68551">
        <ele>1474</ele>
        <time>2021-11-15T03:08:25.203Z</time>
      </trkpt>
      <trkpt lat="44.02855" lon="7.68533">
        <ele>1476</ele>
        <time>2021-11-15T03:08:39.051Z</time>
      </trkpt>
      <trkpt lat="44.02883" lon="7.68527">
        <ele>1479</ele>
        <time>2021-11-15T03:08:52.903Z</time>
      </trkpt>
      <trkpt lat="44.02919" lon="7.68472">
        <ele>1482</ele>
        <time>2021-11-15T03:09:06.764Z</time>
      </trkpt>
      <trkpt lat="44.02944" lon="7.68444">
        <ele>1485</ele>
        <time>2021-11-15T03:09:20.630Z</time>
      </trkpt>
      <trkpt lat="44.02971" lon="7.68389">
        <ele>1488</ele>
        <time>2021-11-15T03:09:34.504Z</time>
      </trkpt>
      <trkpt lat="44.02978" lon="7.68383">
        <ele>1491</ele>
        <time>2021-11-15T03:09:48.379Z</time>
      </trkpt>
      <trkpt lat="44.02981" lon="7.68386">
        <ele>1493</ele>
        <time>2021-11-15T03:10:02.255Z</time>
      </trkpt>
      <trkpt lat="44.02987" lon="7.68423">
        <ele>1496</ele>
        <time>2021-11-15T03:10:16.135Z</time>
      </trkpt>
      <trkpt lat="44.02979" lon="7.68478">
        <ele>1498</ele>
        <time>2021-11-15T03:10:30.021Z</time>
      </trkpt>
      <trkpt lat="44.0296" lon="7.68556">
        <ele>1501</ele>
        <time>2021-11-15T03:10:43.917Z</time>
      </trkpt>
      <trkpt lat="44.02954" lon="7.68603">
        <ele>1504</ele>
        <time>2021-11-15T03:10:57.818Z</time>
      </trkpt>
      <trkpt lat="44.02959" lon="7.68676">
        <ele>1506</ele>
        <time>2021-11-15T03:11:11.728Z</time>
      </trkpt>
      <trkpt lat="44.02961" lon="7.68684">
        <ele>1509</ele>
        <time>2021-11-15T03:11:25.639Z</time>
      </trkpt>
      <trkpt lat="44.02966" lon="7.68685">
        <ele>1511</ele>
        <time>2021-11-15T03:11:39.551Z</time>
      </trkpt>
      <trkpt lat="44.02971" lon="7.68681">
        <ele>1514</ele>
        <time>2021-11-15T03:11:53.464Z</time>
      </trkpt>
      <trkpt lat="44.02971" lon="7.68649">
        <ele>1516</ele>
        <time>2021-11-15T03:12:07.380Z</time>
      </trkpt>
      <trkpt lat="44.02978" lon="7.68617">
        <ele>1518</ele>
        <time>2021-11-15T03:12:21.300Z</time>
      </trkpt>
      <trkpt lat="44.03042" lon="7.68461">
        <ele>1521</ele>
        <time>2021-11-15T03:12:35.241Z</time>
      </trkpt>
      <trkpt lat="44.03045" lon="7.68449">
        <ele>1523</ele>
        <time>2021-11-15T03:12:49.183Z</time>
      </trkpt>
      <trkpt lat="44.03044" lon="7.68409">
        <ele>1525</ele>
        <time>2021-11-15T03:13:03.130Z</time>
      </trkpt>
      <trkpt lat="44.03053" lon="7.68384">
        <ele>1527</ele>
        <time>2021-11-15T03:13:17.080Z</time>
      </trkpt>
      <trkpt lat="44.03061" lon="7.68376">
        <ele>1530</ele>
        <time>2021-11-15T03:13:31.032Z</time>
      </trkpt>
      <trkpt lat="44.031" lon="7.68357">
        <ele>1532</ele>
        <time>2021-11-15T03:13:44.990Z</time>
      </trkpt>
      <trkpt lat="44.03121" lon="7.68354">
        <ele>1534</ele>
        <time>2021-11-15T03:13:58.952Z</time>
      </trkpt>
      <trkpt lat="44.03152" lon="7.68355">
        <ele>1536</ele>
        <time>2021-11-15T03:14:12.919Z</time>
      </trkpt>
      <trkpt lat="44.03194" lon="7.68349">
        <ele>1539</ele>
        <time>2021-11-15T03:14:26.892Z</time>
      </trkpt>
      <trkpt lat="44.03205" lon="7.68343">
        <ele>1540</ele>
        <time>2021-11-15T03:14:40.867Z</time>
      </trkpt>
      <trkpt lat="44.0321" lon="7.68334">
        <ele>1542</ele>
        <time>2021-11-15T03:14:54.844Z</time>
      </trkpt>
      <trkpt lat="44.03211" lon="7.68319">
        <ele>1544</ele>
        <time>2021-11-15T03:15:08.822Z</time>
      </trkpt>
      <trkpt lat="44.03204" lon="7.68308">
        <ele>1546</ele>
        <time>2021-11-15T03:15:22.802Z</time>
      </trkpt>
      <trkpt lat="44.03168" lon="7.68277">
        <ele>1547</ele>
        <time>2021-11-15T03:15:36.789Z</time>
      </trkpt>
      <trkpt lat="44.03143" lon="7.68249">
        <ele>1549</ele>
        <time>2021-11-15T03:15:50.781Z</time>
      </trkpt>
      <trkpt lat="44.03131" lon="7.68224">
        <ele>1551</ele>
        <time>2021-11-15T03:16:04.776Z</time>
      </trkpt>
      <trkpt lat="44.03134" lon="7.68209">
        <ele>1552</ele>
        <time>2021-11-15T03:16:18.773Z</time>
      </trkpt>
      <trkpt lat="44.0314" lon="7.68211">
        <ele>1554</ele>
        <time>2021-11-15T03:16:32.771Z</time>
      </trkpt>
      <trkpt lat="44.03147" lon="7.68219">
        <ele>1555</ele>
        <time>2021-11-15T03:16:46.771Z</time>
      </trkpt>
      <trkpt lat="44.03162" lon="7.68247">
        <ele>1557</ele>
        <time>2021-11-15T03:17:00.775Z</time>
      </trkpt>
      <trkpt lat="44.03213" lon="7.68273">
        <ele>1558</ele>
        <time>2021-11-15T03:17:14.787Z</time>
      </trkpt>
      <trkpt lat="44.03252" lon="7.68271">
        <ele>1560</ele>
        <time>2021-11-15T03:17:28.806Z</time>
      </trkpt>
      <trkpt lat="44.03257" lon="7.68273">
        <ele>1562</ele>
        <time>2021-11-15T03:17:42.826Z</time>
      </trkpt>
      <trkpt lat="44.03264" lon="7.6828">
        <ele>1563</ele>
        <time>2021-11-15T03:17:56.847Z</time>
      </trkpt>
      <trkpt lat="44.03275" lon="7.6831">
        <ele>1564</ele>
        <time>2021-11-15T03:18:10.872Z</time>
      </trkpt>
      <trkpt lat="44.0328" lon="7.68313">
        <ele>1566</ele>
        <time>2021-11-15T03:18:24.898Z</time>
      </trkpt>
      <trkpt lat="44.03286" lon="7.68309">
        <ele>1567</ele>
        <time>2021-11-15T03:18:38.925Z</time>
      </trkpt>
      <trkpt lat="44.03288" lon="7.68301">
        <ele>1569</ele>
        <time>2021-11-15T03:18:52.953Z</time>
      </trkpt>
      <trkpt lat="44.03283" lon="7.68286">
        <ele>1570</ele>
        <time>2021-11-15T03:19:06.983Z</time>
      </trkpt>
      <trkpt lat="44.0328" lon="7.68253">
        <ele>1572</ele>
        <time>2021-11-15T03:19:21.016Z</time>
      </trkpt>
      <trkpt lat="44.03276" lon="7.68248">
        <ele>1573</ele>
        <time>2021-11-15T03:19:35.050Z</time>
      </trkpt>
      <trkpt lat="44.03246" lon="7.68254">
        <ele>1574</ele>
        <time>2021-11-15T03:19:49.089Z</time>
      </trkpt>
      <trkpt lat="44.03236" lon="7.6825">
        <ele>1576</ele>
        <time>2021-11-15T03:20:03.130Z</time>
      </trkpt>
      <trkpt lat="44.03228" lon="7.68244">
        <ele>1577</ele>
        <time>2021-11-15T03:20:17.172Z</time>
      </trkpt>
      <trkpt lat="44.03212" lon="7.68221">
        <ele>1579</ele>
        <time>2021-11-15T03:20:31.218Z</time>
      </trkpt>
      <trkpt lat="44.032" lon="7.68193">
        <ele>1581</ele>
        <time>2021-11-15T03:20:45.268Z</time>
      </trkpt>
      <trkpt lat="44.03199" lon="7.68165">
        <ele>1583</ele>
        <time>2021-11-15T03:20:59.321Z</time>
      </trkpt>
      <trkpt lat="44.03188" lon="7.68088">
        <ele>1584</ele>
        <time>2021-11-15T03:21:13.383Z</time>
      </trkpt>
      <trkpt lat="44.03191" lon="7.68042">
        <ele>1586</ele>
        <time>2021-11-15T03:21:27.450Z</time>
      </trkpt>
      <trkpt lat="44.03187" lon="7.67998">
        <ele>1588</ele>
        <time>2021-11-15T03:21:41.522Z</time>
      </trkpt>
      <trkpt lat="44.03178" lon="7.67984">
        <ele>1590</ele>
        <time>2021-11-15T03:21:55.597Z</time>
      </trkpt>
      <trkpt lat="44.03151" lon="7.67966">
        <ele>1592</ele>
        <time>2021-11-15T03:22:09.676Z</time>
      </trkpt>
      <trkpt lat="44.0314" lon="7.67955">
        <ele>1594</ele>
        <time>2021-11-15T03:22:23.758Z</time>
      </trkpt>
      <trkpt lat="44.03107" lon="7.67914">
        <ele>1596</ele>
        <time>2021-11-15T03:22:37.847Z</time>
      </trkpt>
      <trkpt lat="44.03102" lon="7.6791">
        <ele>1598</ele>
        <time>2021-11-15T03:22:51.937Z</time>
      </trkpt>
      <trkpt lat="44.03088" lon="7.67907">
        <ele>1601</ele>
        <time>2021-11-15T03:23:06.029Z</time>
      </trkpt>
      <trkpt lat="44.0308" lon="7.67911">
        <ele>1603</ele>
        <time>2021-11-15T03:23:20.122Z</time>
      </trkpt>
      <trkpt lat="44.02973" lon="7.68018">
        <ele>1607</ele>
        <time>2021-11-15T03:23:34.236Z</time>
      </trkpt>
      <trkpt lat="44.02941" lon="7.68038">
        <ele>1610</ele>
        <time>2021-11-15T03:23:48.356Z</time>
      </trkpt>
      <trkpt lat="44.02888" lon="7.68038">
        <ele>1613</ele>
        <time>2021-11-15T03:24:02.484Z</time>
      </trkpt>
      <trkpt lat="44.0284" lon="7.68053">
        <ele>1616</ele>
        <time>2021-11-15T03:24:16.620Z</time>
      </trkpt>
      <trkpt lat="44.02731" lon="7.68126">
        <ele>1618</ele>
        <time>2021-11-15T03:24:30.776Z</time>
      </trkpt>
      <trkpt lat="44.02699" lon="7.68143">
        <ele>1621</ele>
        <time>2021-11-15T03:24:44.937Z</time>
      </trkpt>
      <trkpt lat="44.02644" lon="7.68163">
        <ele>1624</ele>
        <time>2021-11-15T03:24:59.107Z</time>
      </trkpt>
      <trkpt lat="44.02634" lon="7.68164">
        <ele>1626</ele>
        <time>2021-11-15T03:25:13.279Z</time>
      </trkpt>
      <trkpt lat="44.02629" lon="7.68159">
        <ele>1629</ele>
        <time>2021-11-15T03:25:27.452Z</time>
      </trkpt>
      <trkpt lat="44.02629" lon="7.68154">
        <ele>1632</ele>
        <time>2021-11-15T03:25:41.625Z</time>
      </trkpt>
      <trkpt lat="44.02634" lon="7.68148">
        <ele>1635</ele>
        <time>2021-11-15T03:25:55.800Z</time>
      </trkpt>
      <trkpt lat="44.02657" lon="7.6814">
        <ele>1638</ele>
        <time>2021-11-15T03:26:09.978Z</time>
      </trkpt>
      <trkpt lat="44.02675" lon="7.68128">
        <ele>1641</ele>
        <time>2021-11-15T03:26:24.160Z</time>
      </trkpt>
      <trkpt lat="44.02706" lon="7.68093">
        <ele>1644</ele>
        <time>2021-11-15T03:26:38.348Z</time>
      </trkpt>
      <trkpt lat="44.02739" lon="7.68037">
        <ele>1648</ele>
        <time>2021-11-15T03:26:52.544Z</time>
      </trkpt>
      <trkpt lat="44.02771" lon="7.68005">
        <ele>1651</ele>
        <time>2021-11-15T03:27:06.747Z</time>
      </trkpt>
      <trkpt lat="44.02806" lon="7.67974">
        <ele>1654</ele>
        <time>2021-11-15T03:27:20.956Z</time>
      </trkpt>
      <trkpt lat="44.02842" lon="7.6796">
        <ele>1657</ele>
        <time>2021-11-15T03:27:35.171Z</time>
      </trkpt>
      <trkpt lat="44.02855" lon="7.67939">
        <ele>1660</ele>
        <time>2021-11-15T03:27:49.389Z</time>
      </trkpt>
      <trkpt lat="44.02879" lon="7.67916">
        <ele>1663</ele>
        <time>2021-11-15T03:28:03.612Z</time>
      </trkpt>
      <trkpt lat="44.02914" lon="7.67868">
        <ele>1666</ele>
        <time>2021-11-15T03:28:17.843Z</time>
      </trkpt>
      <trkpt lat="44.0296" lon="7.67817">
        <ele>1669</ele>
        <time>2021-11-15T03:28:32.083Z</time>
      </trkpt>
      <trkpt lat="44.03056" lon="7.67674">
        <ele>1673</ele>
        <time>2021-11-15T03:28:46.346Z</time>
      </trkpt>
      <trkpt lat="44.03064" lon="7.67672">
        <ele>1676</ele>
        <time>2021-11-15T03:29:00.610Z</time>
      </trkpt>
      <trkpt lat="44.0307" lon="7.67676">
        <ele>1679</ele>
        <time>2021-11-15T03:29:14.875Z</time>
      </trkpt>
      <trkpt lat="44.03079" lon="7.67691">
        <ele>1681</ele>
        <time>2021-11-15T03:29:29.143Z</time>
      </trkpt>
      <trkpt lat="44.03092" lon="7.67697">
        <ele>1684</ele>
        <time>2021-11-15T03:29:43.413Z</time>
      </trkpt>
      <trkpt lat="44.03112" lon="7.677">
        <ele>1686</ele>
        <time>2021-11-15T03:29:57.686Z</time>
      </trkpt>
      <trkpt lat="44.03163" lon="7.67697">
        <ele>1689</ele>
        <time>2021-11-15T03:30:11.967Z</time>
      </trkpt>
      <trkpt lat="44.03181" lon="7.67706">
        <ele>1691</ele>
        <time>2021-11-15T03:30:26.251Z</time>
      </trkpt>
      <trkpt lat="44.03196" lon="7.67725">
        <ele>1693</ele>
        <time>2021-11-15T03:30:40.538Z</time>
      </trkpt>
      <trkpt lat="44.03214" lon="7.67758">
        <ele>1695</ele>
        <time>2021-11-15T03:30:54.830Z</time>
      </trkpt>
      <trkpt lat="44.03236" lon="7.67783">
        <ele>1697</ele>
        <time>2021-11-15T03:31:09.127Z</time>
      </trkpt>
      <trkpt lat="44.033" lon="7.67813">
        <ele>1700</ele>
        <time>2021-11-15T03:31:23.435Z</time>
      </trkpt>
      <trkpt lat="44.0333" lon="7.67842">
        <ele>1701</ele>
        <time>2021-11-15T03:31:37.748Z</time>
      </trkpt>
      <trkpt lat="44.0336" lon="7.67886">
        <ele>1703</ele>
        <time>2021-11-15T03:31:52.068Z</time>
      </trkpt>
      <trkpt lat="44.03369" lon="7.67919">
        <ele>1704</ele>
        <time>2021-11-15T03:32:06.392Z</time>
      </trkpt>
      <trkpt lat="44.03373" lon="7.67927">
        <ele>1706</ele>
        <time>2021-11-15T03:32:20.718Z</time>
      </trkpt>
      <trkpt lat="44.03379" lon="7.6793">
        <ele>1707</ele>
        <time>2021-11-15T03:32:35.045Z</time>
      </trkpt>
      <trkpt lat="44.03378" lon="7.67907">
        <ele>1691</ele>
        <time>2021-11-15T03:32:49.374Z</time>
      </trkpt>
      <trkpt lat="44.03361" lon="7.67857">
        <ele>1693</ele>
        <time>2021-11-15T03:33:03.710Z</time>
      </trkpt>
      <trkpt lat="44.0331" lon="7.67785">
        <ele>1695</ele>
        <time>2021-11-15T03:33:18.057Z</time>
      </trkpt>
      <trkpt lat="44.03298" lon="7.67772">
        <ele>1697</ele>
        <time>2021-11-15T03:33:32.407Z</time>
      </trkpt>
      <trkpt lat="44.03269" lon="7.67754">
        <ele>1699</ele>
        <time>2021-11-15T03:33:46.762Z</time>
      </trkpt>
      <trkpt lat="44.03255" lon="7.67731">
        <ele>1703</ele>
        <time>2021-11-15T03:34:01.120Z</time>
      </trkpt>
      <trkpt lat="44.03236" lon="7.67664">
        <ele>1705</ele>
        <time>2021-11-15T03:34:15.487Z</time>
      </trkpt>
      <trkpt lat="44.03231" lon="7.67655">
        <ele>1708</ele>
        <time>2021-11-15T03:34:29.855Z</time>
      </trkpt>
      <trkpt lat="44.03234" lon="7.6759">
        <ele>1713</ele>
        <time>2021-11-15T03:34:44.230Z</time>
      </trkpt>
      <trkpt lat="44.03232" lon="7.67563">
        <ele>1712</ele>
        <time>2021-11-15T03:34:58.609Z</time>
      </trkpt>
      <trkpt lat="44.03225" lon="7.6754">
        <ele>1712</ele>
        <time>2021-11-15T03:35:12.990Z</time>
      </trkpt>
      <trkpt lat="44.03193" lon="7.67473">
        <ele>1711</ele>
        <time>2021-11-15T03:35:27.381Z</time>
      </trkpt>
      <trkpt lat="44.03163" lon="7.67422">
        <ele>1711</ele>
        <time>2021-11-15T03:35:41.779Z</time>
      </trkpt>
      <trkpt lat="44.03124" lon="7.67313">
        <ele>1710</ele>
        <time>2021-11-15T03:35:56.191Z</time>
      </trkpt>
      <trkpt lat="44.03125" lon="7.67289">
        <ele>1709</ele>
        <time>2021-11-15T03:36:10.606Z</time>
      </trkpt>
      <trkpt lat="44.03135" lon="7.67276">
        <ele>1707</ele>
        <time>2021-11-15T03:36:25.023Z</time>
      </trkpt>
      <trkpt lat="44.03174" lon="7.67244">
        <ele>1706</ele>
        <time>2021-11-15T03:36:39.448Z</time>
      </trkpt>
      <trkpt lat="44.03222" lon="7.67155">
        <ele>1704</ele>
        <time>2021-11-15T03:36:53.885Z</time>
      </trkpt>
      <trkpt lat="44.03235" lon="7.67116">
        <ele>1702</ele>
        <time>2021-11-15T03:37:08.327Z</time>
      </trkpt>
      <trkpt lat="44.03242" lon="7.67078">
        <ele>1701</ele>
        <time>2021-11-15T03:37:22.774Z</time>
      </trkpt>
      <trkpt lat="44.03253" lon="7.67061">
        <ele>1699</ele>
        <time>2021-11-15T03:37:37.224Z</time>
      </trkpt>
      <trkpt lat="44.03275" lon="7.67046">
        <ele>1697</ele>
        <time>2021-11-15T03:37:51.677Z</time>
      </trkpt>
      <trkpt lat="44.03282" lon="7.67044">
        <ele>1696</ele>
        <time>2021-11-15T03:38:06.132Z</time>
      </trkpt>
      <trkpt lat="44.03291" lon="7.67047">
        <ele>1694</ele>
        <time>2021-11-15T03:38:20.588Z</time>
      </trkpt>
      <trkpt lat="44.03352" lon="7.67112">
        <ele>1691</ele>
        <time>2021-11-15T03:38:35.056Z</time>
      </trkpt>
      <trkpt lat="44.03363" lon="7.67117">
        <ele>1689</ele>
        <time>2021-11-15T03:38:49.526Z</time>
      </trkpt>
      <trkpt lat="44.03378" lon="7.67118">
        <ele>1687</ele>
        <time>2021-11-15T03:39:03.999Z</time>
      </trkpt>
      <trkpt lat="44.03496" lon="7.67083">
        <ele>1684</ele>
        <time>2021-11-15T03:39:18.491Z</time>
      </trkpt>
      <trkpt lat="44.03617" lon="7.6702">
        <ele>1681</ele>
        <time>2021-11-15T03:39:33.004Z</time>
      </trkpt>
      <trkpt lat="44.03629" lon="7.67005">
        <ele>1679</ele>
        <time>2021-11-15T03:39:47.519Z</time>
      </trkpt>
      <trkpt lat="44.03635" lon="7.66988">
        <ele>1677</ele>
        <time>2021-11-15T03:40:02.036Z</time>
      </trkpt>
      <trkpt lat="44.03627" lon="7.66914">
        <ele>1675</ele>
        <time>2021-11-15T03:40:16.562Z</time>
      </trkpt>
      <trkpt lat="44.03669" lon="7.66805">
        <ele>1672</ele>
        <time>2021-11-15T03:40:31.102Z</time>
      </trkpt>
      <trkpt lat="44.03674" lon="7.668">
        <ele>1669</ele>
        <time>2021-11-15T03:40:45.643Z</time>
      </trkpt>
      <trkpt lat="44.03683" lon="7.668">
        <ele>1667</ele>
        <time>2021-11-15T03:41:00.186Z</time>
      </trkpt>
      <trkpt lat="44.03701" lon="7.66814">
        <ele>1664</ele>
        <time>2021-11-15T03:41:14.732Z</time>
      </trkpt>
      <trkpt lat="44.03715" lon="7.66813">
        <ele>1661</ele>
        <time>2021-11-15T03:41:29.280Z</time>
      </trkpt>
      <trkpt lat="44.03729" lon="7.66821">
        <ele>1658</ele>
        <time>2021-11-15T03:41:43.831Z</time>
      </trkpt>
      <trkpt lat="44.03746" lon="7.66822">
        <ele>1655</ele>
        <time>2021-11-15T03:41:58.384Z</time>
      </trkpt>
      <trkpt lat="44.03842" lon="7.66791">
        <ele>1652</ele>
        <time>2021-11-15T03:42:12.953Z</time>
      </trkpt>
      <trkpt lat="44.03854" lon="7.66791">
        <ele>1649</ele>
        <time>2021-11-15T03:42:27.524Z</time>
      </trkpt>
      <trkpt lat="44.03902" lon="7.6681">
        <ele>1646</ele>
        <time>2021-11-15T03:42:42.103Z</time>
      </trkpt>
      <trkpt lat="44.03968" lon="7.66807">
        <ele>1643</ele>
        <time>2021-11-15T03:42:56.693Z</time>
      </trkpt>
      <trkpt lat="44.03979" lon="7.6681">
        <ele>1639</ele>
        <time>2021-11-15T03:43:11.284Z</time>
      </trkpt>
      <trkpt lat="44.04053" lon="7.6686">
        <ele>1635</ele>
        <time>2021-11-15T03:43:25.889Z</time>
      </trkpt>
      <trkpt lat="44.04079" lon="7.66866">
        <ele>1632</ele>
        <time>2021-11-15T03:43:40.498Z</time>
      </trkpt>
      <trkpt lat="44.04116" lon="7.66885">
        <ele>1628</ele>
        <time>2021-11-15T03:43:55.113Z</time>
      </trkpt>
      <trkpt lat="44.0414" lon="7.66903">
        <ele>1624</ele>
        <time>2021-11-15T03:44:09.733Z</time>
      </trkpt>
      <trkpt lat="44.04151" lon="7.66898">
        <ele>1620</ele>
        <time>2021-11-15T03:44:24.354Z</time>
      </trkpt>
      <trkpt lat="44.04156" lon="7.66882">
        <ele>1616</ele>
        <time>2021-11-15T03:44:38.977Z</time>
      </trkpt>
      <trkpt lat="44.04154" lon="7.66871">
        <ele>1612</ele>
        <time>2021-11-15T03:44:53.602Z</time>
      </trkpt>
      <trkpt lat="44.04099" lon="7.66782">
        <ele>1608</ele>
        <time>2021-11-15T03:45:08.240Z</time>
      </trkpt>
      <trkpt lat="44.04096" lon="7.66765">
        <ele>1604</ele>
        <time>2021-11-15T03:45:22.880Z</time>
      </trkpt>
      <trkpt lat="44.04083" lon="7.66602">
        <ele>1599</ele>
        <time>2021-11-15T03:45:37.539Z</time>
      </trkpt>
      <trkpt lat="44.04086" lon="7.66578">
        <ele>1595</ele>
        <time>2021-11-15T03:45:52.201Z</time>
      </trkpt>
      <trkpt lat="44.0411" lon="7.66494">
        <ele>1589</ele>
        <time>2021-11-15T03:46:06.873Z</time>
      </trkpt>
      <trkpt lat="44.04112" lon="7.66476">
        <ele>1585</ele>
        <time>2021-11-15T03:46:21.548Z</time>
      </trkpt>
      <trkpt lat="44.04081" lon="7.66397">
        <ele>1581</ele>
        <time>2021-11-15T03:46:36.233Z</time>
      </trkpt>
      <trkpt lat="44.04083" lon="7.66322">
        <ele>1575</ele>
        <time>2021-11-15T03:46:50.927Z</time>
      </trkpt>
      <trkpt lat="44.04094" lon="7.66299">
        <ele>1570</ele>
        <time>2021-11-15T03:47:05.624Z</time>
      </trkpt>
      <trkpt lat="44.04099" lon="7.66275">
        <ele>1566</ele>
        <time>2021-11-15T03:47:20.324Z</time>
      </trkpt>
      <trkpt lat="44.04137" lon="7.66211">
        <ele>1561</ele>
        <time>2021-11-15T03:47:35.033Z</time>
      </trkpt>
      <trkpt lat="44.04176" lon="7.66123">
        <ele>1556</ele>
        <time>2021-11-15T03:47:49.754Z</time>
      </trkpt>
      <trkpt lat="44.04239" lon="7.66025">
        <ele>1551</ele>
        <time>2021-11-15T03:48:04.490Z</time>
      </trkpt>
      <trkpt lat="44.04339" lon="7.6589">
        <ele>1546</ele>
        <time>2021-11-15T03:48:19.249Z</time>
      </trkpt>
      <trkpt lat="44.04424" lon="7.65802">
        <ele>1541</ele>
        <time>2021-11-15T03:48:34.025Z</time>
      </trkpt>
      <trkpt lat="44.04436" lon="7.65794">
        <ele>1536</ele>
        <time>2021-11-15T03:48:48.803Z</time>
      </trkpt>
      <trkpt lat="44.04572" lon="7.65757">
        <ele>1531</ele>
        <time>2021-11-15T03:49:03.603Z</time>
      </trkpt>
      <trkpt lat="44.04589" lon="7.6575">
        <ele>1527</ele>
        <time>2021-11-15T03:49:18.406Z</time>
      </trkpt>
      <trkpt lat="44.04613" lon="7.65724">
        <ele>1522</ele>
        <time>2021-11-15T03:49:33.214Z</time>
      </trkpt>
      <trkpt lat="44.04626" lon="7.65719">
        <ele>1518</ele>
        <time>2021-11-15T03:49:48.024Z</time>
      </trkpt>
      <trkpt lat="44.0465" lon="7.65726">
        <ele>1513</ele>
        <time>2021-11-15T03:50:02.838Z</time>
      </trkpt>
      <trkpt lat="44.04661" lon="7.65723">
        <ele>1509</ele>
        <time>2021-11-15T03:50:17.653Z</time>
      </trkpt>
      <trkpt lat="44.04682" lon="7.65692">
        <ele>1504</ele>
        <time>2021-11-15T03:50:32.473Z</time>
      </trkpt>
      <trkpt lat="44.0471" lon="7.65665">
        <ele>1500</ele>
        <time>2021-11-15T03:50:47.299Z</time>
      </trkpt>
      <trkpt lat="44.04732" lon="7.65619">
        <ele>1496</ele>
        <time>2021-11-15T03:51:02.131Z</time>
      </trkpt>
      <trkpt lat="44.04756" lon="7.65623">
        <ele>1492</ele>
        <time>2021-11-15T03:51:16.967Z</time>
      </trkpt>
      <trkpt lat="44.04792" lon="7.65623">
        <ele>1488</ele>
        <time>2021-11-15T03:51:31.809Z</time>
      </trkpt>
      <trkpt lat="44.04847" lon="7.6557">
        <ele>1484</ele>
        <time>2021-11-15T03:51:46.662Z</time>
      </trkpt>
      <trkpt lat="44.04869" lon="7.65556">
        <ele>1480</ele>
        <time>2021-11-15T03:52:01.518Z</time>
      </trkpt>
      <trkpt lat="44.04956" lon="7.6553">
        <ele>1476</ele>
        <time>2021-11-15T03:52:16.389Z</time>
      </trkpt>
      <trkpt lat="44.04969" lon="7.65516">
        <ele>1472</ele>
        <time>2021-11-15T03:52:31.262Z</time>
      </trkpt>
      <trkpt lat="44.04974" lon="7.65504">
        <ele>1469</ele>
        <time>2021-11-15T03:52:46.137Z</time>
      </trkpt>
      <trkpt lat="44.05004" lon="7.65368">
        <ele>1465</ele>
        <time>2021-11-15T03:53:01.028Z</time>
      </trkpt>
      <trkpt lat="44.05024" lon="7.65333">
        <ele>1462</ele>
        <time>2021-11-15T03:53:15.924Z</time>
      </trkpt>
      <trkpt lat="44.05061" lon="7.65305">
        <ele>1459</ele>
        <time>2021-11-15T03:53:30.827Z</time>
      </trkpt>
      <trkpt lat="44.05091" lon="7.65273">
        <ele>1456</ele>
        <time>2021-11-15T03:53:45.736Z</time>
      </trkpt>
      <trkpt lat="44.05115" lon="7.65255">
        <ele>1453</ele>
        <time>2021-11-15T03:54:00.650Z</time>
      </trkpt>
      <trkpt lat="44.05151" lon="7.65246">
        <ele>1450</ele>
        <time>2021-11-15T03:54:15.569Z</time>
      </trkpt>
      <trkpt lat="44.05178" lon="7.65221">
        <ele>1448</ele>
        <time>2021-11-15T03:54:30.494Z</time>
      </trkpt>
      <trkpt lat="44.05184" lon="7.65207">
        <ele>1445</ele>
        <time>2021-11-15T03:54:45.421Z</time>
      </trkpt>
      <trkpt lat="44.05203" lon="7.65188">
        <ele>1443</ele>
        <time>2021-11-15T03:55:00.351Z</time>
      </trkpt>
      <trkpt lat="44.05262" lon="7.65155">
        <ele>1441</ele>
        <time>2021-11-15T03:55:15.291Z</time>
      </trkpt>
      <trkpt lat="44.05344" lon="7.65103">
        <ele>1439</ele>
        <time>2021-11-15T03:55:30.246Z</time>
      </trkpt>
      <trkpt lat="44.05389" lon="7.65052">
        <ele>1437</ele>
        <time>2021-11-15T03:55:45.210Z</time>
      </trkpt>
      <trkpt lat="44.05403" lon="7.65027">
        <ele>1436</ele>
        <time>2021-11-15T03:56:00.178Z</time>
      </trkpt>
      <trkpt lat="44.0541" lon="7.65004">
        <ele>1434</ele>
        <time>2021-11-15T03:56:15.149Z</time>
      </trkpt>
      <trkpt lat="44.05421" lon="7.64918">
        <ele>1432</ele>
        <time>2021-11-15T03:56:30.130Z</time>
      </trkpt>
      <trkpt lat="44.05423" lon="7.64876">
        <ele>1430</ele>
        <time>2021-11-15T03:56:45.116Z</time>
      </trkpt>
      <trkpt lat="44.05402" lon="7.64771">
        <ele>1428</ele>
        <time>2021-11-15T03:57:00.114Z</time>
      </trkpt>
      <trkpt lat="44.05407" lon="7.64757">
        <ele>1426</ele>
        <time>2021-11-15T03:57:15.114Z</time>
      </trkpt>
      <trkpt lat="44.05455" lon="7.64696">
        <ele>1425</ele>
        <time>2021-11-15T03:57:30.124Z</time>
      </trkpt>
      <trkpt lat="44.05466" lon="7.64677">
        <ele>1423</ele>
        <time>2021-11-15T03:57:45.137Z</time>
      </trkpt>
      <trkpt lat="44.05476" lon="7.64651">
        <ele>1422</ele>
        <time>2021-11-15T03:58:00.154Z</time>
      </trkpt>
      <trkpt lat="44.05482" lon="7.64621">
        <ele>1420</ele>
        <time>2021-11-15T03:58:15.174Z</time>
      </trkpt>
      <trkpt lat="44.05482" lon="7.64601">
        <ele>1418</ele>
        <time>2021-11-15T03:58:30.197Z</time>
      </trkpt>
      <trkpt lat="44.05501" lon="7.64562">
        <ele>1416</ele>
        <time>2021-11-15T03:58:45.225Z</time>
      </trkpt>
      <trkpt lat="44.05504" lon="7.6454">
        <ele>1414</ele>
        <time>2021-11-15T03:59:00.256Z</time>
      </trkpt>
      <trkpt lat="44.05496" lon="7.64412">
        <ele>1412</ele>
        <time>2021-11-15T03:59:15.301Z</time>
      </trkpt>
      <trkpt lat="44.0548" lon="7.64327">
        <ele>1410</ele>
        <time>2021-11-15T03:59:30.357Z</time>
      </trkpt>
      <trkpt lat="44.05479" lon="7.64278">
        <ele>1408</ele>
        <time>2021-11-15T03:59:45.418Z</time>
      </trkpt>
      <trkpt lat="44.05498" lon="7.642">
        <ele>1405</ele>
        <time>2021-11-15T04:00:00.489Z</time>
      </trkpt>
      <trkpt lat="44.05509" lon="7.64171">
        <ele>1403</ele>
        <time>2021-11-15T04:00:15.563Z</time>
      </trkpt>
      <trkpt lat="44.05522" lon="7.64154">
        <ele>1401</ele>
        <time>2021-11-15T04:00:30.640Z</time>
      </trkpt>
      <trkpt lat="44.05521" lon="7.64144">
        <ele>1398</ele>
        <time>2021-11-15T04:00:45.719Z</time>
      </trkpt>
      <trkpt lat="44.05514" lon="7.64142">
        <ele>1396</ele>
        <time>2021-11-15T04:01:00.799Z</time>
      </trkpt>
      <trkpt lat="44.05486" lon="7.64164">
        <ele>1393</ele>
        <time>2021-11-15T04:01:15.884Z</time>
      </trkpt>
      <trkpt lat="44.05473" lon="7.6418">
        <ele>1391</ele>
        <time>2021-11-15T04:01:30.972Z</time>
      </trkpt>
      <trkpt lat="44.05463" lon="7.64209">
        <ele>1388</ele>
        <time>2021-11-15T04:01:46.063Z</time>
      </trkpt>
      <trkpt lat="44.05456" lon="7.64211">
        <ele>1386</ele>
        <time>2021-11-15T04:02:01.155Z</time>
      </trkpt>
      <trkpt lat="44.05453" lon="7.64204">
        <ele>1383</ele>
        <time>2021-11-15T04:02:16.248Z</time>
      </trkpt>
      <trkpt lat="44.0548" lon="7.63982">
        <ele>1379</ele>
        <time>2021-11-15T04:02:31.367Z</time>
      </trkpt>
      <trkpt lat="44.05491" lon="7.63935">
        <ele>1375</ele>
        <time>2021-11-15T04:02:46.492Z</time>
      </trkpt>
      <trkpt lat="44.05504" lon="7.63918">
        <ele>1373</ele>
        <time>2021-11-15T04:03:01.620Z</time>
      </trkpt>
      <trkpt lat="44.05504" lon="7.63909">
        <ele>1369</ele>
        <time>2021-11-15T04:03:16.749Z</time>
      </trkpt>
      <trkpt lat="44.05498" lon="7.63906">
        <ele>1366</ele>
        <time>2021-11-15T04:03:31.879Z</time>
      </trkpt>
      <trkpt lat="44.05481" lon="7.63926">
        <ele>1363</ele>
        <time>2021-11-15T04:03:47.013Z</time>
      </trkpt>
      <trkpt lat="44.05452" lon="7.63995">
        <ele>1360</ele>
        <time>2021-11-15T04:04:02.156Z</time>
      </trkpt>
      <trkpt lat="44.05444" lon="7.63998">
        <ele>1357</ele>
        <time>2021-11-15T04:04:17.300Z</time>
      </trkpt>
      <trkpt lat="44.05441" lon="7.63989">
        <ele>1354</ele>
        <time>2021-11-15T04:04:32.445Z</time>
      </trkpt>
      <trkpt lat="44.05473" lon="7.63861">
        <ele>1350</ele>
        <time>2021-11-15T04:04:47.606Z</time>
      </trkpt>
      <trkpt lat="44.0548" lon="7.63813">
        <ele>1347</ele>
        <time>2021-11-15T04:05:02.773Z</time>
      </trkpt>
      <trkpt lat="44.0548" lon="7.63783">
        <ele>1343</ele>
        <time>2021-11-15T04:05:17.943Z</time>
      </trkpt>
      <trkpt lat="44.05459" lon="7.63703">
        <ele>1340</ele>
        <time>2021-11-15T04:05:33.123Z</time>
      </trkpt>
      <trkpt lat="44.05454" lon="7.63692">
        <ele>1336</ele>
        <time>2021-11-15T04:05:48.304Z</time>
      </trkpt>
      <trkpt lat="44.05444" lon="7.63688">
        <ele>1333</ele>
        <time>2021-11-15T04:06:03.487Z</time>
      </trkpt>
      <trkpt lat="44.0544" lon="7.63692">
        <ele>1330</ele>
        <time>2021-11-15T04:06:18.671Z</time>
      </trkpt>
      <trkpt lat="44.05438" lon="7.63706">
        <ele>1326</ele>
        <time>2021-11-15T04:06:33.856Z</time>
      </trkpt>
      <trkpt lat="44.05438" lon="7.63769">
        <ele>1323</ele>
        <time>2021-11-15T04:06:49.049Z</time>
      </trkpt>
      <trkpt lat="44.05422" lon="7.63809">
        <ele>1320</ele>
        <time>2021-11-15T04:07:04.247Z</time>
      </trkpt>
      <trkpt lat="44.054" lon="7.63841">
        <ele>1316</ele>
        <time>2021-11-15T04:07:19.450Z</time>
      </trkpt>
      <trkpt lat="44.05392" lon="7.63863">
        <ele>1312</ele>
        <time>2021-11-15T04:07:34.656Z</time>
      </trkpt>
      <trkpt lat="44.05388" lon="7.63886">
        <ele>1309</ele>
        <time>2021-11-15T04:07:49.865Z</time>
      </trkpt>
      <trkpt lat="44.05382" lon="7.63892">
        <ele>1305</ele>
        <time>2021-11-15T04:08:05.075Z</time>
      </trkpt>
      <trkpt lat="44.05378" lon="7.63886">
        <ele>1302</ele>
        <time>2021-11-15T04:08:20.286Z</time>
      </trkpt>
      <trkpt lat="44.05376" lon="7.63876">
        <ele>1298</ele>
        <time>2021-11-15T04:08:35.498Z</time>
      </trkpt>
      <trkpt lat="44.05383" lon="7.6383">
        <ele>1294</ele>
        <time>2021-11-15T04:08:50.715Z</time>
      </trkpt>
      <trkpt lat="44.05384" lon="7.63794">
        <ele>1291</ele>
        <time>2021-11-15T04:09:05.937Z</time>
      </trkpt>
      <trkpt lat="44.05381" lon="7.63777">
        <ele>1287</ele>
        <time>2021-11-15T04:09:21.161Z</time>
      </trkpt>
      <trkpt lat="44.05351" lon="7.637">
        <ele>1283</ele>
        <time>2021-11-15T04:09:36.395Z</time>
      </trkpt>
      <trkpt lat="44.05346" lon="7.63673">
        <ele>1280</ele>
        <time>2021-11-15T04:09:51.632Z</time>
      </trkpt>
      <trkpt lat="44.05348" lon="7.63643">
        <ele>1276</ele>
        <time>2021-11-15T04:10:06.872Z</time>
      </trkpt>
      <trkpt lat="44.05366" lon="7.63528">
        <ele>1272</ele>
        <time>2021-11-15T04:10:22.126Z</time>
      </trkpt>
      <trkpt lat="44.05364" lon="7.63505">
        <ele>1268</ele>
        <time>2021-11-15T04:10:37.383Z</time>
      </trkpt>
      <trkpt lat="44.05346" lon="7.63409">
        <ele>1264</ele>
        <time>2021-11-15T04:10:52.651Z</time>
      </trkpt>
      <trkpt lat="44.0534" lon="7.63343">
        <ele>1260</ele>
        <time>2021-11-15T04:11:07.927Z</time>
      </trkpt>
      <trkpt lat="44.05329" lon="7.63323">
        <ele>1256</ele>
        <time>2021-11-15T04:11:23.206Z</time>
      </trkpt>
      <trkpt lat="44.05289" lon="7.63278">
        <ele>1252</ele>
        <time>2021-11-15T04:11:38.493Z</time>
      </trkpt>
      <trkpt lat="44.05267" lon="7.63263">
        <ele>1248</ele>
        <time>2021-11-15T04:11:53.784Z</time>
      </trkpt>
      <trkpt lat="44.05234" lon="7.63256">
        <ele>1244</ele>
        <time>2021-11-15T04:12:09.080Z</time>
      </trkpt>
      <trkpt lat="44.05155" lon="7.63253">
        <ele>1240</ele>
        <time>2021-11-15T04:12:24.389Z</time>
      </trkpt>
      <trkpt lat="44.0512" lon="7.63255">
        <ele>1237</ele>
        <time>2021-11-15T04:12:39.703Z</time>
      </trkpt>
      <trkpt lat="44.05107" lon="7.6325">
        <ele>1233</ele>
        <time>2021-11-15T04:12:55.020Z</time>
      </trkpt>
      <trkpt lat="44.05121" lon="7.63238">
        <ele>1230</ele>
        <time>2021-11-15T04:13:10.339Z</time>
      </trkpt>
      <trkpt lat="44.05163" lon="7.63234">
        <ele>1226</ele>
        <time>2021-11-15T04:13:25.665Z</time>
      </trkpt>
      <trkpt lat="44.05277" lon="7.63187">
        <ele>1223</ele>
        <time>2021-11-15T04:13:41.010Z</time>
      </trkpt>
      <trkpt lat="44.05359" lon="7.63159">
        <ele>1219</ele>
        <time>2021-11-15T04:13:56.368Z</time>
      </trkpt>
      <trkpt lat="44.0544" lon="7.63116">
        <ele>1215</ele>
        <time>2021-11-15T04:14:11.740Z</time>
      </trkpt>
      <trkpt lat="44.05479" lon="7.63083">
        <ele>1212</ele>
        <time>2021-11-15T04:14:27.120Z</time>
      </trkpt>
      <trkpt lat="44.05536" lon="7.63011">
        <ele>1208</ele>
        <time>2021-11-15T04:14:42.512Z</time>
      </trkpt>
      <trkpt lat="44.05554" lon="7.62996">
        <ele>1205</ele>
        <time>2021-11-15T04:14:57.907Z</time>
      </trkpt>
      <trkpt lat="44.05568" lon="7.62992">
        <ele>1202</ele>
        <time>2021-11-15T04:15:13.305Z</time>
      </trkpt>
      <trkpt lat="44.05585" lon="7.62997">
        <ele>1199</ele>
        <time>2021-11-15T04:15:28.705Z</time>
      </trkpt>
      <trkpt lat="44.056" lon="7.63026">
        <ele>1195</ele>
        <time>2021-11-15T04:15:44.110Z</time>
      </trkpt>
      <trkpt lat="44.05647" lon="7.63219">
        <ele>1192</ele>
        <time>2021-11-15T04:15:59.538Z</time>
      </trkpt>
      <trkpt lat="44.05689" lon="7.63365">
        <ele>1189</ele>
        <time>2021-11-15T04:16:14.984Z</time>
      </trkpt>
      <trkpt lat="44.05741" lon="7.63715">
        <ele>1186</ele>
        <time>2021-11-15T04:16:30.471Z</time>
      </trkpt>
      <trkpt lat="44.05749" lon="7.63744">
        <ele>1183</ele>
        <time>2021-11-15T04:16:45.962Z</time>
      </trkpt>
      <trkpt lat="44.05773" lon="7.63771">
        <ele>1180</ele>
        <time>2021-11-15T04:17:01.458Z</time>
      </trkpt>
      <trkpt lat="44.058" lon="7.63787">
        <ele>1177</ele>
        <time>2021-11-15T04:17:16.959Z</time>
      </trkpt>
      <trkpt lat="44.05832" lon="7.638">
        <ele>1173</ele>
        <time>2021-11-15T04:17:32.465Z</time>
      </trkpt>
      <trkpt lat="44.05903" lon="7.6389">
        <ele>1170</ele>
        <time>2021-11-15T04:17:47.986Z</time>
      </trkpt>
      <trkpt lat="44.05922" lon="7.63942">
        <ele>1167</ele>
        <time>2021-11-15T04:18:03.514Z</time>
      </trkpt>
      <trkpt lat="44.05942" lon="7.63973">
        <ele>1164</ele>
        <time>2021-11-15T04:18:19.047Z</time>
      </trkpt>
      <trkpt lat="44.05986" lon="7.6402">
        <ele>1161</ele>
        <time>2021-11-15T04:18:34.589Z</time>
      </trkpt>
      <trkpt lat="44.05992" lon="7.64041">
        <ele>1157</ele>
        <time>2021-11-15T04:18:50.133Z</time>
      </trkpt>
      <trkpt lat="44.0599" lon="7.64076">
        <ele>1154</ele>
        <time>2021-11-15T04:19:05.681Z</time>
      </trkpt>
      <trkpt lat="44.05997" lon="7.64115">
        <ele>1151</ele>
        <time>2021-11-15T04:19:21.234Z</time>
      </trkpt>
      <trkpt lat="44.06065" lon="7.64226">
        <ele>1147</ele>
        <time>2021-11-15T04:19:36.804Z</time>
      </trkpt>
      <trkpt lat="44.06117" lon="7.64282">
        <ele>1143</ele>
        <time>2021-11-15T04:19:52.384Z</time>
      </trkpt>
      <trkpt lat="44.06121" lon="7.64297">
        <ele>1139</ele>
        <time>2021-11-15T04:20:07.966Z</time>
      </trkpt>
      <trkpt lat="44.06126" lon="7.6435">
        <ele>1136</ele>
        <time>2021-11-15T04:20:23.554Z</time>
      </trkpt>
      <trkpt lat="44.0612" lon="7.64401">
        <ele>1132</ele>
        <time>2021-11-15T04:20:39.148Z</time>
      </trkpt>
      <trkpt lat="44.06092" lon="7.64512">
        <ele>1128</ele>
        <time>2021-11-15T04:20:54.756Z</time>
      </trkpt>
      <trkpt lat="44.0607" lon="7.64584">
        <ele>1125</ele>
        <time>2021-11-15T04:21:10.373Z</time>
      </trkpt>
      <trkpt lat="44.06063" lon="7.64622">
        <ele>1121</ele>
        <time>2021-11-15T04:21:25.994Z</time>
      </trkpt>
      <trkpt lat="44.06057" lon="7.6464">
        <ele>1117</ele>
        <time>2021-11-15T04:21:41.618Z</time>
      </trkpt>
      <trkpt lat="44.06033" lon="7.64673">
        <ele>1114</ele>
        <time>2021-11-15T04:21:57.247Z</time>
      </trkpt>
      <trkpt lat="44.06011" lon="7.6477">
        <ele>1109</ele>
        <time>2021-11-15T04:22:12.888Z</time>
      </trkpt>
      <trkpt lat="44.05994" lon="7.64811">
        <ele>1105</ele>
        <time>2021-11-15T04:22:28.534Z</time>
      </trkpt>
      <trkpt lat="44.05997" lon="7.64818">
        <ele>1102</ele>
        <time>2021-11-15T04:22:44.181Z</time>
      </trkpt>
      <trkpt lat="44.06005" lon="7.64816">
        <ele>1098</ele>
        <time>2021-11-15T04:22:59.830Z</time>
      </trkpt>
      <trkpt lat="44.06059" lon="7.64704">
        <ele>1093</ele>
        <time>2021-11-15T04:23:15.494Z</time>
      </trkpt>
      <trkpt lat="44.06068" lon="7.64698">
        <ele>1089</ele>
        <time>2021-11-15T04:23:31.160Z</time>
      </trkpt>
      <trkpt lat="44.06107" lon="7.64694">
        <ele>1085</ele>
        <time>2021-11-15T04:23:46.832Z</time>
      </trkpt>
      <trkpt lat="44.06118" lon="7.64681">
        <ele>1081</ele>
        <time>2021-11-15T04:24:02.506Z</time>
      </trkpt>
      <trkpt lat="44.06135" lon="7.64645">
        <ele>1077</ele>
        <time>2021-11-15T04:24:18.185Z</time>
      </trkpt>
      <trkpt lat="44.06144" lon="7.64634">
        <ele>1073</ele>
        <time>2021-11-15T04:24:33.866Z</time>
      </trkpt>
      <trkpt lat="44.0619" lon="7.64604">
        <ele>1068</ele>
        <time>2021-11-15T04:24:49.555Z</time>
      </trkpt>
      <trkpt lat="44.06228" lon="7.64552">
        <ele>1064</ele>
        <time>2021-11-15T04:25:05.253Z</time>
      </trkpt>
      <trkpt lat="44.06243" lon="7.64512">
        <ele>1060</ele>
        <time>2021-11-15T04:25:20.956Z</time>
      </trkpt>
      <trkpt lat="44.0628" lon="7.64383">
        <ele>1055</ele>
        <time>2021-11-15T04:25:36.675Z</time>
      </trkpt>
      <trkpt lat="44.06291" lon="7.64311">
        <ele>1051</ele>
        <time>2021-11-15T04:25:52.403Z</time>
      </trkpt>
      <trkpt lat="44.06323" lon="7.64245">
        <ele>1047</ele>
        <time>2021-11-15T04:26:08.140Z</time>
      </trkpt>
      <trkpt lat="44.06347" lon="7.64178">
        <ele>1043</ele>
        <time>2021-11-15T04:26:23.885Z</time>
      </trkpt>
      <trkpt lat="44.06403" lon="7.64078">
        <ele>1038</ele>
        <time>2021-11-15T04:26:39.645Z</time>
      </trkpt>
      <trkpt lat="44.06409" lon="7.64079">
        <ele>1034</ele>
        <time>2021-11-15T04:26:55.406Z</time>
      </trkpt>
      <trkpt lat="44.06411" lon="7.64088">
        <ele>1030</ele>
        <time>2021-11-15T04:27:11.168Z</time>
      </trkpt>
      <trkpt lat="44.06379" lon="7.64165">
        <ele>1027</ele>
        <time>2021-11-15T04:27:26.940Z</time>
      </trkpt>
      <trkpt lat="44.06362" lon="7.64223">
        <ele>1023</ele>
        <time>2021-11-15T04:27:42.720Z</time>
      </trkpt>
      <trkpt lat="44.06352" lon="7.64271">
        <ele>1019</ele>
        <time>2021-11-15T04:27:58.505Z</time>
      </trkpt>
      <trkpt lat="44.06345" lon="7.64333">
        <ele>1015</ele>
        <time>2021-11-15T04:28:14.298Z</time>
      </trkpt>
      <trkpt lat="44.06346" lon="7.64362">
        <ele>1011</ele>
        <time>2021-11-15T04:28:30.094Z</time>
      </trkpt>
      <trkpt lat="44.06376" lon="7.64465">
        <ele>1007</ele>
        <time>2021-11-15T04:28:45.903Z</time>
      </trkpt>
      <trkpt lat="44.06426" lon="7.64524">
        <ele>1003</ele>
        <time>2021-11-15T04:29:01.722Z</time>
      </trkpt>
      <trkpt lat="44.06438" lon="7.64556">
        <ele>1000</ele>
        <time>2021-11-15T04:29:17.545Z</time>
      </trkpt>
      <trkpt lat="44.06438" lon="7.64569">
        <ele>996</ele>
        <time>2021-11-15T04:29:33.370Z</time>
      </trkpt>
      <trkpt lat="44.06415" lon="7.64685">
        <ele>993</ele>
        <time>2021-11-15T04:29:49.209Z</time>
      </trkpt>
      <trkpt lat="44.0642" lon="7.64706">
        <ele>990</ele>
        <time>2021-11-15T04:30:05.050Z</time>
      </trkpt>
      <trkpt lat="44.0644" lon="7.64743">
        <ele>986</ele>
        <time>2021-11-15T04:30:20.897Z</time>
      </trkpt>
      <trkpt lat="44.06439" lon="7.64752">
        <ele>983</ele>
        <time>2021-11-15T04:30:36.745Z</time>
      </trkpt>
      <trkpt lat="44.06429" lon="7.64765">
        <ele>980</ele>
        <time>2021-11-15T04:30:52.595Z</time>
      </trkpt>
      <trkpt lat="44.06403" lon="7.64788">
        <ele>977</ele>
        <time>2021-11-15T04:31:08.450Z</time>
      </trkpt>
      <trkpt lat="44.06394" lon="7.64792">
        <ele>975</ele>
        <time>2021-11-15T04:31:24.306Z</time>
      </trkpt>
      <trkpt lat="44.06332" lon="7.64795">
        <ele>972</ele>
        <time>2021-11-15T04:31:40.172Z</time>
      </trkpt>
      <trkpt lat="44.06317" lon="7.64807">
        <ele>969</ele>
        <time>2021-11-15T04:31:56.041Z</time>
      </trkpt>
      <trkpt lat="44.06308" lon="7.64824">
        <ele>966</ele>
        <time>2021-11-15T04:32:11.912Z</time>
      </trkpt>
      <trkpt lat="44.06295" lon="7.6488">
        <ele>963</ele>
        <time>2021-11-15T04:32:27.790Z</time>
      </trkpt>
      <trkpt lat="44.0627" lon="7.64926">
        <ele>960</ele>
        <time>2021-11-15T04:32:43.675Z</time>
      </trkpt>
      <trkpt lat="44.06261" lon="7.64962">
        <ele>957</ele>
        <time>2021-11-15T04:32:59.564Z</time>
      </trkpt>
      <trkpt lat="44.06252" lon="7.6497">
        <ele>955</ele>
        <time>2021-11-15T04:33:15.455Z</time>
      </trkpt>
      <trkpt lat="44.06201" lon="7.6499">
        <ele>952</ele>
        <time>2021-11-15T04:33:31.354Z</time>
      </trkpt>
      <trkpt lat="44.06192" lon="7.64999">
        <ele>950</ele>
        <time>2021-11-15T04:33:47.255Z</time>
      </trkpt>
      <trkpt lat="44.06189" lon="7.6501">
        <ele>947</ele>
        <time>2021-11-15T04:34:03.158Z</time>
      </trkpt>
      <trkpt lat="44.06191" lon="7.65062">
        <ele>945</ele>
        <time>2021-11-15T04:34:19.067Z</time>
      </trkpt>
      <trkpt lat="44.06188" lon="7.65083">
        <ele>942</ele>
        <time>2021-11-15T04:34:34.978Z</time>
      </trkpt>
      <trkpt lat="44.06191" lon="7.65114">
        <ele>940</ele>
        <time>2021-11-15T04:34:50.893Z</time>
      </trkpt>
      <trkpt lat="44.06223" lon="7.65173">
        <ele>937</ele>
        <time>2021-11-15T04:35:06.816Z</time>
      </trkpt>
      <trkpt lat="44.06222" lon="7.65184">
        <ele>935</ele>
        <time>2021-11-15T04:35:22.740Z</time>
      </trkpt>
      <trkpt lat="44.06198" lon="7.65219">
        <ele>933</ele>
        <time>2021-11-15T04:35:38.670Z</time>
      </trkpt>
      <trkpt lat="44.06176" lon="7.65269">
        <ele>931</ele>
        <time>2021-11-15T04:35:54.607Z</time>
      </trkpt>
      <trkpt lat="44.06167" lon="7.65295">
        <ele>928</ele>
        <time>2021-11-15T04:36:10.547Z</time>
      </trkpt>
      <trkpt lat="44.06156" lon="7.65367">
        <ele>926</ele>
        <time>2021-11-15T04:36:26.496Z</time>
      </trkpt>
      <trkpt lat="44.06149" lon="7.6538">
        <ele>923</ele>
        <time>2021-11-15T04:36:42.447Z</time>
      </trkpt>
      <trkpt lat="44.06113" lon="7.654">
        <ele>922</ele>
        <time>2021-11-15T04:36:58.404Z</time>
      </trkpt>
      <trkpt lat="44.06103" lon="7.65428">
        <ele>920</ele>
        <time>2021-11-15T04:37:14.364Z</time>
      </trkpt>
      <trkpt lat="44.06106" lon="7.65484">
        <ele>917</ele>
        <time>2021-11-15T04:37:30.331Z</time>
      </trkpt>
      <trkpt lat="44.06124" lon="7.65552">
        <ele>915</ele>
        <time>2021-11-15T04:37:46.306Z</time>
      </trkpt>
      <trkpt lat="44.06125" lon="7.65569">
        <ele>912</ele>
        <time>2021-11-15T04:38:02.283Z</time>
      </trkpt>
      <trkpt lat="44.06092" lon="7.65615">
        <ele>911</ele>
        <time>2021-11-15T04:38:18.268Z</time>
      </trkpt>
      <trkpt lat="44.06074" lon="7.65704">
        <ele>909</ele>
        <time>2021-11-15T04:38:34.263Z</time>
      </trkpt>
      <trkpt lat="44.06077" lon="7.65759">
        <ele>907</ele>
        <time>2021-11-15T04:38:50.265Z</time>
      </trkpt>
      <trkpt lat="44.06085" lon="7.65793">
        <ele>905</ele>
        <time>2021-11-15T04:39:06.271Z</time>
      </trkpt>
      <trkpt lat="44.06123" lon="7.65873">
        <ele>903</ele>
        <time>2021-11-15T04:39:22.288Z</time>
      </trkpt>
      <trkpt lat="44.06132" lon="7.65943">
        <ele>901</ele>
        <time>2021-11-15T04:39:38.313Z</time>
      </trkpt>
      <trkpt lat="44.06141" lon="7.65933">
        <ele>899</ele>
        <time>2021-11-15T04:39:54.340Z</time>
      </trkpt>
      <trkpt lat="44.06126" lon="7.65846">
        <ele>896</ele>
        <time>2021-11-15T04:40:10.377Z</time>
      </trkpt>
      <trkpt lat="44.06102" lon="7.65768">
        <ele>895</ele>
        <time>2021-11-15T04:40:26.424Z</time>
      </trkpt>
      <trkpt lat="44.06099" lon="7.65739">
        <ele>893</ele>
        <time>2021-11-15T04:40:42.474Z</time>
      </trkpt>
      <trkpt lat="44.06102" lon="7.65712">
        <ele>891</ele>
        <time>2021-11-15T04:40:58.528Z</time>
      </trkpt>
      <trkpt lat="44.06115" lon="7.65663">
        <ele>888</ele>
        <time>2021-11-15T04:41:14.588Z</time>
      </trkpt>
      <trkpt lat="44.06138" lon="7.65622">
        <ele>886</ele>
        <time>2021-11-15T04:41:30.654Z</time>
      </trkpt>
      <trkpt lat="44.06175" lon="7.65581">
        <ele>884</ele>
        <time>2021-11-15T04:41:46.727Z</time>
      </trkpt>
      <trkpt lat="44.06183" lon="7.65568">
        <ele>882</ele>
        <time>2021-11-15T04:42:02.802Z</time>
      </trkpt>
      <trkpt lat="44.06186" lon="7.65541">
        <ele>880</ele>
        <time>2021-11-15T04:42:18.880Z</time>
      </trkpt>
      <trkpt lat="44.06224" lon="7.6547">
        <ele>878</ele>
        <time>2021-11-15T04:42:34.968Z</time>
      </trkpt>
      <trkpt lat="44.06281" lon="7.65399">
        <ele>876</ele>
        <time>2021-11-15T04:42:51.069Z</time>
      </trkpt>
      <trkpt lat="44.06328" lon="7.65383">
        <ele>873</ele>
        <time>2021-11-15T04:43:07.177Z</time>
      </trkpt>
      <trkpt lat="44.06382" lon="7.65352">
        <ele>871</ele>
        <time>2021-11-15T04:43:23.295Z</time>
      </trkpt>
      <trkpt lat="44.06418" lon="7.65312">
        <ele>869</ele>
        <time>2021-11-15T04:43:39.420Z</time>
      </trkpt>
      <trkpt lat="44.06437" lon="7.65275">
        <ele>867</ele>
        <time>2021-11-15T04:43:55.550Z</time>
      </trkpt>
      <trkpt lat="44.06436" lon="7.65262">
        <ele>865</ele>
        <time>2021-11-15T04:44:11.682Z</time>
      </trkpt>
      <trkpt lat="44.06402" lon="7.65181">
        <ele>863</ele>
        <time>2021-11-15T04:44:27.825Z</time>
      </trkpt>
      <trkpt lat="44.064" lon="7.65155">
        <ele>861</ele>
        <time>2021-11-15T04:44:43.971Z</time>
      </trkpt>
      <trkpt lat="44.06416" lon="7.65129">
        <ele>859</ele>
        <time>2021-11-15T04:45:00.121Z</time>
      </trkpt>
      <trkpt lat="44.06494" lon="7.65088">
        <ele>857</ele>
        <time>2021-11-15T04:45:16.284Z</time>
      </trkpt>
      <trkpt lat="44.06537" lon="7.65055">
        <ele>855</ele>
        <time>2021-11-15T04:45:32.455Z</time>
      </trkpt>
      <trkpt lat="44.06606" lon="7.64966">
        <ele>853</ele>
        <time>2021-11-15T04:45:48.641Z</time>
      </trkpt>
      <trkpt lat="44.06709" lon="7.64863">
        <ele>851</ele>
        <time>2021-11-15T04:46:04.847Z</time>
      </trkpt>
      <trkpt lat="44.0673" lon="7.64827">
        <ele>849</ele>
        <time>2021-11-15T04:46:21.059Z</time>
      </trkpt>
      <trkpt lat="44.0673" lon="7.64787">
        <ele>847</ele>
        <time>2021-11-15T04:46:37.275Z</time>
      </trkpt>
      <trkpt lat="44.06716" lon="7.64731">
        <ele>845</ele>
        <time>2021-11-15T04:46:53.498Z</time>
      </trkpt>
      <trkpt lat="44.06724" lon="7.64656">
        <ele>843</ele>
        <time>2021-11-15T04:47:09.730Z</time>
      </trkpt>
      <trkpt lat="44.0675" lon="7.64598">
        <ele>841</ele>
        <time>2021-11-15T04:47:25.970Z</time>
      </trkpt>
      <trkpt lat="44.06794" lon="7.64546">
        <ele>839</ele>
        <time>2021-11-15T04:47:42.219Z</time>
      </trkpt>
      <trkpt lat="44.06815" lon="7.64494">
        <ele>837</ele>
        <time>2021-11-15T04:47:58.475Z</time>
      </trkpt>
      <trkpt lat="44.06816" lon="7.64424">
        <ele>835</ele>
        <time>2021-11-15T04:48:14.739Z</time>
      </trkpt>
      <trkpt lat="44.06839" lon="7.64351">
        <ele>833</ele>
        <time>2021-11-15T04:48:31.012Z</time>
      </trkpt>
      <trkpt lat="44.0685" lon="7.64268">
        <ele>831</ele>
        <time>2021-11-15T04:48:47.295Z</time>
      </trkpt>
      <trkpt lat="44.06877" lon="7.64177">
        <ele>829</ele>
        <time>2021-11-15T04:49:03.589Z</time>
      </trkpt>
      <trkpt lat="44.06891" lon="7.64158">
        <ele>827</ele>
        <time>2021-11-15T04:49:19.886Z</time>
      </trkpt>
      <trkpt lat="44.06909" lon="7.64146">
        <ele>825</ele>
        <time>2021-11-15T04:49:36.187Z</time>
      </trkpt>
      <trkpt lat="44.06951" lon="7.64127">
        <ele>823</ele>
        <time>2021-11-15T04:49:52.495Z</time>
      </trkpt>
      <trkpt lat="44.0697" lon="7.64106">
        <ele>821</ele>
        <time>2021-11-15T04:50:08.806Z</time>
      </trkpt>
      <trkpt lat="44.06987" lon="7.64054">
        <ele>819</ele>
        <time>2021-11-15T04:50:25.124Z</time>
      </trkpt>
      <trkpt lat="44.06879" lon="7.63978">
        <ele>817</ele>
        <time>2021-11-15T04:50:41.461Z</time>
      </trkpt>
      <trkpt lat="44.06863" lon="7.63958">
        <ele>815</ele>
        <time>2021-11-15T04:50:57.802Z</time>
      </trkpt>
      <trkpt lat="44.06791" lon="7.63835">
        <ele>814</ele>
        <time>2021-11-15T04:51:14.161Z</time>
      </trkpt>
      <trkpt lat="44.06773" lon="7.63819">
        <ele>812</ele>
        <time>2021-11-15T04:51:30.524Z</time>
      </trkpt>
      <trkpt lat="44.0673" lon="7.63802">
        <ele>810</ele>
        <time>2021-11-15T04:51:46.894Z</time>
      </trkpt>
      <trkpt lat="44.067" lon="7.63781">
        <ele>808</ele>
        <time>2021-11-15T04:52:03.269Z</time>
      </trkpt>
      <trkpt lat="44.06625" lon="7.637">
        <ele>806</ele>
        <time>2021-11-15T04:52:19.659Z</time>
      </trkpt>
      <trkpt lat="44.06598" lon="7.63658">
        <ele>805</ele>
        <time>2021-11-15T04:52:36.056Z</time>
      </trkpt>
      <trkpt lat="44.06544" lon="7.63546">
        <ele>803</ele>
        <time>2021-11-15T04:52:52.468Z</time>
      </trkpt>
      <trkpt lat="44.06475" lon="7.63354">
        <ele>801</ele>
        <time>2021-11-15T04:53:08.905Z</time>
      </trkpt>
      <trkpt lat="44.0647" lon="7.63331">
        <ele>799</ele>
        <time>2021-11-15T04:53:25.345Z</time>
      </trkpt>
      <trkpt lat="44.06467" lon="7.6331">
        <ele>798</ele>
        <time>2021-11-15T04:53:41.787Z</time>
      </trkpt>
      <trkpt lat="44.0647" lon="7.63096">
        <ele>796</ele>
        <time>2021-11-15T04:53:58.254Z</time>
      </trkpt>
      <trkpt lat="44.0648" lon="7.6305">
        <ele>794</ele>
        <time>2021-11-15T04:54:14.727Z</time>
      </trkpt>
      <trkpt lat="44.06514" lon="7.62955">
        <ele>793</ele>
        <time>2021-11-15T04:54:31.212Z</time>
      </trkpt>
      <trkpt lat="44.06524" lon="7.62906">
        <ele>792</ele>
        <time>2021-11-15T04:54:47.703Z</time>
      </trkpt>
      <trkpt lat="44.06518" lon="7.62731">
        <ele>790</ele>
        <time>2021-11-15T04:55:04.214Z</time>
      </trkpt>
      <trkpt lat="44.06525" lon="7.62597">
        <ele>789</ele>
        <time>2021-11-15T04:55:20.740Z</time>
      </trkpt>
      <trkpt lat="44.06523" lon="7.62566">
        <ele>788</ele>
        <time>2021-11-15T04:55:37.270Z</time>
      </trkpt>
      <trkpt lat="44.06496" lon="7.62377">
        <ele>787</ele>
        <time>2021-11-15T04:55:53.822Z</time>
      </trkpt>
      <trkpt lat="44.06485" lon="7.62322">
        <ele>785</ele>
        <time>2021-11-15T04:56:10.381Z</time>
      </trkpt>
      <trkpt lat="44.06464" lon="7.62262">
        <ele>784</ele>
        <time>2021-11-15T04:56:26.948Z</time>
      </trkpt>
      <trkpt lat="44.06416" lon="7.62157">
        <ele>783</ele>
        <time>2021-11-15T04:56:43.529Z</time>
      </trkpt>
      <trkpt lat="44.064" lon="7.62115">
        <ele>782</ele>
        <time>2021-11-15T04:57:00.115Z</time>
      </trkpt>
      <trkpt lat="44.06395" lon="7.62093">
        <ele>780</ele>
        <time>2021-11-15T04:57:16.704Z</time>
      </trkpt>
      <trkpt lat="44.06385" lon="7.61988">
        <ele>779</ele>
        <time>2021-11-15T04:57:33.305Z</time>
      </trkpt>
      <trkpt lat="44.06379" lon="7.61979">
        <ele>778</ele>
        <time>2021-11-15T04:57:49.908Z</time>
      </trkpt>
      <trkpt lat="44.06371" lon="7.61978">
        <ele>777</ele>
        <time>2021-11-15T04:58:06.512Z</time>
      </trkpt>
      <trkpt lat="44.06347" lon="7.61985">
        <ele>775</ele>
        <time>2021-11-15T04:58:23.120Z</time>
      </trkpt>
      <trkpt lat="44.06339" lon="7.61981">
        <ele>774</ele>
        <time>2021-11-15T04:58:39.729Z</time>
      </trkpt>
      <trkpt lat="44.0633" lon="7.6197">
        <ele>773</ele>
        <time>2021-11-15T04:58:56.340Z</time>
      </trkpt>
      <trkpt lat="44.0632" lon="7.61903">
        <ele>772</ele>
        <time>2021-11-15T04:59:12.959Z</time>
      </trkpt>
      <trkpt lat="44.06324" lon="7.61754">
        <ele>771</ele>
        <time>2021-11-15T04:59:29.595Z</time>
      </trkpt>
      <trkpt lat="44.06345" lon="7.61621">
        <ele>770</ele>
        <time>2021-11-15T04:59:46.247Z</time>
      </trkpt>
      <trkpt lat="44.06352" lon="7.61557">
        <ele>769</ele>
        <time>2021-11-15T05:00:02.906Z</time>
      </trkpt>
      <trkpt lat="44.06349" lon="7.61488">
        <ele>768</ele>
        <time>2021-11-15T05:00:19.573Z</time>
      </trkpt>
      <trkpt lat="44.06343" lon="7.61437">
        <ele>767</ele>
        <time>2021-11-15T05:00:36.246Z</time>
      </trkpt>
      <trkpt lat="44.06327" lon="7.61395">
        <ele>766</ele>
        <time>2021-11-15T05:00:52.925Z</time>
      </trkpt>
      <trkpt lat="44.06317" lon="7.61349">
        <ele>765</ele>
        <time>2021-11-15T05:01:09.609Z</time>
      </trkpt>
      <trkpt lat="44.06322" lon="7.61337">
        <ele>764</ele>
        <time>2021-11-15T05:01:26.295Z</time>
      </trkpt>
      <trkpt lat="44.06362" lon="7.61307">
        <ele>763</ele>
        <time>2021-11-15T05:01:42.988Z</time>
      </trkpt>
      <trkpt lat="44.06366" lon="7.61293">
        <ele>763</ele>
        <time>2021-11-15T05:01:59.683Z</time>
      </trkpt>
      <trkpt lat="44.06313" lon="7.61146">
        <ele>761</ele>
        <time>2021-11-15T05:02:16.397Z</time>
      </trkpt>
      <trkpt lat="44.063" lon="7.61102">
        <ele>760</ele>
        <time>2021-11-15T05:02:33.116Z</time>
      </trkpt>
      <trkpt lat="44.06278" lon="7.61001">
        <ele>759</ele>
        <time>2021-11-15T05:02:49.848Z</time>
      </trkpt>
      <trkpt lat="44.06266" lon="7.60919">
        <ele>758</ele>
        <time>2021-11-15T05:03:06.589Z</time>
      </trkpt>
      <trkpt lat="44.06271" lon="7.60821">
        <ele>758</ele>
        <time>2021-11-15T05:03:23.342Z</time>
      </trkpt>
      <trkpt lat="44.06271" lon="7.6073">
        <ele>757</ele>
        <time>2021-11-15T05:03:40.105Z</time>
      </trkpt>
      <trkpt lat="44.06268" lon="7.60703">
        <ele>756</ele>
        <time>2021-11-15T05:03:56.871Z</time>
      </trkpt>
      <trkpt lat="44.06204" lon="7.60437">
        <ele>755</ele>
        <time>2021-11-15T05:04:13.670Z</time>
      </trkpt>
      <trkpt lat="44.062" lon="7.60403">
        <ele>754</ele>
        <time>2021-11-15T05:04:30.473Z</time>
      </trkpt>
      <trkpt lat="44.06201" lon="7.60295">
        <ele>753</ele>
        <time>2021-11-15T05:04:47.288Z</time>
      </trkpt>
      <trkpt lat="44.06206" lon="7.60251">
        <ele>752</ele>
        <time>2021-11-15T05:05:04.108Z</time>
      </trkpt>
      <trkpt lat="44.06238" lon="7.60153">
        <ele>751</ele>
        <time>2021-11-15T05:05:20.941Z</time>
      </trkpt>
      <trkpt lat="44.06241" lon="7.60131">
        <ele>751</ele>
        <time>2021-11-15T05:05:37.776Z</time>
      </trkpt>
      <trkpt lat="44.06239" lon="7.60043">
        <ele>750</ele>
        <time>2021-11-15T05:05:54.621Z</time>
      </trkpt>
      <trkpt lat="44.06229" lon="7.6001">
        <ele>749</ele>
        <time>2021-11-15T05:06:11.470Z</time>
      </trkpt>
      <trkpt lat="44.06232" lon="7.60001">
        <ele>748</ele>
        <time>2021-11-15T05:06:28.321Z</time>
      </trkpt>
      <trkpt lat="44.06222" lon="7.59955">
        <ele>747</ele>
        <time>2021-11-15T05:06:45.177Z</time>
      </trkpt>
      <trkpt lat="44.06218" lon="7.59945">
        <ele>747</ele>
        <time>2021-11-15T05:07:02.034Z</time>
      </trkpt>
      <trkpt lat="44.06207" lon="7.59939">
        <ele>746</ele>
        <time>2021-11-15T05:07:18.893Z</time>
      </trkpt>
      <trkpt lat="44.06176" lon="7.59831">
        <ele>745</ele>
        <time>2021-11-15T05:07:35.766Z</time>
      </trkpt>
      <trkpt lat="44.06154" lon="7.59791">
        <ele>744</ele>
        <time>2021-11-15T05:07:52.645Z</time>
      </trkpt>
      <trkpt lat="44.06153" lon="7.59772">
        <ele>743</ele>
        <time>2021-11-15T05:08:09.526Z</time>
      </trkpt>
      <trkpt lat="44.06165" lon="7.59723">
        <ele>743</ele>
        <time>2021-11-15T05:08:26.413Z</time>
      </trkpt>
      <trkpt lat="44.06166" lon="7.59691">
        <ele>742</ele>
        <time>2021-11-15T05:08:43.303Z</time>
      </trkpt>
      <trkpt lat="44.06161" lon="7.59667">
        <ele>741</ele>
        <time>2021-11-15T05:09:00.196Z</time>
      </trkpt>
      <trkpt lat="44.06155" lon="7.59657">
        <ele>740</ele>
        <time>2021-11-15T05:09:17.091Z</time>
      </trkpt>
      <trkpt lat="44.06134" lon="7.59637">
        <ele>739</ele>
        <time>2021-11-15T05:09:33.990Z</time>
      </trkpt>
      <trkpt lat="44.06126" lon="7.59621">
        <ele>738</ele>
        <time>2021-11-15T05:09:50.891Z</time>
      </trkpt>
      <trkpt lat="44.0613" lon="7.59572">
        <ele>738</ele>
        <time>2021-11-15T05:10:07.798Z</time>
      </trkpt>
      <trkpt lat="44.06121" lon="7.59536">
        <ele>737</ele>
        <time>2021-11-15T05:10:24.709Z</time>
      </trkpt>
      <trkpt lat="44.06104" lon="7.59507">
        <ele>736</ele>
        <time>2021-11-15T05:10:41.625Z</time>
      </trkpt>
      <trkpt lat="44.06093" lon="7.59384">
        <ele>735</ele>
        <time>2021-11-15T05:10:58.555Z</time>
      </trkpt>
      <trkpt lat="44.0608" lon="7.59355">
        <ele>735</ele>
        <time>2021-11-15T05:11:15.489Z</time>
      </trkpt>
      <trkpt lat="44.06068" lon="7.59295">
        <ele>734</ele>
        <time>2021-11-15T05:11:32.430Z</time>
      </trkpt>
      <trkpt lat="44.06036" lon="7.5922">
        <ele>733</ele>
        <time>2021-11-15T05:11:49.381Z</time>
      </trkpt>
      <trkpt lat="44.06012" lon="7.59134">
        <ele>732</ele>
        <time>2021-11-15T05:12:06.343Z</time>
      </trkpt>
      <trkpt lat="44.05986" lon="7.59082">
        <ele>731</ele>
        <time>2021-11-15T05:12:23.312Z</time>
      </trkpt>
      <trkpt lat="44.05943" lon="7.5897">
        <ele>730</ele>
        <time>2021-11-15T05:12:40.296Z</time>
      </trkpt>
      <trkpt lat="44.05943" lon="7.58946">
        <ele>730</ele>
        <time>2021-11-15T05:12:57.282Z</time>
      </trkpt>
      <trkpt lat="44.05956" lon="7.58904">
        <ele>729</ele>
        <time>2021-11-15T05:13:14.274Z</time>
      </trkpt>
      <trkpt lat="44.05971" lon="7.58887">
        <ele>729</ele>
        <time>2021-11-15T05:13:31.269Z</time>
      </trkpt>
      <trkpt lat="44.06007" lon="7.58861">
        <ele>729</ele>
        <time>2021-11-15T05:13:48.270Z</time>
      </trkpt>
      <trkpt lat="44.06013" lon="7.58844">
        <ele>729</ele>
        <time>2021-11-15T05:14:05.273Z</time>
      </trkpt>
      <trkpt lat="44.06015" lon="7.58793">
        <ele>730</ele>
        <time>2021-11-15T05:14:22.282Z</time>
      </trkpt>
      <trkpt lat="44.06049" lon="7.58792">
        <ele>730</ele>
        <time>2021-11-15T05:14:39.297Z</time>
      </trkpt>
      <trkpt lat="44.06103" lon="7.58797">
        <ele>731</ele>
        <time>2021-11-15T05:14:56.320Z</time>
      </trkpt>
      <trkpt lat="44.0615" lon="7.58835">
        <ele>731</ele>
        <time>2021-11-15T05:15:13.352Z</time>
      </trkpt>
      <trkpt lat="44.06164" lon="7.5884">
        <ele>732</ele>
        <time>2021-11-15T05:15:30.386Z</time>
      </trkpt>
      <trkpt lat="44.06207" lon="7.5884">
        <ele>733</ele>
        <time>2021-11-15T05:15:47.427Z</time>
      </trkpt>
      <trkpt lat="44.06243" lon="7.58844">
        <ele>734</ele>
        <time>2021-11-15T05:16:04.474Z</time>
      </trkpt>
      <trkpt lat="44.06281" lon="7.58853">
        <ele>735</ele>
        <time>2021-11-15T05:16:21.527Z</time>
      </trkpt>
      <trkpt lat="44.06318" lon="7.58867">
        <ele>736</ele>
        <time>2021-11-15T05:16:38.586Z</time>
      </trkpt>
      <trkpt lat="44.06379" lon="7.589">
        <ele>738</ele>
        <time>2021-11-15T05:16:55.656Z</time>
      </trkpt>
      <trkpt lat="44.06392" lon="7.58903">
        <ele>739</ele>
        <time>2021-11-15T05:17:12.728Z</time>
      </trkpt>
      <trkpt lat="44.06426" lon="7.58919">
        <ele>740</ele>
        <time>2021-11-15T05:17:29.806Z</time>
      </trkpt>
      <trkpt lat="44.06449" lon="7.58925">
        <ele>742</ele>
        <time>2021-11-15T05:17:46.887Z</time>
      </trkpt>
      <trkpt lat="44.06498" lon="7.58916">
        <ele>743</ele>
        <time>2021-11-15T05:18:03.976Z</time>
      </trkpt>
      <trkpt lat="44.0657" lon="7.58919">
        <ele>745</ele>
        <time>2021-11-15T05:18:21.077Z</time>
      </trkpt>
      <trkpt lat="44.06592" lon="7.58924">
        <ele>746</ele>
        <time>2021-11-15T05:18:38.181Z</time>
      </trkpt>
      <trkpt lat="44.06761" lon="7.58988">
        <ele>748</ele>
        <time>2021-11-15T05:18:55.313Z</time>
      </trkpt>
      <trkpt lat="44.06775" lon="7.58988">
        <ele>749</ele>
        <time>2021-11-15T05:19:12.448Z</time>
      </trkpt>
      <trkpt lat="44.06808" lon="7.58979">
        <ele>751</ele>
        <time>2021-11-15T05:19:29.588Z</time>
      </trkpt>
      <trkpt lat="44.0683" lon="7.58968">
        <ele>752</ele>
        <time>2021-11-15T05:19:46.732Z</time>
      </trkpt>
      <trkpt lat="44.06901" lon="7.58894">
        <ele>753</ele>
        <time>2021-11-15T05:20:03.890Z</time>
      </trkpt>
      <trkpt lat="44.06917" lon="7.5888">
        <ele>755</ele>
        <time>2021-11-15T05:20:21.051Z</time>
      </trkpt>
      <trkpt lat="44.0694" lon="7.58866">
        <ele>756</ele>
        <time>2021-11-15T05:20:38.216Z</time>
      </trkpt>
      <trkpt lat="44.06953" lon="7.58863">
        <ele>758</ele>
        <time>2021-11-15T05:20:55.383Z</time>
      </trkpt>
      <trkpt lat="44.06989" lon="7.58865">
        <ele>759</ele>
        <time>2021-11-15T05:21:12.556Z</time>
      </trkpt>
      <trkpt lat="44.07029" lon="7.58869">
        <ele>761</ele>
        <time>2021-11-15T05:21:29.735Z</time>
      </trkpt>
      <trkpt lat="44.07044" lon="7.58874">
        <ele>762</ele>
        <time>2021-11-15T05:21:46.917Z</time>
      </trkpt>
      <trkpt lat="44.07061" lon="7.58893">
        <ele>763</ele>
        <time>2021-11-15T05:22:04.102Z</time>
      </trkpt>
      <trkpt lat="44.0707" lon="7.58922">
        <ele>765</ele>
        <time>2021-11-15T05:22:21.291Z</time>
      </trkpt>
      <trkpt lat="44.0707" lon="7.58953">
        <ele>766</ele>
        <time>2021-11-15T05:22:38.484Z</time>
      </trkpt>
      <trkpt lat="44.07058" lon="7.59039">
        <ele>767</ele>
        <time>2021-11-15T05:22:55.687Z</time>
      </trkpt>
      <trkpt lat="44.0706" lon="7.59104">
        <ele>768</ele>
        <time>2021-11-15T05:23:12.897Z</time>
      </trkpt>
      <trkpt lat="44.07086" lon="7.59379">
        <ele>769</ele>
        <time>2021-11-15T05:23:30.139Z</time>
      </trkpt>
      <trkpt lat="44.0709" lon="7.59395">
        <ele>770</ele>
        <time>2021-11-15T05:23:47.383Z</time>
      </trkpt>
      <trkpt lat="44.07105" lon="7.59417">
        <ele>772</ele>
        <time>2021-11-15T05:24:04.631Z</time>
      </trkpt>
      <trkpt lat="44.07135" lon="7.59448">
        <ele>773</ele>
        <time>2021-11-15T05:24:21.885Z</time>
      </trkpt>
      <trkpt lat="44.07188" lon="7.59492">
        <ele>774</ele>
        <time>2021-11-15T05:24:39.148Z</time>
      </trkpt>
      <trkpt lat="44.07263" lon="7.59588">
        <ele>774</ele>
        <time>2021-11-15T05:24:56.428Z</time>
      </trkpt>
      <trkpt lat="44.07279" lon="7.59616">
        <ele>775</ele>
        <time>2021-11-15T05:25:13.712Z</time>
      </trkpt>
      <trkpt lat="44.07295" lon="7.59652">
        <ele>776</ele>
        <time>2021-11-15T05:25:31.001Z</time>
      </trkpt>
      <trkpt lat="44.07323" lon="7.59774">
        <ele>777</ele>
        <time>2021-11-15T05:25:48.305Z</time>
      </trkpt>
      <trkpt lat="44.07338" lon="7.59827">
        <ele>777</ele>
        <time>2021-11-15T05:26:05.615Z</time>
      </trkpt>
      <trkpt lat="44.0735" lon="7.59852">
        <ele>778</ele>
        <time>2021-11-15T05:26:22.929Z</time>
      </trkpt>
      <trkpt lat="44.07386" lon="7.59863">
        <ele>779</ele>
        <time>2021-11-15T05:26:40.249Z</time>
      </trkpt>
      <trkpt lat="44.07609" lon="7.59915">
        <ele>780</ele>
        <time>2021-11-15T05:26:57.605Z</time>
      </trkpt>
      <trkpt lat="44.07641" lon="7.59913">
        <ele>780</ele>
        <time>2021-11-15T05:27:14.966Z</time>
      </trkpt>
      <trkpt lat="44.07693" lon="7.59896">
        <ele>781</ele>
        <time>2021-11-15T05:27:32.335Z</time>
      </trkpt>
      <trkpt lat="44.07738" lon="7.59876">
        <ele>782</ele>
        <time>2021-11-15T05:27:49.712Z</time>
      </trkpt>
      <trkpt lat="44.07768" lon="7.59871">
        <ele>782</ele>
        <time>2021-11-15T05:28:07.094Z</time>
      </trkpt>
      <trkpt lat="44.07819" lon="7.59873">
        <ele>783</ele>
        <time>2021-11-15T05:28:24.484Z</time>
      </trkpt>
      <trkpt lat="44.07881" lon="7.59881">
        <ele>784</ele>
        <time>2021-11-15T05:28:41.884Z</time>
      </trkpt>
      <trkpt lat="44.07891" lon="7.59881">
        <ele>785</ele>
        <time>2021-11-15T05:28:59.286Z</time>
      </trkpt>
      <trkpt lat="44.07915" lon="7.59871">
        <ele>785</ele>
        <time>2021-11-15T05:29:16.692Z</time>
      </trkpt>
      <trkpt lat="44.07975" lon="7.59823">
        <ele>786</ele>
        <time>2021-11-15T05:29:34.109Z</time>
      </trkpt>
      <trkpt lat="44.0819" lon="7.59616">
        <ele>787</ele>
        <time>2021-11-15T05:29:51.567Z</time>
      </trkpt>
      <trkpt lat="44.08182" lon="7.59624">
        <ele>788</ele>
        <time>2021-11-15T05:30:09.027Z</time>
      </trkpt>
      <trkpt lat="44.08323" lon="7.59474">
        <ele>789</ele>
        <time>2021-11-15T05:30:26.515Z</time>
      </trkpt>
      <trkpt lat="44.08351" lon="7.59439">
        <ele>790</ele>
        <time>2021-11-15T05:30:44.010Z</time>
      </trkpt>
      <trkpt lat="44.08354" lon="7.59426">
        <ele>791</ele>
        <time>2021-11-15T05:31:01.506Z</time>
      </trkpt>
      <trkpt lat="44.08351" lon="7.59379">
        <ele>792</ele>
        <time>2021-11-15T05:31:19.008Z</time>
      </trkpt>
      <trkpt lat="44.08359" lon="7.59365">
        <ele>793</ele>
        <time>2021-11-15T05:31:36.512Z</time>
      </trkpt>
      <trkpt lat="44.08368" lon="7.59358">
        <ele>794</ele>
        <time>2021-11-15T05:31:54.017Z</time>
      </trkpt>
      <trkpt lat="44.08382" lon="7.59355">
        <ele>795</ele>
        <time>2021-11-15T05:32:11.525Z</time>
      </trkpt>
      <trkpt lat="44.0838" lon="7.59347">
        <ele>796</ele>
        <time>2021-11-15T05:32:29.033Z</time>
      </trkpt>
      <trkpt lat="44.08355" lon="7.59328">
        <ele>797</ele>
        <time>2021-11-15T05:32:46.546Z</time>
      </trkpt>
      <trkpt lat="44.08342" lon="7.59324">
        <ele>798</ele>
        <time>2021-11-15T05:33:04.061Z</time>
      </trkpt>
      <trkpt lat="44.08284" lon="7.59341">
        <ele>800</ele>
        <time>2021-11-15T05:33:21.586Z</time>
      </trkpt>
      <trkpt lat="44.08258" lon="7.59341">
        <ele>801</ele>
        <time>2021-11-15T05:33:39.115Z</time>
      </trkpt>
      <trkpt lat="44.08253" lon="7.59337">
        <ele>803</ele>
        <time>2021-11-15T05:33:56.645Z</time>
      </trkpt>
      <trkpt lat="44.08242" lon="7.59341">
        <ele>804</ele>
        <time>2021-11-15T05:34:14.177Z</time>
      </trkpt>
      <trkpt lat="44.08235" lon="7.59346">
        <ele>806</ele>
        <time>2021-11-15T05:34:31.710Z</time>
      </trkpt>
      <trkpt lat="44.08208" lon="7.59385">
        <ele>807</ele>
        <time>2021-11-15T05:34:49.249Z</time>
      </trkpt>
      <trkpt lat="44.08161" lon="7.59477">
        <ele>809</ele>
        <time>2021-11-15T05:35:06.801Z</time>
      </trkpt>
      <trkpt lat="44.08124" lon="7.59529">
        <ele>811</ele>
        <time>2021-11-15T05:35:24.361Z</time>
      </trkpt>
      <trkpt lat="44.08102" lon="7.59547">
        <ele>813</ele>
        <time>2021-11-15T05:35:41.926Z</time>
      </trkpt>
      <trkpt lat="44.08099" lon="7.59546">
        <ele>815</ele>
        <time>2021-11-15T05:35:59.491Z</time>
      </trkpt>
      <trkpt lat="44.08098" lon="7.5954">
        <ele>817</ele>
        <time>2021-11-15T05:36:17.057Z</time>
      </trkpt>
      <trkpt lat="44.08117" lon="7.59525">
        <ele>819</ele>
        <time>2021-11-15T05:36:34.626Z</time>
      </trkpt>
      <trkpt lat="44.08137" lon="7.59489">
        <ele>821</ele>
        <time>2021-11-15T05:36:52.201Z</time>
      </trkpt>
      <trkpt lat="44.0815" lon="7.59458">
        <ele>823</ele>
        <time>2021-11-15T05:37:09.780Z</time>
      </trkpt>
      <trkpt lat="44.08156" lon="7.59402">
        <ele>826</ele>
        <time>2021-11-15T05:37:27.365Z</time>
      </trkpt>
      <trkpt lat="44.08181" lon="7.59328">
        <ele>829</ele>
        <time>2021-11-15T05:37:44.960Z</time>
      </trkpt>
      <trkpt lat="44.08181" lon="7.5932">
        <ele>831</ele>
        <time>2021-11-15T05:38:02.556Z</time>
      </trkpt>
      <trkpt lat="44.08178" lon="7.59321">
        <ele>834</ele>
        <time>2021-11-15T05:38:20.152Z</time>
      </trkpt>
      <trkpt lat="44.08143" lon="7.59389">
        <ele>836</ele>
        <time>2021-11-15T05:38:37.758Z</time>
      </trkpt>
      <trkpt lat="44.08135" lon="7.59399">
        <ele>839</ele>
        <time>2021-11-15T05:38:55.365Z</time>
      </trkpt>
      <trkpt lat="44.08093" lon="7.59403">
        <ele>842</ele>
        <time>2021-11-15T05:39:12.979Z</time>
      </trkpt>
      <trkpt lat="44.08067" lon="7.59411">
        <ele>845</ele>
        <time>2021-11-15T05:39:30.597Z</time>
      </trkpt>
      <trkpt lat="44.08063" lon="7.59411">
        <ele>848</ele>
        <time>2021-11-15T05:39:48.216Z</time>
      </trkpt>
      <trkpt lat="44.08061" lon="7.59407">
        <ele>851</ele>
        <time>2021-11-15T05:40:05.836Z</time>
      </trkpt>
      <trkpt lat="44.08065" lon="7.59395">
        <ele>854</ele>
        <time>2021-11-15T05:40:23.457Z</time>
      </trkpt>
      <trkpt lat="44.08121" lon="7.59335">
        <ele>857</ele>
        <time>2021-11-15T05:40:41.089Z</time>
      </trkpt>
      <trkpt lat="44.08128" lon="7.59331">
        <ele>860</ele>
        <time>2021-11-15T05:40:58.723Z</time>
      </trkpt>
      <trkpt lat="44.08129" lon="7.59325">
        <ele>863</ele>
        <time>2021-11-15T05:41:16.357Z</time>
      </trkpt>
      <trkpt lat="44.08126" lon="7.59321">
        <ele>866</ele>
        <time>2021-11-15T05:41:33.992Z</time>
      </trkpt>
      <trkpt lat="44.08121" lon="7.59321">
        <ele>870</ele>
        <time>2021-11-15T05:41:51.628Z</time>
      </trkpt>
      <trkpt lat="44.07996" lon="7.59398">
        <ele>877</ele>
        <time>2021-11-15T05:42:09.286Z</time>
      </trkpt>
      <trkpt lat="44.07982" lon="7.59411">
        <ele>880</ele>
        <time>2021-11-15T05:42:26.946Z</time>
      </trkpt>
      <trkpt lat="44.07962" lon="7.59454">
        <ele>883</ele>
        <time>2021-11-15T05:42:44.612Z</time>
      </trkpt>
      <trkpt lat="44.07907" lon="7.59511">
        <ele>887</ele>
        <time>2021-11-15T05:43:02.289Z</time>
      </trkpt>
      <trkpt lat="44.07902" lon="7.59513">
        <ele>890</ele>
        <time>2021-11-15T05:43:19.967Z</time>
      </trkpt>
      <trkpt lat="44.07901" lon="7.59503">
        <ele>894</ele>
        <time>2021-11-15T05:43:37.646Z</time>
      </trkpt>
      <trkpt lat="44.07936" lon="7.59444">
        <ele>898</ele>
        <time>2021-11-15T05:43:55.334Z</time>
      </trkpt>
      <trkpt lat="44.07935" lon="7.5944">
        <ele>901</ele>
        <time>2021-11-15T05:44:13.023Z</time>
      </trkpt>
      <trkpt lat="44.07931" lon="7.59439">
        <ele>905</ele>
        <time>2021-11-15T05:44:30.712Z</time>
      </trkpt>
      <trkpt lat="44.07883" lon="7.59485">
        <ele>909</ele>
        <time>2021-11-15T05:44:48.411Z</time>
      </trkpt>
      <trkpt lat="44.07866" lon="7.59497">
        <ele>913</ele>
        <time>2021-11-15T05:45:06.113Z</time>
      </trkpt>
      <trkpt lat="44.07834" lon="7.59509">
        <ele>916</ele>
        <time>2021-11-15T05:45:23.820Z</time>
      </trkpt>
      <trkpt lat="44.07819" lon="7.59508">
        <ele>920</ele>
        <time>2021-11-15T05:45:41.529Z</time>
      </trkpt>
      <trkpt lat="44.07733" lon="7.59436">
        <ele>925</ele>
        <time>2021-11-15T05:45:59.254Z</time>
      </trkpt>
      <trkpt lat="44.07714" lon="7.59427">
        <ele>929</ele>
        <time>2021-11-15T05:46:16.983Z</time>
      </trkpt>
      <trkpt lat="44.07614" lon="7.5942">
        <ele>933</ele>
        <time>2021-11-15T05:46:34.728Z</time>
      </trkpt>
      <trkpt lat="44.07542" lon="7.59446">
        <ele>937</ele>
        <time>2021-11-15T05:46:52.485Z</time>
      </trkpt>
      <trkpt lat="44.07541" lon="7.59438">
        <ele>940</ele>
        <time>2021-11-15T05:47:10.242Z</time>
      </trkpt>
      <trkpt lat="44.07606" lon="7.59387">
        <ele>945</ele>
        <time>2021-11-15T05:47:28.011Z</time>
      </trkpt>
      <trkpt lat="44.07609" lon="7.5938">
        <ele>949</ele>
        <time>2021-11-15T05:47:45.781Z</time>
      </trkpt>
      <trkpt lat="44.07607" lon="7.59377">
        <ele>952</ele>
        <time>2021-11-15T05:48:03.552Z</time>
      </trkpt>
      <trkpt lat="44.07603" lon="7.59378">
        <ele>956</ele>
        <time>2021-11-15T05:48:21.323Z</time>
      </trkpt>
      <trkpt lat="44.07547" lon="7.59406">
        <ele>960</ele>
        <time>2021-11-15T05:48:39.104Z</time>
      </trkpt>
      <trkpt lat="44.07532" lon="7.59409">
        <ele>963</ele>
        <time>2021-11-15T05:48:56.887Z</time>
      </trkpt>
      <trkpt lat="44.07521" lon="7.59402">
        <ele>967</ele>
        <time>2021-11-15T05:49:14.672Z</time>
      </trkpt>
      <trkpt lat="44.07511" lon="7.5939">
        <ele>971</ele>
        <time>2021-11-15T05:49:32.459Z</time>
      </trkpt>
      <trkpt lat="44.07494" lon="7.59318">
        <ele>975</ele>
        <time>2021-11-15T05:49:50.255Z</time>
      </trkpt>
      <trkpt lat="44.075" lon="7.5932">
        <ele>978</ele>
        <time>2021-11-15T05:50:08.052Z</time>
      </trkpt>
      <trkpt lat="44.07522" lon="7.59373">
        <ele>981</ele>
        <time>2021-11-15T05:50:25.856Z</time>
      </trkpt>
      <trkpt lat="44.07525" lon="7.59374">
        <ele>985</ele>
        <time>2021-11-15T05:50:43.661Z</time>
      </trkpt>
      <trkpt lat="44.07527" lon="7.59366">
        <ele>988</ele>
        <time>2021-11-15T05:51:01.467Z</time>
      </trkpt>
      <trkpt lat="44.07514" lon="7.59337">
        <ele>992</ele>
        <time>2021-11-15T05:51:19.277Z</time>
      </trkpt>
      <trkpt lat="44.0751" lon="7.59301">
        <ele>996</ele>
        <time>2021-11-15T05:51:37.091Z</time>
      </trkpt>
      <trkpt lat="44.07488" lon="7.59223">
        <ele>999</ele>
        <time>2021-11-15T05:51:54.915Z</time>
      </trkpt>
      <trkpt lat="44.07487" lon="7.59163">
        <ele>1003</ele>
        <time>2021-11-15T05:52:12.745Z</time>
      </trkpt>
      <trkpt lat="44.07482" lon="7.59113">
        <ele>1007</ele>
        <time>2021-11-15T05:52:30.581Z</time>
      </trkpt>
      <trkpt lat="44.07457" lon="7.59065">
        <ele>1010</ele>
        <time>2021-11-15T05:52:48.424Z</time>
      </trkpt>
      <trkpt lat="44.07463" lon="7.59062">
        <ele>1013</ele>
        <time>2021-11-15T05:53:06.268Z</time>
      </trkpt>
      <trkpt lat="44.07485" lon="7.59093">
        <ele>1017</ele>
        <time>2021-11-15T05:53:24.117Z</time>
      </trkpt>
      <trkpt lat="44.07488" lon="7.59094">
        <ele>1020</ele>
        <time>2021-11-15T05:53:41.967Z</time>
      </trkpt>
      <trkpt lat="44.0749" lon="7.59085">
        <ele>1023</ele>
        <time>2021-11-15T05:53:59.818Z</time>
      </trkpt>
      <trkpt lat="44.07451" lon="7.59012">
        <ele>1027</ele>
        <time>2021-11-15T05:54:17.679Z</time>
      </trkpt>
      <trkpt lat="44.07428" lon="7.58955">
        <ele>1030</ele>
        <time>2021-11-15T05:54:35.548Z</time>
      </trkpt>
      <trkpt lat="44.07419" lon="7.58922">
        <ele>1033</ele>
        <time>2021-11-15T05:54:53.421Z</time>
      </trkpt>
      <trkpt lat="44.07422" lon="7.58845">
        <ele>1036</ele>
        <time>2021-11-15T05:55:11.303Z</time>
      </trkpt>
      <trkpt lat="44.07428" lon="7.5885">
        <ele>1039</ele>
        <time>2021-11-15T05:55:29.186Z</time>
      </trkpt>
      <trkpt lat="44.07436" lon="7.58908">
        <ele>1042</ele>
        <time>2021-11-15T05:55:47.076Z</time>
      </trkpt>
      <trkpt lat="44.0744" lon="7.58899">
        <ele>1046</ele>
        <time>2021-11-15T05:56:04.967Z</time>
      </trkpt>
      <trkpt lat="44.07436" lon="7.58854">
        <ele>1049</ele>
        <time>2021-11-15T05:56:22.863Z</time>
      </trkpt>
      <trkpt lat="44.07444" lon="7.58805">
        <ele>1052</ele>
        <time>2021-11-15T05:56:40.765Z</time>
      </trkpt>
      <trkpt lat="44.07447" lon="7.58805">
        <ele>1055</ele>
        <time>2021-11-15T05:56:58.667Z</time>
      </trkpt>
      <trkpt lat="44.07449" lon="7.5881">
        <ele>1058</ele>
        <time>2021-11-15T05:57:16.570Z</time>
      </trkpt>
      <trkpt lat="44.07445" lon="7.5885">
        <ele>1061</ele>
        <time>2021-11-15T05:57:34.478Z</time>
      </trkpt>
      <trkpt lat="44.07449" lon="7.58855">
        <ele>1063</ele>
        <time>2021-11-15T05:57:52.387Z</time>
      </trkpt>
      <trkpt lat="44.07459" lon="7.58804">
        <ele>1067</ele>
        <time>2021-11-15T05:58:10.302Z</time>
      </trkpt>
      <trkpt lat="44.07459" lon="7.58766">
        <ele>1069</ele>
        <time>2021-11-15T05:58:28.221Z</time>
      </trkpt>
      <trkpt lat="44.0749" lon="7.58726">
        <ele>1073</ele>
        <time>2021-11-15T05:58:46.147Z</time>
      </trkpt>
      <trkpt lat="44.07502" lon="7.58684">
        <ele>1076</ele>
        <time>2021-11-15T05:59:04.078Z</time>
      </trkpt>
      <trkpt lat="44.07506" lon="7.5866">
        <ele>1079</ele>
        <time>2021-11-15T05:59:22.012Z</time>
      </trkpt>
      <trkpt lat="44.07501" lon="7.58639">
        <ele>1082</ele>
        <time>2021-11-15T05:59:39.948Z</time>
      </trkpt>
      <trkpt lat="44.07478" lon="7.58588">
        <ele>1084</ele>
        <time>2021-11-15T05:59:57.891Z</time>
      </trkpt>
      <trkpt lat="44.07469" lon="7.5853">
        <ele>1087</ele>
        <time>2021-11-15T06:00:15.841Z</time>
      </trkpt>
      <trkpt lat="44.07472" lon="7.58519">
        <ele>1089</ele>
        <time>2021-11-15T06:00:33.793Z</time>
      </trkpt>
      <trkpt lat="44.07479" lon="7.58527">
        <ele>1092</ele>
        <time>2021-11-15T06:00:51.746Z</time>
      </trkpt>
      <trkpt lat="44.0749" lon="7.58581">
        <ele>1095</ele>
        <time>2021-11-15T06:01:09.705Z</time>
      </trkpt>
      <trkpt lat="44.07496" lon="7.58567">
        <ele>1098</ele>
        <time>2021-11-15T06:01:27.666Z</time>
      </trkpt>
      <trkpt lat="44.07488" lon="7.58524">
        <ele>1100</ele>
        <time>2021-11-15T06:01:45.632Z</time>
      </trkpt>
      <trkpt lat="44.07491" lon="7.5844">
        <ele>1103</ele>
        <time>2021-11-15T06:02:03.608Z</time>
      </trkpt>
      <trkpt lat="44.07495" lon="7.58434">
        <ele>1106</ele>
        <time>2021-11-15T06:02:21.585Z</time>
      </trkpt>
      <trkpt lat="44.07498" lon="7.58437">
        <ele>1108</ele>
        <time>2021-11-15T06:02:39.563Z</time>
      </trkpt>
      <trkpt lat="44.07499" lon="7.58512">
        <ele>1110</ele>
        <time>2021-11-15T06:02:57.549Z</time>
      </trkpt>
      <trkpt lat="44.07503" lon="7.58515">
        <ele>1113</ele>
        <time>2021-11-15T06:03:15.536Z</time>
      </trkpt>
      <trkpt lat="44.07506" lon="7.58512">
        <ele>1115</ele>
        <time>2021-11-15T06:03:33.524Z</time>
      </trkpt>
      <trkpt lat="44.07511" lon="7.58392">
        <ele>1118</ele>
        <time>2021-11-15T06:03:51.526Z</time>
      </trkpt>
      <trkpt lat="44.07507" lon="7.58383">
        <ele>1120</ele>
        <time>2021-11-15T06:04:09.529Z</time>
      </trkpt>
      <trkpt lat="44.07493" lon="7.58369">
        <ele>1122</ele>
        <time>2021-11-15T06:04:27.535Z</time>
      </trkpt>
      <trkpt lat="44.07485" lon="7.58353">
        <ele>1125</ele>
        <time>2021-11-15T06:04:45.543Z</time>
      </trkpt>
      <trkpt lat="44.07474" lon="7.58317">
        <ele>1127</ele>
        <time>2021-11-15T06:05:03.555Z</time>
      </trkpt>
      <trkpt lat="44.07454" lon="7.58322">
        <ele>1129</ele>
        <time>2021-11-15T06:05:21.571Z</time>
      </trkpt>
      <trkpt lat="44.07436" lon="7.58321">
        <ele>1131</ele>
        <time>2021-11-15T06:05:39.589Z</time>
      </trkpt>
      <trkpt lat="44.07378" lon="7.58293">
        <ele>1134</ele>
        <time>2021-11-15T06:05:57.617Z</time>
      </trkpt>
      <trkpt lat="44.07368" lon="7.58284">
        <ele>1136</ele>
        <time>2021-11-15T06:06:15.647Z</time>
      </trkpt>
      <trkpt lat="44.07358" lon="7.58282">
        <ele>1138</ele>
        <time>2021-11-15T06:06:33.679Z</time>
      </trkpt>
      <trkpt lat="44.07355" lon="7.58278">
        <ele>1140</ele>
        <time>2021-11-15T06:06:51.711Z</time>
      </trkpt>
      <trkpt lat="44.0736" lon="7.5827">
        <ele>1143</ele>
        <time>2021-11-15T06:07:09.745Z</time>
      </trkpt>
      <trkpt lat="44.07367" lon="7.5827">
        <ele>1145</ele>
        <time>2021-11-15T06:07:27.780Z</time>
      </trkpt>
      <trkpt lat="44.07393" lon="7.58282">
        <ele>1147</ele>
        <time>2021-11-15T06:07:45.819Z</time>
      </trkpt>
      <trkpt lat="44.07428" lon="7.58286">
        <ele>1149</ele>
        <time>2021-11-15T06:08:03.864Z</time>
      </trkpt>
      <trkpt lat="44.07463" lon="7.5828">
        <ele>1151</ele>
        <time>2021-11-15T06:08:21.914Z</time>
      </trkpt>
      <trkpt lat="44.07465" lon="7.58273">
        <ele>1154</ele>
        <time>2021-11-15T06:08:39.965Z</time>
      </trkpt>
      <trkpt lat="44.07438" lon="7.58272">
        <ele>1156</ele>
        <time>2021-11-15T06:08:58.021Z</time>
      </trkpt>
      <trkpt lat="44.0743" lon="7.58269">
        <ele>1158</ele>
        <time>2021-11-15T06:09:16.078Z</time>
      </trkpt>
      <trkpt lat="44.07324" lon="7.58216">
        <ele>1161</ele>
        <time>2021-11-15T06:09:34.153Z</time>
      </trkpt>
      <trkpt lat="44.07315" lon="7.58214">
        <ele>1163</ele>
        <time>2021-11-15T06:09:52.229Z</time>
      </trkpt>
      <trkpt lat="44.07239" lon="7.58237">
        <ele>1165</ele>
        <time>2021-11-15T06:10:10.318Z</time>
      </trkpt>
      <trkpt lat="44.07224" lon="7.58237">
        <ele>1167</ele>
        <time>2021-11-15T06:10:28.409Z</time>
      </trkpt>
      <trkpt lat="44.07198" lon="7.58222">
        <ele>1169</ele>
        <time>2021-11-15T06:10:46.505Z</time>
      </trkpt>
      <trkpt lat="44.07127" lon="7.58168">
        <ele>1172</ele>
        <time>2021-11-15T06:11:04.614Z</time>
      </trkpt>
      <trkpt lat="44.07099" lon="7.58136">
        <ele>1174</ele>
        <time>2021-11-15T06:11:22.729Z</time>
      </trkpt>
      <trkpt lat="44.07079" lon="7.58107">
        <ele>1176</ele>
        <time>2021-11-15T06:11:40.848Z</time>
      </trkpt>
      <trkpt lat="44.07073" lon="7.58083">
        <ele>1178</ele>
        <time>2021-11-15T06:11:58.970Z</time>
      </trkpt>
      <trkpt lat="44.07059" lon="7.57981">
        <ele>1181</ele>
        <time>2021-11-15T06:12:17.104Z</time>
      </trkpt>
      <trkpt lat="44.07048" lon="7.5787">
        <ele>1183</ele>
        <time>2021-11-15T06:12:35.251Z</time>
      </trkpt>
      <trkpt lat="44.07048" lon="7.57835">
        <ele>1185</ele>
        <time>2021-11-15T06:12:53.402Z</time>
      </trkpt>
      <trkpt lat="44.07059" lon="7.5779">
        <ele>1188</ele>
        <time>2021-11-15T06:13:11.559Z</time>
      </trkpt>
      <trkpt lat="44.07075" lon="7.57762">
        <ele>1190</ele>
        <time>2021-11-15T06:13:29.720Z</time>
      </trkpt>
      <trkpt lat="44.07099" lon="7.57731">
        <ele>1193</ele>
        <time>2021-11-15T06:13:47.886Z</time>
      </trkpt>
      <trkpt lat="44.07146" lon="7.57733">
        <ele>1195</ele>
        <time>2021-11-15T06:14:06.059Z</time>
      </trkpt>
      <trkpt lat="44.0716" lon="7.57726">
        <ele>1198</ele>
        <time>2021-11-15T06:14:24.235Z</time>
      </trkpt>
      <trkpt lat="44.07183" lon="7.57669">
        <ele>1200</ele>
        <time>2021-11-15T06:14:42.418Z</time>
      </trkpt>
      <trkpt lat="44.07175" lon="7.57649">
        <ele>1203</ele>
        <time>2021-11-15T06:15:00.604Z</time>
      </trkpt>
      <trkpt lat="44.07168" lon="7.57646">
        <ele>1205</ele>
        <time>2021-11-15T06:15:18.791Z</time>
      </trkpt>
      <trkpt lat="44.07141" lon="7.57652">
        <ele>1207</ele>
        <time>2021-11-15T06:15:36.983Z</time>
      </trkpt>
      <trkpt lat="44.07103" lon="7.57638">
        <ele>1210</ele>
        <time>2021-11-15T06:15:55.181Z</time>
      </trkpt>
      <trkpt lat="44.06992" lon="7.57647">
        <ele>1213</ele>
        <time>2021-11-15T06:16:13.397Z</time>
      </trkpt>
      <trkpt lat="44.06962" lon="7.57624">
        <ele>1216</ele>
        <time>2021-11-15T06:16:31.618Z</time>
      </trkpt>
      <trkpt lat="44.06948" lon="7.57624">
        <ele>1219</ele>
        <time>2021-11-15T06:16:49.841Z</time>
      </trkpt>
      <trkpt lat="44.0693" lon="7.57657">
        <ele>1221</ele>
        <time>2021-11-15T06:17:08.069Z</time>
      </trkpt>
      <trkpt lat="44.06867" lon="7.57723">
        <ele>1224</ele>
        <time>2021-11-15T06:17:26.310Z</time>
      </trkpt>
      <trkpt lat="44.06813" lon="7.5774">
        <ele>1227</ele>
        <time>2021-11-15T06:17:44.560Z</time>
      </trkpt>
      <trkpt lat="44.06777" lon="7.57779">
        <ele>1230</ele>
        <time>2021-11-15T06:18:02.817Z</time>
      </trkpt>
      <trkpt lat="44.06771" lon="7.57778">
        <ele>1233</ele>
        <time>2021-11-15T06:18:21.075Z</time>
      </trkpt>
      <trkpt lat="44.06768" lon="7.57765">
        <ele>1236</ele>
        <time>2021-11-15T06:18:39.334Z</time>
      </trkpt>
      <trkpt lat="44.06791" lon="7.57741">
        <ele>1239</ele>
        <time>2021-11-15T06:18:57.598Z</time>
      </trkpt>
      <trkpt lat="44.0686" lon="7.57656">
        <ele>1242</ele>
        <time>2021-11-15T06:19:15.877Z</time>
      </trkpt>
      <trkpt lat="44.06901" lon="7.57576">
        <ele>1245</ele>
        <time>2021-11-15T06:19:34.167Z</time>
      </trkpt>
      <trkpt lat="44.06911" lon="7.57548">
        <ele>1248</ele>
        <time>2021-11-15T06:19:52.461Z</time>
      </trkpt>
      <trkpt lat="44.06916" lon="7.57522">
        <ele>1251</ele>
        <time>2021-11-15T06:20:10.758Z</time>
      </trkpt>
      <trkpt lat="44.06926" lon="7.57503">
        <ele>1254</ele>
        <time>2021-11-15T06:20:29.058Z</time>
      </trkpt>
      <trkpt lat="44.06921" lon="7.57495">
        <ele>1257</ele>
        <time>2021-11-15T06:20:47.359Z</time>
      </trkpt>
      <trkpt lat="44.06917" lon="7.57498">
        <ele>1260</ele>
        <time>2021-11-15T06:21:05.661Z</time>
      </trkpt>
      <trkpt lat="44.06897" lon="7.57542">
        <ele>1263</ele>
        <time>2021-11-15T06:21:23.969Z</time>
      </trkpt>
      <trkpt lat="44.06883" lon="7.57556">
        <ele>1266</ele>
        <time>2021-11-15T06:21:42.279Z</time>
      </trkpt>
      <trkpt lat="44.06851" lon="7.57573">
        <ele>1270</ele>
        <time>2021-11-15T06:22:00.595Z</time>
      </trkpt>
      <trkpt lat="44.06814" lon="7.57608">
        <ele>1273</ele>
        <time>2021-11-15T06:22:18.918Z</time>
      </trkpt>
      <trkpt lat="44.0681" lon="7.57607">
        <ele>1276</ele>
        <time>2021-11-15T06:22:37.242Z</time>
      </trkpt>
      <trkpt lat="44.06812" lon="7.57594">
        <ele>1279</ele>
        <time>2021-11-15T06:22:55.567Z</time>
      </trkpt>
      <trkpt lat="44.06821" lon="7.57586">
        <ele>1283</ele>
        <time>2021-11-15T06:23:13.894Z</time>
      </trkpt>
      <trkpt lat="44.06847" lon="7.57546">
        <ele>1286</ele>
        <time>2021-11-15T06:23:32.227Z</time>
      </trkpt>
      <trkpt lat="44.06873" lon="7.57472">
        <ele>1290</ele>
        <time>2021-11-15T06:23:50.570Z</time>
      </trkpt>
      <trkpt lat="44.06896" lon="7.57422">
        <ele>1293</ele>
        <time>2021-11-15T06:24:08.919Z</time>
      </trkpt>
      <trkpt lat="44.06893" lon="7.57418">
        <ele>1297</ele>
        <time>2021-11-15T06:24:27.269Z</time>
      </trkpt>
      <trkpt lat="44.06889" lon="7.57418">
        <ele>1300</ele>
        <time>2021-11-15T06:24:45.620Z</time>
      </trkpt>
      <trkpt lat="44.0686" lon="7.57462">
        <ele>1304</ele>
        <time>2021-11-15T06:25:03.978Z</time>
      </trkpt>
      <trkpt lat="44.06791" lon="7.57519">
        <ele>1308</ele>
        <time>2021-11-15T06:25:22.348Z</time>
      </trkpt>
      <trkpt lat="44.06786" lon="7.57511">
        <ele>1311</ele>
        <time>2021-11-15T06:25:40.720Z</time>
      </trkpt>
      <trkpt lat="44.06808" lon="7.57482">
        <ele>1315</ele>
        <time>2021-11-15T06:25:59.096Z</time>
      </trkpt>
      <trkpt lat="44.06858" lon="7.57336">
        <ele>1319</ele>
        <time>2021-11-15T06:26:17.491Z</time>
      </trkpt>
      <trkpt lat="44.06878" lon="7.57308">
        <ele>1323</ele>
        <time>2021-11-15T06:26:35.891Z</time>
      </trkpt>
      <trkpt lat="44.06899" lon="7.57284">
        <ele>1327</ele>
        <time>2021-11-15T06:26:54.295Z</time>
      </trkpt>
      <trkpt lat="44.06923" lon="7.57277">
        <ele>1331</ele>
        <time>2021-11-15T06:27:12.703Z</time>
      </trkpt>
      <trkpt lat="44.0702" lon="7.57291">
        <ele>1335</ele>
        <time>2021-11-15T06:27:31.127Z</time>
      </trkpt>
      <trkpt lat="44.07042" lon="7.57284">
        <ele>1339</ele>
        <time>2021-11-15T06:27:49.554Z</time>
      </trkpt>
      <trkpt lat="44.07063" lon="7.57213">
        <ele>1343</ele>
        <time>2021-11-15T06:28:07.990Z</time>
      </trkpt>
      <trkpt lat="44.07073" lon="7.57167">
        <ele>1348</ele>
        <time>2021-11-15T06:28:26.432Z</time>
      </trkpt>
      <trkpt lat="44.07101" lon="7.57144">
        <ele>1352</ele>
        <time>2021-11-15T06:28:44.879Z</time>
      </trkpt>
      <trkpt lat="44.07135" lon="7.57158">
        <ele>1356</ele>
        <time>2021-11-15T06:29:03.331Z</time>
      </trkpt>
      <trkpt lat="44.07164" lon="7.57133">
        <ele>1361</ele>
        <time>2021-11-15T06:29:21.789Z</time>
      </trkpt>
      <trkpt lat="44.07266" lon="7.57154">
        <ele>1365</ele>
        <time>2021-11-15T06:29:40.263Z</time>
      </trkpt>
      <trkpt lat="44.0729" lon="7.57136">
        <ele>1369</ele>
        <time>2021-11-15T06:29:58.742Z</time>
      </trkpt>
      <trkpt lat="44.07308" lon="7.57084">
        <ele>1374</ele>
        <time>2021-11-15T06:30:17.227Z</time>
      </trkpt>
      <trkpt lat="44.07316" lon="7.57035">
        <ele>1379</ele>
        <time>2021-11-15T06:30:35.718Z</time>
      </trkpt>
      <trkpt lat="44.07335" lon="7.5697">
        <ele>1383</ele>
        <time>2021-11-15T06:30:54.217Z</time>
      </trkpt>
      <trkpt lat="44.07337" lon="7.56902">
        <ele>1389</ele>
        <time>2021-11-15T06:31:12.724Z</time>
      </trkpt>
      <trkpt lat="44.07348" lon="7.56864">
        <ele>1394</ele>
        <time>2021-11-15T06:31:31.236Z</time>
      </trkpt>
      <trkpt lat="44.07369" lon="7.56848">
        <ele>1398</ele>
        <time>2021-11-15T06:31:49.752Z</time>
      </trkpt>
      <trkpt lat="44.07444" lon="7.56683">
        <ele>1404</ele>
        <time>2021-11-15T06:32:08.290Z</time>
      </trkpt>
      <trkpt lat="44.07467" lon="7.56587">
        <ele>1410</ele>
        <time>2021-11-15T06:32:26.840Z</time>
      </trkpt>
      <trkpt lat="44.07453" lon="7.56604">
        <ele>1415</ele>
        <time>2021-11-15T06:32:45.393Z</time>
      </trkpt>
      <trkpt lat="44.0744" lon="7.56648">
        <ele>1420</ele>
        <time>2021-11-15T06:33:03.951Z</time>
      </trkpt>
      <trkpt lat="44.07366" lon="7.56733">
        <ele>1426</ele>
        <time>2021-11-15T06:33:22.525Z</time>
      </trkpt>
      <trkpt lat="44.07349" lon="7.56742">
        <ele>1432</ele>
        <time>2021-11-15T06:33:41.102Z</time>
      </trkpt>
      <trkpt lat="44.07321" lon="7.56728">
        <ele>1438</ele>
        <time>2021-11-15T06:33:59.683Z</time>
      </trkpt>
      <trkpt lat="44.07276" lon="7.56745">
        <ele>1444</ele>
        <time>2021-11-15T06:34:18.272Z</time>
      </trkpt>
      <trkpt lat="44.07261" lon="7.56755">
        <ele>1450</ele>
        <time>2021-11-15T06:34:36.864Z</time>
      </trkpt>
      <trkpt lat="44.07236" lon="7.56786">
        <ele>1456</ele>
        <time>2021-11-15T06:34:55.461Z</time>
      </trkpt>
      <trkpt lat="44.07207" lon="7.56813">
        <ele>1462</ele>
        <time>2021-11-15T06:35:14.063Z</time>
      </trkpt>
      <trkpt lat="44.0713" lon="7.56852">
        <ele>1469</ele>
        <time>2021-11-15T06:35:32.679Z</time>
      </trkpt>
      <trkpt lat="44.07064" lon="7.56877">
        <ele>1475</ele>
        <time>2021-11-15T06:35:51.306Z</time>
      </trkpt>
      <trkpt lat="44.0706" lon="7.56872">
        <ele>1482</ele>
        <time>2021-11-15T06:36:09.933Z</time>
      </trkpt>
      <trkpt lat="44.07063" lon="7.56862">
        <ele>1489</ele>
        <time>2021-11-15T06:36:28.562Z</time>
      </trkpt>
      <trkpt lat="44.07076" lon="7.56859">
        <ele>1496</ele>
        <time>2021-11-15T06:36:47.193Z</time>
      </trkpt>
      <trkpt lat="44.07134" lon="7.56814">
        <ele>1503</ele>
        <time>2021-11-15T06:37:05.834Z</time>
      </trkpt>
      <trkpt lat="44.07155" lon="7.5679">
        <ele>1510</ele>
        <time>2021-11-15T06:37:24.480Z</time>
      </trkpt>
      <trkpt lat="44.0717" lon="7.56761">
        <ele>1518</ele>
        <time>2021-11-15T06:37:43.130Z</time>
      </trkpt>
      <trkpt lat="44.07192" lon="7.56693">
        <ele>1526</ele>
        <time>2021-11-15T06:38:01.788Z</time>
      </trkpt>
      <trkpt lat="44.07258" lon="7.56591">
        <ele>1534</ele>
        <time>2021-11-15T06:38:20.462Z</time>
      </trkpt>
      <trkpt lat="44.0732" lon="7.56481">
        <ele>1542</ele>
        <time>2021-11-15T06:38:39.152Z</time>
      </trkpt>
      <trkpt lat="44.07353" lon="7.5635">
        <ele>1552</ele>
        <time>2021-11-15T06:38:57.858Z</time>
      </trkpt>
      <trkpt lat="44.07387" lon="7.56338">
        <ele>1560</ele>
        <time>2021-11-15T06:39:16.570Z</time>
      </trkpt>
      <trkpt lat="44.07409" lon="7.56319">
        <ele>1568</ele>
        <time>2021-11-15T06:39:35.286Z</time>
      </trkpt>
      <trkpt lat="44.07485" lon="7.56196">
        <ele>1578</ele>
        <time>2021-11-15T06:39:54.021Z</time>
      </trkpt>
      <trkpt lat="44.07559" lon="7.56176">
        <ele>1587</ele>
        <time>2021-11-15T06:40:12.768Z</time>
      </trkpt>
      <trkpt lat="44.07585" lon="7.5619">
        <ele>1595</ele>
        <time>2021-11-15T06:40:31.519Z</time>
      </trkpt>
      <trkpt lat="44.07661" lon="7.56222">
        <ele>1604</ele>
        <time>2021-11-15T06:40:50.283Z</time>
      </trkpt>
      <trkpt lat="44.07711" lon="7.56221">
        <ele>1613</ele>
        <time>2021-11-15T06:41:09.055Z</time>
      </trkpt>
      <trkpt lat="44.07776" lon="7.56196">
        <ele>1623</ele>
        <time>2021-11-15T06:41:27.838Z</time>
      </trkpt>
      <trkpt lat="44.07859" lon="7.56115">
        <ele>1632</ele>
        <time>2021-11-15T06:41:46.637Z</time>
      </trkpt>
      <trkpt lat="44.07894" lon="7.56036">
        <ele>1642</ele>
        <time>2021-11-15T06:42:05.447Z</time>
      </trkpt>
      <trkpt lat="44.07944" lon="7.55958">
        <ele>1652</ele>
        <time>2021-11-15T06:42:24.269Z</time>
      </trkpt>
      <trkpt lat="44.08004" lon="7.55897">
        <ele>1661</ele>
        <time>2021-11-15T06:42:43.103Z</time>
      </trkpt>
      <trkpt lat="44.08061" lon="7.55852">
        <ele>1671</ele>
        <time>2021-11-15T06:43:01.947Z</time>
      </trkpt>
      <trkpt lat="44.0807" lon="7.5584">
        <ele>1680</ele>
        <time>2021-11-15T06:43:20.793Z</time>
      </trkpt>
      <trkpt lat="44.08088" lon="7.55792">
        <ele>1689</ele>
        <time>2021-11-15T06:43:39.645Z</time>
      </trkpt>
      <trkpt lat="44.08104" lon="7.5577">
        <ele>1699</ele>
        <time>2021-11-15T06:43:58.501Z</time>
      </trkpt>
      <trkpt lat="44.08125" lon="7.55757">
        <ele>1708</ele>
        <time>2021-11-15T06:44:17.361Z</time>
      </trkpt>
      <trkpt lat="44.08158" lon="7.55755">
        <ele>1717</ele>
        <time>2021-11-15T06:44:36.226Z</time>
      </trkpt>
      <trkpt lat="44.08196" lon="7.55717">
        <ele>1726</ele>
        <time>2021-11-15T06:44:55.099Z</time>
      </trkpt>
      <trkpt lat="44.08218" lon="7.55668">
        <ele>1735</ele>
        <time>2021-11-15T06:45:13.978Z</time>
      </trkpt>
      <trkpt lat="44.08229" lon="7.5559">
        <ele>1745</ele>
        <time>2021-11-15T06:45:32.866Z</time>
      </trkpt>
      <trkpt lat="44.08265" lon="7.55484">
        <ele>1755</ele>
        <time>2021-11-15T06:45:51.768Z</time>
      </trkpt>
      <trkpt lat="44.08225" lon="7.55529">
        <ele>1764</ele>
        <time>2021-11-15T06:46:10.678Z</time>
      </trkpt>
      <trkpt lat="44.08147" lon="7.55576">
        <ele>1773</ele>
        <time>2021-11-15T06:46:29.602Z</time>
      </trkpt>
      <trkpt lat="44.08089" lon="7.55586">
        <ele>1782</ele>
        <time>2021-11-15T06:46:48.535Z</time>
      </trkpt>
      <trkpt lat="44.08027" lon="7.55567">
        <ele>1791</ele>
        <time>2021-11-15T06:47:07.478Z</time>
      </trkpt>
      <trkpt lat="44.0797" lon="7.55568">
        <ele>1800</ele>
        <time>2021-11-15T06:47:26.430Z</time>
      </trkpt>
      <trkpt lat="44.07926" lon="7.55577">
        <ele>1809</ele>
        <time>2021-11-15T06:47:45.389Z</time>
      </trkpt>
      <trkpt lat="44.07878" lon="7.55605">
        <ele>1818</ele>
        <time>2021-11-15T06:48:04.357Z</time>
      </trkpt>
      <trkpt lat="44.07869" lon="7.55604">
        <ele>1826</ele>
        <time>2021-11-15T06:48:23.326Z</time>
      </trkpt>
      <trkpt lat="44.07939" lon="7.55526">
        <ele>1835</ele>
        <time>2021-11-15T06:48:42.310Z</time>
      </trkpt>
      <trkpt lat="44.08038" lon="7.55465">
        <ele>1843</ele>
        <time>2021-11-15T06:49:01.311Z</time>
      </trkpt>
      <trkpt lat="44.08071" lon="7.55441">
        <ele>1851</ele>
        <time>2021-11-15T06:49:20.318Z</time>
      </trkpt>
      <trkpt lat="44.08094" lon="7.55418">
        <ele>1859</ele>
        <time>2021-11-15T06:49:39.329Z</time>
      </trkpt>
      <trkpt lat="44.08143" lon="7.55299">
        <ele>1868</ele>
        <time>2021-11-15T06:49:58.356Z</time>
      </trkpt>
      <trkpt lat="44.08197" lon="7.55206">
        <ele>1876</ele>
        <time>2021-11-15T06:50:17.397Z</time>
      </trkpt>
      <trkpt lat="44.08281" lon="7.55111">
        <ele>1883</ele>
        <time>2021-11-15T06:50:36.455Z</time>
      </trkpt>
      <trkpt lat="44.0835" lon="7.55018">
        <ele>1891</ele>
        <time>2021-11-15T06:50:55.529Z</time>
      </trkpt>
      <trkpt lat="44.08399" lon="7.54966">
        <ele>1899</ele>
        <time>2021-11-15T06:51:14.613Z</time>
      </trkpt>
      <trkpt lat="44.08491" lon="7.54995">
        <ele>1905</ele>
        <time>2021-11-15T06:51:33.712Z</time>
      </trkpt>
      <trkpt lat="44.08519" lon="7.54988">
        <ele>1912</ele>
        <time>2021-11-15T06:51:52.815Z</time>
      </trkpt>
      <trkpt lat="44.08567" lon="7.54962">
        <ele>1919</ele>
        <time>2021-11-15T06:52:11.927Z</time>
      </trkpt>
      <trkpt lat="44.08612" lon="7.54954">
        <ele>1925</ele>
        <time>2021-11-15T06:52:31.046Z</time>
      </trkpt>
      <trkpt lat="44.08647" lon="7.5496">
        <ele>1931</ele>
        <time>2021-11-15T06:52:50.170Z</time>
      </trkpt>
      <trkpt lat="44.08678" lon="7.54986">
        <ele>1936</ele>
        <time>2021-11-15T06:53:09.300Z</time>
      </trkpt>
      <trkpt lat="44.08689" lon="7.54987">
        <ele>1942</ele>
        <time>2021-11-15T06:53:28.432Z</time>
      </trkpt>
      <trkpt lat="44.08695" lon="7.54979">
        <ele>1947</ele>
        <time>2021-11-15T06:53:47.565Z</time>
      </trkpt>
      <trkpt lat="44.08702" lon="7.54867">
        <ele>1951</ele>
        <time>2021-11-15T06:54:06.711Z</time>
      </trkpt>
      <trkpt lat="44.08659" lon="7.54662">
        <ele>1957</ele>
        <time>2021-11-15T06:54:25.882Z</time>
      </trkpt>
      <trkpt lat="44.08659" lon="7.54645">
        <ele>1962</ele>
        <time>2021-11-15T06:54:45.055Z</time>
      </trkpt>
      <trkpt lat="44.08671" lon="7.54606">
        <ele>1965</ele>
        <time>2021-11-15T06:55:04.233Z</time>
      </trkpt>
      <trkpt lat="44.0866" lon="7.54535">
        <ele>1969</ele>
        <time>2021-11-15T06:55:23.419Z</time>
      </trkpt>
      <trkpt lat="44.08659" lon="7.54509">
        <ele>1973</ele>
        <time>2021-11-15T06:55:42.608Z</time>
      </trkpt>
      <trkpt lat="44.08655" lon="7.54506">
        <ele>1976</ele>
        <time>2021-11-15T06:56:01.798Z</time>
      </trkpt>
      <trkpt lat="44.08651" lon="7.54509">
        <ele>1980</ele>
        <time>2021-11-15T06:56:20.989Z</time>
      </trkpt>
      <trkpt lat="44.08653" lon="7.54544">
        <ele>1983</ele>
        <time>2021-11-15T06:56:40.184Z</time>
      </trkpt>
      <trkpt lat="44.0865" lon="7.54606">
        <ele>1986</ele>
        <time>2021-11-15T06:56:59.386Z</time>
      </trkpt>
      <trkpt lat="44.08635" lon="7.54636">
        <ele>1989</ele>
        <time>2021-11-15T06:57:18.592Z</time>
      </trkpt>
      <trkpt lat="44.0863" lon="7.54657">
        <ele>1991</ele>
        <time>2021-11-15T06:57:37.801Z</time>
      </trkpt>
      <trkpt lat="44.0863" lon="7.54688">
        <ele>1993</ele>
        <time>2021-11-15T06:57:57.013Z</time>
      </trkpt>
      <trkpt lat="44.08625" lon="7.547">
        <ele>1995</ele>
        <time>2021-11-15T06:58:16.227Z</time>
      </trkpt>
      <trkpt lat="44.0862" lon="7.54698">
        <ele>1997</ele>
        <time>2021-11-15T06:58:35.442Z</time>
      </trkpt>
      <trkpt lat="44.08622" lon="7.54671">
        <ele>1998</ele>
        <time>2021-11-15T06:58:54.660Z</time>
      </trkpt>
      <trkpt lat="44.08633" lon="7.54606">
        <ele>2000</ele>
        <time>2021-11-15T06:59:13.885Z</time>
      </trkpt>
      <trkpt lat="44.0863" lon="7.54538">
        <ele>2001</ele>
        <time>2021-11-15T06:59:33.118Z</time>
      </trkpt>
      <trkpt lat="44.08625" lon="7.54519">
        <ele>2002</ele>
        <time>2021-11-15T06:59:52.354Z</time>
      </trkpt>
      <trkpt lat="44.08606" lon="7.54505">
        <ele>2003</ele>
        <time>2021-11-15T07:00:11.593Z</time>
      </trkpt>
      <trkpt lat="44.08601" lon="7.54492">
        <ele>2004</ele>
        <time>2021-11-15T07:00:30.834Z</time>
      </trkpt>
      <trkpt lat="44.08605" lon="7.54441">
        <ele>2004</ele>
        <time>2021-11-15T07:00:50.081Z</time>
      </trkpt>
      <trkpt lat="44.08602" lon="7.54423">
        <ele>2005</ele>
        <time>2021-11-15T07:01:09.330Z</time>
      </trkpt>
      <trkpt lat="44.08564" lon="7.54342">
        <ele>2006</ele>
        <time>2021-11-15T07:01:28.590Z</time>
      </trkpt>
      <trkpt lat="44.08558" lon="7.5421">
        <ele>2006</ele>
        <time>2021-11-15T07:01:47.865Z</time>
      </trkpt>
      <trkpt lat="44.0853" lon="7.54109">
        <ele>2007</ele>
        <time>2021-11-15T07:02:07.153Z</time>
      </trkpt>
      <trkpt lat="44.08534" lon="7.54089">
        <ele>2006</ele>
        <time>2021-11-15T07:02:26.443Z</time>
      </trkpt>
      <trkpt lat="44.0855" lon="7.54074">
        <ele>2006</ele>
        <time>2021-11-15T07:02:45.736Z</time>
      </trkpt>
      <trkpt lat="44.08569" lon="7.53978">
        <ele>2005</ele>
        <time>2021-11-15T07:03:05.041Z</time>
      </trkpt>
      <trkpt lat="44.08565" lon="7.53952">
        <ele>2005</ele>
        <time>2021-11-15T07:03:24.349Z</time>
      </trkpt>
      <trkpt lat="44.08566" lon="7.5394">
        <ele>2005</ele>
        <time>2021-11-15T07:03:43.658Z</time>
      </trkpt>
      <trkpt lat="44.08575" lon="7.53915">
        <ele>2004</ele>
        <time>2021-11-15T07:04:02.970Z</time>
      </trkpt>
      <trkpt lat="44.08576" lon="7.53886">
        <ele>2003</ele>
        <time>2021-11-15T07:04:22.286Z</time>
      </trkpt>
      <trkpt lat="44.08565" lon="7.53819">
        <ele>2003</ele>
        <time>2021-11-15T07:04:41.610Z</time>
      </trkpt>
      <trkpt lat="44.08569" lon="7.53803">
        <ele>2002</ele>
        <time>2021-11-15T07:05:00.936Z</time>
      </trkpt>
      <trkpt lat="44.08579" lon="7.53793">
        <ele>2001</ele>
        <time>2021-11-15T07:05:20.264Z</time>
      </trkpt>
      <trkpt lat="44.08604" lon="7.53778">
        <ele>1999</ele>
        <time>2021-11-15T07:05:39.596Z</time>
      </trkpt>
      <trkpt lat="44.08623" lon="7.53777">
        <ele>1998</ele>
        <time>2021-11-15T07:05:58.931Z</time>
      </trkpt>
      <trkpt lat="44.08646" lon="7.53765">
        <ele>1997</ele>
        <time>2021-11-15T07:06:18.270Z</time>
      </trkpt>
      <trkpt lat="44.08657" lon="7.53764">
        <ele>1996</ele>
        <time>2021-11-15T07:06:37.611Z</time>
      </trkpt>
      <trkpt lat="44.08671" lon="7.53769">
        <ele>1995</ele>
        <time>2021-11-15T07:06:56.954Z</time>
      </trkpt>
      <trkpt lat="44.08686" lon="7.53763">
        <ele>1994</ele>
        <time>2021-11-15T07:07:16.299Z</time>
      </trkpt>
      <trkpt lat="44.08691" lon="7.53764">
        <ele>1992</ele>
        <time>2021-11-15T07:07:35.645Z</time>
      </trkpt>
      <trkpt lat="44.08714" lon="7.53785">
        <ele>1991</ele>
        <time>2021-11-15T07:07:54.996Z</time>
      </trkpt>
      <trkpt lat="44.08723" lon="7.53783">
        <ele>1990</ele>
        <time>2021-11-15T07:08:14.348Z</time>
      </trkpt>
      <trkpt lat="44.08775" lon="7.53756">
        <ele>1989</ele>
        <time>2021-11-15T07:08:33.709Z</time>
      </trkpt>
      <trkpt lat="44.08779" lon="7.53752">
        <ele>1988</ele>
        <time>2021-11-15T07:08:53.071Z</time>
      </trkpt>
      <trkpt lat="44.08805" lon="7.53678">
        <ele>1987</ele>
        <time>2021-11-15T07:09:12.442Z</time>
      </trkpt>
      <trkpt lat="44.08817" lon="7.53639">
        <ele>1987</ele>
        <time>2021-11-15T07:09:31.818Z</time>
      </trkpt>
      <trkpt lat="44.0882" lon="7.53611">
        <ele>1986</ele>
        <time>2021-11-15T07:09:51.197Z</time>
      </trkpt>
      <trkpt lat="44.08824" lon="7.53604">
        <ele>1986</ele>
        <time>2021-11-15T07:10:10.577Z</time>
      </trkpt>
      <trkpt lat="44.08846" lon="7.53586">
        <ele>1986</ele>
        <time>2021-11-15T07:10:29.962Z</time>
      </trkpt>
      <trkpt lat="44.08855" lon="7.53587">
        <ele>1986</ele>
        <time>2021-11-15T07:10:49.348Z</time>
      </trkpt>
      <trkpt lat="44.08924" lon="7.53634">
        <ele>1986</ele>
        <time>2021-11-15T07:11:08.746Z</time>
      </trkpt>
      <trkpt lat="44.08938" lon="7.5365">
        <ele>1986</ele>
        <time>2021-11-15T07:11:28.147Z</time>
      </trkpt>
      <trkpt lat="44.08944" lon="7.53654">
        <ele>1986</ele>
        <time>2021-11-15T07:11:47.549Z</time>
      </trkpt>
      <trkpt lat="44.08948" lon="7.53652">
        <ele>1987</ele>
        <time>2021-11-15T07:12:06.952Z</time>
      </trkpt>
      <trkpt lat="44.0895" lon="7.53639">
        <ele>1988</ele>
        <time>2021-11-15T07:12:26.356Z</time>
      </trkpt>
      <trkpt lat="44.08914" lon="7.53615">
        <ele>1988</ele>
        <time>2021-11-15T07:12:45.767Z</time>
      </trkpt>
      <trkpt lat="44.08892" lon="7.53586">
        <ele>1989</ele>
        <time>2021-11-15T07:13:05.183Z</time>
      </trkpt>
      <trkpt lat="44.08873" lon="7.53575">
        <ele>1990</ele>
        <time>2021-11-15T07:13:24.602Z</time>
      </trkpt>
      <trkpt lat="44.0887" lon="7.53566">
        <ele>1991</ele>
        <time>2021-11-15T07:13:44.022Z</time>
      </trkpt>
      <trkpt lat="44.08873" lon="7.5356">
        <ele>1992</ele>
        <time>2021-11-15T07:14:03.443Z</time>
      </trkpt>
      <trkpt lat="44.08882" lon="7.53562">
        <ele>1994</ele>
        <time>2021-11-15T07:14:22.865Z</time>
      </trkpt>
      <trkpt lat="44.08903" lon="7.53585">
        <ele>1995</ele>
        <time>2021-11-15T07:14:42.292Z</time>
      </trkpt>
      <trkpt lat="44.08954" lon="7.53618">
        <ele>1996</ele>
        <time>2021-11-15T07:15:01.728Z</time>
      </trkpt>
      <trkpt lat="44.08989" lon="7.53634">
        <ele>1998</ele>
        <time>2021-11-15T07:15:21.170Z</time>
      </trkpt>
      <trkpt lat="44.08995" lon="7.53634">
        <ele>1999</ele>
        <time>2021-11-15T07:15:40.613Z</time>
      </trkpt>
      <trkpt lat="44.09006" lon="7.53615">
        <ele>2001</ele>
        <time>2021-11-15T07:16:00.058Z</time>
      </trkpt>
      <trkpt lat="44.09037" lon="7.5359">
        <ele>2003</ele>
        <time>2021-11-15T07:16:19.509Z</time>
      </trkpt>
      <trkpt lat="44.09053" lon="7.53586">
        <ele>2005</ele>
        <time>2021-11-15T07:16:38.963Z</time>
      </trkpt>
      <trkpt lat="44.09061" lon="7.53589">
        <ele>2007</ele>
        <time>2021-11-15T07:16:58.418Z</time>
      </trkpt>
      <trkpt lat="44.09073" lon="7.536">
        <ele>2009</ele>
        <time>2021-11-15T07:17:17.875Z</time>
      </trkpt>
      <trkpt lat="44.09089" lon="7.53604">
        <ele>2010</ele>
        <time>2021-11-15T07:17:37.335Z</time>
      </trkpt>
      <trkpt lat="44.09099" lon="7.5361">
        <ele>2012</ele>
        <time>2021-11-15T07:17:56.797Z</time>
      </trkpt>
      <trkpt lat="44.09125" lon="7.5364">
        <ele>2014</ele>
        <time>2021-11-15T07:18:16.264Z</time>
      </trkpt>
      <trkpt lat="44.09133" lon="7.53642">
        <ele>2016</ele>
        <time>2021-11-15T07:18:35.732Z</time>
      </trkpt>
      <trkpt lat="44.0918" lon="7.53594">
        <ele>2018</ele>
        <time>2021-11-15T07:18:55.210Z</time>
      </trkpt>
      <trkpt lat="44.09208" lon="7.53577">
        <ele>2020</ele>
        <time>2021-11-15T07:19:14.693Z</time>
      </trkpt>
      <trkpt lat="44.09247" lon="7.53544">
        <ele>2022</ele>
        <time>2021-11-15T07:19:34.183Z</time>
      </trkpt>
      <trkpt lat="44.09265" lon="7.53534">
        <ele>2024</ele>
        <time>2021-11-15T07:19:53.676Z</time>
      </trkpt>
      <trkpt lat="44.09314" lon="7.5352">
        <ele>2025</ele>
        <time>2021-11-15T07:20:13.177Z</time>
      </trkpt>
      <trkpt lat="44.09327" lon="7.53513">
        <ele>2027</ele>
        <time>2021-11-15T07:20:32.680Z</time>
      </trkpt>
      <trkpt lat="44.09354" lon="7.53483">
        <ele>2028</ele>
        <time>2021-11-15T07:20:52.189Z</time>
      </trkpt>
      <trkpt lat="44.09382" lon="7.53462">
        <ele>2030</ele>
        <time>2021-11-15T07:21:11.703Z</time>
      </trkpt>
      <trkpt lat="44.09388" lon="7.53449">
        <ele>2031</ele>
        <time>2021-11-15T07:21:31.219Z</time>
      </trkpt>
      <trkpt lat="44.09389" lon="7.53437">
        <ele>2032</ele>
        <time>2021-11-15T07:21:50.736Z</time>
      </trkpt>
      <trkpt lat="44.09385" lon="7.5341">
        <ele>2033</ele>
        <time>2021-11-15T07:22:10.256Z</time>
      </trkpt>
      <trkpt lat="44.0942" lon="7.53357">
        <ele>2034</ele>
        <time>2021-11-15T07:22:29.785Z</time>
      </trkpt>
      <trkpt lat="44.09493" lon="7.53296">
        <ele>2035</ele>
        <time>2021-11-15T07:22:49.327Z</time>
      </trkpt>
      <trkpt lat="44.09536" lon="7.53245">
        <ele>2036</ele>
        <time>2021-11-15T07:23:08.878Z</time>
      </trkpt>
      <trkpt lat="44.09605" lon="7.5319">
        <ele>2036</ele>
        <time>2021-11-15T07:23:28.442Z</time>
      </trkpt>
      <trkpt lat="44.09643" lon="7.53166">
        <ele>2037</ele>
        <time>2021-11-15T07:23:48.013Z</time>
      </trkpt>
      <trkpt lat="44.0966" lon="7.53063">
        <ele>2037</ele>
        <time>2021-11-15T07:24:07.596Z</time>
      </trkpt>
      <trkpt lat="44.09663" lon="7.53008">
        <ele>2037</ele>
        <time>2021-11-15T07:24:27.185Z</time>
      </trkpt>
      <trkpt lat="44.09666" lon="7.52995">
        <ele>2038</ele>
        <time>2021-11-15T07:24:46.776Z</time>
      </trkpt>
      <trkpt lat="44.09675" lon="7.52981">
        <ele>2038</ele>
        <time>2021-11-15T07:25:06.369Z</time>
      </trkpt>
      <trkpt lat="44.09692" lon="7.5297">
        <ele>2038</ele>
        <time>2021-11-15T07:25:25.965Z</time>
      </trkpt>
      <trkpt lat="44.09728" lon="7.52968">
        <ele>2038</ele>
        <time>2021-11-15T07:25:45.567Z</time>
      </trkpt>
      <trkpt lat="44.09739" lon="7.52964">
        <ele>2038</ele>
        <time>2021-11-15T07:26:05.171Z</time>
      </trkpt>
      <trkpt lat="44.09764" lon="7.52947">
        <ele>2037</ele>
        <time>2021-11-15T07:26:24.779Z</time>
      </trkpt>
      <trkpt lat="44.09815" lon="7.529">
        <ele>2037</ele>
        <time>2021-11-15T07:26:44.397Z</time>
      </trkpt>
      <trkpt lat="44.09835" lon="7.52896">
        <ele>2037</ele>
        <time>2021-11-15T07:27:04.018Z</time>
      </trkpt>
      <trkpt lat="44.0984" lon="7.52882">
        <ele>2036</ele>
        <time>2021-11-15T07:27:23.641Z</time>
      </trkpt>
      <trkpt lat="44.0985" lon="7.52872">
        <ele>2035</ele>
        <time>2021-11-15T07:27:43.266Z</time>
      </trkpt>
      <trkpt lat="44.09864" lon="7.52872">
        <ele>2035</ele>
        <time>2021-11-15T07:28:02.893Z</time>
      </trkpt>
      <trkpt lat="44.09868" lon="7.52869">
        <ele>2034</ele>
        <time>2021-11-15T07:28:22.521Z</time>
      </trkpt>
      <trkpt lat="44.0987" lon="7.52837">
        <ele>2033</ele>
        <time>2021-11-15T07:28:42.152Z</time>
      </trkpt>
      <trkpt lat="44.09877" lon="7.52802">
        <ele>2032</ele>
        <time>2021-11-15T07:29:01.788Z</time>
      </trkpt>
      <trkpt lat="44.09899" lon="7.52747">
        <ele>2030</ele>
        <time>2021-11-15T07:29:21.431Z</time>
      </trkpt>
      <trkpt lat="44.09909" lon="7.52742">
        <ele>2029</ele>
        <time>2021-11-15T07:29:41.076Z</time>
      </trkpt>
      <trkpt lat="44.09928" lon="7.52747">
        <ele>2029</ele>
        <time>2021-11-15T07:30:00.724Z</time>
      </trkpt>
      <trkpt lat="44.09934" lon="7.52738">
        <ele>2028</ele>
        <time>2021-11-15T07:30:20.373Z</time>
      </trkpt>
      <trkpt lat="44.09935" lon="7.52706">
        <ele>2026</ele>
        <time>2021-11-15T07:30:40.026Z</time>
      </trkpt>
      <trkpt lat="44.09948" lon="7.52688">
        <ele>2025</ele>
        <time>2021-11-15T07:30:59.682Z</time>
      </trkpt>
      <trkpt lat="44.0998" lon="7.52671">
        <ele>2024</ele>
        <time>2021-11-15T07:31:19.343Z</time>
      </trkpt>
      <trkpt lat="44.10003" lon="7.52665">
        <ele>2023</ele>
        <time>2021-11-15T07:31:39.008Z</time>
      </trkpt>
      <trkpt lat="44.10006" lon="7.5266">
        <ele>2022</ele>
        <time>2021-11-15T07:31:58.674Z</time>
      </trkpt>
      <trkpt lat="44.1" lon="7.52629">
        <ele>2020</ele>
        <time>2021-11-15T07:32:18.343Z</time>
      </trkpt>
      <trkpt lat="44.10003" lon="7.52582">
        <ele>2018</ele>
        <time>2021-11-15T07:32:38.018Z</time>
      </trkpt>
      <trkpt lat="44.10016" lon="7.52553">
        <ele>2017</ele>
        <time>2021-11-15T07:32:57.697Z</time>
      </trkpt>
      <trkpt lat="44.10027" lon="7.52499">
        <ele>2015</ele>
        <time>2021-11-15T07:33:17.382Z</time>
      </trkpt>
      <trkpt lat="44.10039" lon="7.52463">
        <ele>2014</ele>
        <time>2021-11-15T07:33:37.072Z</time>
      </trkpt>
      <trkpt lat="44.10083" lon="7.52379">
        <ele>2013</ele>
        <time>2021-11-15T07:33:56.774Z</time>
      </trkpt>
      <trkpt lat="44.10083" lon="7.52355">
        <ele>2011</ele>
        <time>2021-11-15T07:34:16.479Z</time>
      </trkpt>
      <trkpt lat="44.10095" lon="7.52299">
        <ele>2010</ele>
        <time>2021-11-15T07:34:36.190Z</time>
      </trkpt>
      <trkpt lat="44.10094" lon="7.52245">
        <ele>2008</ele>
        <time>2021-11-15T07:34:55.908Z</time>
      </trkpt>
      <trkpt lat="44.10105" lon="7.52233">
        <ele>2007</ele>
        <time>2021-11-15T07:35:15.628Z</time>
      </trkpt>
      <trkpt lat="44.10132" lon="7.5223">
        <ele>2005</ele>
        <time>2021-11-15T07:35:35.352Z</time>
      </trkpt>
      <trkpt lat="44.10155" lon="7.52221">
        <ele>2004</ele>
        <time>2021-11-15T07:35:55.080Z</time>
      </trkpt>
      <trkpt lat="44.10173" lon="7.52219">
        <ele>2003</ele>
        <time>2021-11-15T07:36:14.811Z</time>
      </trkpt>
      <trkpt lat="44.10178" lon="7.52215">
        <ele>2002</ele>
        <time>2021-11-15T07:36:34.543Z</time>
      </trkpt>
      <trkpt lat="44.10213" lon="7.52147">
        <ele>2000</ele>
        <time>2021-11-15T07:36:54.284Z</time>
      </trkpt>
      <trkpt lat="44.10253" lon="7.52114">
        <ele>1999</ele>
        <time>2021-11-15T07:37:14.033Z</time>
      </trkpt>
      <trkpt lat="44.10285" lon="7.52076">
        <ele>1998</ele>
        <time>2021-11-15T07:37:33.789Z</time>
      </trkpt>
      <trkpt lat="44.10304" lon="7.52044">
        <ele>1997</ele>
        <time>2021-11-15T07:37:53.549Z</time>
      </trkpt>
      <trkpt lat="44.10317" lon="7.52039">
        <ele>1997</ele>
        <time>2021-11-15T07:38:13.311Z</time>
      </trkpt>
      <trkpt lat="44.10327" lon="7.52044">
        <ele>1996</ele>
        <time>2021-11-15T07:38:33.075Z</time>
      </trkpt>
      <trkpt lat="44.10364" lon="7.52092">
        <ele>1996</ele>
        <time>2021-11-15T07:38:52.847Z</time>
      </trkpt>
      <trkpt lat="44.10461" lon="7.52136">
        <ele>1995</ele>
        <time>2021-11-15T07:39:12.636Z</time>
      </trkpt>
      <trkpt lat="44.10505" lon="7.52179">
        <ele>1994</ele>
        <time>2021-11-15T07:39:32.433Z</time>
      </trkpt>
      <trkpt lat="44.10555" lon="7.52221">
        <ele>1994</ele>
        <time>2021-11-15T07:39:52.240Z</time>
      </trkpt>
      <trkpt lat="44.10569" lon="7.52247">
        <ele>1994</ele>
        <time>2021-11-15T07:40:12.050Z</time>
      </trkpt>
      <trkpt lat="44.10588" lon="7.52314">
        <ele>1994</ele>
        <time>2021-11-15T07:40:31.869Z</time>
      </trkpt>
      <trkpt lat="44.10616" lon="7.52348">
        <ele>1995</ele>
        <time>2021-11-15T07:40:51.694Z</time>
      </trkpt>
      <trkpt lat="44.10622" lon="7.52351">
        <ele>1995</ele>
        <time>2021-11-15T07:41:11.520Z</time>
      </trkpt>
      <trkpt lat="44.10628" lon="7.52351">
        <ele>1996</ele>
        <time>2021-11-15T07:41:31.347Z</time>
      </trkpt>
      <trkpt lat="44.10649" lon="7.52325">
        <ele>1996</ele>
        <time>2021-11-15T07:41:51.178Z</time>
      </trkpt>
      <trkpt lat="44.10675" lon="7.52302">
        <ele>1997</ele>
        <time>2021-11-15T07:42:11.014Z</time>
      </trkpt>
      <trkpt lat="44.10708" lon="7.52265">
        <ele>1997</ele>
        <time>2021-11-15T07:42:30.857Z</time>
      </trkpt>
      <trkpt lat="44.10764" lon="7.5218">
        <ele>1998</ele>
        <time>2021-11-15T07:42:50.713Z</time>
      </trkpt>
      <trkpt lat="44.10789" lon="7.52135">
        <ele>1999</ele>
        <time>2021-11-15T07:43:10.576Z</time>
      </trkpt>
      <trkpt lat="44.10801" lon="7.52122">
        <ele>2000</ele>
        <time>2021-11-15T07:43:30.441Z</time>
      </trkpt>
      <trkpt lat="44.10825" lon="7.52106">
        <ele>2002</ele>
        <time>2021-11-15T07:43:50.310Z</time>
      </trkpt>
      <trkpt lat="44.10838" lon="7.52102">
        <ele>2003</ele>
        <time>2021-11-15T07:44:10.181Z</time>
      </trkpt>
      <trkpt lat="44.1087" lon="7.52103">
        <ele>2005</ele>
        <time>2021-11-15T07:44:30.058Z</time>
      </trkpt>
      <trkpt lat="44.10892" lon="7.5211">
        <ele>2006</ele>
        <time>2021-11-15T07:44:49.938Z</time>
      </trkpt>
      <trkpt lat="44.10919" lon="7.52125">
        <ele>2008</ele>
        <time>2021-11-15T07:45:09.823Z</time>
      </trkpt>
      <trkpt lat="44.10926" lon="7.52123">
        <ele>2010</ele>
        <time>2021-11-15T07:45:29.709Z</time>
      </trkpt>
      <trkpt lat="44.10934" lon="7.52113">
        <ele>2012</ele>
        <time>2021-11-15T07:45:49.597Z</time>
      </trkpt>
      <trkpt lat="44.1095" lon="7.52074">
        <ele>2013</ele>
        <time>2021-11-15T07:46:09.490Z</time>
      </trkpt>
      <trkpt lat="44.1096" lon="7.52063">
        <ele>2015</ele>
        <time>2021-11-15T07:46:29.385Z</time>
      </trkpt>
      <trkpt lat="44.10975" lon="7.52057">
        <ele>2016</ele>
        <time>2021-11-15T07:46:49.282Z</time>
      </trkpt>
      <trkpt lat="44.11036" lon="7.52059">
        <ele>2019</ele>
        <time>2021-11-15T07:47:09.189Z</time>
      </trkpt>
      <trkpt lat="44.11202" lon="7.52103">
        <ele>2020</ele>
        <time>2021-11-15T07:47:29.123Z</time>
      </trkpt>
      <trkpt lat="44.11224" lon="7.52113">
        <ele>2022</ele>
        <time>2021-11-15T07:47:49.061Z</time>
      </trkpt>
      <trkpt lat="44.11263" lon="7.52147">
        <ele>2023</ele>
        <time>2021-11-15T07:48:09.006Z</time>
      </trkpt>
      <trkpt lat="44.11292" lon="7.52198">
        <ele>2025</ele>
        <time>2021-11-15T07:48:28.959Z</time>
      </trkpt>
      <trkpt lat="44.11303" lon="7.52241">
        <ele>2027</ele>
        <time>2021-11-15T07:48:48.917Z</time>
      </trkpt>
      <trkpt lat="44.11311" lon="7.52254">
        <ele>2028</ele>
        <time>2021-11-15T07:49:08.877Z</time>
      </trkpt>
      <trkpt lat="44.11317" lon="7.52255">
        <ele>2029</ele>
        <time>2021-11-15T07:49:28.838Z</time>
      </trkpt>
      <trkpt lat="44.1132" lon="7.5226">
        <ele>2030</ele>
        <time>2021-11-15T07:49:48.800Z</time>
      </trkpt>
      <trkpt lat="44.11347" lon="7.52267">
        <ele>2030</ele>
        <time>2021-11-15T07:50:08.766Z</time>
      </trkpt>
      <trkpt lat="44.11382" lon="7.52281">
        <ele>2031</ele>
        <time>2021-11-15T07:50:28.738Z</time>
      </trkpt>
      <trkpt lat="44.11395" lon="7.52281">
        <ele>2031</ele>
        <time>2021-11-15T07:50:48.712Z</time>
      </trkpt>
      <trkpt lat="44.11462" lon="7.52252">
        <ele>2032</ele>
        <time>2021-11-15T07:51:08.697Z</time>
      </trkpt>
      <trkpt lat="44.11494" lon="7.52224">
        <ele>2031</ele>
        <time>2021-11-15T07:51:28.688Z</time>
      </trkpt>
      <trkpt lat="44.11504" lon="7.52208">
        <ele>2031</ele>
        <time>2021-11-15T07:51:48.682Z</time>
      </trkpt>
      <trkpt lat="44.11578" lon="7.52073">
        <ele>2031</ele>
        <time>2021-11-15T07:52:08.695Z</time>
      </trkpt>
      <trkpt lat="44.1166" lon="7.51859">
        <ele>2030</ele>
        <time>2021-11-15T07:52:28.736Z</time>
      </trkpt>
      <trkpt lat="44.11676" lon="7.51823">
        <ele>2029</ele>
        <time>2021-11-15T07:52:48.782Z</time>
      </trkpt>
      <trkpt lat="44.11689" lon="7.51804">
        <ele>2028</ele>
        <time>2021-11-15T07:53:08.831Z</time>
      </trkpt>
      <trkpt lat="44.11703" lon="7.51795">
        <ele>2027</ele>
        <time>2021-11-15T07:53:28.883Z</time>
      </trkpt>
      <trkpt lat="44.11733" lon="7.51785">
        <ele>2025</ele>
        <time>2021-11-15T07:53:48.940Z</time>
      </trkpt>
      <trkpt lat="44.11845" lon="7.51758">
        <ele>2023</ele>
        <time>2021-11-15T07:54:09.015Z</time>
      </trkpt>
      <trkpt lat="44.11908" lon="7.51737">
        <ele>2021</ele>
        <time>2021-11-15T07:54:29.100Z</time>
      </trkpt>
      <trkpt lat="44.1203" lon="7.51659">
        <ele>2018</ele>
        <time>2021-11-15T07:54:49.207Z</time>
      </trkpt>
      <trkpt lat="44.12047" lon="7.51643">
        <ele>2016</ele>
        <time>2021-11-15T07:55:09.317Z</time>
      </trkpt>
      <trkpt lat="44.12055" lon="7.5163">
        <ele>2013</ele>
        <time>2021-11-15T07:55:29.429Z</time>
      </trkpt>
      <trkpt lat="44.12062" lon="7.51611">
        <ele>2011</ele>
        <time>2021-11-15T07:55:49.543Z</time>
      </trkpt>
      <trkpt lat="44.12077" lon="7.51533">
        <ele>2008</ele>
        <time>2021-11-15T07:56:09.667Z</time>
      </trkpt>
      <trkpt lat="44.12082" lon="7.51525">
        <ele>2005</ele>
        <time>2021-11-15T07:56:29.792Z</time>
      </trkpt>
      <trkpt lat="44.12093" lon="7.51524">
        <ele>2002</ele>
        <time>2021-11-15T07:56:49.919Z</time>
      </trkpt>
      <trkpt lat="44.1212" lon="7.5154">
        <ele>1999</ele>
        <time>2021-11-15T07:57:10.050Z</time>
      </trkpt>
      <trkpt lat="44.12137" lon="7.51543">
        <ele>1996</ele>
        <time>2021-11-15T07:57:30.184Z</time>
      </trkpt>
      <trkpt lat="44.12182" lon="7.51529">
        <ele>1992</ele>
        <time>2021-11-15T07:57:50.325Z</time>
      </trkpt>
      <trkpt lat="44.12202" lon="7.51552">
        <ele>1989</ele>
        <time>2021-11-15T07:58:10.471Z</time>
      </trkpt>
      <trkpt lat="44.12213" lon="7.5156">
        <ele>1986</ele>
        <time>2021-11-15T07:58:30.619Z</time>
      </trkpt>
      <trkpt lat="44.12225" lon="7.51562">
        <ele>1982</ele>
        <time>2021-11-15T07:58:50.768Z</time>
      </trkpt>
      <trkpt lat="44.12258" lon="7.51542">
        <ele>1979</ele>
        <time>2021-11-15T07:59:10.923Z</time>
      </trkpt>
      <trkpt lat="44.12344" lon="7.51433">
        <ele>1975</ele>
        <time>2021-11-15T07:59:31.097Z</time>
      </trkpt>
      <trkpt lat="44.12397" lon="7.51412">
        <ele>1971</ele>
        <time>2021-11-15T07:59:51.280Z</time>
      </trkpt>
      <trkpt lat="44.12439" lon="7.51402">
        <ele>1968</ele>
        <time>2021-11-15T08:00:11.470Z</time>
      </trkpt>
      <trkpt lat="44.12479" lon="7.51397">
        <ele>1964</ele>
        <time>2021-11-15T08:00:31.666Z</time>
      </trkpt>
      <trkpt lat="44.12509" lon="7.51406">
        <ele>1960</ele>
        <time>2021-11-15T08:00:51.867Z</time>
      </trkpt>
      <trkpt lat="44.12524" lon="7.51413">
        <ele>1957</ele>
        <time>2021-11-15T08:01:12.070Z</time>
      </trkpt>
      <trkpt lat="44.12551" lon="7.51482">
        <ele>1953</ele>
        <time>2021-11-15T08:01:32.282Z</time>
      </trkpt>
      <trkpt lat="44.12557" lon="7.51509">
        <ele>1949</ele>
        <time>2021-11-15T08:01:52.498Z</time>
      </trkpt>
      <trkpt lat="44.12562" lon="7.51516">
        <ele>1946</ele>
        <time>2021-11-15T08:02:12.715Z</time>
      </trkpt>
      <trkpt lat="44.12597" lon="7.51532">
        <ele>1943</ele>
        <time>2021-11-15T08:02:32.938Z</time>
      </trkpt>
      <trkpt lat="44.12606" lon="7.51544">
        <ele>1940</ele>
        <time>2021-11-15T08:02:53.163Z</time>
      </trkpt>
      <trkpt lat="44.12617" lon="7.51572">
        <ele>1936</ele>
        <time>2021-11-15T08:03:13.391Z</time>
      </trkpt>
      <trkpt lat="44.12642" lon="7.51607">
        <ele>1933</ele>
        <time>2021-11-15T08:03:33.625Z</time>
      </trkpt>
      <trkpt lat="44.12691" lon="7.51628">
        <ele>1930</ele>
        <time>2021-11-15T08:03:53.867Z</time>
      </trkpt>
      <trkpt lat="44.12703" lon="7.51659">
        <ele>1927</ele>
        <time>2021-11-15T08:04:14.113Z</time>
      </trkpt>
      <trkpt lat="44.12736" lon="7.5171">
        <ele>1924</ele>
        <time>2021-11-15T08:04:34.367Z</time>
      </trkpt>
      <trkpt lat="44.1274" lon="7.51715">
        <ele>1921</ele>
        <time>2021-11-15T08:04:54.622Z</time>
      </trkpt>
      <trkpt lat="44.12774" lon="7.51726">
        <ele>1919</ele>
        <time>2021-11-15T08:05:14.883Z</time>
      </trkpt>
      <trkpt lat="44.12788" lon="7.51735">
        <ele>1916</ele>
        <time>2021-11-15T08:05:35.146Z</time>
      </trkpt>
      <trkpt lat="44.12796" lon="7.51762">
        <ele>1914</ele>
        <time>2021-11-15T08:05:55.413Z</time>
      </trkpt>
      <trkpt lat="44.12796" lon="7.51794">
        <ele>1911</ele>
        <time>2021-11-15T08:06:15.683Z</time>
      </trkpt>
      <trkpt lat="44.12775" lon="7.51868">
        <ele>1908</ele>
        <time>2021-11-15T08:06:35.962Z</time>
      </trkpt>
      <trkpt lat="44.12758" lon="7.51946">
        <ele>1906</ele>
        <time>2021-11-15T08:06:56.251Z</time>
      </trkpt>
      <trkpt lat="44.1276" lon="7.51955">
        <ele>1903</ele>
        <time>2021-11-15T08:07:16.541Z</time>
      </trkpt>
      <trkpt lat="44.12765" lon="7.5196">
        <ele>1901</ele>
        <time>2021-11-15T08:07:36.832Z</time>
      </trkpt>
      <trkpt lat="44.12789" lon="7.51958">
        <ele>1899</ele>
        <time>2021-11-15T08:07:57.127Z</time>
      </trkpt>
      <trkpt lat="44.12803" lon="7.51962">
        <ele>1897</ele>
        <time>2021-11-15T08:08:17.424Z</time>
      </trkpt>
      <trkpt lat="44.12814" lon="7.51982">
        <ele>1895</ele>
        <time>2021-11-15T08:08:37.724Z</time>
      </trkpt>
      <trkpt lat="44.12814" lon="7.52002">
        <ele>1893</ele>
        <time>2021-11-15T08:08:58.026Z</time>
      </trkpt>
      <trkpt lat="44.12796" lon="7.52077">
        <ele>1891</ele>
        <time>2021-11-15T08:09:18.337Z</time>
      </trkpt>
      <trkpt lat="44.12796" lon="7.52137">
        <ele>1889</ele>
        <time>2021-11-15T08:09:38.655Z</time>
      </trkpt>
      <trkpt lat="44.12789" lon="7.52162">
        <ele>1887</ele>
        <time>2021-11-15T08:09:58.976Z</time>
      </trkpt>
      <trkpt lat="44.12768" lon="7.5221">
        <ele>1885</ele>
        <time>2021-11-15T08:10:19.304Z</time>
      </trkpt>
      <trkpt lat="44.1273" lon="7.52247">
        <ele>1883</ele>
        <time>2021-11-15T08:10:39.639Z</time>
      </trkpt>
      <trkpt lat="44.12712" lon="7.52274">
        <ele>1881</ele>
        <time>2021-11-15T08:10:59.978Z</time>
      </trkpt>
      <trkpt lat="44.1271" lon="7.52283">
        <ele>1879</ele>
        <time>2021-11-15T08:11:20.319Z</time>
      </trkpt>
      <trkpt lat="44.12719" lon="7.52319">
        <ele>1878</ele>
        <time>2021-11-15T08:11:40.664Z</time>
      </trkpt>
      <trkpt lat="44.12717" lon="7.52336">
        <ele>1876</ele>
        <time>2021-11-15T08:12:01.011Z</time>
      </trkpt>
      <trkpt lat="44.12697" lon="7.52388">
        <ele>1874</ele>
        <time>2021-11-15T08:12:21.365Z</time>
      </trkpt>
      <trkpt lat="44.12667" lon="7.52449">
        <ele>1872</ele>
        <time>2021-11-15T08:12:41.727Z</time>
      </trkpt>
      <trkpt lat="44.12631" lon="7.52506">
        <ele>1870</ele>
        <time>2021-11-15T08:13:02.098Z</time>
      </trkpt>
      <trkpt lat="44.12619" lon="7.52532">
        <ele>1868</ele>
        <time>2021-11-15T08:13:22.473Z</time>
      </trkpt>
      <trkpt lat="44.12613" lon="7.52553">
        <ele>1866</ele>
        <time>2021-11-15T08:13:42.850Z</time>
      </trkpt>
      <trkpt lat="44.12611" lon="7.52576">
        <ele>1864</ele>
        <time>2021-11-15T08:14:03.230Z</time>
      </trkpt>
      <trkpt lat="44.12613" lon="7.52585">
        <ele>1863</ele>
        <time>2021-11-15T08:14:23.611Z</time>
      </trkpt>
      <trkpt lat="44.12623" lon="7.52599">
        <ele>1861</ele>
        <time>2021-11-15T08:14:43.994Z</time>
      </trkpt>
      <trkpt lat="44.12717" lon="7.5262">
        <ele>1859</ele>
        <time>2021-11-15T08:15:04.392Z</time>
      </trkpt>
      <trkpt lat="44.12741" lon="7.52637">
        <ele>1858</ele>
        <time>2021-11-15T08:15:24.795Z</time>
      </trkpt>
      <trkpt lat="44.1275" lon="7.52651">
        <ele>1857</ele>
        <time>2021-11-15T08:15:45.200Z</time>
      </trkpt>
      <trkpt lat="44.12754" lon="7.52695">
        <ele>1855</ele>
        <time>2021-11-15T08:16:05.610Z</time>
      </trkpt>
      <trkpt lat="44.12771" lon="7.52738">
        <ele>1853</ele>
        <time>2021-11-15T08:16:26.026Z</time>
      </trkpt>
      <trkpt lat="44.12789" lon="7.52775">
        <ele>1852</ele>
        <time>2021-11-15T08:16:46.447Z</time>
      </trkpt>
      <trkpt lat="44.12826" lon="7.52825">
        <ele>1851</ele>
        <time>2021-11-15T08:17:06.876Z</time>
      </trkpt>
      <trkpt lat="44.12854" lon="7.52871">
        <ele>1850</ele>
        <time>2021-11-15T08:17:27.312Z</time>
      </trkpt>
      <trkpt lat="44.12866" lon="7.52958">
        <ele>1848</ele>
        <time>2021-11-15T08:17:47.758Z</time>
      </trkpt>
      <trkpt lat="44.12881" lon="7.53006">
        <ele>1847</ele>
        <time>2021-11-15T08:18:08.210Z</time>
      </trkpt>
      <trkpt lat="44.12938" lon="7.53132">
        <ele>1846</ele>
        <time>2021-11-15T08:18:28.679Z</time>
      </trkpt>
      <trkpt lat="44.12974" lon="7.53179">
        <ele>1846</ele>
        <time>2021-11-15T08:18:49.156Z</time>
      </trkpt>
      <trkpt lat="44.12986" lon="7.53278">
        <ele>1844</ele>
        <time>2021-11-15T08:19:09.645Z</time>
      </trkpt>
      <trkpt lat="44.13053" lon="7.53475">
        <ele>1843</ele>
        <time>2021-11-15T08:19:30.159Z</time>
      </trkpt>
      <trkpt lat="44.13063" lon="7.53483">
        <ele>1843</ele>
        <time>2021-11-15T08:19:50.675Z</time>
      </trkpt>
      <trkpt lat="44.13101" lon="7.53493">
        <ele>1843</ele>
        <time>2021-11-15T08:20:11.197Z</time>
      </trkpt>
      <trkpt lat="44.13119" lon="7.53502">
        <ele>1842</ele>
        <time>2021-11-15T08:20:31.722Z</time>
      </trkpt>
      <trkpt lat="44.13138" lon="7.5356">
        <ele>1841</ele>
        <time>2021-11-15T08:20:52.254Z</time>
      </trkpt>
      <trkpt lat="44.13155" lon="7.5358">
        <ele>1841</ele>
        <time>2021-11-15T08:21:12.790Z</time>
      </trkpt>
      <trkpt lat="44.13205" lon="7.53607">
        <ele>1841</ele>
        <time>2021-11-15T08:21:33.335Z</time>
      </trkpt>
      <trkpt lat="44.13223" lon="7.53608">
        <ele>1840</ele>
        <time>2021-11-15T08:21:53.882Z</time>
      </trkpt>
      <trkpt lat="44.13236" lon="7.53603">
        <ele>1840</ele>
        <time>2021-11-15T08:22:14.432Z</time>
      </trkpt>
      <trkpt lat="44.13289" lon="7.53566">
        <ele>1840</ele>
        <time>2021-11-15T08:22:34.991Z</time>
      </trkpt>
      <trkpt lat="44.13403" lon="7.53499">
        <ele>1840</ele>
        <time>2021-11-15T08:22:55.570Z</time>
      </trkpt>
      <trkpt lat="44.1347" lon="7.53488">
        <ele>1840</ele>
        <time>2021-11-15T08:23:16.160Z</time>
      </trkpt>
      <trkpt lat="44.13524" lon="7.53483">
        <ele>1840</ele>
        <time>2021-11-15T08:23:36.758Z</time>
      </trkpt>
      <trkpt lat="44.13567" lon="7.53469">
        <ele>1841</ele>
        <time>2021-11-15T08:23:57.363Z</time>
      </trkpt>
      <trkpt lat="44.13582" lon="7.53461">
        <ele>1841</ele>
        <time>2021-11-15T08:24:17.971Z</time>
      </trkpt>
      <trkpt lat="44.13612" lon="7.53438">
        <ele>1841</ele>
        <time>2021-11-15T08:24:38.584Z</time>
      </trkpt>
      <trkpt lat="44.1363" lon="7.53418">
        <ele>1841</ele>
        <time>2021-11-15T08:24:59.201Z</time>
      </trkpt>
      <trkpt lat="44.13671" lon="7.53364">
        <ele>1842</ele>
        <time>2021-11-15T08:25:19.827Z</time>
      </trkpt>
      <trkpt lat="44.13689" lon="7.53321">
        <ele>1842</ele>
        <time>2021-11-15T08:25:40.459Z</time>
      </trkpt>
      <trkpt lat="44.13704" lon="7.53296">
        <ele>1843</ele>
        <time>2021-11-15T08:26:01.095Z</time>
      </trkpt>
      <trkpt lat="44.13718" lon="7.53282">
        <ele>1843</ele>
        <time>2021-11-15T08:26:21.733Z</time>
      </trkpt>
      <trkpt lat="44.13731" lon="7.53274">
        <ele>1843</ele>
        <time>2021-11-15T08:26:42.374Z</time>
      </trkpt>
      <trkpt lat="44.13741" lon="7.53273">
        <ele>1844</ele>
        <time>2021-11-15T08:27:03.016Z</time>
      </trkpt>
      <trkpt lat="44.13763" lon="7.5328">
        <ele>1844</ele>
        <time>2021-11-15T08:27:23.662Z</time>
      </trkpt>
      <trkpt lat="44.138" lon="7.53276">
        <ele>1845</ele>
        <time>2021-11-15T08:27:44.314Z</time>
      </trkpt>
      <trkpt lat="44.1384" lon="7.53281">
        <ele>1845</ele>
        <time>2021-11-15T08:28:04.972Z</time>
      </trkpt>
      <trkpt lat="44.13863" lon="7.5329">
        <ele>1845</ele>
        <time>2021-11-15T08:28:25.634Z</time>
      </trkpt>
      <trkpt lat="44.13907" lon="7.533">
        <ele>1846</ele>
        <time>2021-11-15T08:28:46.303Z</time>
      </trkpt>
      <trkpt lat="44.13925" lon="7.53313">
        <ele>1846</ele>
        <time>2021-11-15T08:29:06.975Z</time>
      </trkpt>
      <trkpt lat="44.13934" lon="7.53325">
        <ele>1846</ele>
        <time>2021-11-15T08:29:27.649Z</time>
      </trkpt>
      <trkpt lat="44.13949" lon="7.53349">
        <ele>1846</ele>
        <time>2021-11-15T08:29:48.327Z</time>
      </trkpt>
      <trkpt lat="44.13973" lon="7.53402">
        <ele>1846</ele>
        <time>2021-11-15T08:30:09.012Z</time>
      </trkpt>
      <trkpt lat="44.13987" lon="7.53497">
        <ele>1847</ele>
        <time>2021-11-15T08:30:29.709Z</time>
      </trkpt>
      <trkpt lat="44.14005" lon="7.53569">
        <ele>1847</ele>
        <time>2021-11-15T08:30:50.414Z</time>
      </trkpt>
      <trkpt lat="44.14007" lon="7.53591">
        <ele>1847</ele>
        <time>2021-11-15T08:31:11.122Z</time>
      </trkpt>
      <trkpt lat="44.14003" lon="7.53721">
        <ele>1847</ele>
        <time>2021-11-15T08:31:31.845Z</time>
      </trkpt>
      <trkpt lat="44.14013" lon="7.5378">
        <ele>1846</ele>
        <time>2021-11-15T08:31:52.575Z</time>
      </trkpt>
      <trkpt lat="44.1403" lon="7.53841">
        <ele>1846</ele>
        <time>2021-11-15T08:32:13.312Z</time>
      </trkpt>
      <trkpt lat="44.14058" lon="7.539">
        <ele>1846</ele>
        <time>2021-11-15T08:32:34.058Z</time>
      </trkpt>
      <trkpt lat="44.14066" lon="7.53925">
        <ele>1846</ele>
        <time>2021-11-15T08:32:54.807Z</time>
      </trkpt>
      <trkpt lat="44.14068" lon="7.5404">
        <ele>1846</ele>
        <time>2021-11-15T08:33:15.569Z</time>
      </trkpt>
      <trkpt lat="44.14072" lon="7.54088">
        <ele>1845</ele>
        <time>2021-11-15T08:33:36.336Z</time>
      </trkpt>
      <trkpt lat="44.14069" lon="7.54102">
        <ele>1845</ele>
        <time>2021-11-15T08:33:57.105Z</time>
      </trkpt>
      <trkpt lat="44.14061" lon="7.54113">
        <ele>1845</ele>
        <time>2021-11-15T08:34:17.876Z</time>
      </trkpt>
      <trkpt lat="44.14028" lon="7.54118">
        <ele>1844</ele>
        <time>2021-11-15T08:34:38.652Z</time>
      </trkpt>
      <trkpt lat="44.13999" lon="7.54141">
        <ele>1844</ele>
        <time>2021-11-15T08:34:59.434Z</time>
      </trkpt>
      <trkpt lat="44.13963" lon="7.54158">
        <ele>1843</ele>
        <time>2021-11-15T08:35:20.222Z</time>
      </trkpt>
      <trkpt lat="44.13957" lon="7.5417">
        <ele>1843</ele>
        <time>2021-11-15T08:35:41.011Z</time>
      </trkpt>
      <trkpt lat="44.13955" lon="7.54183">
        <ele>1843</ele>
        <time>2021-11-15T08:36:01.802Z</time>
      </trkpt>
      <trkpt lat="44.13965" lon="7.54238">
        <ele>1844</ele>
        <time>2021-11-15T08:36:22.599Z</time>
      </trkpt>
      <trkpt lat="44.14002" lon="7.54312">
        <ele>1844</ele>
        <time>2021-11-15T08:36:43.407Z</time>
      </trkpt>
      <trkpt lat="44.14009" lon="7.54331">
        <ele>1844</ele>
        <time>2021-11-15T08:37:04.217Z</time>
      </trkpt>
      <trkpt lat="44.1401" lon="7.54347">
        <ele>1844</ele>
        <time>2021-11-15T08:37:25.029Z</time>
      </trkpt>
      <trkpt lat="44.13974" lon="7.5441">
        <ele>1843</ele>
        <time>2021-11-15T08:37:45.850Z</time>
      </trkpt>
      <trkpt lat="44.13938" lon="7.54485">
        <ele>1844</ele>
        <time>2021-11-15T08:38:06.682Z</time>
      </trkpt>
      <trkpt lat="44.13882" lon="7.54556">
        <ele>1843</ele>
        <time>2021-11-15T08:38:27.526Z</time>
      </trkpt>
      <trkpt lat="44.13877" lon="7.5457">
        <ele>1844</ele>
        <time>2021-11-15T08:38:48.372Z</time>
      </trkpt>
      <trkpt lat="44.13877" lon="7.54601">
        <ele>1845</ele>
        <time>2021-11-15T08:39:09.221Z</time>
      </trkpt>
      <trkpt lat="44.13891" lon="7.54701">
        <ele>1845</ele>
        <time>2021-11-15T08:39:30.082Z</time>
      </trkpt>
      <trkpt lat="44.13894" lon="7.54761">
        <ele>1846</ele>
        <time>2021-11-15T08:39:50.950Z</time>
      </trkpt>
      <trkpt lat="44.13876" lon="7.54809">
        <ele>1847</ele>
        <time>2021-11-15T08:40:11.824Z</time>
      </trkpt>
      <trkpt lat="44.13857" lon="7.54873">
        <ele>1848</ele>
        <time>2021-11-15T08:40:32.706Z</time>
      </trkpt>
      <trkpt lat="44.13857" lon="7.54901">
        <ele>1850</ele>
        <time>2021-11-15T08:40:53.591Z</time>
      </trkpt>
      <trkpt lat="44.13871" lon="7.54913">
        <ele>1852</ele>
        <time>2021-11-15T08:41:14.479Z</time>
      </trkpt>
      <trkpt lat="44.13882" lon="7.54962">
        <ele>1853</ele>
        <time>2021-11-15T08:41:35.373Z</time>
      </trkpt>
      <trkpt lat="44.13889" lon="7.54975">
        <ele>1855</ele>
        <time>2021-11-15T08:41:56.269Z</time>
      </trkpt>
      <trkpt lat="44.13899" lon="7.54984">
        <ele>1857</ele>
        <time>2021-11-15T08:42:17.167Z</time>
      </trkpt>
      <trkpt lat="44.13963" lon="7.54995">
        <ele>1860</ele>
        <time>2021-11-15T08:42:38.075Z</time>
      </trkpt>
      <trkpt lat="44.14002" lon="7.54998">
        <ele>1862</ele>
        <time>2021-11-15T08:42:58.989Z</time>
      </trkpt>
      <trkpt lat="44.1408" lon="7.55044">
        <ele>1864</ele>
        <time>2021-11-15T08:43:19.917Z</time>
      </trkpt>
      <trkpt lat="44.14101" lon="7.55061">
        <ele>1867</ele>
        <time>2021-11-15T08:43:40.849Z</time>
      </trkpt>
      <trkpt lat="44.14123" lon="7.55063">
        <ele>1869</ele>
        <time>2021-11-15T08:44:01.784Z</time>
      </trkpt>
      <trkpt lat="44.14149" lon="7.55049">
        <ele>1872</ele>
        <time>2021-11-15T08:44:22.724Z</time>
      </trkpt>
      <trkpt lat="44.14182" lon="7.55047">
        <ele>1874</ele>
        <time>2021-11-15T08:44:43.669Z</time>
      </trkpt>
      <trkpt lat="44.14233" lon="7.5507">
        <ele>1876</ele>
        <time>2021-11-15T08:45:04.623Z</time>
      </trkpt>
      <trkpt lat="44.14301" lon="7.55066">
        <ele>1879</ele>
        <time>2021-11-15T08:45:25.588Z</time>
      </trkpt>
      <trkpt lat="44.14309" lon="7.55072">
        <ele>1881</ele>
        <time>2021-11-15T08:45:46.554Z</time>
      </trkpt>
      <trkpt lat="44.14326" lon="7.55109">
        <ele>1882</ele>
        <time>2021-11-15T08:46:07.525Z</time>
      </trkpt>
      <trkpt lat="44.14338" lon="7.5512">
        <ele>1884</ele>
        <time>2021-11-15T08:46:28.498Z</time>
      </trkpt>
      <trkpt lat="44.14365" lon="7.55136">
        <ele>1886</ele>
        <time>2021-11-15T08:46:49.476Z</time>
      </trkpt>
      <trkpt lat="44.14377" lon="7.55151">
        <ele>1888</ele>
        <time>2021-11-15T08:47:10.457Z</time>
      </trkpt>
      <trkpt lat="44.14408" lon="7.55237">
        <ele>1889</ele>
        <time>2021-11-15T08:47:31.449Z</time>
      </trkpt>
      <trkpt lat="44.14431" lon="7.55258">
        <ele>1892</ele>
        <time>2021-11-15T08:47:52.445Z</time>
      </trkpt>
      <trkpt lat="44.14434" lon="7.55265">
        <ele>1893</ele>
        <time>2021-11-15T08:48:13.442Z</time>
      </trkpt>
      <trkpt lat="44.14438" lon="7.55312">
        <ele>1894</ele>
        <time>2021-11-15T08:48:34.444Z</time>
      </trkpt>
      <trkpt lat="44.14444" lon="7.5532">
        <ele>1896</ele>
        <time>2021-11-15T08:48:55.448Z</time>
      </trkpt>
      <trkpt lat="44.14467" lon="7.55336">
        <ele>1898</ele>
        <time>2021-11-15T08:49:16.456Z</time>
      </trkpt>
      <trkpt lat="44.14478" lon="7.55349">
        <ele>1899</ele>
        <time>2021-11-15T08:49:37.466Z</time>
      </trkpt>
      <trkpt lat="44.14483" lon="7.55386">
        <ele>1900</ele>
        <time>2021-11-15T08:49:58.481Z</time>
      </trkpt>
      <trkpt lat="44.14478" lon="7.55415">
        <ele>1901</ele>
        <time>2021-11-15T08:50:19.499Z</time>
      </trkpt>
      <trkpt lat="44.14487" lon="7.55445">
        <ele>1902</ele>
        <time>2021-11-15T08:50:40.521Z</time>
      </trkpt>
      <trkpt lat="44.14483" lon="7.5547">
        <ele>1903</ele>
        <time>2021-11-15T08:51:01.546Z</time>
      </trkpt>
      <trkpt lat="44.14482" lon="7.55528">
        <ele>1904</ele>
        <time>2021-11-15T08:51:22.577Z</time>
      </trkpt>
      <trkpt lat="44.14483" lon="7.55541">
        <ele>1905</ele>
        <time>2021-11-15T08:51:43.610Z</time>
      </trkpt>
      <trkpt lat="44.14489" lon="7.55552">
        <ele>1906</ele>
        <time>2021-11-15T08:52:04.644Z</time>
      </trkpt>
      <trkpt lat="44.14522" lon="7.55567">
        <ele>1908</ele>
        <time>2021-11-15T08:52:25.684Z</time>
      </trkpt>
      <trkpt lat="44.14531" lon="7.55574">
        <ele>1909</ele>
        <time>2021-11-15T08:52:46.726Z</time>
      </trkpt>
      <trkpt lat="44.1454" lon="7.55582">
        <ele>1909</ele>
        <time>2021-11-15T08:53:07.769Z</time>
      </trkpt>
      <trkpt lat="44.14562" lon="7.55616">
        <ele>1910</ele>
        <time>2021-11-15T08:53:28.818Z</time>
      </trkpt>
      <trkpt lat="44.1457" lon="7.55623">
        <ele>1910</ele>
        <time>2021-11-15T08:53:49.868Z</time>
      </trkpt>
      <trkpt lat="44.14594" lon="7.55621">
        <ele>1911</ele>
        <time>2021-11-15T08:54:10.922Z</time>
      </trkpt>
      <trkpt lat="44.14613" lon="7.55631">
        <ele>1911</ele>
        <time>2021-11-15T08:54:31.979Z</time>
      </trkpt>
      <trkpt lat="44.14623" lon="7.55642">
        <ele>1911</ele>
        <time>2021-11-15T08:54:53.038Z</time>
      </trkpt>
      <trkpt lat="44.14629" lon="7.55673">
        <ele>1910</ele>
        <time>2021-11-15T08:55:14.101Z</time>
      </trkpt>
      <trkpt lat="44.14653" lon="7.55682">
        <ele>1910</ele>
        <time>2021-11-15T08:55:35.168Z</time>
      </trkpt>
      <trkpt lat="44.14681" lon="7.55683">
        <ele>1910</ele>
        <time>2021-11-15T08:55:56.239Z</time>
      </trkpt>
      <trkpt lat="44.1469" lon="7.55688">
        <ele>1909</ele>
        <time>2021-11-15T08:56:17.312Z</time>
      </trkpt>
      <trkpt lat="44.1473" lon="7.55734">
        <ele>1908</ele>
        <time>2021-11-15T08:56:38.393Z</time>
      </trkpt>
      <trkpt lat="44.14765" lon="7.55815">
        <ele>1907</ele>
        <time>2021-11-15T08:56:59.485Z</time>
      </trkpt>
      <trkpt lat="44.14802" lon="7.55861">
        <ele>1906</ele>
        <time>2021-11-15T08:57:20.585Z</time>
      </trkpt>
      <trkpt lat="44.14816" lon="7.55866">
        <ele>1904</ele>
        <time>2021-11-15T08:57:41.687Z</time>
      </trkpt>
      <trkpt lat="44.1484" lon="7.55865">
        <ele>1903</ele>
        <time>2021-11-15T08:58:02.793Z</time>
      </trkpt>
      <trkpt lat="44.14854" lon="7.55869">
        <ele>1901</ele>
        <time>2021-11-15T08:58:23.902Z</time>
      </trkpt>
      <trkpt lat="44.14918" lon="7.55907">
        <ele>1899</ele>
        <time>2021-11-15T08:58:45.022Z</time>
      </trkpt>
      <trkpt lat="44.14933" lon="7.55922">
        <ele>1897</ele>
        <time>2021-11-15T08:59:06.145Z</time>
      </trkpt>
      <trkpt lat="44.14939" lon="7.55936">
        <ele>1895</ele>
        <time>2021-11-15T08:59:27.270Z</time>
      </trkpt>
      <trkpt lat="44.14942" lon="7.5596">
        <ele>1893</ele>
        <time>2021-11-15T08:59:48.397Z</time>
      </trkpt>
      <trkpt lat="44.14936" lon="7.56027">
        <ele>1891</ele>
        <time>2021-11-15T09:00:09.532Z</time>
      </trkpt>
      <trkpt lat="44.14929" lon="7.56065">
        <ele>1889</ele>
        <time>2021-11-15T09:00:30.672Z</time>
      </trkpt>
      <trkpt lat="44.14919" lon="7.56085">
        <ele>1887</ele>
        <time>2021-11-15T09:00:51.814Z</time>
      </trkpt>
      <trkpt lat="44.14888" lon="7.56108">
        <ele>1885</ele>
        <time>2021-11-15T09:01:12.962Z</time>
      </trkpt>
      <trkpt lat="44.14884" lon="7.5612">
        <ele>1883</ele>
        <time>2021-11-15T09:01:34.112Z</time>
      </trkpt>
      <trkpt lat="44.14939" lon="7.56156">
        <ele>1881</ele>
        <time>2021-11-15T09:01:55.271Z</time>
      </trkpt>
      <trkpt lat="44.14955" lon="7.56172">
        <ele>1880</ele>
        <time>2021-11-15T09:02:16.434Z</time>
      </trkpt>
    </trkseg>
  </trk>
</gpx>